<?xml version="1.0" encoding="UTF-8" standalone="no" ?>
<gpx xmlns="http://www.topografix.com/GPX/1/1" xmlns:xsi="http://www.w3.org/2001/XMLSchema-instance" xsi:schemaLocation="http://www.topografix.com/GPX/1/1 http://www.topografix.com/GPX/1/1/gpx.xsd" version="1.1" creator="VisuGPX - https://www.visugpx.com">
  <metadata>
    <name>sortie vtt du 25 avril 2011 miribel</name>
    <desc><![CDATA[vtt 30 km environ]]></desc>
  </metadata>
  <trk>
    <name><![CDATA[SportyPalTrack]]></name>
    <desc><![CDATA[The track description]]></desc>
    <trkseg>
      <trkpt lat="45.19767" lon="5.11355">
        <ele>430.89999389648</ele>
        <time>2011-04-25T06:09:35Z</time>
      </trkpt>
      <trkpt lat="45.19767" lon="5.11355">
        <ele>430.89999389648</ele>
        <time>2011-04-25T06:09:38Z</time>
      </trkpt>
      <trkpt lat="45.19767" lon="5.11355">
        <ele>430.89999389648</ele>
        <time>2011-04-25T06:09:41Z</time>
      </trkpt>
      <trkpt lat="45.19767" lon="5.11355">
        <ele>430.89999389648</ele>
        <time>2011-04-25T06:09:44Z</time>
      </trkpt>
      <trkpt lat="45.19767" lon="5.11355">
        <ele>430.89999389648</ele>
        <time>2011-04-25T06:09:47Z</time>
      </trkpt>
      <trkpt lat="45.19767" lon="5.11355">
        <ele>430.89999389648</ele>
        <time>2011-04-25T06:09:50Z</time>
      </trkpt>
      <trkpt lat="45.19767" lon="5.11355">
        <ele>430.89999389648</ele>
        <time>2011-04-25T06:09:53Z</time>
      </trkpt>
      <trkpt lat="45.19767" lon="5.11355">
        <ele>430.89999389648</ele>
        <time>2011-04-25T06:09:56Z</time>
      </trkpt>
      <trkpt lat="45.19767" lon="5.11355">
        <ele>430.89999389648</ele>
        <time>2011-04-25T06:09:59Z</time>
      </trkpt>
      <trkpt lat="45.19766" lon="5.11355">
        <ele>431.10000610352</ele>
        <time>2011-04-25T06:10:03Z</time>
      </trkpt>
      <trkpt lat="45.19765" lon="5.11354">
        <ele>431.29998779297</ele>
        <time>2011-04-25T06:10:06Z</time>
      </trkpt>
      <trkpt lat="45.19764" lon="5.11354">
        <ele>431.20001220703</ele>
        <time>2011-04-25T06:10:09Z</time>
      </trkpt>
      <trkpt lat="45.19764" lon="5.11354">
        <ele>431.10000610352</ele>
        <time>2011-04-25T06:10:12Z</time>
      </trkpt>
      <trkpt lat="45.19764" lon="5.11354">
        <ele>431.20001220703</ele>
        <time>2011-04-25T06:10:15Z</time>
      </trkpt>
      <trkpt lat="45.19764" lon="5.11354">
        <ele>431.20001220703</ele>
        <time>2011-04-25T06:10:18Z</time>
      </trkpt>
      <trkpt lat="45.19764" lon="5.11354">
        <ele>431.20001220703</ele>
        <time>2011-04-25T06:10:21Z</time>
      </trkpt>
      <trkpt lat="45.19764" lon="5.11354">
        <ele>431.29998779297</ele>
        <time>2011-04-25T06:10:24Z</time>
      </trkpt>
      <trkpt lat="45.19764" lon="5.11354">
        <ele>431.29998779297</ele>
        <time>2011-04-25T06:10:27Z</time>
      </trkpt>
      <trkpt lat="45.19764" lon="5.11354">
        <ele>431.20001220703</ele>
        <time>2011-04-25T06:10:30Z</time>
      </trkpt>
      <trkpt lat="45.19764" lon="5.11354">
        <ele>431.20001220703</ele>
        <time>2011-04-25T06:10:33Z</time>
      </trkpt>
      <trkpt lat="45.19764" lon="5.11354">
        <ele>431.20001220703</ele>
        <time>2011-04-25T06:10:37Z</time>
      </trkpt>
      <trkpt lat="45.19764" lon="5.11354">
        <ele>431.20001220703</ele>
        <time>2011-04-25T06:10:40Z</time>
      </trkpt>
      <trkpt lat="45.19764" lon="5.11354">
        <ele>431.10000610352</ele>
        <time>2011-04-25T06:10:43Z</time>
      </trkpt>
      <trkpt lat="45.19764" lon="5.11354">
        <ele>431.20001220703</ele>
        <time>2011-04-25T06:10:46Z</time>
      </trkpt>
      <trkpt lat="45.19764" lon="5.11354">
        <ele>431.10000610352</ele>
        <time>2011-04-25T06:10:49Z</time>
      </trkpt>
      <trkpt lat="45.19764" lon="5.11354">
        <ele>431.10000610352</ele>
        <time>2011-04-25T06:10:52Z</time>
      </trkpt>
      <trkpt lat="45.19764" lon="5.11354">
        <ele>431</ele>
        <time>2011-04-25T06:10:55Z</time>
      </trkpt>
      <trkpt lat="45.19763" lon="5.11352">
        <ele>432.20001220703</ele>
        <time>2011-04-25T06:10:58Z</time>
      </trkpt>
      <trkpt lat="45.19763" lon="5.11351">
        <ele>431.89999389648</ele>
        <time>2011-04-25T06:11:01Z</time>
      </trkpt>
      <trkpt lat="45.19761" lon="5.11352">
        <ele>432.5</ele>
        <time>2011-04-25T06:11:04Z</time>
      </trkpt>
      <trkpt lat="45.1976" lon="5.11353">
        <ele>433.20001220703</ele>
        <time>2011-04-25T06:11:07Z</time>
      </trkpt>
      <trkpt lat="45.1976" lon="5.11352">
        <ele>433.20001220703</ele>
        <time>2011-04-25T06:11:11Z</time>
      </trkpt>
      <trkpt lat="45.1976" lon="5.11352">
        <ele>433.20001220703</ele>
        <time>2011-04-25T06:11:14Z</time>
      </trkpt>
      <trkpt lat="45.19761" lon="5.11354">
        <ele>435.39999389648</ele>
        <time>2011-04-25T06:11:17Z</time>
      </trkpt>
      <trkpt lat="45.19761" lon="5.11353">
        <ele>435.29998779297</ele>
        <time>2011-04-25T06:11:20Z</time>
      </trkpt>
      <trkpt lat="45.19761" lon="5.11353">
        <ele>435.29998779297</ele>
        <time>2011-04-25T06:11:23Z</time>
      </trkpt>
      <trkpt lat="45.1976" lon="5.11353">
        <ele>435.20001220703</ele>
        <time>2011-04-25T06:11:26Z</time>
      </trkpt>
      <trkpt lat="45.1976" lon="5.11353">
        <ele>434.89999389648</ele>
        <time>2011-04-25T06:11:29Z</time>
      </trkpt>
      <trkpt lat="45.19759" lon="5.11352">
        <ele>434.79998779297</ele>
        <time>2011-04-25T06:11:32Z</time>
      </trkpt>
      <trkpt lat="45.1976" lon="5.11352">
        <ele>434.70001220703</ele>
        <time>2011-04-25T06:11:35Z</time>
      </trkpt>
      <trkpt lat="45.1976" lon="5.11352">
        <ele>434.70001220703</ele>
        <time>2011-04-25T06:11:38Z</time>
      </trkpt>
      <trkpt lat="45.1976" lon="5.11352">
        <ele>434.79998779297</ele>
        <time>2011-04-25T06:11:41Z</time>
      </trkpt>
      <trkpt lat="45.19759" lon="5.11352">
        <ele>434.79998779297</ele>
        <time>2011-04-25T06:11:45Z</time>
      </trkpt>
      <trkpt lat="45.19759" lon="5.11352">
        <ele>434.79998779297</ele>
        <time>2011-04-25T06:11:48Z</time>
      </trkpt>
      <trkpt lat="45.19759" lon="5.11352">
        <ele>434.79998779297</ele>
        <time>2011-04-25T06:11:51Z</time>
      </trkpt>
      <trkpt lat="45.19759" lon="5.11352">
        <ele>434.79998779297</ele>
        <time>2011-04-25T06:11:54Z</time>
      </trkpt>
      <trkpt lat="45.19759" lon="5.11352">
        <ele>434.79998779297</ele>
        <time>2011-04-25T06:11:57Z</time>
      </trkpt>
      <trkpt lat="45.19759" lon="5.11352">
        <ele>434.79998779297</ele>
        <time>2011-04-25T06:12:00Z</time>
      </trkpt>
      <trkpt lat="45.19759" lon="5.11352">
        <ele>434.79998779297</ele>
        <time>2011-04-25T06:12:03Z</time>
      </trkpt>
      <trkpt lat="45.1976" lon="5.11352">
        <ele>434.70001220703</ele>
        <time>2011-04-25T06:12:06Z</time>
      </trkpt>
      <trkpt lat="45.19759" lon="5.11352">
        <ele>434.79998779297</ele>
        <time>2011-04-25T06:12:09Z</time>
      </trkpt>
      <trkpt lat="45.1976" lon="5.11352">
        <ele>434.79998779297</ele>
        <time>2011-04-25T06:12:12Z</time>
      </trkpt>
      <trkpt lat="45.1976" lon="5.11352">
        <ele>434.79998779297</ele>
        <time>2011-04-25T06:12:15Z</time>
      </trkpt>
      <trkpt lat="45.1976" lon="5.11352">
        <ele>434.89999389648</ele>
        <time>2011-04-25T06:12:19Z</time>
      </trkpt>
      <trkpt lat="45.1976" lon="5.11352">
        <ele>434.89999389648</ele>
        <time>2011-04-25T06:12:22Z</time>
      </trkpt>
      <trkpt lat="45.19759" lon="5.11352">
        <ele>434.89999389648</ele>
        <time>2011-04-25T06:12:25Z</time>
      </trkpt>
      <trkpt lat="45.1976" lon="5.11352">
        <ele>434.89999389648</ele>
        <time>2011-04-25T06:12:28Z</time>
      </trkpt>
      <trkpt lat="45.1976" lon="5.11352">
        <ele>434.89999389648</ele>
        <time>2011-04-25T06:12:31Z</time>
      </trkpt>
      <trkpt lat="45.1976" lon="5.11352">
        <ele>435</ele>
        <time>2011-04-25T06:12:34Z</time>
      </trkpt>
      <trkpt lat="45.19759" lon="5.11352">
        <ele>435</ele>
        <time>2011-04-25T06:12:37Z</time>
      </trkpt>
      <trkpt lat="45.19759" lon="5.11352">
        <ele>435</ele>
        <time>2011-04-25T06:12:40Z</time>
      </trkpt>
      <trkpt lat="45.19759" lon="5.11352">
        <ele>434.89999389648</ele>
        <time>2011-04-25T06:12:43Z</time>
      </trkpt>
      <trkpt lat="45.19759" lon="5.11352">
        <ele>434.89999389648</ele>
        <time>2011-04-25T06:12:46Z</time>
      </trkpt>
      <trkpt lat="45.19759" lon="5.11352">
        <ele>434.89999389648</ele>
        <time>2011-04-25T06:12:49Z</time>
      </trkpt>
      <trkpt lat="45.19759" lon="5.11352">
        <ele>434.89999389648</ele>
        <time>2011-04-25T06:12:53Z</time>
      </trkpt>
      <trkpt lat="45.19759" lon="5.11352">
        <ele>434.89999389648</ele>
        <time>2011-04-25T06:12:56Z</time>
      </trkpt>
      <trkpt lat="45.19759" lon="5.11352">
        <ele>434.79998779297</ele>
        <time>2011-04-25T06:12:59Z</time>
      </trkpt>
      <trkpt lat="45.19759" lon="5.11352">
        <ele>434.79998779297</ele>
        <time>2011-04-25T06:13:02Z</time>
      </trkpt>
      <trkpt lat="45.19759" lon="5.11352">
        <ele>434.79998779297</ele>
        <time>2011-04-25T06:13:05Z</time>
      </trkpt>
      <trkpt lat="45.19756" lon="5.11361">
        <ele>434.60000610352</ele>
        <time>2011-04-25T06:13:08Z</time>
      </trkpt>
      <trkpt lat="45.19749" lon="5.11378">
        <ele>434.60000610352</ele>
        <time>2011-04-25T06:13:11Z</time>
      </trkpt>
      <trkpt lat="45.1974" lon="5.11395">
        <ele>434.39999389648</ele>
        <time>2011-04-25T06:13:14Z</time>
      </trkpt>
      <trkpt lat="45.19727" lon="5.1142">
        <ele>434.10000610352</ele>
        <time>2011-04-25T06:13:17Z</time>
      </trkpt>
      <trkpt lat="45.19711" lon="5.11442">
        <ele>434.10000610352</ele>
        <time>2011-04-25T06:13:20Z</time>
      </trkpt>
      <trkpt lat="45.19696" lon="5.11465">
        <ele>432.70001220703</ele>
        <time>2011-04-25T06:13:23Z</time>
      </trkpt>
      <trkpt lat="45.19695" lon="5.11496">
        <ele>431.29998779297</ele>
        <time>2011-04-25T06:13:27Z</time>
      </trkpt>
      <trkpt lat="45.19703" lon="5.11525">
        <ele>431.29998779297</ele>
        <time>2011-04-25T06:13:30Z</time>
      </trkpt>
      <trkpt lat="45.19712" lon="5.11549">
        <ele>431.29998779297</ele>
        <time>2011-04-25T06:13:33Z</time>
      </trkpt>
      <trkpt lat="45.19714" lon="5.11568">
        <ele>430.89999389648</ele>
        <time>2011-04-25T06:13:36Z</time>
      </trkpt>
      <trkpt lat="45.19718" lon="5.11582">
        <ele>430.79998779297</ele>
        <time>2011-04-25T06:13:39Z</time>
      </trkpt>
      <trkpt lat="45.19718" lon="5.11596">
        <ele>431</ele>
        <time>2011-04-25T06:13:42Z</time>
      </trkpt>
      <trkpt lat="45.19712" lon="5.11608">
        <ele>430.39999389648</ele>
        <time>2011-04-25T06:13:45Z</time>
      </trkpt>
      <trkpt lat="45.19686" lon="5.1162">
        <ele>429.70001220703</ele>
        <time>2011-04-25T06:13:48Z</time>
      </trkpt>
      <trkpt lat="45.19653" lon="5.11645">
        <ele>427.79998779297</ele>
        <time>2011-04-25T06:13:51Z</time>
      </trkpt>
      <trkpt lat="45.19626" lon="5.11666">
        <ele>426.70001220703</ele>
        <time>2011-04-25T06:13:54Z</time>
      </trkpt>
      <trkpt lat="45.19611" lon="5.11691">
        <ele>426.10000610352</ele>
        <time>2011-04-25T06:13:57Z</time>
      </trkpt>
      <trkpt lat="45.19591" lon="5.11717">
        <ele>424.79998779297</ele>
        <time>2011-04-25T06:14:01Z</time>
      </trkpt>
      <trkpt lat="45.19584" lon="5.11738">
        <ele>424.20001220703</ele>
        <time>2011-04-25T06:14:04Z</time>
      </trkpt>
      <trkpt lat="45.19581" lon="5.11756">
        <ele>423.79998779297</ele>
        <time>2011-04-25T06:14:07Z</time>
      </trkpt>
      <trkpt lat="45.19583" lon="5.11778">
        <ele>423.39999389648</ele>
        <time>2011-04-25T06:14:10Z</time>
      </trkpt>
      <trkpt lat="45.19585" lon="5.11804">
        <ele>421.70001220703</ele>
        <time>2011-04-25T06:14:13Z</time>
      </trkpt>
      <trkpt lat="45.19588" lon="5.11834">
        <ele>421.29998779297</ele>
        <time>2011-04-25T06:14:16Z</time>
      </trkpt>
      <trkpt lat="45.19589" lon="5.11866">
        <ele>421</ele>
        <time>2011-04-25T06:14:19Z</time>
      </trkpt>
      <trkpt lat="45.19592" lon="5.11894">
        <ele>421.5</ele>
        <time>2011-04-25T06:14:22Z</time>
      </trkpt>
      <trkpt lat="45.19595" lon="5.11922">
        <ele>421</ele>
        <time>2011-04-25T06:14:25Z</time>
      </trkpt>
      <trkpt lat="45.19596" lon="5.11953">
        <ele>421.5</ele>
        <time>2011-04-25T06:14:28Z</time>
      </trkpt>
      <trkpt lat="45.19596" lon="5.11976">
        <ele>421.39999389648</ele>
        <time>2011-04-25T06:14:31Z</time>
      </trkpt>
      <trkpt lat="45.19585" lon="5.11999">
        <ele>420.29998779297</ele>
        <time>2011-04-25T06:14:35Z</time>
      </trkpt>
      <trkpt lat="45.1958" lon="5.12016">
        <ele>420.29998779297</ele>
        <time>2011-04-25T06:14:38Z</time>
      </trkpt>
      <trkpt lat="45.19575" lon="5.12033">
        <ele>420.29998779297</ele>
        <time>2011-04-25T06:14:41Z</time>
      </trkpt>
      <trkpt lat="45.1957" lon="5.12053">
        <ele>419.39999389648</ele>
        <time>2011-04-25T06:14:44Z</time>
      </trkpt>
      <trkpt lat="45.19565" lon="5.12055">
        <ele>417.39999389648</ele>
        <time>2011-04-25T06:14:47Z</time>
      </trkpt>
      <trkpt lat="45.19555" lon="5.12056">
        <ele>417.70001220703</ele>
        <time>2011-04-25T06:14:50Z</time>
      </trkpt>
      <trkpt lat="45.19544" lon="5.12049">
        <ele>417.20001220703</ele>
        <time>2011-04-25T06:14:53Z</time>
      </trkpt>
      <trkpt lat="45.19528" lon="5.12039">
        <ele>415.5</ele>
        <time>2011-04-25T06:14:56Z</time>
      </trkpt>
      <trkpt lat="45.19508" lon="5.12028">
        <ele>414.10000610352</ele>
        <time>2011-04-25T06:14:59Z</time>
      </trkpt>
      <trkpt lat="45.19487" lon="5.12026">
        <ele>413.20001220703</ele>
        <time>2011-04-25T06:15:02Z</time>
      </trkpt>
      <trkpt lat="45.19465" lon="5.12029">
        <ele>411.60000610352</ele>
        <time>2011-04-25T06:15:05Z</time>
      </trkpt>
      <trkpt lat="45.19443" lon="5.1203">
        <ele>409.60000610352</ele>
        <time>2011-04-25T06:15:09Z</time>
      </trkpt>
      <trkpt lat="45.1943" lon="5.12021">
        <ele>409.29998779297</ele>
        <time>2011-04-25T06:15:12Z</time>
      </trkpt>
      <trkpt lat="45.19412" lon="5.12001">
        <ele>408.89999389648</ele>
        <time>2011-04-25T06:15:15Z</time>
      </trkpt>
      <trkpt lat="45.19395" lon="5.11982">
        <ele>407.79998779297</ele>
        <time>2011-04-25T06:15:18Z</time>
      </trkpt>
      <trkpt lat="45.19379" lon="5.11974">
        <ele>407.60000610352</ele>
        <time>2011-04-25T06:15:21Z</time>
      </trkpt>
      <trkpt lat="45.1937" lon="5.11972">
        <ele>408.29998779297</ele>
        <time>2011-04-25T06:15:24Z</time>
      </trkpt>
      <trkpt lat="45.19364" lon="5.11969">
        <ele>408.39999389648</ele>
        <time>2011-04-25T06:15:27Z</time>
      </trkpt>
      <trkpt lat="45.19357" lon="5.11966">
        <ele>407.89999389648</ele>
        <time>2011-04-25T06:15:30Z</time>
      </trkpt>
      <trkpt lat="45.19353" lon="5.11967">
        <ele>407.39999389648</ele>
        <time>2011-04-25T06:15:33Z</time>
      </trkpt>
      <trkpt lat="45.19347" lon="5.11966">
        <ele>406.10000610352</ele>
        <time>2011-04-25T06:15:36Z</time>
      </trkpt>
      <trkpt lat="45.19343" lon="5.11966">
        <ele>406.60000610352</ele>
        <time>2011-04-25T06:15:39Z</time>
      </trkpt>
      <trkpt lat="45.19334" lon="5.11967">
        <ele>405.20001220703</ele>
        <time>2011-04-25T06:15:43Z</time>
      </trkpt>
      <trkpt lat="45.19328" lon="5.11967">
        <ele>405</ele>
        <time>2011-04-25T06:15:46Z</time>
      </trkpt>
      <trkpt lat="45.19322" lon="5.11967">
        <ele>405</ele>
        <time>2011-04-25T06:15:49Z</time>
      </trkpt>
      <trkpt lat="45.19321" lon="5.11967">
        <ele>405.5</ele>
        <time>2011-04-25T06:15:52Z</time>
      </trkpt>
      <trkpt lat="45.1932" lon="5.11966">
        <ele>405.29998779297</ele>
        <time>2011-04-25T06:15:55Z</time>
      </trkpt>
      <trkpt lat="45.19319" lon="5.11966">
        <ele>404.39999389648</ele>
        <time>2011-04-25T06:15:58Z</time>
      </trkpt>
      <trkpt lat="45.19314" lon="5.11969">
        <ele>406.79998779297</ele>
        <time>2011-04-25T06:16:01Z</time>
      </trkpt>
      <trkpt lat="45.19303" lon="5.11968">
        <ele>408.70001220703</ele>
        <time>2011-04-25T06:16:04Z</time>
      </trkpt>
      <trkpt lat="45.19294" lon="5.11969">
        <ele>409.29998779297</ele>
        <time>2011-04-25T06:16:07Z</time>
      </trkpt>
      <trkpt lat="45.19285" lon="5.11972">
        <ele>409.39999389648</ele>
        <time>2011-04-25T06:16:10Z</time>
      </trkpt>
      <trkpt lat="45.1928" lon="5.11974">
        <ele>408.89999389648</ele>
        <time>2011-04-25T06:16:13Z</time>
      </trkpt>
      <trkpt lat="45.19272" lon="5.11976">
        <ele>408.70001220703</ele>
        <time>2011-04-25T06:16:17Z</time>
      </trkpt>
      <trkpt lat="45.19266" lon="5.11979">
        <ele>409.60000610352</ele>
        <time>2011-04-25T06:16:20Z</time>
      </trkpt>
      <trkpt lat="45.19263" lon="5.11977">
        <ele>409.29998779297</ele>
        <time>2011-04-25T06:16:23Z</time>
      </trkpt>
      <trkpt lat="45.19263" lon="5.11975">
        <ele>409</ele>
        <time>2011-04-25T06:16:26Z</time>
      </trkpt>
      <trkpt lat="45.19264" lon="5.11975">
        <ele>408.79998779297</ele>
        <time>2011-04-25T06:16:29Z</time>
      </trkpt>
      <trkpt lat="45.19263" lon="5.11979">
        <ele>409.89999389648</ele>
        <time>2011-04-25T06:16:32Z</time>
      </trkpt>
      <trkpt lat="45.19264" lon="5.1198">
        <ele>410.89999389648</ele>
        <time>2011-04-25T06:16:35Z</time>
      </trkpt>
      <trkpt lat="45.19262" lon="5.1198">
        <ele>411.79998779297</ele>
        <time>2011-04-25T06:16:38Z</time>
      </trkpt>
      <trkpt lat="45.19259" lon="5.1198">
        <ele>412.10000610352</ele>
        <time>2011-04-25T06:16:41Z</time>
      </trkpt>
      <trkpt lat="45.19255" lon="5.11984">
        <ele>412</ele>
        <time>2011-04-25T06:16:44Z</time>
      </trkpt>
      <trkpt lat="45.19251" lon="5.11987">
        <ele>412.79998779297</ele>
        <time>2011-04-25T06:16:47Z</time>
      </trkpt>
      <trkpt lat="45.19242" lon="5.11992">
        <ele>414.20001220703</ele>
        <time>2011-04-25T06:16:51Z</time>
      </trkpt>
      <trkpt lat="45.19237" lon="5.11996">
        <ele>415.5</ele>
        <time>2011-04-25T06:16:54Z</time>
      </trkpt>
      <trkpt lat="45.1923" lon="5.11998">
        <ele>416.60000610352</ele>
        <time>2011-04-25T06:16:57Z</time>
      </trkpt>
      <trkpt lat="45.19224" lon="5.12">
        <ele>418</ele>
        <time>2011-04-25T06:17:00Z</time>
      </trkpt>
      <trkpt lat="45.19218" lon="5.11999">
        <ele>418.79998779297</ele>
        <time>2011-04-25T06:17:03Z</time>
      </trkpt>
      <trkpt lat="45.19212" lon="5.12">
        <ele>420.60000610352</ele>
        <time>2011-04-25T06:17:06Z</time>
      </trkpt>
      <trkpt lat="45.19207" lon="5.12001">
        <ele>422.79998779297</ele>
        <time>2011-04-25T06:17:09Z</time>
      </trkpt>
      <trkpt lat="45.19203" lon="5.12004">
        <ele>422.79998779297</ele>
        <time>2011-04-25T06:17:12Z</time>
      </trkpt>
      <trkpt lat="45.19199" lon="5.12007">
        <ele>423.5</ele>
        <time>2011-04-25T06:17:15Z</time>
      </trkpt>
      <trkpt lat="45.19196" lon="5.12012">
        <ele>423.39999389648</ele>
        <time>2011-04-25T06:17:18Z</time>
      </trkpt>
      <trkpt lat="45.19193" lon="5.12016">
        <ele>425</ele>
        <time>2011-04-25T06:17:21Z</time>
      </trkpt>
      <trkpt lat="45.1919" lon="5.12023">
        <ele>425.60000610352</ele>
        <time>2011-04-25T06:17:25Z</time>
      </trkpt>
      <trkpt lat="45.19186" lon="5.12028">
        <ele>426.29998779297</ele>
        <time>2011-04-25T06:17:28Z</time>
      </trkpt>
      <trkpt lat="45.19184" lon="5.12031">
        <ele>427.10000610352</ele>
        <time>2011-04-25T06:17:31Z</time>
      </trkpt>
      <trkpt lat="45.19183" lon="5.12033">
        <ele>426.79998779297</ele>
        <time>2011-04-25T06:17:34Z</time>
      </trkpt>
      <trkpt lat="45.19182" lon="5.12036">
        <ele>426.70001220703</ele>
        <time>2011-04-25T06:17:37Z</time>
      </trkpt>
      <trkpt lat="45.19182" lon="5.12035">
        <ele>427.10000610352</ele>
        <time>2011-04-25T06:17:40Z</time>
      </trkpt>
      <trkpt lat="45.19177" lon="5.12042">
        <ele>427.70001220703</ele>
        <time>2011-04-25T06:17:43Z</time>
      </trkpt>
      <trkpt lat="45.19176" lon="5.12046">
        <ele>427.39999389648</ele>
        <time>2011-04-25T06:17:46Z</time>
      </trkpt>
      <trkpt lat="45.19173" lon="5.12051">
        <ele>426.89999389648</ele>
        <time>2011-04-25T06:17:49Z</time>
      </trkpt>
      <trkpt lat="45.1917" lon="5.12059">
        <ele>428.89999389648</ele>
        <time>2011-04-25T06:17:52Z</time>
      </trkpt>
      <trkpt lat="45.19167" lon="5.12068">
        <ele>429.39999389648</ele>
        <time>2011-04-25T06:17:55Z</time>
      </trkpt>
      <trkpt lat="45.19163" lon="5.12075">
        <ele>429.39999389648</ele>
        <time>2011-04-25T06:17:59Z</time>
      </trkpt>
      <trkpt lat="45.1916" lon="5.12077">
        <ele>429.70001220703</ele>
        <time>2011-04-25T06:18:02Z</time>
      </trkpt>
      <trkpt lat="45.19158" lon="5.12081">
        <ele>429.5</ele>
        <time>2011-04-25T06:18:05Z</time>
      </trkpt>
      <trkpt lat="45.19156" lon="5.12086">
        <ele>431.20001220703</ele>
        <time>2011-04-25T06:18:08Z</time>
      </trkpt>
      <trkpt lat="45.19153" lon="5.12093">
        <ele>431.5</ele>
        <time>2011-04-25T06:18:11Z</time>
      </trkpt>
      <trkpt lat="45.19151" lon="5.12098">
        <ele>431.10000610352</ele>
        <time>2011-04-25T06:18:14Z</time>
      </trkpt>
      <trkpt lat="45.19148" lon="5.12104">
        <ele>431.5</ele>
        <time>2011-04-25T06:18:17Z</time>
      </trkpt>
      <trkpt lat="45.19147" lon="5.12107">
        <ele>431.79998779297</ele>
        <time>2011-04-25T06:18:20Z</time>
      </trkpt>
      <trkpt lat="45.19144" lon="5.12113">
        <ele>432.89999389648</ele>
        <time>2011-04-25T06:18:23Z</time>
      </trkpt>
      <trkpt lat="45.1914" lon="5.12115">
        <ele>432.89999389648</ele>
        <time>2011-04-25T06:18:26Z</time>
      </trkpt>
      <trkpt lat="45.19137" lon="5.12117">
        <ele>433</ele>
        <time>2011-04-25T06:18:29Z</time>
      </trkpt>
      <trkpt lat="45.19134" lon="5.12122">
        <ele>433.10000610352</ele>
        <time>2011-04-25T06:18:33Z</time>
      </trkpt>
      <trkpt lat="45.19131" lon="5.12125">
        <ele>433.70001220703</ele>
        <time>2011-04-25T06:18:36Z</time>
      </trkpt>
      <trkpt lat="45.19129" lon="5.12131">
        <ele>433.79998779297</ele>
        <time>2011-04-25T06:18:39Z</time>
      </trkpt>
      <trkpt lat="45.19128" lon="5.12135">
        <ele>433.70001220703</ele>
        <time>2011-04-25T06:18:42Z</time>
      </trkpt>
      <trkpt lat="45.19124" lon="5.12133">
        <ele>432.89999389648</ele>
        <time>2011-04-25T06:18:45Z</time>
      </trkpt>
      <trkpt lat="45.19121" lon="5.12141">
        <ele>433</ele>
        <time>2011-04-25T06:18:48Z</time>
      </trkpt>
      <trkpt lat="45.1912" lon="5.12143">
        <ele>434</ele>
        <time>2011-04-25T06:18:51Z</time>
      </trkpt>
      <trkpt lat="45.1912" lon="5.12146">
        <ele>433.89999389648</ele>
        <time>2011-04-25T06:18:54Z</time>
      </trkpt>
      <trkpt lat="45.19118" lon="5.12152">
        <ele>433.70001220703</ele>
        <time>2011-04-25T06:18:57Z</time>
      </trkpt>
      <trkpt lat="45.19117" lon="5.12154">
        <ele>433.70001220703</ele>
        <time>2011-04-25T06:19:00Z</time>
      </trkpt>
      <trkpt lat="45.19115" lon="5.12161">
        <ele>433.89999389648</ele>
        <time>2011-04-25T06:19:03Z</time>
      </trkpt>
      <trkpt lat="45.19112" lon="5.12166">
        <ele>433.29998779297</ele>
        <time>2011-04-25T06:19:07Z</time>
      </trkpt>
      <trkpt lat="45.1911" lon="5.12172">
        <ele>433.60000610352</ele>
        <time>2011-04-25T06:19:10Z</time>
      </trkpt>
      <trkpt lat="45.19107" lon="5.12181">
        <ele>433.60000610352</ele>
        <time>2011-04-25T06:19:13Z</time>
      </trkpt>
      <trkpt lat="45.19104" lon="5.12188">
        <ele>434</ele>
        <time>2011-04-25T06:19:16Z</time>
      </trkpt>
      <trkpt lat="45.19104" lon="5.12197">
        <ele>435</ele>
        <time>2011-04-25T06:19:19Z</time>
      </trkpt>
      <trkpt lat="45.191" lon="5.12201">
        <ele>435.20001220703</ele>
        <time>2011-04-25T06:19:22Z</time>
      </trkpt>
      <trkpt lat="45.19097" lon="5.12213">
        <ele>435.29998779297</ele>
        <time>2011-04-25T06:19:25Z</time>
      </trkpt>
      <trkpt lat="45.19096" lon="5.12219">
        <ele>435.5</ele>
        <time>2011-04-25T06:19:28Z</time>
      </trkpt>
      <trkpt lat="45.19095" lon="5.12221">
        <ele>435.60000610352</ele>
        <time>2011-04-25T06:19:31Z</time>
      </trkpt>
      <trkpt lat="45.19089" lon="5.12234">
        <ele>438</ele>
        <time>2011-04-25T06:19:34Z</time>
      </trkpt>
      <trkpt lat="45.19084" lon="5.12243">
        <ele>440.20001220703</ele>
        <time>2011-04-25T06:19:37Z</time>
      </trkpt>
      <trkpt lat="45.19078" lon="5.12248">
        <ele>439.5</ele>
        <time>2011-04-25T06:19:41Z</time>
      </trkpt>
      <trkpt lat="45.19075" lon="5.12251">
        <ele>440.60000610352</ele>
        <time>2011-04-25T06:19:44Z</time>
      </trkpt>
      <trkpt lat="45.19072" lon="5.12253">
        <ele>442</ele>
        <time>2011-04-25T06:19:47Z</time>
      </trkpt>
      <trkpt lat="45.19069" lon="5.12254">
        <ele>442.79998779297</ele>
        <time>2011-04-25T06:19:50Z</time>
      </trkpt>
      <trkpt lat="45.19067" lon="5.12253">
        <ele>444.20001220703</ele>
        <time>2011-04-25T06:19:53Z</time>
      </trkpt>
      <trkpt lat="45.19065" lon="5.12258">
        <ele>444.20001220703</ele>
        <time>2011-04-25T06:19:56Z</time>
      </trkpt>
      <trkpt lat="45.1906" lon="5.12261">
        <ele>444.60000610352</ele>
        <time>2011-04-25T06:19:59Z</time>
      </trkpt>
      <trkpt lat="45.19058" lon="5.12261">
        <ele>444.70001220703</ele>
        <time>2011-04-25T06:20:02Z</time>
      </trkpt>
      <trkpt lat="45.19055" lon="5.12261">
        <ele>445</ele>
        <time>2011-04-25T06:20:05Z</time>
      </trkpt>
      <trkpt lat="45.19051" lon="5.12256">
        <ele>445.39999389648</ele>
        <time>2011-04-25T06:20:08Z</time>
      </trkpt>
      <trkpt lat="45.19046" lon="5.12257">
        <ele>446.10000610352</ele>
        <time>2011-04-25T06:20:11Z</time>
      </trkpt>
      <trkpt lat="45.19044" lon="5.1226">
        <ele>446.10000610352</ele>
        <time>2011-04-25T06:20:15Z</time>
      </trkpt>
      <trkpt lat="45.19038" lon="5.1226">
        <ele>446.29998779297</ele>
        <time>2011-04-25T06:20:18Z</time>
      </trkpt>
      <trkpt lat="45.19033" lon="5.1226">
        <ele>446.5</ele>
        <time>2011-04-25T06:20:21Z</time>
      </trkpt>
      <trkpt lat="45.19029" lon="5.12261">
        <ele>447.60000610352</ele>
        <time>2011-04-25T06:20:24Z</time>
      </trkpt>
      <trkpt lat="45.19022" lon="5.12258">
        <ele>448.79998779297</ele>
        <time>2011-04-25T06:20:27Z</time>
      </trkpt>
      <trkpt lat="45.19019" lon="5.1226">
        <ele>449.20001220703</ele>
        <time>2011-04-25T06:20:30Z</time>
      </trkpt>
      <trkpt lat="45.19014" lon="5.12263">
        <ele>449.70001220703</ele>
        <time>2011-04-25T06:20:33Z</time>
      </trkpt>
      <trkpt lat="45.1901" lon="5.12266">
        <ele>449.89999389648</ele>
        <time>2011-04-25T06:20:36Z</time>
      </trkpt>
      <trkpt lat="45.19002" lon="5.12262">
        <ele>450.39999389648</ele>
        <time>2011-04-25T06:20:39Z</time>
      </trkpt>
      <trkpt lat="45.18998" lon="5.12263">
        <ele>451.79998779297</ele>
        <time>2011-04-25T06:20:42Z</time>
      </trkpt>
      <trkpt lat="45.18995" lon="5.12266">
        <ele>452.79998779297</ele>
        <time>2011-04-25T06:20:45Z</time>
      </trkpt>
      <trkpt lat="45.1899" lon="5.12266">
        <ele>453.70001220703</ele>
        <time>2011-04-25T06:20:49Z</time>
      </trkpt>
      <trkpt lat="45.18986" lon="5.12269">
        <ele>454.39999389648</ele>
        <time>2011-04-25T06:20:52Z</time>
      </trkpt>
      <trkpt lat="45.18985" lon="5.12273">
        <ele>456</ele>
        <time>2011-04-25T06:20:55Z</time>
      </trkpt>
      <trkpt lat="45.18981" lon="5.12274">
        <ele>456</ele>
        <time>2011-04-25T06:20:58Z</time>
      </trkpt>
      <trkpt lat="45.18979" lon="5.12281">
        <ele>456</ele>
        <time>2011-04-25T06:21:01Z</time>
      </trkpt>
      <trkpt lat="45.18977" lon="5.12284">
        <ele>456.10000610352</ele>
        <time>2011-04-25T06:21:04Z</time>
      </trkpt>
      <trkpt lat="45.18972" lon="5.12291">
        <ele>455.89999389648</ele>
        <time>2011-04-25T06:21:07Z</time>
      </trkpt>
      <trkpt lat="45.18968" lon="5.12297">
        <ele>456.20001220703</ele>
        <time>2011-04-25T06:21:10Z</time>
      </trkpt>
      <trkpt lat="45.18964" lon="5.12303">
        <ele>456.29998779297</ele>
        <time>2011-04-25T06:21:13Z</time>
      </trkpt>
      <trkpt lat="45.18957" lon="5.12305">
        <ele>456.29998779297</ele>
        <time>2011-04-25T06:21:16Z</time>
      </trkpt>
      <trkpt lat="45.18953" lon="5.12308">
        <ele>456.29998779297</ele>
        <time>2011-04-25T06:21:19Z</time>
      </trkpt>
      <trkpt lat="45.18943" lon="5.12309">
        <ele>458.10000610352</ele>
        <time>2011-04-25T06:21:23Z</time>
      </trkpt>
      <trkpt lat="45.18938" lon="5.12313">
        <ele>460.29998779297</ele>
        <time>2011-04-25T06:21:26Z</time>
      </trkpt>
      <trkpt lat="45.18935" lon="5.12317">
        <ele>460.79998779297</ele>
        <time>2011-04-25T06:21:29Z</time>
      </trkpt>
      <trkpt lat="45.18935" lon="5.12316">
        <ele>462</ele>
        <time>2011-04-25T06:21:32Z</time>
      </trkpt>
      <trkpt lat="45.18932" lon="5.12321">
        <ele>462.89999389648</ele>
        <time>2011-04-25T06:21:35Z</time>
      </trkpt>
      <trkpt lat="45.1893" lon="5.12326">
        <ele>463.10000610352</ele>
        <time>2011-04-25T06:21:38Z</time>
      </trkpt>
      <trkpt lat="45.18931" lon="5.12333">
        <ele>464</ele>
        <time>2011-04-25T06:21:41Z</time>
      </trkpt>
      <trkpt lat="45.18931" lon="5.12339">
        <ele>465.10000610352</ele>
        <time>2011-04-25T06:21:44Z</time>
      </trkpt>
      <trkpt lat="45.18927" lon="5.1235">
        <ele>466.10000610352</ele>
        <time>2011-04-25T06:21:47Z</time>
      </trkpt>
      <trkpt lat="45.18928" lon="5.12356">
        <ele>466.10000610352</ele>
        <time>2011-04-25T06:21:50Z</time>
      </trkpt>
      <trkpt lat="45.1893" lon="5.12357">
        <ele>465.5</ele>
        <time>2011-04-25T06:21:53Z</time>
      </trkpt>
      <trkpt lat="45.1893" lon="5.12367">
        <ele>464.79998779297</ele>
        <time>2011-04-25T06:21:57Z</time>
      </trkpt>
      <trkpt lat="45.1893" lon="5.12372">
        <ele>464.39999389648</ele>
        <time>2011-04-25T06:22:00Z</time>
      </trkpt>
      <trkpt lat="45.18932" lon="5.12376">
        <ele>467.29998779297</ele>
        <time>2011-04-25T06:22:03Z</time>
      </trkpt>
      <trkpt lat="45.18937" lon="5.12378">
        <ele>468.39999389648</ele>
        <time>2011-04-25T06:22:06Z</time>
      </trkpt>
      <trkpt lat="45.18938" lon="5.12379">
        <ele>469.89999389648</ele>
        <time>2011-04-25T06:22:09Z</time>
      </trkpt>
      <trkpt lat="45.1894" lon="5.1238">
        <ele>471.79998779297</ele>
        <time>2011-04-25T06:22:12Z</time>
      </trkpt>
      <trkpt lat="45.1894" lon="5.12392">
        <ele>472.10000610352</ele>
        <time>2011-04-25T06:22:15Z</time>
      </trkpt>
      <trkpt lat="45.18941" lon="5.12394">
        <ele>472.70001220703</ele>
        <time>2011-04-25T06:22:18Z</time>
      </trkpt>
      <trkpt lat="45.18942" lon="5.12399">
        <ele>473.10000610352</ele>
        <time>2011-04-25T06:22:21Z</time>
      </trkpt>
      <trkpt lat="45.18944" lon="5.12404">
        <ele>473.10000610352</ele>
        <time>2011-04-25T06:22:24Z</time>
      </trkpt>
      <trkpt lat="45.18946" lon="5.12408">
        <ele>473.20001220703</ele>
        <time>2011-04-25T06:22:27Z</time>
      </trkpt>
      <trkpt lat="45.18948" lon="5.12414">
        <ele>474</ele>
        <time>2011-04-25T06:22:31Z</time>
      </trkpt>
      <trkpt lat="45.18949" lon="5.12416">
        <ele>474.29998779297</ele>
        <time>2011-04-25T06:22:34Z</time>
      </trkpt>
      <trkpt lat="45.18951" lon="5.12425">
        <ele>474.10000610352</ele>
        <time>2011-04-25T06:22:37Z</time>
      </trkpt>
      <trkpt lat="45.18949" lon="5.12433">
        <ele>473.89999389648</ele>
        <time>2011-04-25T06:22:40Z</time>
      </trkpt>
      <trkpt lat="45.1895" lon="5.12437">
        <ele>474.60000610352</ele>
        <time>2011-04-25T06:22:43Z</time>
      </trkpt>
      <trkpt lat="45.18953" lon="5.12449">
        <ele>475.29998779297</ele>
        <time>2011-04-25T06:22:46Z</time>
      </trkpt>
      <trkpt lat="45.18954" lon="5.12451">
        <ele>475.89999389648</ele>
        <time>2011-04-25T06:22:49Z</time>
      </trkpt>
      <trkpt lat="45.18953" lon="5.12451">
        <ele>476.20001220703</ele>
        <time>2011-04-25T06:22:52Z</time>
      </trkpt>
      <trkpt lat="45.18953" lon="5.12452">
        <ele>476.60000610352</ele>
        <time>2011-04-25T06:22:55Z</time>
      </trkpt>
      <trkpt lat="45.18952" lon="5.12453">
        <ele>477.10000610352</ele>
        <time>2011-04-25T06:22:58Z</time>
      </trkpt>
      <trkpt lat="45.18952" lon="5.12452">
        <ele>477.10000610352</ele>
        <time>2011-04-25T06:23:01Z</time>
      </trkpt>
      <trkpt lat="45.18952" lon="5.12452">
        <ele>477.10000610352</ele>
        <time>2011-04-25T06:23:05Z</time>
      </trkpt>
      <trkpt lat="45.18952" lon="5.12452">
        <ele>477.10000610352</ele>
        <time>2011-04-25T06:23:08Z</time>
      </trkpt>
      <trkpt lat="45.18952" lon="5.12452">
        <ele>477.10000610352</ele>
        <time>2011-04-25T06:23:11Z</time>
      </trkpt>
      <trkpt lat="45.18955" lon="5.12468">
        <ele>478.10000610352</ele>
        <time>2011-04-25T06:23:14Z</time>
      </trkpt>
      <trkpt lat="45.18952" lon="5.12489">
        <ele>480.5</ele>
        <time>2011-04-25T06:23:17Z</time>
      </trkpt>
      <trkpt lat="45.18952" lon="5.12502">
        <ele>481</ele>
        <time>2011-04-25T06:23:20Z</time>
      </trkpt>
      <trkpt lat="45.18949" lon="5.12518">
        <ele>482.10000610352</ele>
        <time>2011-04-25T06:23:23Z</time>
      </trkpt>
      <trkpt lat="45.18947" lon="5.12524">
        <ele>482.5</ele>
        <time>2011-04-25T06:23:26Z</time>
      </trkpt>
      <trkpt lat="45.18945" lon="5.12537">
        <ele>483.39999389648</ele>
        <time>2011-04-25T06:23:29Z</time>
      </trkpt>
      <trkpt lat="45.18944" lon="5.12542">
        <ele>484.89999389648</ele>
        <time>2011-04-25T06:23:32Z</time>
      </trkpt>
      <trkpt lat="45.18942" lon="5.12546">
        <ele>485.5</ele>
        <time>2011-04-25T06:23:35Z</time>
      </trkpt>
      <trkpt lat="45.18943" lon="5.12556">
        <ele>485.60000610352</ele>
        <time>2011-04-25T06:23:39Z</time>
      </trkpt>
      <trkpt lat="45.1894" lon="5.12558">
        <ele>486.20001220703</ele>
        <time>2011-04-25T06:23:42Z</time>
      </trkpt>
      <trkpt lat="45.18936" lon="5.12571">
        <ele>487.29998779297</ele>
        <time>2011-04-25T06:23:45Z</time>
      </trkpt>
      <trkpt lat="45.18934" lon="5.12581">
        <ele>487.60000610352</ele>
        <time>2011-04-25T06:23:48Z</time>
      </trkpt>
      <trkpt lat="45.18932" lon="5.12585">
        <ele>487.89999389648</ele>
        <time>2011-04-25T06:23:51Z</time>
      </trkpt>
      <trkpt lat="45.18925" lon="5.12586">
        <ele>488.79998779297</ele>
        <time>2011-04-25T06:23:54Z</time>
      </trkpt>
      <trkpt lat="45.18924" lon="5.12593">
        <ele>490.39999389648</ele>
        <time>2011-04-25T06:23:57Z</time>
      </trkpt>
      <trkpt lat="45.18923" lon="5.12597">
        <ele>491.10000610352</ele>
        <time>2011-04-25T06:24:00Z</time>
      </trkpt>
      <trkpt lat="45.18924" lon="5.12604">
        <ele>492.10000610352</ele>
        <time>2011-04-25T06:24:03Z</time>
      </trkpt>
      <trkpt lat="45.18926" lon="5.12611">
        <ele>492.29998779297</ele>
        <time>2011-04-25T06:24:06Z</time>
      </trkpt>
      <trkpt lat="45.18923" lon="5.12614">
        <ele>494.10000610352</ele>
        <time>2011-04-25T06:24:09Z</time>
      </trkpt>
      <trkpt lat="45.1892" lon="5.12617">
        <ele>494.20001220703</ele>
        <time>2011-04-25T06:24:13Z</time>
      </trkpt>
      <trkpt lat="45.18921" lon="5.12623">
        <ele>494.39999389648</ele>
        <time>2011-04-25T06:24:16Z</time>
      </trkpt>
      <trkpt lat="45.18922" lon="5.12625">
        <ele>494.79998779297</ele>
        <time>2011-04-25T06:24:19Z</time>
      </trkpt>
      <trkpt lat="45.18921" lon="5.12626">
        <ele>494.70001220703</ele>
        <time>2011-04-25T06:24:22Z</time>
      </trkpt>
      <trkpt lat="45.1892" lon="5.12628">
        <ele>494.60000610352</ele>
        <time>2011-04-25T06:24:25Z</time>
      </trkpt>
      <trkpt lat="45.18919" lon="5.12635">
        <ele>495</ele>
        <time>2011-04-25T06:24:28Z</time>
      </trkpt>
      <trkpt lat="45.18919" lon="5.12638">
        <ele>495</ele>
        <time>2011-04-25T06:24:31Z</time>
      </trkpt>
      <trkpt lat="45.1892" lon="5.12642">
        <ele>495.20001220703</ele>
        <time>2011-04-25T06:24:34Z</time>
      </trkpt>
      <trkpt lat="45.18918" lon="5.12651">
        <ele>495.20001220703</ele>
        <time>2011-04-25T06:24:37Z</time>
      </trkpt>
      <trkpt lat="45.18913" lon="5.12659">
        <ele>496.29998779297</ele>
        <time>2011-04-25T06:24:40Z</time>
      </trkpt>
      <trkpt lat="45.18913" lon="5.12669">
        <ele>496.79998779297</ele>
        <time>2011-04-25T06:24:43Z</time>
      </trkpt>
      <trkpt lat="45.18908" lon="5.12685">
        <ele>499.89999389648</ele>
        <time>2011-04-25T06:24:47Z</time>
      </trkpt>
      <trkpt lat="45.18907" lon="5.1269">
        <ele>502.10000610352</ele>
        <time>2011-04-25T06:24:50Z</time>
      </trkpt>
      <trkpt lat="45.18902" lon="5.12694">
        <ele>503</ele>
        <time>2011-04-25T06:24:53Z</time>
      </trkpt>
      <trkpt lat="45.18901" lon="5.12696">
        <ele>504.39999389648</ele>
        <time>2011-04-25T06:24:56Z</time>
      </trkpt>
      <trkpt lat="45.18901" lon="5.12701">
        <ele>505.29998779297</ele>
        <time>2011-04-25T06:24:59Z</time>
      </trkpt>
      <trkpt lat="45.18898" lon="5.12706">
        <ele>505.70001220703</ele>
        <time>2011-04-25T06:25:02Z</time>
      </trkpt>
      <trkpt lat="45.18896" lon="5.12713">
        <ele>507</ele>
        <time>2011-04-25T06:25:05Z</time>
      </trkpt>
      <trkpt lat="45.18893" lon="5.12716">
        <ele>507.79998779297</ele>
        <time>2011-04-25T06:25:08Z</time>
      </trkpt>
      <trkpt lat="45.18892" lon="5.12722">
        <ele>508.60000610352</ele>
        <time>2011-04-25T06:25:11Z</time>
      </trkpt>
      <trkpt lat="45.18892" lon="5.12727">
        <ele>508.70001220703</ele>
        <time>2011-04-25T06:25:14Z</time>
      </trkpt>
      <trkpt lat="45.1889" lon="5.12736">
        <ele>510.39999389648</ele>
        <time>2011-04-25T06:25:17Z</time>
      </trkpt>
      <trkpt lat="45.18888" lon="5.12743">
        <ele>511.60000610352</ele>
        <time>2011-04-25T06:25:21Z</time>
      </trkpt>
      <trkpt lat="45.18888" lon="5.12749">
        <ele>516.5</ele>
        <time>2011-04-25T06:25:24Z</time>
      </trkpt>
      <trkpt lat="45.18886" lon="5.12747">
        <ele>516.59997558594</ele>
        <time>2011-04-25T06:25:27Z</time>
      </trkpt>
      <trkpt lat="45.18886" lon="5.12749">
        <ele>517.59997558594</ele>
        <time>2011-04-25T06:25:30Z</time>
      </trkpt>
      <trkpt lat="45.18886" lon="5.12748">
        <ele>519.09997558594</ele>
        <time>2011-04-25T06:25:33Z</time>
      </trkpt>
      <trkpt lat="45.18885" lon="5.12748">
        <ele>519.20001220703</ele>
        <time>2011-04-25T06:25:36Z</time>
      </trkpt>
      <trkpt lat="45.18885" lon="5.12748">
        <ele>519.20001220703</ele>
        <time>2011-04-25T06:25:39Z</time>
      </trkpt>
      <trkpt lat="45.18885" lon="5.12748">
        <ele>519.29998779297</ele>
        <time>2011-04-25T06:25:42Z</time>
      </trkpt>
      <trkpt lat="45.18885" lon="5.12748">
        <ele>519.29998779297</ele>
        <time>2011-04-25T06:25:45Z</time>
      </trkpt>
      <trkpt lat="45.18885" lon="5.12748">
        <ele>519.29998779297</ele>
        <time>2011-04-25T06:25:48Z</time>
      </trkpt>
      <trkpt lat="45.18885" lon="5.12748">
        <ele>519.29998779297</ele>
        <time>2011-04-25T06:25:51Z</time>
      </trkpt>
      <trkpt lat="45.18885" lon="5.12748">
        <ele>519.29998779297</ele>
        <time>2011-04-25T06:25:55Z</time>
      </trkpt>
      <trkpt lat="45.18885" lon="5.12748">
        <ele>519.29998779297</ele>
        <time>2011-04-25T06:25:58Z</time>
      </trkpt>
      <trkpt lat="45.18885" lon="5.12748">
        <ele>519.29998779297</ele>
        <time>2011-04-25T06:26:01Z</time>
      </trkpt>
      <trkpt lat="45.18885" lon="5.12748">
        <ele>519.29998779297</ele>
        <time>2011-04-25T06:26:04Z</time>
      </trkpt>
      <trkpt lat="45.18885" lon="5.12748">
        <ele>519.29998779297</ele>
        <time>2011-04-25T06:26:07Z</time>
      </trkpt>
      <trkpt lat="45.18885" lon="5.12748">
        <ele>519.29998779297</ele>
        <time>2011-04-25T06:26:10Z</time>
      </trkpt>
      <trkpt lat="45.18885" lon="5.12748">
        <ele>519.29998779297</ele>
        <time>2011-04-25T06:26:13Z</time>
      </trkpt>
      <trkpt lat="45.18885" lon="5.12748">
        <ele>519.29998779297</ele>
        <time>2011-04-25T06:26:16Z</time>
      </trkpt>
      <trkpt lat="45.18885" lon="5.12748">
        <ele>519.20001220703</ele>
        <time>2011-04-25T06:26:19Z</time>
      </trkpt>
      <trkpt lat="45.18885" lon="5.12748">
        <ele>519.20001220703</ele>
        <time>2011-04-25T06:26:22Z</time>
      </trkpt>
      <trkpt lat="45.18885" lon="5.12748">
        <ele>519.29998779297</ele>
        <time>2011-04-25T06:26:25Z</time>
      </trkpt>
      <trkpt lat="45.18885" lon="5.12748">
        <ele>519.20001220703</ele>
        <time>2011-04-25T06:26:29Z</time>
      </trkpt>
      <trkpt lat="45.18885" lon="5.12748">
        <ele>519.20001220703</ele>
        <time>2011-04-25T06:26:32Z</time>
      </trkpt>
      <trkpt lat="45.18885" lon="5.12748">
        <ele>519.20001220703</ele>
        <time>2011-04-25T06:26:35Z</time>
      </trkpt>
      <trkpt lat="45.18885" lon="5.12748">
        <ele>519.20001220703</ele>
        <time>2011-04-25T06:26:38Z</time>
      </trkpt>
      <trkpt lat="45.18885" lon="5.12748">
        <ele>519.20001220703</ele>
        <time>2011-04-25T06:26:41Z</time>
      </trkpt>
      <trkpt lat="45.18885" lon="5.12748">
        <ele>519.20001220703</ele>
        <time>2011-04-25T06:26:44Z</time>
      </trkpt>
      <trkpt lat="45.18885" lon="5.12748">
        <ele>519.20001220703</ele>
        <time>2011-04-25T06:26:47Z</time>
      </trkpt>
      <trkpt lat="45.18885" lon="5.12748">
        <ele>519.20001220703</ele>
        <time>2011-04-25T06:26:50Z</time>
      </trkpt>
      <trkpt lat="45.18885" lon="5.12748">
        <ele>519.20001220703</ele>
        <time>2011-04-25T06:26:53Z</time>
      </trkpt>
      <trkpt lat="45.18885" lon="5.12748">
        <ele>519.20001220703</ele>
        <time>2011-04-25T06:26:56Z</time>
      </trkpt>
      <trkpt lat="45.18885" lon="5.12748">
        <ele>519.20001220703</ele>
        <time>2011-04-25T06:26:59Z</time>
      </trkpt>
      <trkpt lat="45.18885" lon="5.12748">
        <ele>519.20001220703</ele>
        <time>2011-04-25T06:27:03Z</time>
      </trkpt>
      <trkpt lat="45.18885" lon="5.12748">
        <ele>519.20001220703</ele>
        <time>2011-04-25T06:27:06Z</time>
      </trkpt>
      <trkpt lat="45.18885" lon="5.12748">
        <ele>519.20001220703</ele>
        <time>2011-04-25T06:27:09Z</time>
      </trkpt>
      <trkpt lat="45.18885" lon="5.12748">
        <ele>519.20001220703</ele>
        <time>2011-04-25T06:27:12Z</time>
      </trkpt>
      <trkpt lat="45.18885" lon="5.12748">
        <ele>519.20001220703</ele>
        <time>2011-04-25T06:27:15Z</time>
      </trkpt>
      <trkpt lat="45.18885" lon="5.12748">
        <ele>519.20001220703</ele>
        <time>2011-04-25T06:27:18Z</time>
      </trkpt>
      <trkpt lat="45.18885" lon="5.12748">
        <ele>519.20001220703</ele>
        <time>2011-04-25T06:27:21Z</time>
      </trkpt>
      <trkpt lat="45.18885" lon="5.12748">
        <ele>519.20001220703</ele>
        <time>2011-04-25T06:27:24Z</time>
      </trkpt>
      <trkpt lat="45.18885" lon="5.12748">
        <ele>519.20001220703</ele>
        <time>2011-04-25T06:27:27Z</time>
      </trkpt>
      <trkpt lat="45.18885" lon="5.12748">
        <ele>519.09997558594</ele>
        <time>2011-04-25T06:27:30Z</time>
      </trkpt>
      <trkpt lat="45.18885" lon="5.12748">
        <ele>519.09997558594</ele>
        <time>2011-04-25T06:27:33Z</time>
      </trkpt>
      <trkpt lat="45.18885" lon="5.12748">
        <ele>519.09997558594</ele>
        <time>2011-04-25T06:27:37Z</time>
      </trkpt>
      <trkpt lat="45.18885" lon="5.12748">
        <ele>519.09997558594</ele>
        <time>2011-04-25T06:27:40Z</time>
      </trkpt>
      <trkpt lat="45.18885" lon="5.12748">
        <ele>519</ele>
        <time>2011-04-25T06:27:43Z</time>
      </trkpt>
      <trkpt lat="45.18885" lon="5.12748">
        <ele>519</ele>
        <time>2011-04-25T06:27:46Z</time>
      </trkpt>
      <trkpt lat="45.18885" lon="5.12748">
        <ele>519</ele>
        <time>2011-04-25T06:27:49Z</time>
      </trkpt>
      <trkpt lat="45.18885" lon="5.12748">
        <ele>519</ele>
        <time>2011-04-25T06:27:52Z</time>
      </trkpt>
      <trkpt lat="45.18885" lon="5.12748">
        <ele>519</ele>
        <time>2011-04-25T06:27:55Z</time>
      </trkpt>
      <trkpt lat="45.18885" lon="5.12748">
        <ele>519</ele>
        <time>2011-04-25T06:27:58Z</time>
      </trkpt>
      <trkpt lat="45.18885" lon="5.12748">
        <ele>519</ele>
        <time>2011-04-25T06:28:01Z</time>
      </trkpt>
      <trkpt lat="45.18885" lon="5.12748">
        <ele>519</ele>
        <time>2011-04-25T06:28:04Z</time>
      </trkpt>
      <trkpt lat="45.18885" lon="5.12748">
        <ele>519</ele>
        <time>2011-04-25T06:28:07Z</time>
      </trkpt>
      <trkpt lat="45.18885" lon="5.12748">
        <ele>519</ele>
        <time>2011-04-25T06:28:11Z</time>
      </trkpt>
      <trkpt lat="45.18885" lon="5.12748">
        <ele>519</ele>
        <time>2011-04-25T06:28:14Z</time>
      </trkpt>
      <trkpt lat="45.18885" lon="5.12749">
        <ele>519.09997558594</ele>
        <time>2011-04-25T06:28:17Z</time>
      </trkpt>
      <trkpt lat="45.18826" lon="5.12771">
        <ele>523.09997558594</ele>
        <time>2011-04-25T06:28:20Z</time>
      </trkpt>
      <trkpt lat="45.18788" lon="5.12785">
        <ele>523.59997558594</ele>
        <time>2011-04-25T06:28:26Z</time>
      </trkpt>
      <trkpt lat="45.18784" lon="5.12803">
        <ele>524.09997558594</ele>
        <time>2011-04-25T06:28:29Z</time>
      </trkpt>
      <trkpt lat="45.18768" lon="5.12846">
        <ele>523.79998779297</ele>
        <time>2011-04-25T06:28:38Z</time>
      </trkpt>
      <trkpt lat="45.18764" lon="5.12874">
        <ele>524.70001220703</ele>
        <time>2011-04-25T06:28:41Z</time>
      </trkpt>
      <trkpt lat="45.18752" lon="5.12893">
        <ele>524.59997558594</ele>
        <time>2011-04-25T06:28:45Z</time>
      </trkpt>
      <trkpt lat="45.18745" lon="5.12906">
        <ele>524.40002441406</ele>
        <time>2011-04-25T06:28:48Z</time>
      </trkpt>
      <trkpt lat="45.18733" lon="5.12909">
        <ele>523.79998779297</ele>
        <time>2011-04-25T06:28:51Z</time>
      </trkpt>
      <trkpt lat="45.18726" lon="5.12915">
        <ele>524.29998779297</ele>
        <time>2011-04-25T06:28:54Z</time>
      </trkpt>
      <trkpt lat="45.18718" lon="5.12914">
        <ele>524.79998779297</ele>
        <time>2011-04-25T06:28:57Z</time>
      </trkpt>
      <trkpt lat="45.18709" lon="5.12916">
        <ele>524.40002441406</ele>
        <time>2011-04-25T06:29:00Z</time>
      </trkpt>
      <trkpt lat="45.18703" lon="5.1292">
        <ele>524.20001220703</ele>
        <time>2011-04-25T06:29:03Z</time>
      </trkpt>
      <trkpt lat="45.18694" lon="5.12916">
        <ele>525.20001220703</ele>
        <time>2011-04-25T06:29:06Z</time>
      </trkpt>
      <trkpt lat="45.18685" lon="5.12914">
        <ele>525.70001220703</ele>
        <time>2011-04-25T06:29:09Z</time>
      </trkpt>
      <trkpt lat="45.18682" lon="5.12908">
        <ele>525.40002441406</ele>
        <time>2011-04-25T06:29:12Z</time>
      </trkpt>
      <trkpt lat="45.18528" lon="5.1271">
        <ele>528.90002441406</ele>
        <time>2011-04-25T06:30:30Z</time>
      </trkpt>
      <trkpt lat="45.18524" lon="5.12707">
        <ele>529.09997558594</ele>
        <time>2011-04-25T06:30:33Z</time>
      </trkpt>
      <trkpt lat="45.18516" lon="5.12699">
        <ele>529.59997558594</ele>
        <time>2011-04-25T06:30:36Z</time>
      </trkpt>
      <trkpt lat="45.1852" lon="5.12714">
        <ele>529.5</ele>
        <time>2011-04-25T06:30:39Z</time>
      </trkpt>
      <trkpt lat="45.18522" lon="5.12719">
        <ele>530.70001220703</ele>
        <time>2011-04-25T06:30:42Z</time>
      </trkpt>
      <trkpt lat="45.18528" lon="5.12735">
        <ele>530.29998779297</ele>
        <time>2011-04-25T06:30:45Z</time>
      </trkpt>
      <trkpt lat="45.18529" lon="5.1274">
        <ele>529.79998779297</ele>
        <time>2011-04-25T06:30:48Z</time>
      </trkpt>
      <trkpt lat="45.18531" lon="5.12754">
        <ele>528.5</ele>
        <time>2011-04-25T06:30:51Z</time>
      </trkpt>
      <trkpt lat="45.18531" lon="5.12761">
        <ele>526.59997558594</ele>
        <time>2011-04-25T06:30:54Z</time>
      </trkpt>
      <trkpt lat="45.18534" lon="5.12772">
        <ele>527.29998779297</ele>
        <time>2011-04-25T06:30:57Z</time>
      </trkpt>
      <trkpt lat="45.18541" lon="5.12782">
        <ele>527.5</ele>
        <time>2011-04-25T06:31:01Z</time>
      </trkpt>
      <trkpt lat="45.1854" lon="5.12795">
        <ele>527.59997558594</ele>
        <time>2011-04-25T06:31:04Z</time>
      </trkpt>
      <trkpt lat="45.18542" lon="5.12808">
        <ele>526.90002441406</ele>
        <time>2011-04-25T06:31:07Z</time>
      </trkpt>
      <trkpt lat="45.18543" lon="5.12819">
        <ele>527.09997558594</ele>
        <time>2011-04-25T06:31:10Z</time>
      </trkpt>
      <trkpt lat="45.18544" lon="5.12827">
        <ele>527.20001220703</ele>
        <time>2011-04-25T06:31:13Z</time>
      </trkpt>
      <trkpt lat="45.18541" lon="5.12841">
        <ele>527.20001220703</ele>
        <time>2011-04-25T06:31:16Z</time>
      </trkpt>
      <trkpt lat="45.18543" lon="5.12854">
        <ele>527.09997558594</ele>
        <time>2011-04-25T06:31:22Z</time>
      </trkpt>
      <trkpt lat="45.18543" lon="5.12858">
        <ele>527.79998779297</ele>
        <time>2011-04-25T06:31:25Z</time>
      </trkpt>
      <trkpt lat="45.1854" lon="5.12872">
        <ele>529</ele>
        <time>2011-04-25T06:31:28Z</time>
      </trkpt>
      <trkpt lat="45.1854" lon="5.12881">
        <ele>528.90002441406</ele>
        <time>2011-04-25T06:31:31Z</time>
      </trkpt>
      <trkpt lat="45.18536" lon="5.12886">
        <ele>529.70001220703</ele>
        <time>2011-04-25T06:31:35Z</time>
      </trkpt>
      <trkpt lat="45.18531" lon="5.12901">
        <ele>529.70001220703</ele>
        <time>2011-04-25T06:31:38Z</time>
      </trkpt>
      <trkpt lat="45.18499" lon="5.13097">
        <ele>537.29998779297</ele>
        <time>2011-04-25T06:32:39Z</time>
      </trkpt>
      <trkpt lat="45.18498" lon="5.13118">
        <ele>537.09997558594</ele>
        <time>2011-04-25T06:32:43Z</time>
      </trkpt>
      <trkpt lat="45.185" lon="5.13129">
        <ele>536.70001220703</ele>
        <time>2011-04-25T06:32:46Z</time>
      </trkpt>
      <trkpt lat="45.18498" lon="5.13143">
        <ele>536.09997558594</ele>
        <time>2011-04-25T06:32:49Z</time>
      </trkpt>
      <trkpt lat="45.18497" lon="5.13156">
        <ele>536</ele>
        <time>2011-04-25T06:32:52Z</time>
      </trkpt>
      <trkpt lat="45.18496" lon="5.13171">
        <ele>536.09997558594</ele>
        <time>2011-04-25T06:32:55Z</time>
      </trkpt>
      <trkpt lat="45.18495" lon="5.13182">
        <ele>535.79998779297</ele>
        <time>2011-04-25T06:32:58Z</time>
      </trkpt>
      <trkpt lat="45.18493" lon="5.13201">
        <ele>537.59997558594</ele>
        <time>2011-04-25T06:33:01Z</time>
      </trkpt>
      <trkpt lat="45.1838" lon="5.13451">
        <ele>541.70001220703</ele>
        <time>2011-04-25T06:34:09Z</time>
      </trkpt>
      <trkpt lat="45.18369" lon="5.13446">
        <ele>544.29998779297</ele>
        <time>2011-04-25T06:34:12Z</time>
      </trkpt>
      <trkpt lat="45.18344" lon="5.13467">
        <ele>553.79998779297</ele>
        <time>2011-04-25T06:34:15Z</time>
      </trkpt>
      <trkpt lat="45.1833" lon="5.1347">
        <ele>556.5</ele>
        <time>2011-04-25T06:34:18Z</time>
      </trkpt>
      <trkpt lat="45.18315" lon="5.13474">
        <ele>557.5</ele>
        <time>2011-04-25T06:34:21Z</time>
      </trkpt>
      <trkpt lat="45.18298" lon="5.13479">
        <ele>561.20001220703</ele>
        <time>2011-04-25T06:34:25Z</time>
      </trkpt>
      <trkpt lat="45.18288" lon="5.13479">
        <ele>560.90002441406</ele>
        <time>2011-04-25T06:34:28Z</time>
      </trkpt>
      <trkpt lat="45.18279" lon="5.13478">
        <ele>560.29998779297</ele>
        <time>2011-04-25T06:34:31Z</time>
      </trkpt>
      <trkpt lat="45.18269" lon="5.1348">
        <ele>561.5</ele>
        <time>2011-04-25T06:34:34Z</time>
      </trkpt>
      <trkpt lat="45.18262" lon="5.13485">
        <ele>561.70001220703</ele>
        <time>2011-04-25T06:34:37Z</time>
      </trkpt>
      <trkpt lat="45.18253" lon="5.13489">
        <ele>562.59997558594</ele>
        <time>2011-04-25T06:34:40Z</time>
      </trkpt>
      <trkpt lat="45.18243" lon="5.13493">
        <ele>563.40002441406</ele>
        <time>2011-04-25T06:34:43Z</time>
      </trkpt>
      <trkpt lat="45.18236" lon="5.13499">
        <ele>563.70001220703</ele>
        <time>2011-04-25T06:34:46Z</time>
      </trkpt>
      <trkpt lat="45.18228" lon="5.13503">
        <ele>564</ele>
        <time>2011-04-25T06:34:49Z</time>
      </trkpt>
      <trkpt lat="45.18222" lon="5.13508">
        <ele>563.79998779297</ele>
        <time>2011-04-25T06:34:52Z</time>
      </trkpt>
      <trkpt lat="45.18215" lon="5.13511">
        <ele>563.40002441406</ele>
        <time>2011-04-25T06:34:55Z</time>
      </trkpt>
      <trkpt lat="45.18207" lon="5.13506">
        <ele>563.59997558594</ele>
        <time>2011-04-25T06:34:59Z</time>
      </trkpt>
      <trkpt lat="45.18204" lon="5.13501">
        <ele>563.29998779297</ele>
        <time>2011-04-25T06:35:02Z</time>
      </trkpt>
      <trkpt lat="45.18197" lon="5.13496">
        <ele>562.90002441406</ele>
        <time>2011-04-25T06:35:05Z</time>
      </trkpt>
      <trkpt lat="45.18193" lon="5.13497">
        <ele>563.29998779297</ele>
        <time>2011-04-25T06:35:08Z</time>
      </trkpt>
      <trkpt lat="45.18186" lon="5.13492">
        <ele>563</ele>
        <time>2011-04-25T06:35:11Z</time>
      </trkpt>
      <trkpt lat="45.1818" lon="5.13489">
        <ele>563</ele>
        <time>2011-04-25T06:35:14Z</time>
      </trkpt>
      <trkpt lat="45.18174" lon="5.13486">
        <ele>563.09997558594</ele>
        <time>2011-04-25T06:35:17Z</time>
      </trkpt>
      <trkpt lat="45.18167" lon="5.13485">
        <ele>562.90002441406</ele>
        <time>2011-04-25T06:35:20Z</time>
      </trkpt>
      <trkpt lat="45.18162" lon="5.1348">
        <ele>563</ele>
        <time>2011-04-25T06:35:23Z</time>
      </trkpt>
      <trkpt lat="45.18157" lon="5.13474">
        <ele>563</ele>
        <time>2011-04-25T06:35:26Z</time>
      </trkpt>
      <trkpt lat="45.18153" lon="5.13468">
        <ele>563</ele>
        <time>2011-04-25T06:35:29Z</time>
      </trkpt>
      <trkpt lat="45.18145" lon="5.13458">
        <ele>562.90002441406</ele>
        <time>2011-04-25T06:35:33Z</time>
      </trkpt>
      <trkpt lat="45.1814" lon="5.13452">
        <ele>562.90002441406</ele>
        <time>2011-04-25T06:35:36Z</time>
      </trkpt>
      <trkpt lat="45.18132" lon="5.13439">
        <ele>562.90002441406</ele>
        <time>2011-04-25T06:35:39Z</time>
      </trkpt>
      <trkpt lat="45.18127" lon="5.13436">
        <ele>562.79998779297</ele>
        <time>2011-04-25T06:35:42Z</time>
      </trkpt>
      <trkpt lat="45.18123" lon="5.13426">
        <ele>562.79998779297</ele>
        <time>2011-04-25T06:35:45Z</time>
      </trkpt>
      <trkpt lat="45.18108" lon="5.13392">
        <ele>562.70001220703</ele>
        <time>2011-04-25T06:35:57Z</time>
      </trkpt>
      <trkpt lat="45.18106" lon="5.13381">
        <ele>562.70001220703</ele>
        <time>2011-04-25T06:36:00Z</time>
      </trkpt>
      <trkpt lat="45.181" lon="5.13359">
        <ele>562.70001220703</ele>
        <time>2011-04-25T06:36:03Z</time>
      </trkpt>
      <trkpt lat="45.18094" lon="5.13339">
        <ele>563</ele>
        <time>2011-04-25T06:36:07Z</time>
      </trkpt>
      <trkpt lat="45.18085" lon="5.1332">
        <ele>562.70001220703</ele>
        <time>2011-04-25T06:36:10Z</time>
      </trkpt>
      <trkpt lat="45.18079" lon="5.13298">
        <ele>562.59997558594</ele>
        <time>2011-04-25T06:36:13Z</time>
      </trkpt>
      <trkpt lat="45.18067" lon="5.13267">
        <ele>562</ele>
        <time>2011-04-25T06:36:16Z</time>
      </trkpt>
      <trkpt lat="45.18059" lon="5.13246">
        <ele>561.20001220703</ele>
        <time>2011-04-25T06:36:19Z</time>
      </trkpt>
      <trkpt lat="45.18055" lon="5.13227">
        <ele>561.20001220703</ele>
        <time>2011-04-25T06:36:22Z</time>
      </trkpt>
      <trkpt lat="45.1805" lon="5.13214">
        <ele>561.40002441406</ele>
        <time>2011-04-25T06:36:25Z</time>
      </trkpt>
      <trkpt lat="45.18045" lon="5.13198">
        <ele>561.59997558594</ele>
        <time>2011-04-25T06:36:28Z</time>
      </trkpt>
      <trkpt lat="45.18041" lon="5.13174">
        <ele>560.59997558594</ele>
        <time>2011-04-25T06:36:31Z</time>
      </trkpt>
      <trkpt lat="45.18041" lon="5.13149">
        <ele>560.40002441406</ele>
        <time>2011-04-25T06:36:34Z</time>
      </trkpt>
      <trkpt lat="45.1804" lon="5.13126">
        <ele>560.59997558594</ele>
        <time>2011-04-25T06:36:37Z</time>
      </trkpt>
      <trkpt lat="45.18034" lon="5.13087">
        <ele>562.90002441406</ele>
        <time>2011-04-25T06:36:41Z</time>
      </trkpt>
      <trkpt lat="45.18033" lon="5.13065">
        <ele>562.59997558594</ele>
        <time>2011-04-25T06:36:44Z</time>
      </trkpt>
      <trkpt lat="45.1803" lon="5.13038">
        <ele>563.29998779297</ele>
        <time>2011-04-25T06:36:47Z</time>
      </trkpt>
      <trkpt lat="45.18029" lon="5.13015">
        <ele>563.90002441406</ele>
        <time>2011-04-25T06:36:50Z</time>
      </trkpt>
      <trkpt lat="45.18028" lon="5.12989">
        <ele>562.90002441406</ele>
        <time>2011-04-25T06:36:53Z</time>
      </trkpt>
      <trkpt lat="45.18024" lon="5.12963">
        <ele>563.40002441406</ele>
        <time>2011-04-25T06:36:56Z</time>
      </trkpt>
      <trkpt lat="45.18018" lon="5.12938">
        <ele>563.90002441406</ele>
        <time>2011-04-25T06:36:59Z</time>
      </trkpt>
      <trkpt lat="45.18006" lon="5.12909">
        <ele>564</ele>
        <time>2011-04-25T06:37:02Z</time>
      </trkpt>
      <trkpt lat="45.17997" lon="5.12883">
        <ele>564</ele>
        <time>2011-04-25T06:37:05Z</time>
      </trkpt>
      <trkpt lat="45.17986" lon="5.12855">
        <ele>563.90002441406</ele>
        <time>2011-04-25T06:37:08Z</time>
      </trkpt>
      <trkpt lat="45.17975" lon="5.12829">
        <ele>564.20001220703</ele>
        <time>2011-04-25T06:37:11Z</time>
      </trkpt>
      <trkpt lat="45.17964" lon="5.12798">
        <ele>564.20001220703</ele>
        <time>2011-04-25T06:37:15Z</time>
      </trkpt>
      <trkpt lat="45.17952" lon="5.1277">
        <ele>564.20001220703</ele>
        <time>2011-04-25T06:37:18Z</time>
      </trkpt>
      <trkpt lat="45.17946" lon="5.12747">
        <ele>564</ele>
        <time>2011-04-25T06:37:21Z</time>
      </trkpt>
      <trkpt lat="45.17936" lon="5.12723">
        <ele>563.90002441406</ele>
        <time>2011-04-25T06:37:24Z</time>
      </trkpt>
      <trkpt lat="45.17929" lon="5.12705">
        <ele>563.79998779297</ele>
        <time>2011-04-25T06:37:27Z</time>
      </trkpt>
      <trkpt lat="45.17923" lon="5.12689">
        <ele>563.79998779297</ele>
        <time>2011-04-25T06:37:30Z</time>
      </trkpt>
      <trkpt lat="45.17915" lon="5.12667">
        <ele>563.59997558594</ele>
        <time>2011-04-25T06:37:33Z</time>
      </trkpt>
      <trkpt lat="45.17903" lon="5.12631">
        <ele>563.5</ele>
        <time>2011-04-25T06:37:39Z</time>
      </trkpt>
      <trkpt lat="45.17893" lon="5.12613">
        <ele>563.5</ele>
        <time>2011-04-25T06:37:42Z</time>
      </trkpt>
      <trkpt lat="45.17884" lon="5.1259">
        <ele>563.5</ele>
        <time>2011-04-25T06:37:45Z</time>
      </trkpt>
      <trkpt lat="45.17878" lon="5.12554">
        <ele>563.09997558594</ele>
        <time>2011-04-25T06:37:49Z</time>
      </trkpt>
      <trkpt lat="45.17869" lon="5.12521">
        <ele>562.70001220703</ele>
        <time>2011-04-25T06:37:52Z</time>
      </trkpt>
      <trkpt lat="45.1786" lon="5.12492">
        <ele>562.70001220703</ele>
        <time>2011-04-25T06:37:55Z</time>
      </trkpt>
      <trkpt lat="45.17852" lon="5.1246">
        <ele>562.5</ele>
        <time>2011-04-25T06:37:58Z</time>
      </trkpt>
      <trkpt lat="45.17844" lon="5.12428">
        <ele>562.40002441406</ele>
        <time>2011-04-25T06:38:01Z</time>
      </trkpt>
      <trkpt lat="45.17839" lon="5.124">
        <ele>561.79998779297</ele>
        <time>2011-04-25T06:38:04Z</time>
      </trkpt>
      <trkpt lat="45.17833" lon="5.12371">
        <ele>561.90002441406</ele>
        <time>2011-04-25T06:38:07Z</time>
      </trkpt>
      <trkpt lat="45.17826" lon="5.12344">
        <ele>561.79998779297</ele>
        <time>2011-04-25T06:38:10Z</time>
      </trkpt>
      <trkpt lat="45.17817" lon="5.12312">
        <ele>561.70001220703</ele>
        <time>2011-04-25T06:38:13Z</time>
      </trkpt>
      <trkpt lat="45.17807" lon="5.12289">
        <ele>561.5</ele>
        <time>2011-04-25T06:38:16Z</time>
      </trkpt>
      <trkpt lat="45.17797" lon="5.12265">
        <ele>561.79998779297</ele>
        <time>2011-04-25T06:38:19Z</time>
      </trkpt>
      <trkpt lat="45.17787" lon="5.12246">
        <ele>561.5</ele>
        <time>2011-04-25T06:38:23Z</time>
      </trkpt>
      <trkpt lat="45.17777" lon="5.12223">
        <ele>561.5</ele>
        <time>2011-04-25T06:38:26Z</time>
      </trkpt>
      <trkpt lat="45.17766" lon="5.12204">
        <ele>561.5</ele>
        <time>2011-04-25T06:38:29Z</time>
      </trkpt>
      <trkpt lat="45.17756" lon="5.12186">
        <ele>561.5</ele>
        <time>2011-04-25T06:38:32Z</time>
      </trkpt>
      <trkpt lat="45.17746" lon="5.12167">
        <ele>561.40002441406</ele>
        <time>2011-04-25T06:38:35Z</time>
      </trkpt>
      <trkpt lat="45.1772" lon="5.12136">
        <ele>561.20001220703</ele>
        <time>2011-04-25T06:38:41Z</time>
      </trkpt>
      <trkpt lat="45.17709" lon="5.12116">
        <ele>561.09997558594</ele>
        <time>2011-04-25T06:38:44Z</time>
      </trkpt>
      <trkpt lat="45.17696" lon="5.12092">
        <ele>561.09997558594</ele>
        <time>2011-04-25T06:38:47Z</time>
      </trkpt>
      <trkpt lat="45.17685" lon="5.12064">
        <ele>560.90002441406</ele>
        <time>2011-04-25T06:38:50Z</time>
      </trkpt>
      <trkpt lat="45.17664" lon="5.12012">
        <ele>560.40002441406</ele>
        <time>2011-04-25T06:38:57Z</time>
      </trkpt>
      <trkpt lat="45.17638" lon="5.11903">
        <ele>559.20001220703</ele>
        <time>2011-04-25T06:39:09Z</time>
      </trkpt>
      <trkpt lat="45.17635" lon="5.11878">
        <ele>559.09997558594</ele>
        <time>2011-04-25T06:39:12Z</time>
      </trkpt>
      <trkpt lat="45.17631" lon="5.11857">
        <ele>558.90002441406</ele>
        <time>2011-04-25T06:39:15Z</time>
      </trkpt>
      <trkpt lat="45.17632" lon="5.11838">
        <ele>558.59997558594</ele>
        <time>2011-04-25T06:39:18Z</time>
      </trkpt>
      <trkpt lat="45.17623" lon="5.1181">
        <ele>558.29998779297</ele>
        <time>2011-04-25T06:39:21Z</time>
      </trkpt>
      <trkpt lat="45.17621" lon="5.11789">
        <ele>558.20001220703</ele>
        <time>2011-04-25T06:39:24Z</time>
      </trkpt>
      <trkpt lat="45.17615" lon="5.11766">
        <ele>558.09997558594</ele>
        <time>2011-04-25T06:39:27Z</time>
      </trkpt>
      <trkpt lat="45.17595" lon="5.1175">
        <ele>555.40002441406</ele>
        <time>2011-04-25T06:39:31Z</time>
      </trkpt>
      <trkpt lat="45.17587" lon="5.11749">
        <ele>555.70001220703</ele>
        <time>2011-04-25T06:39:34Z</time>
      </trkpt>
      <trkpt lat="45.17575" lon="5.11754">
        <ele>554.20001220703</ele>
        <time>2011-04-25T06:39:37Z</time>
      </trkpt>
      <trkpt lat="45.17565" lon="5.11774">
        <ele>549.70001220703</ele>
        <time>2011-04-25T06:39:40Z</time>
      </trkpt>
      <trkpt lat="45.17553" lon="5.11799">
        <ele>547.29998779297</ele>
        <time>2011-04-25T06:39:43Z</time>
      </trkpt>
      <trkpt lat="45.17546" lon="5.11827">
        <ele>546.59997558594</ele>
        <time>2011-04-25T06:39:46Z</time>
      </trkpt>
      <trkpt lat="45.17536" lon="5.11855">
        <ele>546.70001220703</ele>
        <time>2011-04-25T06:39:49Z</time>
      </trkpt>
      <trkpt lat="45.1752" lon="5.11905">
        <ele>544.09997558594</ele>
        <time>2011-04-25T06:39:52Z</time>
      </trkpt>
      <trkpt lat="45.1751" lon="5.11941">
        <ele>542.79998779297</ele>
        <time>2011-04-25T06:39:55Z</time>
      </trkpt>
      <trkpt lat="45.175" lon="5.11973">
        <ele>541.90002441406</ele>
        <time>2011-04-25T06:39:58Z</time>
      </trkpt>
      <trkpt lat="45.17513" lon="5.12206">
        <ele>527.09997558594</ele>
        <time>2011-04-25T06:40:20Z</time>
      </trkpt>
      <trkpt lat="45.17495" lon="5.12243">
        <ele>523.90002441406</ele>
        <time>2011-04-25T06:40:23Z</time>
      </trkpt>
      <trkpt lat="45.17481" lon="5.12259">
        <ele>524.09997558594</ele>
        <time>2011-04-25T06:40:26Z</time>
      </trkpt>
      <trkpt lat="45.17452" lon="5.12265">
        <ele>521.20001220703</ele>
        <time>2011-04-25T06:40:29Z</time>
      </trkpt>
      <trkpt lat="45.17429" lon="5.1227">
        <ele>516.09997558594</ele>
        <time>2011-04-25T06:40:32Z</time>
      </trkpt>
      <trkpt lat="45.17407" lon="5.12283">
        <ele>514.40002441406</ele>
        <time>2011-04-25T06:40:35Z</time>
      </trkpt>
      <trkpt lat="45.17346" lon="5.12331">
        <ele>509.70001220703</ele>
        <time>2011-04-25T06:40:45Z</time>
      </trkpt>
      <trkpt lat="45.17326" lon="5.12345">
        <ele>508.79998779297</ele>
        <time>2011-04-25T06:40:48Z</time>
      </trkpt>
      <trkpt lat="45.17315" lon="5.12351">
        <ele>508.39999389648</ele>
        <time>2011-04-25T06:40:51Z</time>
      </trkpt>
      <trkpt lat="45.17314" lon="5.12347">
        <ele>508.20001220703</ele>
        <time>2011-04-25T06:40:54Z</time>
      </trkpt>
      <trkpt lat="45.17314" lon="5.12352">
        <ele>507.79998779297</ele>
        <time>2011-04-25T06:40:57Z</time>
      </trkpt>
      <trkpt lat="45.17312" lon="5.12358">
        <ele>507.89999389648</ele>
        <time>2011-04-25T06:41:00Z</time>
      </trkpt>
      <trkpt lat="45.17309" lon="5.12359">
        <ele>507.60000610352</ele>
        <time>2011-04-25T06:41:03Z</time>
      </trkpt>
      <trkpt lat="45.17307" lon="5.12363">
        <ele>507.39999389648</ele>
        <time>2011-04-25T06:41:06Z</time>
      </trkpt>
      <trkpt lat="45.17306" lon="5.12367">
        <ele>507.20001220703</ele>
        <time>2011-04-25T06:41:09Z</time>
      </trkpt>
      <trkpt lat="45.1731" lon="5.12374">
        <ele>507.10000610352</ele>
        <time>2011-04-25T06:41:13Z</time>
      </trkpt>
      <trkpt lat="45.173" lon="5.12378">
        <ele>506.70001220703</ele>
        <time>2011-04-25T06:41:16Z</time>
      </trkpt>
      <trkpt lat="45.17298" lon="5.12379">
        <ele>506.60000610352</ele>
        <time>2011-04-25T06:41:19Z</time>
      </trkpt>
      <trkpt lat="45.17294" lon="5.12379">
        <ele>506.29998779297</ele>
        <time>2011-04-25T06:41:22Z</time>
      </trkpt>
      <trkpt lat="45.17295" lon="5.12385">
        <ele>506.39999389648</ele>
        <time>2011-04-25T06:41:25Z</time>
      </trkpt>
      <trkpt lat="45.16958" lon="5.1295">
        <ele>527.70001220703</ele>
        <time>2011-04-25T06:48:50Z</time>
      </trkpt>
      <trkpt lat="45.16951" lon="5.12955">
        <ele>534.29998779297</ele>
        <time>2011-04-25T06:48:52Z</time>
      </trkpt>
      <trkpt lat="45.16952" lon="5.12948">
        <ele>541.20001220703</ele>
        <time>2011-04-25T06:48:55Z</time>
      </trkpt>
      <trkpt lat="45.1695" lon="5.12942">
        <ele>553.70001220703</ele>
        <time>2011-04-25T06:48:58Z</time>
      </trkpt>
      <trkpt lat="45.16951" lon="5.12944">
        <ele>552.90002441406</ele>
        <time>2011-04-25T06:49:00Z</time>
      </trkpt>
      <trkpt lat="45.16951" lon="5.12944">
        <ele>552.5</ele>
        <time>2011-04-25T06:49:04Z</time>
      </trkpt>
      <trkpt lat="45.16951" lon="5.12944">
        <ele>552.5</ele>
        <time>2011-04-25T06:49:07Z</time>
      </trkpt>
      <trkpt lat="45.16951" lon="5.12944">
        <ele>552.5</ele>
        <time>2011-04-25T06:49:11Z</time>
      </trkpt>
      <trkpt lat="45.16951" lon="5.12944">
        <ele>552.5</ele>
        <time>2011-04-25T06:49:14Z</time>
      </trkpt>
      <trkpt lat="45.16951" lon="5.12944">
        <ele>552.40002441406</ele>
        <time>2011-04-25T06:49:16Z</time>
      </trkpt>
      <trkpt lat="45.16951" lon="5.12944">
        <ele>552.40002441406</ele>
        <time>2011-04-25T06:49:19Z</time>
      </trkpt>
      <trkpt lat="45.16951" lon="5.12944">
        <ele>552.40002441406</ele>
        <time>2011-04-25T06:49:22Z</time>
      </trkpt>
      <trkpt lat="45.16951" lon="5.12944">
        <ele>552.40002441406</ele>
        <time>2011-04-25T06:49:25Z</time>
      </trkpt>
      <trkpt lat="45.16951" lon="5.12944">
        <ele>552.40002441406</ele>
        <time>2011-04-25T06:49:28Z</time>
      </trkpt>
      <trkpt lat="45.16951" lon="5.12944">
        <ele>552.40002441406</ele>
        <time>2011-04-25T06:49:31Z</time>
      </trkpt>
      <trkpt lat="45.16951" lon="5.12944">
        <ele>552.40002441406</ele>
        <time>2011-04-25T06:49:34Z</time>
      </trkpt>
      <trkpt lat="45.16951" lon="5.12944">
        <ele>552.40002441406</ele>
        <time>2011-04-25T06:49:37Z</time>
      </trkpt>
      <trkpt lat="45.16951" lon="5.12944">
        <ele>552.40002441406</ele>
        <time>2011-04-25T06:49:41Z</time>
      </trkpt>
      <trkpt lat="45.16951" lon="5.12944">
        <ele>552.40002441406</ele>
        <time>2011-04-25T06:49:44Z</time>
      </trkpt>
      <trkpt lat="45.16951" lon="5.12944">
        <ele>552.40002441406</ele>
        <time>2011-04-25T06:49:47Z</time>
      </trkpt>
      <trkpt lat="45.16951" lon="5.12945">
        <ele>552.40002441406</ele>
        <time>2011-04-25T06:49:50Z</time>
      </trkpt>
      <trkpt lat="45.16951" lon="5.12944">
        <ele>552.40002441406</ele>
        <time>2011-04-25T06:49:53Z</time>
      </trkpt>
      <trkpt lat="45.16951" lon="5.12944">
        <ele>552.40002441406</ele>
        <time>2011-04-25T06:49:56Z</time>
      </trkpt>
      <trkpt lat="45.16951" lon="5.12945">
        <ele>552.40002441406</ele>
        <time>2011-04-25T06:49:59Z</time>
      </trkpt>
      <trkpt lat="45.16951" lon="5.12945">
        <ele>552.40002441406</ele>
        <time>2011-04-25T06:50:02Z</time>
      </trkpt>
      <trkpt lat="45.16951" lon="5.12945">
        <ele>552.40002441406</ele>
        <time>2011-04-25T06:50:05Z</time>
      </trkpt>
      <trkpt lat="45.16951" lon="5.12945">
        <ele>552.40002441406</ele>
        <time>2011-04-25T06:50:08Z</time>
      </trkpt>
      <trkpt lat="45.16951" lon="5.12945">
        <ele>552.40002441406</ele>
        <time>2011-04-25T06:50:11Z</time>
      </trkpt>
      <trkpt lat="45.16951" lon="5.12945">
        <ele>552.40002441406</ele>
        <time>2011-04-25T06:50:15Z</time>
      </trkpt>
      <trkpt lat="45.16951" lon="5.12945">
        <ele>552.40002441406</ele>
        <time>2011-04-25T06:50:18Z</time>
      </trkpt>
      <trkpt lat="45.16951" lon="5.12945">
        <ele>552.40002441406</ele>
        <time>2011-04-25T06:50:21Z</time>
      </trkpt>
      <trkpt lat="45.16951" lon="5.12945">
        <ele>552.40002441406</ele>
        <time>2011-04-25T06:50:24Z</time>
      </trkpt>
      <trkpt lat="45.16951" lon="5.12945">
        <ele>552.40002441406</ele>
        <time>2011-04-25T06:50:27Z</time>
      </trkpt>
      <trkpt lat="45.16951" lon="5.12945">
        <ele>552.40002441406</ele>
        <time>2011-04-25T06:50:30Z</time>
      </trkpt>
      <trkpt lat="45.16951" lon="5.12945">
        <ele>552.40002441406</ele>
        <time>2011-04-25T06:50:33Z</time>
      </trkpt>
      <trkpt lat="45.16951" lon="5.12945">
        <ele>552.40002441406</ele>
        <time>2011-04-25T06:50:36Z</time>
      </trkpt>
      <trkpt lat="45.16951" lon="5.12945">
        <ele>552.40002441406</ele>
        <time>2011-04-25T06:50:39Z</time>
      </trkpt>
      <trkpt lat="45.16951" lon="5.12945">
        <ele>552.40002441406</ele>
        <time>2011-04-25T06:50:42Z</time>
      </trkpt>
      <trkpt lat="45.16951" lon="5.12945">
        <ele>552.40002441406</ele>
        <time>2011-04-25T06:50:45Z</time>
      </trkpt>
      <trkpt lat="45.16951" lon="5.12945">
        <ele>552.40002441406</ele>
        <time>2011-04-25T06:50:49Z</time>
      </trkpt>
      <trkpt lat="45.16951" lon="5.12945">
        <ele>552.40002441406</ele>
        <time>2011-04-25T06:50:52Z</time>
      </trkpt>
      <trkpt lat="45.16951" lon="5.12945">
        <ele>552.40002441406</ele>
        <time>2011-04-25T06:50:55Z</time>
      </trkpt>
      <trkpt lat="45.16951" lon="5.12945">
        <ele>552.40002441406</ele>
        <time>2011-04-25T06:50:58Z</time>
      </trkpt>
      <trkpt lat="45.16951" lon="5.12945">
        <ele>552.40002441406</ele>
        <time>2011-04-25T06:51:01Z</time>
      </trkpt>
      <trkpt lat="45.16951" lon="5.12945">
        <ele>552.40002441406</ele>
        <time>2011-04-25T06:51:04Z</time>
      </trkpt>
      <trkpt lat="45.16951" lon="5.12945">
        <ele>552.40002441406</ele>
        <time>2011-04-25T06:51:07Z</time>
      </trkpt>
      <trkpt lat="45.16951" lon="5.12945">
        <ele>552.40002441406</ele>
        <time>2011-04-25T06:51:10Z</time>
      </trkpt>
      <trkpt lat="45.16951" lon="5.12945">
        <ele>552.40002441406</ele>
        <time>2011-04-25T06:51:13Z</time>
      </trkpt>
      <trkpt lat="45.16951" lon="5.12945">
        <ele>552.40002441406</ele>
        <time>2011-04-25T06:51:16Z</time>
      </trkpt>
      <trkpt lat="45.16951" lon="5.12945">
        <ele>552.40002441406</ele>
        <time>2011-04-25T06:51:19Z</time>
      </trkpt>
      <trkpt lat="45.16951" lon="5.12945">
        <ele>552.40002441406</ele>
        <time>2011-04-25T06:51:23Z</time>
      </trkpt>
      <trkpt lat="45.16951" lon="5.12945">
        <ele>552.40002441406</ele>
        <time>2011-04-25T06:51:26Z</time>
      </trkpt>
      <trkpt lat="45.16951" lon="5.12945">
        <ele>552.40002441406</ele>
        <time>2011-04-25T06:51:29Z</time>
      </trkpt>
      <trkpt lat="45.16951" lon="5.12945">
        <ele>552.40002441406</ele>
        <time>2011-04-25T06:51:32Z</time>
      </trkpt>
      <trkpt lat="45.16951" lon="5.12945">
        <ele>552.40002441406</ele>
        <time>2011-04-25T06:51:35Z</time>
      </trkpt>
      <trkpt lat="45.16951" lon="5.12945">
        <ele>552.40002441406</ele>
        <time>2011-04-25T06:51:38Z</time>
      </trkpt>
      <trkpt lat="45.16951" lon="5.12945">
        <ele>552.40002441406</ele>
        <time>2011-04-25T06:51:41Z</time>
      </trkpt>
      <trkpt lat="45.16951" lon="5.12945">
        <ele>552.40002441406</ele>
        <time>2011-04-25T06:51:44Z</time>
      </trkpt>
      <trkpt lat="45.16951" lon="5.12945">
        <ele>552.40002441406</ele>
        <time>2011-04-25T06:51:47Z</time>
      </trkpt>
      <trkpt lat="45.16951" lon="5.12945">
        <ele>552.40002441406</ele>
        <time>2011-04-25T06:51:50Z</time>
      </trkpt>
      <trkpt lat="45.16951" lon="5.12945">
        <ele>552.40002441406</ele>
        <time>2011-04-25T06:51:53Z</time>
      </trkpt>
      <trkpt lat="45.16951" lon="5.12945">
        <ele>552.29998779297</ele>
        <time>2011-04-25T06:51:57Z</time>
      </trkpt>
      <trkpt lat="45.16951" lon="5.12945">
        <ele>552.29998779297</ele>
        <time>2011-04-25T06:52:00Z</time>
      </trkpt>
      <trkpt lat="45.16951" lon="5.12945">
        <ele>552.29998779297</ele>
        <time>2011-04-25T06:52:03Z</time>
      </trkpt>
      <trkpt lat="45.16951" lon="5.12945">
        <ele>552.29998779297</ele>
        <time>2011-04-25T06:52:06Z</time>
      </trkpt>
      <trkpt lat="45.16951" lon="5.12945">
        <ele>552.29998779297</ele>
        <time>2011-04-25T06:52:09Z</time>
      </trkpt>
      <trkpt lat="45.16951" lon="5.12945">
        <ele>552.29998779297</ele>
        <time>2011-04-25T06:52:12Z</time>
      </trkpt>
      <trkpt lat="45.16951" lon="5.12945">
        <ele>552.29998779297</ele>
        <time>2011-04-25T06:52:15Z</time>
      </trkpt>
      <trkpt lat="45.16951" lon="5.12945">
        <ele>552.29998779297</ele>
        <time>2011-04-25T06:52:18Z</time>
      </trkpt>
      <trkpt lat="45.16951" lon="5.12945">
        <ele>552.29998779297</ele>
        <time>2011-04-25T06:52:21Z</time>
      </trkpt>
      <trkpt lat="45.16951" lon="5.12945">
        <ele>552.29998779297</ele>
        <time>2011-04-25T06:52:24Z</time>
      </trkpt>
      <trkpt lat="45.16951" lon="5.12945">
        <ele>552.29998779297</ele>
        <time>2011-04-25T06:52:27Z</time>
      </trkpt>
      <trkpt lat="45.16951" lon="5.12945">
        <ele>552.29998779297</ele>
        <time>2011-04-25T06:52:31Z</time>
      </trkpt>
      <trkpt lat="45.16951" lon="5.12945">
        <ele>552.29998779297</ele>
        <time>2011-04-25T06:52:34Z</time>
      </trkpt>
      <trkpt lat="45.16951" lon="5.12945">
        <ele>552.29998779297</ele>
        <time>2011-04-25T06:52:37Z</time>
      </trkpt>
      <trkpt lat="45.16951" lon="5.12945">
        <ele>552.29998779297</ele>
        <time>2011-04-25T06:52:40Z</time>
      </trkpt>
      <trkpt lat="45.16951" lon="5.12945">
        <ele>552.29998779297</ele>
        <time>2011-04-25T06:52:43Z</time>
      </trkpt>
      <trkpt lat="45.16951" lon="5.12945">
        <ele>552.29998779297</ele>
        <time>2011-04-25T06:52:46Z</time>
      </trkpt>
      <trkpt lat="45.16951" lon="5.12945">
        <ele>552.29998779297</ele>
        <time>2011-04-25T06:52:49Z</time>
      </trkpt>
      <trkpt lat="45.16951" lon="5.12945">
        <ele>552.20001220703</ele>
        <time>2011-04-25T06:52:52Z</time>
      </trkpt>
      <trkpt lat="45.16951" lon="5.12945">
        <ele>552.20001220703</ele>
        <time>2011-04-25T06:52:55Z</time>
      </trkpt>
      <trkpt lat="45.16951" lon="5.12945">
        <ele>552.20001220703</ele>
        <time>2011-04-25T06:52:58Z</time>
      </trkpt>
      <trkpt lat="45.16951" lon="5.12945">
        <ele>552.20001220703</ele>
        <time>2011-04-25T06:53:01Z</time>
      </trkpt>
      <trkpt lat="45.16951" lon="5.12945">
        <ele>552.20001220703</ele>
        <time>2011-04-25T06:53:05Z</time>
      </trkpt>
      <trkpt lat="45.16951" lon="5.12945">
        <ele>552.20001220703</ele>
        <time>2011-04-25T06:53:08Z</time>
      </trkpt>
      <trkpt lat="45.16951" lon="5.12945">
        <ele>552.20001220703</ele>
        <time>2011-04-25T06:53:11Z</time>
      </trkpt>
      <trkpt lat="45.16951" lon="5.12945">
        <ele>552.20001220703</ele>
        <time>2011-04-25T06:53:14Z</time>
      </trkpt>
      <trkpt lat="45.16951" lon="5.12945">
        <ele>552.20001220703</ele>
        <time>2011-04-25T06:53:17Z</time>
      </trkpt>
      <trkpt lat="45.16951" lon="5.12945">
        <ele>552.20001220703</ele>
        <time>2011-04-25T06:53:20Z</time>
      </trkpt>
      <trkpt lat="45.16951" lon="5.12945">
        <ele>552.20001220703</ele>
        <time>2011-04-25T06:53:23Z</time>
      </trkpt>
      <trkpt lat="45.16951" lon="5.12945">
        <ele>552.20001220703</ele>
        <time>2011-04-25T06:53:26Z</time>
      </trkpt>
      <trkpt lat="45.16951" lon="5.12945">
        <ele>552.20001220703</ele>
        <time>2011-04-25T06:53:29Z</time>
      </trkpt>
      <trkpt lat="45.16951" lon="5.12945">
        <ele>552.20001220703</ele>
        <time>2011-04-25T06:53:32Z</time>
      </trkpt>
      <trkpt lat="45.16951" lon="5.12945">
        <ele>552.20001220703</ele>
        <time>2011-04-25T06:53:35Z</time>
      </trkpt>
      <trkpt lat="45.16951" lon="5.12945">
        <ele>552.20001220703</ele>
        <time>2011-04-25T06:53:39Z</time>
      </trkpt>
      <trkpt lat="45.16951" lon="5.12945">
        <ele>552.20001220703</ele>
        <time>2011-04-25T06:53:42Z</time>
      </trkpt>
      <trkpt lat="45.16951" lon="5.12945">
        <ele>552.20001220703</ele>
        <time>2011-04-25T06:53:45Z</time>
      </trkpt>
      <trkpt lat="45.16951" lon="5.12945">
        <ele>552.20001220703</ele>
        <time>2011-04-25T06:53:48Z</time>
      </trkpt>
      <trkpt lat="45.16951" lon="5.12945">
        <ele>552.20001220703</ele>
        <time>2011-04-25T06:53:51Z</time>
      </trkpt>
      <trkpt lat="45.16951" lon="5.12945">
        <ele>552.20001220703</ele>
        <time>2011-04-25T06:53:54Z</time>
      </trkpt>
      <trkpt lat="45.16951" lon="5.12945">
        <ele>552.20001220703</ele>
        <time>2011-04-25T06:53:57Z</time>
      </trkpt>
      <trkpt lat="45.16951" lon="5.12944">
        <ele>552.20001220703</ele>
        <time>2011-04-25T06:54:00Z</time>
      </trkpt>
      <trkpt lat="45.16952" lon="5.12933">
        <ele>553.40002441406</ele>
        <time>2011-04-25T06:54:03Z</time>
      </trkpt>
      <trkpt lat="45.16948" lon="5.12902">
        <ele>553.70001220703</ele>
        <time>2011-04-25T06:54:06Z</time>
      </trkpt>
      <trkpt lat="45.16945" lon="5.1288">
        <ele>553.40002441406</ele>
        <time>2011-04-25T06:54:09Z</time>
      </trkpt>
      <trkpt lat="45.1694" lon="5.12854">
        <ele>553.09997558594</ele>
        <time>2011-04-25T06:54:13Z</time>
      </trkpt>
      <trkpt lat="45.16932" lon="5.12834">
        <ele>553.09997558594</ele>
        <time>2011-04-25T06:54:16Z</time>
      </trkpt>
      <trkpt lat="45.16927" lon="5.1281">
        <ele>553</ele>
        <time>2011-04-25T06:54:19Z</time>
      </trkpt>
      <trkpt lat="45.16923" lon="5.12792">
        <ele>552.70001220703</ele>
        <time>2011-04-25T06:54:22Z</time>
      </trkpt>
      <trkpt lat="45.16921" lon="5.12782">
        <ele>552.5</ele>
        <time>2011-04-25T06:54:25Z</time>
      </trkpt>
      <trkpt lat="45.16918" lon="5.12767">
        <ele>552.20001220703</ele>
        <time>2011-04-25T06:54:28Z</time>
      </trkpt>
      <trkpt lat="45.16917" lon="5.12754">
        <ele>552</ele>
        <time>2011-04-25T06:54:31Z</time>
      </trkpt>
      <trkpt lat="45.16913" lon="5.12739">
        <ele>551.79998779297</ele>
        <time>2011-04-25T06:54:34Z</time>
      </trkpt>
      <trkpt lat="45.16912" lon="5.12724">
        <ele>551.5</ele>
        <time>2011-04-25T06:54:37Z</time>
      </trkpt>
      <trkpt lat="45.16907" lon="5.12705">
        <ele>551.5</ele>
        <time>2011-04-25T06:54:40Z</time>
      </trkpt>
      <trkpt lat="45.16905" lon="5.12687">
        <ele>551.20001220703</ele>
        <time>2011-04-25T06:54:43Z</time>
      </trkpt>
      <trkpt lat="45.16898" lon="5.12661">
        <ele>550.90002441406</ele>
        <time>2011-04-25T06:54:47Z</time>
      </trkpt>
      <trkpt lat="45.16893" lon="5.1264">
        <ele>551</ele>
        <time>2011-04-25T06:54:50Z</time>
      </trkpt>
      <trkpt lat="45.16898" lon="5.12626">
        <ele>550.29998779297</ele>
        <time>2011-04-25T06:54:53Z</time>
      </trkpt>
      <trkpt lat="45.16894" lon="5.12613">
        <ele>550.09997558594</ele>
        <time>2011-04-25T06:54:56Z</time>
      </trkpt>
      <trkpt lat="45.16898" lon="5.12596">
        <ele>549.90002441406</ele>
        <time>2011-04-25T06:54:59Z</time>
      </trkpt>
      <trkpt lat="45.16896" lon="5.12577">
        <ele>549.70001220703</ele>
        <time>2011-04-25T06:55:02Z</time>
      </trkpt>
      <trkpt lat="45.16893" lon="5.12552">
        <ele>549.5</ele>
        <time>2011-04-25T06:55:05Z</time>
      </trkpt>
      <trkpt lat="45.16886" lon="5.12521">
        <ele>549</ele>
        <time>2011-04-25T06:55:08Z</time>
      </trkpt>
      <trkpt lat="45.16882" lon="5.12495">
        <ele>547.90002441406</ele>
        <time>2011-04-25T06:55:11Z</time>
      </trkpt>
      <trkpt lat="45.16879" lon="5.1248">
        <ele>547.90002441406</ele>
        <time>2011-04-25T06:55:14Z</time>
      </trkpt>
      <trkpt lat="45.16878" lon="5.12466">
        <ele>547.70001220703</ele>
        <time>2011-04-25T06:55:17Z</time>
      </trkpt>
      <trkpt lat="45.16875" lon="5.12449">
        <ele>547.90002441406</ele>
        <time>2011-04-25T06:55:21Z</time>
      </trkpt>
      <trkpt lat="45.16872" lon="5.1243">
        <ele>548</ele>
        <time>2011-04-25T06:55:24Z</time>
      </trkpt>
      <trkpt lat="45.16873" lon="5.12407">
        <ele>547.20001220703</ele>
        <time>2011-04-25T06:55:27Z</time>
      </trkpt>
      <trkpt lat="45.16871" lon="5.12389">
        <ele>547.20001220703</ele>
        <time>2011-04-25T06:55:30Z</time>
      </trkpt>
      <trkpt lat="45.16867" lon="5.12372">
        <ele>547.40002441406</ele>
        <time>2011-04-25T06:55:33Z</time>
      </trkpt>
      <trkpt lat="45.16867" lon="5.12358">
        <ele>547.29998779297</ele>
        <time>2011-04-25T06:55:36Z</time>
      </trkpt>
      <trkpt lat="45.16871" lon="5.12343">
        <ele>548.59997558594</ele>
        <time>2011-04-25T06:55:39Z</time>
      </trkpt>
      <trkpt lat="45.16868" lon="5.12329">
        <ele>548.5</ele>
        <time>2011-04-25T06:55:42Z</time>
      </trkpt>
      <trkpt lat="45.16871" lon="5.12312">
        <ele>548.20001220703</ele>
        <time>2011-04-25T06:55:45Z</time>
      </trkpt>
      <trkpt lat="45.1687" lon="5.12295">
        <ele>548.70001220703</ele>
        <time>2011-04-25T06:55:48Z</time>
      </trkpt>
      <trkpt lat="45.16862" lon="5.12279">
        <ele>546.70001220703</ele>
        <time>2011-04-25T06:55:51Z</time>
      </trkpt>
      <trkpt lat="45.16857" lon="5.12249">
        <ele>546.09997558594</ele>
        <time>2011-04-25T06:55:55Z</time>
      </trkpt>
      <trkpt lat="45.16855" lon="5.12225">
        <ele>545.40002441406</ele>
        <time>2011-04-25T06:55:58Z</time>
      </trkpt>
      <trkpt lat="45.1685" lon="5.12207">
        <ele>546.79998779297</ele>
        <time>2011-04-25T06:56:01Z</time>
      </trkpt>
      <trkpt lat="45.16848" lon="5.12184">
        <ele>543.90002441406</ele>
        <time>2011-04-25T06:56:04Z</time>
      </trkpt>
      <trkpt lat="45.16837" lon="5.1216">
        <ele>542.20001220703</ele>
        <time>2011-04-25T06:56:07Z</time>
      </trkpt>
      <trkpt lat="45.16829" lon="5.12147">
        <ele>536.79998779297</ele>
        <time>2011-04-25T06:56:10Z</time>
      </trkpt>
      <trkpt lat="45.16818" lon="5.12129">
        <ele>535.5</ele>
        <time>2011-04-25T06:56:13Z</time>
      </trkpt>
      <trkpt lat="45.16804" lon="5.1211">
        <ele>535.20001220703</ele>
        <time>2011-04-25T06:56:16Z</time>
      </trkpt>
      <trkpt lat="45.16793" lon="5.12091">
        <ele>536.20001220703</ele>
        <time>2011-04-25T06:56:19Z</time>
      </trkpt>
      <trkpt lat="45.16784" lon="5.12074">
        <ele>537.70001220703</ele>
        <time>2011-04-25T06:56:22Z</time>
      </trkpt>
      <trkpt lat="45.16775" lon="5.1206">
        <ele>538.40002441406</ele>
        <time>2011-04-25T06:56:25Z</time>
      </trkpt>
      <trkpt lat="45.16764" lon="5.1204">
        <ele>537.09997558594</ele>
        <time>2011-04-25T06:56:29Z</time>
      </trkpt>
      <trkpt lat="45.16757" lon="5.12028">
        <ele>537.40002441406</ele>
        <time>2011-04-25T06:56:32Z</time>
      </trkpt>
      <trkpt lat="45.16748" lon="5.12008">
        <ele>538.70001220703</ele>
        <time>2011-04-25T06:56:35Z</time>
      </trkpt>
      <trkpt lat="45.16734" lon="5.11991">
        <ele>540.40002441406</ele>
        <time>2011-04-25T06:56:38Z</time>
      </trkpt>
      <trkpt lat="45.16728" lon="5.11977">
        <ele>540.59997558594</ele>
        <time>2011-04-25T06:56:41Z</time>
      </trkpt>
      <trkpt lat="45.16718" lon="5.11963">
        <ele>540.90002441406</ele>
        <time>2011-04-25T06:56:44Z</time>
      </trkpt>
      <trkpt lat="45.16705" lon="5.11945">
        <ele>540</ele>
        <time>2011-04-25T06:56:47Z</time>
      </trkpt>
      <trkpt lat="45.16698" lon="5.11931">
        <ele>540.5</ele>
        <time>2011-04-25T06:56:50Z</time>
      </trkpt>
      <trkpt lat="45.16687" lon="5.11913">
        <ele>538.40002441406</ele>
        <time>2011-04-25T06:56:53Z</time>
      </trkpt>
      <trkpt lat="45.16675" lon="5.11898">
        <ele>536.5</ele>
        <time>2011-04-25T06:56:56Z</time>
      </trkpt>
      <trkpt lat="45.16665" lon="5.11885">
        <ele>536.29998779297</ele>
        <time>2011-04-25T06:56:59Z</time>
      </trkpt>
      <trkpt lat="45.16657" lon="5.11867">
        <ele>534.5</ele>
        <time>2011-04-25T06:57:03Z</time>
      </trkpt>
      <trkpt lat="45.16651" lon="5.11856">
        <ele>534.20001220703</ele>
        <time>2011-04-25T06:57:06Z</time>
      </trkpt>
      <trkpt lat="45.16644" lon="5.11844">
        <ele>534.70001220703</ele>
        <time>2011-04-25T06:57:09Z</time>
      </trkpt>
      <trkpt lat="45.16637" lon="5.11832">
        <ele>534.29998779297</ele>
        <time>2011-04-25T06:57:12Z</time>
      </trkpt>
      <trkpt lat="45.16628" lon="5.11818">
        <ele>534.70001220703</ele>
        <time>2011-04-25T06:57:15Z</time>
      </trkpt>
      <trkpt lat="45.16621" lon="5.11809">
        <ele>535.09997558594</ele>
        <time>2011-04-25T06:57:18Z</time>
      </trkpt>
      <trkpt lat="45.16613" lon="5.11797">
        <ele>535</ele>
        <time>2011-04-25T06:57:21Z</time>
      </trkpt>
      <trkpt lat="45.16604" lon="5.11782">
        <ele>535.20001220703</ele>
        <time>2011-04-25T06:57:24Z</time>
      </trkpt>
      <trkpt lat="45.16588" lon="5.11767">
        <ele>535.79998779297</ele>
        <time>2011-04-25T06:57:27Z</time>
      </trkpt>
      <trkpt lat="45.16575" lon="5.11759">
        <ele>533.5</ele>
        <time>2011-04-25T06:57:30Z</time>
      </trkpt>
      <trkpt lat="45.16566" lon="5.11749">
        <ele>533.70001220703</ele>
        <time>2011-04-25T06:57:33Z</time>
      </trkpt>
      <trkpt lat="45.16552" lon="5.11735">
        <ele>532.40002441406</ele>
        <time>2011-04-25T06:57:37Z</time>
      </trkpt>
      <trkpt lat="45.16538" lon="5.1172">
        <ele>530.70001220703</ele>
        <time>2011-04-25T06:57:40Z</time>
      </trkpt>
      <trkpt lat="45.16527" lon="5.11712">
        <ele>530.79998779297</ele>
        <time>2011-04-25T06:57:43Z</time>
      </trkpt>
      <trkpt lat="45.16517" lon="5.11703">
        <ele>530.59997558594</ele>
        <time>2011-04-25T06:57:46Z</time>
      </trkpt>
      <trkpt lat="45.16507" lon="5.11689">
        <ele>530.40002441406</ele>
        <time>2011-04-25T06:57:49Z</time>
      </trkpt>
      <trkpt lat="45.16498" lon="5.11675">
        <ele>530.09997558594</ele>
        <time>2011-04-25T06:57:52Z</time>
      </trkpt>
      <trkpt lat="45.16485" lon="5.11665">
        <ele>530.5</ele>
        <time>2011-04-25T06:57:55Z</time>
      </trkpt>
      <trkpt lat="45.16472" lon="5.11653">
        <ele>529</ele>
        <time>2011-04-25T06:57:58Z</time>
      </trkpt>
      <trkpt lat="45.16461" lon="5.11642">
        <ele>529.70001220703</ele>
        <time>2011-04-25T06:58:01Z</time>
      </trkpt>
      <trkpt lat="45.16449" lon="5.11632">
        <ele>530.29998779297</ele>
        <time>2011-04-25T06:58:04Z</time>
      </trkpt>
      <trkpt lat="45.1644" lon="5.11624">
        <ele>530.29998779297</ele>
        <time>2011-04-25T06:58:07Z</time>
      </trkpt>
      <trkpt lat="45.16425" lon="5.11615">
        <ele>530.59997558594</ele>
        <time>2011-04-25T06:58:11Z</time>
      </trkpt>
      <trkpt lat="45.16414" lon="5.11603">
        <ele>530.5</ele>
        <time>2011-04-25T06:58:14Z</time>
      </trkpt>
      <trkpt lat="45.16404" lon="5.11596">
        <ele>529.79998779297</ele>
        <time>2011-04-25T06:58:17Z</time>
      </trkpt>
      <trkpt lat="45.16394" lon="5.11586">
        <ele>529.40002441406</ele>
        <time>2011-04-25T06:58:20Z</time>
      </trkpt>
      <trkpt lat="45.1638" lon="5.11569">
        <ele>529</ele>
        <time>2011-04-25T06:58:23Z</time>
      </trkpt>
      <trkpt lat="45.1637" lon="5.11558">
        <ele>528.20001220703</ele>
        <time>2011-04-25T06:58:26Z</time>
      </trkpt>
      <trkpt lat="45.16361" lon="5.11548">
        <ele>527.5</ele>
        <time>2011-04-25T06:58:29Z</time>
      </trkpt>
      <trkpt lat="45.16348" lon="5.11541">
        <ele>527.70001220703</ele>
        <time>2011-04-25T06:58:32Z</time>
      </trkpt>
      <trkpt lat="45.16334" lon="5.11531">
        <ele>528.59997558594</ele>
        <time>2011-04-25T06:58:35Z</time>
      </trkpt>
      <trkpt lat="45.16321" lon="5.11522">
        <ele>530.40002441406</ele>
        <time>2011-04-25T06:58:38Z</time>
      </trkpt>
      <trkpt lat="45.16308" lon="5.11513">
        <ele>530.20001220703</ele>
        <time>2011-04-25T06:58:41Z</time>
      </trkpt>
      <trkpt lat="45.16291" lon="5.11506">
        <ele>529.70001220703</ele>
        <time>2011-04-25T06:58:45Z</time>
      </trkpt>
      <trkpt lat="45.16278" lon="5.11501">
        <ele>529.40002441406</ele>
        <time>2011-04-25T06:58:48Z</time>
      </trkpt>
      <trkpt lat="45.16263" lon="5.11495">
        <ele>530.29998779297</ele>
        <time>2011-04-25T06:58:51Z</time>
      </trkpt>
      <trkpt lat="45.1625" lon="5.11489">
        <ele>529.79998779297</ele>
        <time>2011-04-25T06:58:54Z</time>
      </trkpt>
      <trkpt lat="45.16238" lon="5.11482">
        <ele>530.40002441406</ele>
        <time>2011-04-25T06:58:57Z</time>
      </trkpt>
      <trkpt lat="45.16226" lon="5.11479">
        <ele>531.70001220703</ele>
        <time>2011-04-25T06:59:00Z</time>
      </trkpt>
      <trkpt lat="45.16214" lon="5.11474">
        <ele>532.59997558594</ele>
        <time>2011-04-25T06:59:03Z</time>
      </trkpt>
      <trkpt lat="45.16204" lon="5.11471">
        <ele>532.40002441406</ele>
        <time>2011-04-25T06:59:06Z</time>
      </trkpt>
      <trkpt lat="45.16193" lon="5.11466">
        <ele>531.40002441406</ele>
        <time>2011-04-25T06:59:09Z</time>
      </trkpt>
      <trkpt lat="45.16183" lon="5.11463">
        <ele>531.59997558594</ele>
        <time>2011-04-25T06:59:12Z</time>
      </trkpt>
      <trkpt lat="45.16172" lon="5.11454">
        <ele>532</ele>
        <time>2011-04-25T06:59:15Z</time>
      </trkpt>
      <trkpt lat="45.16158" lon="5.11443">
        <ele>531.90002441406</ele>
        <time>2011-04-25T06:59:19Z</time>
      </trkpt>
      <trkpt lat="45.16151" lon="5.11437">
        <ele>531.09997558594</ele>
        <time>2011-04-25T06:59:22Z</time>
      </trkpt>
      <trkpt lat="45.16144" lon="5.11432">
        <ele>531</ele>
        <time>2011-04-25T06:59:25Z</time>
      </trkpt>
      <trkpt lat="45.16133" lon="5.11422">
        <ele>531</ele>
        <time>2011-04-25T06:59:28Z</time>
      </trkpt>
      <trkpt lat="45.16122" lon="5.1141">
        <ele>530.40002441406</ele>
        <time>2011-04-25T06:59:31Z</time>
      </trkpt>
      <trkpt lat="45.16114" lon="5.11405">
        <ele>529.5</ele>
        <time>2011-04-25T06:59:34Z</time>
      </trkpt>
      <trkpt lat="45.16105" lon="5.11394">
        <ele>529.59997558594</ele>
        <time>2011-04-25T06:59:37Z</time>
      </trkpt>
      <trkpt lat="45.1609" lon="5.11379">
        <ele>528</ele>
        <time>2011-04-25T06:59:40Z</time>
      </trkpt>
      <trkpt lat="45.16078" lon="5.11364">
        <ele>529</ele>
        <time>2011-04-25T06:59:43Z</time>
      </trkpt>
      <trkpt lat="45.16065" lon="5.11352">
        <ele>528.90002441406</ele>
        <time>2011-04-25T06:59:46Z</time>
      </trkpt>
      <trkpt lat="45.16053" lon="5.11341">
        <ele>529.20001220703</ele>
        <time>2011-04-25T06:59:49Z</time>
      </trkpt>
      <trkpt lat="45.16035" lon="5.11335">
        <ele>529.5</ele>
        <time>2011-04-25T06:59:53Z</time>
      </trkpt>
      <trkpt lat="45.16024" lon="5.11327">
        <ele>529.20001220703</ele>
        <time>2011-04-25T06:59:56Z</time>
      </trkpt>
      <trkpt lat="45.16009" lon="5.11318">
        <ele>528.5</ele>
        <time>2011-04-25T06:59:59Z</time>
      </trkpt>
      <trkpt lat="45.15998" lon="5.1131">
        <ele>527.90002441406</ele>
        <time>2011-04-25T07:00:02Z</time>
      </trkpt>
      <trkpt lat="45.15986" lon="5.11305">
        <ele>527.5</ele>
        <time>2011-04-25T07:00:05Z</time>
      </trkpt>
      <trkpt lat="45.15974" lon="5.113">
        <ele>527.59997558594</ele>
        <time>2011-04-25T07:00:08Z</time>
      </trkpt>
      <trkpt lat="45.15964" lon="5.11293">
        <ele>527.20001220703</ele>
        <time>2011-04-25T07:00:11Z</time>
      </trkpt>
      <trkpt lat="45.15952" lon="5.11286">
        <ele>528</ele>
        <time>2011-04-25T07:00:14Z</time>
      </trkpt>
      <trkpt lat="45.15942" lon="5.11279">
        <ele>528</ele>
        <time>2011-04-25T07:00:17Z</time>
      </trkpt>
      <trkpt lat="45.15932" lon="5.11273">
        <ele>527.70001220703</ele>
        <time>2011-04-25T07:00:20Z</time>
      </trkpt>
      <trkpt lat="45.15921" lon="5.11264">
        <ele>528</ele>
        <time>2011-04-25T07:00:23Z</time>
      </trkpt>
      <trkpt lat="45.15907" lon="5.11255">
        <ele>528.09997558594</ele>
        <time>2011-04-25T07:00:27Z</time>
      </trkpt>
      <trkpt lat="45.15896" lon="5.11247">
        <ele>528</ele>
        <time>2011-04-25T07:00:30Z</time>
      </trkpt>
      <trkpt lat="45.15886" lon="5.11246">
        <ele>527.90002441406</ele>
        <time>2011-04-25T07:00:33Z</time>
      </trkpt>
      <trkpt lat="45.15871" lon="5.11244">
        <ele>527.70001220703</ele>
        <time>2011-04-25T07:00:36Z</time>
      </trkpt>
      <trkpt lat="45.15858" lon="5.11244">
        <ele>526.59997558594</ele>
        <time>2011-04-25T07:00:39Z</time>
      </trkpt>
      <trkpt lat="45.1584" lon="5.11242">
        <ele>527.70001220703</ele>
        <time>2011-04-25T07:00:42Z</time>
      </trkpt>
      <trkpt lat="45.15823" lon="5.11242">
        <ele>527.59997558594</ele>
        <time>2011-04-25T07:00:45Z</time>
      </trkpt>
      <trkpt lat="45.1581" lon="5.11242">
        <ele>528.5</ele>
        <time>2011-04-25T07:00:48Z</time>
      </trkpt>
      <trkpt lat="45.15797" lon="5.1124">
        <ele>530.70001220703</ele>
        <time>2011-04-25T07:00:51Z</time>
      </trkpt>
      <trkpt lat="45.15783" lon="5.11239">
        <ele>530.90002441406</ele>
        <time>2011-04-25T07:00:54Z</time>
      </trkpt>
      <trkpt lat="45.15769" lon="5.11238">
        <ele>531.29998779297</ele>
        <time>2011-04-25T07:00:57Z</time>
      </trkpt>
      <trkpt lat="45.15747" lon="5.11237">
        <ele>531.20001220703</ele>
        <time>2011-04-25T07:01:01Z</time>
      </trkpt>
      <trkpt lat="45.15733" lon="5.11238">
        <ele>530.70001220703</ele>
        <time>2011-04-25T07:01:04Z</time>
      </trkpt>
      <trkpt lat="45.15718" lon="5.11241">
        <ele>529.90002441406</ele>
        <time>2011-04-25T07:01:07Z</time>
      </trkpt>
      <trkpt lat="45.15701" lon="5.11242">
        <ele>529.5</ele>
        <time>2011-04-25T07:01:10Z</time>
      </trkpt>
      <trkpt lat="45.15688" lon="5.11242">
        <ele>530.20001220703</ele>
        <time>2011-04-25T07:01:13Z</time>
      </trkpt>
      <trkpt lat="45.15674" lon="5.11239">
        <ele>530.59997558594</ele>
        <time>2011-04-25T07:01:16Z</time>
      </trkpt>
      <trkpt lat="45.15661" lon="5.11239">
        <ele>530.09997558594</ele>
        <time>2011-04-25T07:01:19Z</time>
      </trkpt>
      <trkpt lat="45.15651" lon="5.11238">
        <ele>532.79998779297</ele>
        <time>2011-04-25T07:01:22Z</time>
      </trkpt>
      <trkpt lat="45.15646" lon="5.11235">
        <ele>532.59997558594</ele>
        <time>2011-04-25T07:01:25Z</time>
      </trkpt>
      <trkpt lat="45.15641" lon="5.11239">
        <ele>532.40002441406</ele>
        <time>2011-04-25T07:01:28Z</time>
      </trkpt>
      <trkpt lat="45.15633" lon="5.11241">
        <ele>532.29998779297</ele>
        <time>2011-04-25T07:01:31Z</time>
      </trkpt>
      <trkpt lat="45.15622" lon="5.11247">
        <ele>530.70001220703</ele>
        <time>2011-04-25T07:01:35Z</time>
      </trkpt>
      <trkpt lat="45.15613" lon="5.11249">
        <ele>530.79998779297</ele>
        <time>2011-04-25T07:01:38Z</time>
      </trkpt>
      <trkpt lat="45.15602" lon="5.1125">
        <ele>530.5</ele>
        <time>2011-04-25T07:01:41Z</time>
      </trkpt>
      <trkpt lat="45.15586" lon="5.11249">
        <ele>530.20001220703</ele>
        <time>2011-04-25T07:01:44Z</time>
      </trkpt>
      <trkpt lat="45.15573" lon="5.11248">
        <ele>530.40002441406</ele>
        <time>2011-04-25T07:01:47Z</time>
      </trkpt>
      <trkpt lat="45.15562" lon="5.11249">
        <ele>530.20001220703</ele>
        <time>2011-04-25T07:01:50Z</time>
      </trkpt>
      <trkpt lat="45.15552" lon="5.1125">
        <ele>530.29998779297</ele>
        <time>2011-04-25T07:01:53Z</time>
      </trkpt>
      <trkpt lat="45.15539" lon="5.11254">
        <ele>528.79998779297</ele>
        <time>2011-04-25T07:01:56Z</time>
      </trkpt>
      <trkpt lat="45.1553" lon="5.11254">
        <ele>528.59997558594</ele>
        <time>2011-04-25T07:01:59Z</time>
      </trkpt>
      <trkpt lat="45.1552" lon="5.11252">
        <ele>527.79998779297</ele>
        <time>2011-04-25T07:02:02Z</time>
      </trkpt>
      <trkpt lat="45.15507" lon="5.11253">
        <ele>527.90002441406</ele>
        <time>2011-04-25T07:02:05Z</time>
      </trkpt>
      <trkpt lat="45.15491" lon="5.11255">
        <ele>528</ele>
        <time>2011-04-25T07:02:09Z</time>
      </trkpt>
      <trkpt lat="45.15483" lon="5.11251">
        <ele>527.90002441406</ele>
        <time>2011-04-25T07:02:12Z</time>
      </trkpt>
      <trkpt lat="45.15475" lon="5.11244">
        <ele>527.59997558594</ele>
        <time>2011-04-25T07:02:15Z</time>
      </trkpt>
      <trkpt lat="45.15467" lon="5.11239">
        <ele>526.70001220703</ele>
        <time>2011-04-25T07:02:18Z</time>
      </trkpt>
      <trkpt lat="45.15456" lon="5.11232">
        <ele>527.20001220703</ele>
        <time>2011-04-25T07:02:21Z</time>
      </trkpt>
      <trkpt lat="45.15449" lon="5.11229">
        <ele>527.09997558594</ele>
        <time>2011-04-25T07:02:24Z</time>
      </trkpt>
      <trkpt lat="45.15442" lon="5.11225">
        <ele>527.40002441406</ele>
        <time>2011-04-25T07:02:27Z</time>
      </trkpt>
      <trkpt lat="45.15438" lon="5.11225">
        <ele>526.70001220703</ele>
        <time>2011-04-25T07:02:30Z</time>
      </trkpt>
      <trkpt lat="45.15432" lon="5.11222">
        <ele>526.70001220703</ele>
        <time>2011-04-25T07:02:33Z</time>
      </trkpt>
      <trkpt lat="45.15428" lon="5.11221">
        <ele>526.5</ele>
        <time>2011-04-25T07:02:36Z</time>
      </trkpt>
      <trkpt lat="45.15423" lon="5.1122">
        <ele>527.09997558594</ele>
        <time>2011-04-25T07:02:39Z</time>
      </trkpt>
      <trkpt lat="45.15415" lon="5.11223">
        <ele>526.70001220703</ele>
        <time>2011-04-25T07:02:43Z</time>
      </trkpt>
      <trkpt lat="45.15407" lon="5.11221">
        <ele>526.70001220703</ele>
        <time>2011-04-25T07:02:46Z</time>
      </trkpt>
      <trkpt lat="45.15396" lon="5.11216">
        <ele>526.90002441406</ele>
        <time>2011-04-25T07:02:49Z</time>
      </trkpt>
      <trkpt lat="45.15384" lon="5.11218">
        <ele>526.70001220703</ele>
        <time>2011-04-25T07:02:52Z</time>
      </trkpt>
      <trkpt lat="45.15371" lon="5.1122">
        <ele>526.5</ele>
        <time>2011-04-25T07:02:55Z</time>
      </trkpt>
      <trkpt lat="45.15361" lon="5.11221">
        <ele>527</ele>
        <time>2011-04-25T07:02:58Z</time>
      </trkpt>
      <trkpt lat="45.15351" lon="5.11222">
        <ele>527.40002441406</ele>
        <time>2011-04-25T07:03:01Z</time>
      </trkpt>
      <trkpt lat="45.1534" lon="5.11221">
        <ele>527.40002441406</ele>
        <time>2011-04-25T07:03:04Z</time>
      </trkpt>
      <trkpt lat="45.1533" lon="5.11221">
        <ele>527.70001220703</ele>
        <time>2011-04-25T07:03:07Z</time>
      </trkpt>
      <trkpt lat="45.15318" lon="5.1122">
        <ele>527.70001220703</ele>
        <time>2011-04-25T07:03:10Z</time>
      </trkpt>
      <trkpt lat="45.15307" lon="5.1122">
        <ele>527.70001220703</ele>
        <time>2011-04-25T07:03:13Z</time>
      </trkpt>
      <trkpt lat="45.15294" lon="5.11227">
        <ele>527.5</ele>
        <time>2011-04-25T07:03:17Z</time>
      </trkpt>
      <trkpt lat="45.15288" lon="5.1123">
        <ele>527.59997558594</ele>
        <time>2011-04-25T07:03:20Z</time>
      </trkpt>
      <trkpt lat="45.15285" lon="5.11233">
        <ele>528</ele>
        <time>2011-04-25T07:03:23Z</time>
      </trkpt>
      <trkpt lat="45.15286" lon="5.11234">
        <ele>527.90002441406</ele>
        <time>2011-04-25T07:03:26Z</time>
      </trkpt>
      <trkpt lat="45.15284" lon="5.11233">
        <ele>528.40002441406</ele>
        <time>2011-04-25T07:03:29Z</time>
      </trkpt>
      <trkpt lat="45.15281" lon="5.11235">
        <ele>528.79998779297</ele>
        <time>2011-04-25T07:03:32Z</time>
      </trkpt>
      <trkpt lat="45.15277" lon="5.11233">
        <ele>528.40002441406</ele>
        <time>2011-04-25T07:03:35Z</time>
      </trkpt>
      <trkpt lat="45.15274" lon="5.11233">
        <ele>528.20001220703</ele>
        <time>2011-04-25T07:03:38Z</time>
      </trkpt>
      <trkpt lat="45.15269" lon="5.11235">
        <ele>528.29998779297</ele>
        <time>2011-04-25T07:03:41Z</time>
      </trkpt>
      <trkpt lat="45.15267" lon="5.1124">
        <ele>528.29998779297</ele>
        <time>2011-04-25T07:03:44Z</time>
      </trkpt>
      <trkpt lat="45.15263" lon="5.11243">
        <ele>527.79998779297</ele>
        <time>2011-04-25T07:03:47Z</time>
      </trkpt>
      <trkpt lat="45.15253" lon="5.11241">
        <ele>528</ele>
        <time>2011-04-25T07:03:51Z</time>
      </trkpt>
      <trkpt lat="45.15246" lon="5.11239">
        <ele>527.79998779297</ele>
        <time>2011-04-25T07:03:54Z</time>
      </trkpt>
      <trkpt lat="45.15233" lon="5.11239">
        <ele>528.5</ele>
        <time>2011-04-25T07:03:57Z</time>
      </trkpt>
      <trkpt lat="45.15224" lon="5.11241">
        <ele>528.70001220703</ele>
        <time>2011-04-25T07:04:00Z</time>
      </trkpt>
      <trkpt lat="45.15213" lon="5.11242">
        <ele>526.70001220703</ele>
        <time>2011-04-25T07:04:03Z</time>
      </trkpt>
      <trkpt lat="45.15208" lon="5.11244">
        <ele>528.20001220703</ele>
        <time>2011-04-25T07:04:06Z</time>
      </trkpt>
      <trkpt lat="45.15202" lon="5.11244">
        <ele>528.59997558594</ele>
        <time>2011-04-25T07:04:09Z</time>
      </trkpt>
      <trkpt lat="45.15198" lon="5.11244">
        <ele>527.59997558594</ele>
        <time>2011-04-25T07:04:12Z</time>
      </trkpt>
      <trkpt lat="45.15193" lon="5.11243">
        <ele>527.59997558594</ele>
        <time>2011-04-25T07:04:15Z</time>
      </trkpt>
      <trkpt lat="45.15186" lon="5.11236">
        <ele>526.09997558594</ele>
        <time>2011-04-25T07:04:18Z</time>
      </trkpt>
      <trkpt lat="45.15177" lon="5.11234">
        <ele>524.40002441406</ele>
        <time>2011-04-25T07:04:21Z</time>
      </trkpt>
      <trkpt lat="45.15168" lon="5.1123">
        <ele>523.29998779297</ele>
        <time>2011-04-25T07:04:25Z</time>
      </trkpt>
      <trkpt lat="45.15161" lon="5.11229">
        <ele>522.79998779297</ele>
        <time>2011-04-25T07:04:28Z</time>
      </trkpt>
      <trkpt lat="45.15152" lon="5.11228">
        <ele>522.90002441406</ele>
        <time>2011-04-25T07:04:31Z</time>
      </trkpt>
      <trkpt lat="45.15144" lon="5.11225">
        <ele>523.5</ele>
        <time>2011-04-25T07:04:34Z</time>
      </trkpt>
      <trkpt lat="45.15137" lon="5.11221">
        <ele>522.59997558594</ele>
        <time>2011-04-25T07:04:37Z</time>
      </trkpt>
      <trkpt lat="45.15129" lon="5.11216">
        <ele>522.59997558594</ele>
        <time>2011-04-25T07:04:40Z</time>
      </trkpt>
      <trkpt lat="45.1512" lon="5.11214">
        <ele>522.5</ele>
        <time>2011-04-25T07:04:43Z</time>
      </trkpt>
      <trkpt lat="45.15115" lon="5.11211">
        <ele>522.79998779297</ele>
        <time>2011-04-25T07:04:46Z</time>
      </trkpt>
      <trkpt lat="45.1511" lon="5.11205">
        <ele>524.09997558594</ele>
        <time>2011-04-25T07:04:49Z</time>
      </trkpt>
      <trkpt lat="45.15106" lon="5.11202">
        <ele>524.09997558594</ele>
        <time>2011-04-25T07:04:52Z</time>
      </trkpt>
      <trkpt lat="45.15105" lon="5.11199">
        <ele>525.20001220703</ele>
        <time>2011-04-25T07:04:55Z</time>
      </trkpt>
      <trkpt lat="45.15103" lon="5.112">
        <ele>526</ele>
        <time>2011-04-25T07:04:59Z</time>
      </trkpt>
      <trkpt lat="45.15102" lon="5.11199">
        <ele>526.70001220703</ele>
        <time>2011-04-25T07:05:02Z</time>
      </trkpt>
      <trkpt lat="45.15101" lon="5.11199">
        <ele>526.70001220703</ele>
        <time>2011-04-25T07:05:05Z</time>
      </trkpt>
      <trkpt lat="45.151" lon="5.11198">
        <ele>526.70001220703</ele>
        <time>2011-04-25T07:05:08Z</time>
      </trkpt>
      <trkpt lat="45.151" lon="5.11198">
        <ele>526.40002441406</ele>
        <time>2011-04-25T07:05:11Z</time>
      </trkpt>
      <trkpt lat="45.151" lon="5.11198">
        <ele>526.29998779297</ele>
        <time>2011-04-25T07:05:14Z</time>
      </trkpt>
      <trkpt lat="45.151" lon="5.11198">
        <ele>526.20001220703</ele>
        <time>2011-04-25T07:05:17Z</time>
      </trkpt>
      <trkpt lat="45.151" lon="5.11197">
        <ele>526.20001220703</ele>
        <time>2011-04-25T07:05:20Z</time>
      </trkpt>
      <trkpt lat="45.151" lon="5.11198">
        <ele>526.20001220703</ele>
        <time>2011-04-25T07:05:23Z</time>
      </trkpt>
      <trkpt lat="45.151" lon="5.11198">
        <ele>526.20001220703</ele>
        <time>2011-04-25T07:05:26Z</time>
      </trkpt>
      <trkpt lat="45.15092" lon="5.11192">
        <ele>526.79998779297</ele>
        <time>2011-04-25T07:05:29Z</time>
      </trkpt>
      <trkpt lat="45.15084" lon="5.11186">
        <ele>527.59997558594</ele>
        <time>2011-04-25T07:05:33Z</time>
      </trkpt>
      <trkpt lat="45.1508" lon="5.1118">
        <ele>526.90002441406</ele>
        <time>2011-04-25T07:05:36Z</time>
      </trkpt>
      <trkpt lat="45.15068" lon="5.11176">
        <ele>527.70001220703</ele>
        <time>2011-04-25T07:05:39Z</time>
      </trkpt>
      <trkpt lat="45.15064" lon="5.11174">
        <ele>527.59997558594</ele>
        <time>2011-04-25T07:05:42Z</time>
      </trkpt>
      <trkpt lat="45.15058" lon="5.11169">
        <ele>528.29998779297</ele>
        <time>2011-04-25T07:05:45Z</time>
      </trkpt>
      <trkpt lat="45.15042" lon="5.11157">
        <ele>528</ele>
        <time>2011-04-25T07:05:48Z</time>
      </trkpt>
      <trkpt lat="45.15036" lon="5.11156">
        <ele>528.09997558594</ele>
        <time>2011-04-25T07:05:51Z</time>
      </trkpt>
      <trkpt lat="45.1503" lon="5.11154">
        <ele>527.79998779297</ele>
        <time>2011-04-25T07:05:54Z</time>
      </trkpt>
      <trkpt lat="45.15023" lon="5.11145">
        <ele>527.09997558594</ele>
        <time>2011-04-25T07:05:57Z</time>
      </trkpt>
      <trkpt lat="45.15015" lon="5.11141">
        <ele>527.40002441406</ele>
        <time>2011-04-25T07:06:00Z</time>
      </trkpt>
      <trkpt lat="45.15009" lon="5.11143">
        <ele>527.59997558594</ele>
        <time>2011-04-25T07:06:03Z</time>
      </trkpt>
      <trkpt lat="45.14999" lon="5.11142">
        <ele>527.09997558594</ele>
        <time>2011-04-25T07:06:07Z</time>
      </trkpt>
      <trkpt lat="45.14993" lon="5.11147">
        <ele>526.90002441406</ele>
        <time>2011-04-25T07:06:10Z</time>
      </trkpt>
      <trkpt lat="45.14983" lon="5.11145">
        <ele>526.09997558594</ele>
        <time>2011-04-25T07:06:13Z</time>
      </trkpt>
      <trkpt lat="45.14968" lon="5.11142">
        <ele>522.90002441406</ele>
        <time>2011-04-25T07:06:16Z</time>
      </trkpt>
      <trkpt lat="45.14956" lon="5.11136">
        <ele>521</ele>
        <time>2011-04-25T07:06:19Z</time>
      </trkpt>
      <trkpt lat="45.1495" lon="5.11132">
        <ele>520.40002441406</ele>
        <time>2011-04-25T07:06:22Z</time>
      </trkpt>
      <trkpt lat="45.14943" lon="5.11132">
        <ele>520.40002441406</ele>
        <time>2011-04-25T07:06:25Z</time>
      </trkpt>
      <trkpt lat="45.14935" lon="5.11133">
        <ele>519.70001220703</ele>
        <time>2011-04-25T07:06:28Z</time>
      </trkpt>
      <trkpt lat="45.14927" lon="5.11139">
        <ele>520.79998779297</ele>
        <time>2011-04-25T07:06:31Z</time>
      </trkpt>
      <trkpt lat="45.14918" lon="5.11142">
        <ele>522.79998779297</ele>
        <time>2011-04-25T07:06:34Z</time>
      </trkpt>
      <trkpt lat="45.14911" lon="5.11142">
        <ele>523.59997558594</ele>
        <time>2011-04-25T07:06:37Z</time>
      </trkpt>
      <trkpt lat="45.14898" lon="5.11151">
        <ele>523.09997558594</ele>
        <time>2011-04-25T07:06:41Z</time>
      </trkpt>
      <trkpt lat="45.1489" lon="5.11152">
        <ele>524.20001220703</ele>
        <time>2011-04-25T07:06:44Z</time>
      </trkpt>
      <trkpt lat="45.14881" lon="5.11153">
        <ele>524</ele>
        <time>2011-04-25T07:06:47Z</time>
      </trkpt>
      <trkpt lat="45.14874" lon="5.11154">
        <ele>524.09997558594</ele>
        <time>2011-04-25T07:06:50Z</time>
      </trkpt>
      <trkpt lat="45.14862" lon="5.11152">
        <ele>523.59997558594</ele>
        <time>2011-04-25T07:06:53Z</time>
      </trkpt>
      <trkpt lat="45.14847" lon="5.11142">
        <ele>524.79998779297</ele>
        <time>2011-04-25T07:06:56Z</time>
      </trkpt>
      <trkpt lat="45.14833" lon="5.11134">
        <ele>525.40002441406</ele>
        <time>2011-04-25T07:06:59Z</time>
      </trkpt>
      <trkpt lat="45.14821" lon="5.11131">
        <ele>526.20001220703</ele>
        <time>2011-04-25T07:07:02Z</time>
      </trkpt>
      <trkpt lat="45.14808" lon="5.11126">
        <ele>526.59997558594</ele>
        <time>2011-04-25T07:07:05Z</time>
      </trkpt>
      <trkpt lat="45.14802" lon="5.11122">
        <ele>526.79998779297</ele>
        <time>2011-04-25T07:07:08Z</time>
      </trkpt>
      <trkpt lat="45.14797" lon="5.11116">
        <ele>527.29998779297</ele>
        <time>2011-04-25T07:07:11Z</time>
      </trkpt>
      <trkpt lat="45.14787" lon="5.11101">
        <ele>527.29998779297</ele>
        <time>2011-04-25T07:07:15Z</time>
      </trkpt>
      <trkpt lat="45.14786" lon="5.11094">
        <ele>527</ele>
        <time>2011-04-25T07:07:18Z</time>
      </trkpt>
      <trkpt lat="45.14785" lon="5.11081">
        <ele>526.40002441406</ele>
        <time>2011-04-25T07:07:21Z</time>
      </trkpt>
      <trkpt lat="45.14784" lon="5.11069">
        <ele>526.40002441406</ele>
        <time>2011-04-25T07:07:24Z</time>
      </trkpt>
      <trkpt lat="45.14783" lon="5.11058">
        <ele>526.09997558594</ele>
        <time>2011-04-25T07:07:27Z</time>
      </trkpt>
      <trkpt lat="45.14786" lon="5.11052">
        <ele>525.79998779297</ele>
        <time>2011-04-25T07:07:30Z</time>
      </trkpt>
      <trkpt lat="45.14784" lon="5.11041">
        <ele>526.09997558594</ele>
        <time>2011-04-25T07:07:33Z</time>
      </trkpt>
      <trkpt lat="45.14787" lon="5.11032">
        <ele>526</ele>
        <time>2011-04-25T07:07:36Z</time>
      </trkpt>
      <trkpt lat="45.14785" lon="5.11027">
        <ele>525.79998779297</ele>
        <time>2011-04-25T07:07:39Z</time>
      </trkpt>
      <trkpt lat="45.14787" lon="5.11023">
        <ele>525.40002441406</ele>
        <time>2011-04-25T07:07:42Z</time>
      </trkpt>
      <trkpt lat="45.14789" lon="5.11017">
        <ele>525.5</ele>
        <time>2011-04-25T07:07:45Z</time>
      </trkpt>
      <trkpt lat="45.14787" lon="5.11008">
        <ele>525.59997558594</ele>
        <time>2011-04-25T07:07:49Z</time>
      </trkpt>
      <trkpt lat="45.14786" lon="5.11003">
        <ele>525.59997558594</ele>
        <time>2011-04-25T07:07:52Z</time>
      </trkpt>
      <trkpt lat="45.14788" lon="5.10996">
        <ele>525.59997558594</ele>
        <time>2011-04-25T07:07:55Z</time>
      </trkpt>
      <trkpt lat="45.1479" lon="5.10985">
        <ele>525</ele>
        <time>2011-04-25T07:07:58Z</time>
      </trkpt>
      <trkpt lat="45.14787" lon="5.10975">
        <ele>525</ele>
        <time>2011-04-25T07:08:01Z</time>
      </trkpt>
      <trkpt lat="45.14787" lon="5.10958">
        <ele>524.90002441406</ele>
        <time>2011-04-25T07:08:04Z</time>
      </trkpt>
      <trkpt lat="45.14788" lon="5.10951">
        <ele>525.79998779297</ele>
        <time>2011-04-25T07:08:07Z</time>
      </trkpt>
      <trkpt lat="45.14784" lon="5.10935">
        <ele>526.29998779297</ele>
        <time>2011-04-25T07:08:10Z</time>
      </trkpt>
      <trkpt lat="45.14786" lon="5.10929">
        <ele>526.79998779297</ele>
        <time>2011-04-25T07:08:13Z</time>
      </trkpt>
      <trkpt lat="45.14782" lon="5.10914">
        <ele>528.29998779297</ele>
        <time>2011-04-25T07:08:16Z</time>
      </trkpt>
      <trkpt lat="45.14779" lon="5.10911">
        <ele>528.5</ele>
        <time>2011-04-25T07:08:19Z</time>
      </trkpt>
      <trkpt lat="45.14781" lon="5.1091">
        <ele>529</ele>
        <time>2011-04-25T07:08:23Z</time>
      </trkpt>
      <trkpt lat="45.14782" lon="5.1091">
        <ele>529.79998779297</ele>
        <time>2011-04-25T07:08:26Z</time>
      </trkpt>
      <trkpt lat="45.14782" lon="5.10909">
        <ele>529.59997558594</ele>
        <time>2011-04-25T07:08:29Z</time>
      </trkpt>
      <trkpt lat="45.1478" lon="5.10909">
        <ele>529.59997558594</ele>
        <time>2011-04-25T07:08:32Z</time>
      </trkpt>
      <trkpt lat="45.14778" lon="5.10903">
        <ele>530.59997558594</ele>
        <time>2011-04-25T07:08:35Z</time>
      </trkpt>
      <trkpt lat="45.1477" lon="5.10894">
        <ele>528.5</ele>
        <time>2011-04-25T07:08:38Z</time>
      </trkpt>
      <trkpt lat="45.14765" lon="5.10895">
        <ele>527.5</ele>
        <time>2011-04-25T07:08:41Z</time>
      </trkpt>
      <trkpt lat="45.14759" lon="5.10892">
        <ele>526.40002441406</ele>
        <time>2011-04-25T07:08:44Z</time>
      </trkpt>
      <trkpt lat="45.14756" lon="5.10888">
        <ele>526.79998779297</ele>
        <time>2011-04-25T07:08:47Z</time>
      </trkpt>
      <trkpt lat="45.14753" lon="5.10883">
        <ele>527.79998779297</ele>
        <time>2011-04-25T07:08:50Z</time>
      </trkpt>
      <trkpt lat="45.14751" lon="5.10883">
        <ele>529</ele>
        <time>2011-04-25T07:08:53Z</time>
      </trkpt>
      <trkpt lat="45.14741" lon="5.10882">
        <ele>530.5</ele>
        <time>2011-04-25T07:08:57Z</time>
      </trkpt>
      <trkpt lat="45.14736" lon="5.10881">
        <ele>530.90002441406</ele>
        <time>2011-04-25T07:09:00Z</time>
      </trkpt>
      <trkpt lat="45.14722" lon="5.10874">
        <ele>531.59997558594</ele>
        <time>2011-04-25T07:09:03Z</time>
      </trkpt>
      <trkpt lat="45.14712" lon="5.10872">
        <ele>534.09997558594</ele>
        <time>2011-04-25T07:09:06Z</time>
      </trkpt>
      <trkpt lat="45.14702" lon="5.1087">
        <ele>533.70001220703</ele>
        <time>2011-04-25T07:09:09Z</time>
      </trkpt>
      <trkpt lat="45.14696" lon="5.10871">
        <ele>533.79998779297</ele>
        <time>2011-04-25T07:09:12Z</time>
      </trkpt>
      <trkpt lat="45.14685" lon="5.10868">
        <ele>533.40002441406</ele>
        <time>2011-04-25T07:09:15Z</time>
      </trkpt>
      <trkpt lat="45.14672" lon="5.10871">
        <ele>533.5</ele>
        <time>2011-04-25T07:09:18Z</time>
      </trkpt>
      <trkpt lat="45.14663" lon="5.10867">
        <ele>532.29998779297</ele>
        <time>2011-04-25T07:09:21Z</time>
      </trkpt>
      <trkpt lat="45.14651" lon="5.10867">
        <ele>532.40002441406</ele>
        <time>2011-04-25T07:09:24Z</time>
      </trkpt>
      <trkpt lat="45.14641" lon="5.10865">
        <ele>532.70001220703</ele>
        <time>2011-04-25T07:09:27Z</time>
      </trkpt>
      <trkpt lat="45.14629" lon="5.10866">
        <ele>532.29998779297</ele>
        <time>2011-04-25T07:09:31Z</time>
      </trkpt>
      <trkpt lat="45.1462" lon="5.10866">
        <ele>530.29998779297</ele>
        <time>2011-04-25T07:09:34Z</time>
      </trkpt>
      <trkpt lat="45.14609" lon="5.10866">
        <ele>527.79998779297</ele>
        <time>2011-04-25T07:09:37Z</time>
      </trkpt>
      <trkpt lat="45.14598" lon="5.10866">
        <ele>527.5</ele>
        <time>2011-04-25T07:09:40Z</time>
      </trkpt>
      <trkpt lat="45.14592" lon="5.10866">
        <ele>527.29998779297</ele>
        <time>2011-04-25T07:09:43Z</time>
      </trkpt>
      <trkpt lat="45.14585" lon="5.10867">
        <ele>528.90002441406</ele>
        <time>2011-04-25T07:09:46Z</time>
      </trkpt>
      <trkpt lat="45.14579" lon="5.10868">
        <ele>528.09997558594</ele>
        <time>2011-04-25T07:09:49Z</time>
      </trkpt>
      <trkpt lat="45.14573" lon="5.10868">
        <ele>528.59997558594</ele>
        <time>2011-04-25T07:09:52Z</time>
      </trkpt>
      <trkpt lat="45.14566" lon="5.10865">
        <ele>529</ele>
        <time>2011-04-25T07:09:55Z</time>
      </trkpt>
      <trkpt lat="45.14558" lon="5.10856">
        <ele>529.29998779297</ele>
        <time>2011-04-25T07:09:58Z</time>
      </trkpt>
      <trkpt lat="45.14554" lon="5.10851">
        <ele>529.40002441406</ele>
        <time>2011-04-25T07:10:01Z</time>
      </trkpt>
      <trkpt lat="45.14549" lon="5.10846">
        <ele>528.79998779297</ele>
        <time>2011-04-25T07:10:05Z</time>
      </trkpt>
      <trkpt lat="45.14545" lon="5.10837">
        <ele>528.70001220703</ele>
        <time>2011-04-25T07:10:08Z</time>
      </trkpt>
      <trkpt lat="45.14541" lon="5.1083">
        <ele>528.20001220703</ele>
        <time>2011-04-25T07:10:11Z</time>
      </trkpt>
      <trkpt lat="45.14535" lon="5.10826">
        <ele>528.40002441406</ele>
        <time>2011-04-25T07:10:14Z</time>
      </trkpt>
      <trkpt lat="45.1453" lon="5.10822">
        <ele>527.70001220703</ele>
        <time>2011-04-25T07:10:17Z</time>
      </trkpt>
      <trkpt lat="45.14524" lon="5.10817">
        <ele>527.90002441406</ele>
        <time>2011-04-25T07:10:20Z</time>
      </trkpt>
      <trkpt lat="45.14518" lon="5.10814">
        <ele>528.09997558594</ele>
        <time>2011-04-25T07:10:23Z</time>
      </trkpt>
      <trkpt lat="45.14512" lon="5.10809">
        <ele>528.09997558594</ele>
        <time>2011-04-25T07:10:26Z</time>
      </trkpt>
      <trkpt lat="45.14507" lon="5.10803">
        <ele>528.70001220703</ele>
        <time>2011-04-25T07:10:29Z</time>
      </trkpt>
      <trkpt lat="45.14502" lon="5.10796">
        <ele>528.20001220703</ele>
        <time>2011-04-25T07:10:32Z</time>
      </trkpt>
      <trkpt lat="45.14498" lon="5.10787">
        <ele>527.79998779297</ele>
        <time>2011-04-25T07:10:35Z</time>
      </trkpt>
      <trkpt lat="45.14488" lon="5.10776">
        <ele>528.40002441406</ele>
        <time>2011-04-25T07:10:39Z</time>
      </trkpt>
      <trkpt lat="45.14482" lon="5.10774">
        <ele>528.40002441406</ele>
        <time>2011-04-25T07:10:42Z</time>
      </trkpt>
      <trkpt lat="45.14474" lon="5.10768">
        <ele>527.79998779297</ele>
        <time>2011-04-25T07:10:45Z</time>
      </trkpt>
      <trkpt lat="45.14466" lon="5.10765">
        <ele>527.70001220703</ele>
        <time>2011-04-25T07:10:48Z</time>
      </trkpt>
      <trkpt lat="45.14459" lon="5.10765">
        <ele>527.70001220703</ele>
        <time>2011-04-25T07:10:51Z</time>
      </trkpt>
      <trkpt lat="45.14453" lon="5.10761">
        <ele>526.5</ele>
        <time>2011-04-25T07:10:54Z</time>
      </trkpt>
      <trkpt lat="45.14447" lon="5.10753">
        <ele>526.70001220703</ele>
        <time>2011-04-25T07:10:57Z</time>
      </trkpt>
      <trkpt lat="45.14441" lon="5.10753">
        <ele>526.40002441406</ele>
        <time>2011-04-25T07:11:00Z</time>
      </trkpt>
      <trkpt lat="45.14436" lon="5.10754">
        <ele>526.90002441406</ele>
        <time>2011-04-25T07:11:03Z</time>
      </trkpt>
      <trkpt lat="45.14429" lon="5.10751">
        <ele>528</ele>
        <time>2011-04-25T07:11:06Z</time>
      </trkpt>
      <trkpt lat="45.1442" lon="5.10746">
        <ele>531.09997558594</ele>
        <time>2011-04-25T07:11:09Z</time>
      </trkpt>
      <trkpt lat="45.14415" lon="5.10746">
        <ele>531.20001220703</ele>
        <time>2011-04-25T07:11:13Z</time>
      </trkpt>
      <trkpt lat="45.1441" lon="5.10744">
        <ele>530.20001220703</ele>
        <time>2011-04-25T07:11:16Z</time>
      </trkpt>
      <trkpt lat="45.14404" lon="5.10739">
        <ele>529.79998779297</ele>
        <time>2011-04-25T07:11:19Z</time>
      </trkpt>
      <trkpt lat="45.14402" lon="5.10736">
        <ele>529.90002441406</ele>
        <time>2011-04-25T07:11:22Z</time>
      </trkpt>
      <trkpt lat="45.14402" lon="5.10732">
        <ele>528.59997558594</ele>
        <time>2011-04-25T07:11:25Z</time>
      </trkpt>
      <trkpt lat="45.14401" lon="5.10729">
        <ele>528.59997558594</ele>
        <time>2011-04-25T07:11:28Z</time>
      </trkpt>
      <trkpt lat="45.14401" lon="5.10729">
        <ele>527.79998779297</ele>
        <time>2011-04-25T07:11:31Z</time>
      </trkpt>
      <trkpt lat="45.14401" lon="5.10729">
        <ele>528</ele>
        <time>2011-04-25T07:11:34Z</time>
      </trkpt>
      <trkpt lat="45.14401" lon="5.10728">
        <ele>528.29998779297</ele>
        <time>2011-04-25T07:11:37Z</time>
      </trkpt>
      <trkpt lat="45.14401" lon="5.10728">
        <ele>528.09997558594</ele>
        <time>2011-04-25T07:11:40Z</time>
      </trkpt>
      <trkpt lat="45.14401" lon="5.10728">
        <ele>528</ele>
        <time>2011-04-25T07:11:43Z</time>
      </trkpt>
      <trkpt lat="45.14401" lon="5.10728">
        <ele>528</ele>
        <time>2011-04-25T07:11:47Z</time>
      </trkpt>
      <trkpt lat="45.14401" lon="5.10728">
        <ele>528.09997558594</ele>
        <time>2011-04-25T07:11:50Z</time>
      </trkpt>
      <trkpt lat="45.14401" lon="5.10728">
        <ele>528.09997558594</ele>
        <time>2011-04-25T07:11:53Z</time>
      </trkpt>
      <trkpt lat="45.14401" lon="5.10728">
        <ele>528.09997558594</ele>
        <time>2011-04-25T07:11:56Z</time>
      </trkpt>
      <trkpt lat="45.14401" lon="5.10728">
        <ele>528</ele>
        <time>2011-04-25T07:11:59Z</time>
      </trkpt>
      <trkpt lat="45.14401" lon="5.10728">
        <ele>528.09997558594</ele>
        <time>2011-04-25T07:12:02Z</time>
      </trkpt>
      <trkpt lat="45.14401" lon="5.10728">
        <ele>528.09997558594</ele>
        <time>2011-04-25T07:12:05Z</time>
      </trkpt>
      <trkpt lat="45.14401" lon="5.10728">
        <ele>528.09997558594</ele>
        <time>2011-04-25T07:12:08Z</time>
      </trkpt>
      <trkpt lat="45.14401" lon="5.10728">
        <ele>528.09997558594</ele>
        <time>2011-04-25T07:12:11Z</time>
      </trkpt>
      <trkpt lat="45.14401" lon="5.10728">
        <ele>528.09997558594</ele>
        <time>2011-04-25T07:12:14Z</time>
      </trkpt>
      <trkpt lat="45.14401" lon="5.10729">
        <ele>528</ele>
        <time>2011-04-25T07:12:17Z</time>
      </trkpt>
      <trkpt lat="45.14401" lon="5.10728">
        <ele>528</ele>
        <time>2011-04-25T07:12:21Z</time>
      </trkpt>
      <trkpt lat="45.14401" lon="5.10728">
        <ele>528</ele>
        <time>2011-04-25T07:12:24Z</time>
      </trkpt>
      <trkpt lat="45.14401" lon="5.10728">
        <ele>527.90002441406</ele>
        <time>2011-04-25T07:12:27Z</time>
      </trkpt>
      <trkpt lat="45.14401" lon="5.10728">
        <ele>528</ele>
        <time>2011-04-25T07:12:30Z</time>
      </trkpt>
      <trkpt lat="45.14401" lon="5.10728">
        <ele>528</ele>
        <time>2011-04-25T07:12:33Z</time>
      </trkpt>
      <trkpt lat="45.14401" lon="5.10729">
        <ele>528</ele>
        <time>2011-04-25T07:12:36Z</time>
      </trkpt>
      <trkpt lat="45.14401" lon="5.10729">
        <ele>528</ele>
        <time>2011-04-25T07:12:39Z</time>
      </trkpt>
      <trkpt lat="45.14401" lon="5.10729">
        <ele>528</ele>
        <time>2011-04-25T07:12:42Z</time>
      </trkpt>
      <trkpt lat="45.14401" lon="5.10729">
        <ele>527.90002441406</ele>
        <time>2011-04-25T07:12:45Z</time>
      </trkpt>
      <trkpt lat="45.14401" lon="5.10729">
        <ele>527.90002441406</ele>
        <time>2011-04-25T07:12:48Z</time>
      </trkpt>
      <trkpt lat="45.14401" lon="5.10729">
        <ele>527.90002441406</ele>
        <time>2011-04-25T07:12:51Z</time>
      </trkpt>
      <trkpt lat="45.14401" lon="5.10729">
        <ele>528</ele>
        <time>2011-04-25T07:12:55Z</time>
      </trkpt>
      <trkpt lat="45.14401" lon="5.10729">
        <ele>528</ele>
        <time>2011-04-25T07:12:58Z</time>
      </trkpt>
      <trkpt lat="45.14401" lon="5.10729">
        <ele>528</ele>
        <time>2011-04-25T07:13:01Z</time>
      </trkpt>
      <trkpt lat="45.14401" lon="5.10729">
        <ele>528</ele>
        <time>2011-04-25T07:13:04Z</time>
      </trkpt>
      <trkpt lat="45.14401" lon="5.10729">
        <ele>528</ele>
        <time>2011-04-25T07:13:07Z</time>
      </trkpt>
      <trkpt lat="45.14401" lon="5.10729">
        <ele>528</ele>
        <time>2011-04-25T07:13:10Z</time>
      </trkpt>
      <trkpt lat="45.14401" lon="5.10728">
        <ele>528</ele>
        <time>2011-04-25T07:13:13Z</time>
      </trkpt>
      <trkpt lat="45.14401" lon="5.10728">
        <ele>528.09997558594</ele>
        <time>2011-04-25T07:13:16Z</time>
      </trkpt>
      <trkpt lat="45.14401" lon="5.10728">
        <ele>528.09997558594</ele>
        <time>2011-04-25T07:13:19Z</time>
      </trkpt>
      <trkpt lat="45.14401" lon="5.10728">
        <ele>528.09997558594</ele>
        <time>2011-04-25T07:13:22Z</time>
      </trkpt>
      <trkpt lat="45.14401" lon="5.10728">
        <ele>528.09997558594</ele>
        <time>2011-04-25T07:13:25Z</time>
      </trkpt>
      <trkpt lat="45.14401" lon="5.10728">
        <ele>528.09997558594</ele>
        <time>2011-04-25T07:13:29Z</time>
      </trkpt>
      <trkpt lat="45.14401" lon="5.10728">
        <ele>528.09997558594</ele>
        <time>2011-04-25T07:13:32Z</time>
      </trkpt>
      <trkpt lat="45.14401" lon="5.10728">
        <ele>528.09997558594</ele>
        <time>2011-04-25T07:13:35Z</time>
      </trkpt>
      <trkpt lat="45.14401" lon="5.10728">
        <ele>528.09997558594</ele>
        <time>2011-04-25T07:13:38Z</time>
      </trkpt>
      <trkpt lat="45.14401" lon="5.10728">
        <ele>528.09997558594</ele>
        <time>2011-04-25T07:13:41Z</time>
      </trkpt>
      <trkpt lat="45.14401" lon="5.10729">
        <ele>528.09997558594</ele>
        <time>2011-04-25T07:13:44Z</time>
      </trkpt>
      <trkpt lat="45.14401" lon="5.10729">
        <ele>528.09997558594</ele>
        <time>2011-04-25T07:13:47Z</time>
      </trkpt>
      <trkpt lat="45.14401" lon="5.10729">
        <ele>528.09997558594</ele>
        <time>2011-04-25T07:13:50Z</time>
      </trkpt>
      <trkpt lat="45.14401" lon="5.10729">
        <ele>528.09997558594</ele>
        <time>2011-04-25T07:13:53Z</time>
      </trkpt>
      <trkpt lat="45.14401" lon="5.10729">
        <ele>528.09997558594</ele>
        <time>2011-04-25T07:13:56Z</time>
      </trkpt>
      <trkpt lat="45.14401" lon="5.10729">
        <ele>528.09997558594</ele>
        <time>2011-04-25T07:13:59Z</time>
      </trkpt>
      <trkpt lat="45.14401" lon="5.10729">
        <ele>528.09997558594</ele>
        <time>2011-04-25T07:14:03Z</time>
      </trkpt>
      <trkpt lat="45.14401" lon="5.10728">
        <ele>528.09997558594</ele>
        <time>2011-04-25T07:14:06Z</time>
      </trkpt>
      <trkpt lat="45.14401" lon="5.10728">
        <ele>528.09997558594</ele>
        <time>2011-04-25T07:14:09Z</time>
      </trkpt>
      <trkpt lat="45.14401" lon="5.10728">
        <ele>528.09997558594</ele>
        <time>2011-04-25T07:14:12Z</time>
      </trkpt>
      <trkpt lat="45.14401" lon="5.10728">
        <ele>528.09997558594</ele>
        <time>2011-04-25T07:14:15Z</time>
      </trkpt>
      <trkpt lat="45.14401" lon="5.10729">
        <ele>528.09997558594</ele>
        <time>2011-04-25T07:14:18Z</time>
      </trkpt>
      <trkpt lat="45.14401" lon="5.10728">
        <ele>528.09997558594</ele>
        <time>2011-04-25T07:14:21Z</time>
      </trkpt>
      <trkpt lat="45.14401" lon="5.10728">
        <ele>528.09997558594</ele>
        <time>2011-04-25T07:14:24Z</time>
      </trkpt>
      <trkpt lat="45.14401" lon="5.10728">
        <ele>528.09997558594</ele>
        <time>2011-04-25T07:14:27Z</time>
      </trkpt>
      <trkpt lat="45.14401" lon="5.10728">
        <ele>528.09997558594</ele>
        <time>2011-04-25T07:14:30Z</time>
      </trkpt>
      <trkpt lat="45.14401" lon="5.10729">
        <ele>528.09997558594</ele>
        <time>2011-04-25T07:14:33Z</time>
      </trkpt>
      <trkpt lat="45.14401" lon="5.10729">
        <ele>528.09997558594</ele>
        <time>2011-04-25T07:14:37Z</time>
      </trkpt>
      <trkpt lat="45.14401" lon="5.10729">
        <ele>528.09997558594</ele>
        <time>2011-04-25T07:14:40Z</time>
      </trkpt>
      <trkpt lat="45.14401" lon="5.10728">
        <ele>528.09997558594</ele>
        <time>2011-04-25T07:14:43Z</time>
      </trkpt>
      <trkpt lat="45.14401" lon="5.10729">
        <ele>528.09997558594</ele>
        <time>2011-04-25T07:14:46Z</time>
      </trkpt>
      <trkpt lat="45.14401" lon="5.10729">
        <ele>528.09997558594</ele>
        <time>2011-04-25T07:14:49Z</time>
      </trkpt>
      <trkpt lat="45.14401" lon="5.10729">
        <ele>528.09997558594</ele>
        <time>2011-04-25T07:14:52Z</time>
      </trkpt>
      <trkpt lat="45.14401" lon="5.10729">
        <ele>528.09997558594</ele>
        <time>2011-04-25T07:14:55Z</time>
      </trkpt>
      <trkpt lat="45.14401" lon="5.10729">
        <ele>528.09997558594</ele>
        <time>2011-04-25T07:14:58Z</time>
      </trkpt>
      <trkpt lat="45.14401" lon="5.10729">
        <ele>528.09997558594</ele>
        <time>2011-04-25T07:15:01Z</time>
      </trkpt>
      <trkpt lat="45.14401" lon="5.10729">
        <ele>528.09997558594</ele>
        <time>2011-04-25T07:15:04Z</time>
      </trkpt>
      <trkpt lat="45.14401" lon="5.10729">
        <ele>528.20001220703</ele>
        <time>2011-04-25T07:15:07Z</time>
      </trkpt>
      <trkpt lat="45.14401" lon="5.10729">
        <ele>528.20001220703</ele>
        <time>2011-04-25T07:15:11Z</time>
      </trkpt>
      <trkpt lat="45.14401" lon="5.10728">
        <ele>528.20001220703</ele>
        <time>2011-04-25T07:15:14Z</time>
      </trkpt>
      <trkpt lat="45.14401" lon="5.10728">
        <ele>528.20001220703</ele>
        <time>2011-04-25T07:15:17Z</time>
      </trkpt>
      <trkpt lat="45.14401" lon="5.10728">
        <ele>528.20001220703</ele>
        <time>2011-04-25T07:15:20Z</time>
      </trkpt>
      <trkpt lat="45.14401" lon="5.10728">
        <ele>528.20001220703</ele>
        <time>2011-04-25T07:15:23Z</time>
      </trkpt>
      <trkpt lat="45.14401" lon="5.10728">
        <ele>528.09997558594</ele>
        <time>2011-04-25T07:15:26Z</time>
      </trkpt>
      <trkpt lat="45.14401" lon="5.10729">
        <ele>528.09997558594</ele>
        <time>2011-04-25T07:15:29Z</time>
      </trkpt>
      <trkpt lat="45.14401" lon="5.10729">
        <ele>528.09997558594</ele>
        <time>2011-04-25T07:15:32Z</time>
      </trkpt>
      <trkpt lat="45.14401" lon="5.10729">
        <ele>528.09997558594</ele>
        <time>2011-04-25T07:15:35Z</time>
      </trkpt>
      <trkpt lat="45.14401" lon="5.10729">
        <ele>528.09997558594</ele>
        <time>2011-04-25T07:15:38Z</time>
      </trkpt>
      <trkpt lat="45.14401" lon="5.10729">
        <ele>528.20001220703</ele>
        <time>2011-04-25T07:15:41Z</time>
      </trkpt>
      <trkpt lat="45.14401" lon="5.10729">
        <ele>528.20001220703</ele>
        <time>2011-04-25T07:15:45Z</time>
      </trkpt>
      <trkpt lat="45.14401" lon="5.10729">
        <ele>528.20001220703</ele>
        <time>2011-04-25T07:15:48Z</time>
      </trkpt>
      <trkpt lat="45.14401" lon="5.10729">
        <ele>528.20001220703</ele>
        <time>2011-04-25T07:15:51Z</time>
      </trkpt>
      <trkpt lat="45.14401" lon="5.10729">
        <ele>528.20001220703</ele>
        <time>2011-04-25T07:15:54Z</time>
      </trkpt>
      <trkpt lat="45.14401" lon="5.10729">
        <ele>528.20001220703</ele>
        <time>2011-04-25T07:15:57Z</time>
      </trkpt>
      <trkpt lat="45.14401" lon="5.10729">
        <ele>528.20001220703</ele>
        <time>2011-04-25T07:16:00Z</time>
      </trkpt>
      <trkpt lat="45.14401" lon="5.10729">
        <ele>528.20001220703</ele>
        <time>2011-04-25T07:16:03Z</time>
      </trkpt>
      <trkpt lat="45.14401" lon="5.10729">
        <ele>528.20001220703</ele>
        <time>2011-04-25T07:16:06Z</time>
      </trkpt>
      <trkpt lat="45.14401" lon="5.10729">
        <ele>528.20001220703</ele>
        <time>2011-04-25T07:16:09Z</time>
      </trkpt>
      <trkpt lat="45.14401" lon="5.10729">
        <ele>528.20001220703</ele>
        <time>2011-04-25T07:16:12Z</time>
      </trkpt>
      <trkpt lat="45.14401" lon="5.10729">
        <ele>528.20001220703</ele>
        <time>2011-04-25T07:16:15Z</time>
      </trkpt>
      <trkpt lat="45.14401" lon="5.10729">
        <ele>528.20001220703</ele>
        <time>2011-04-25T07:16:19Z</time>
      </trkpt>
      <trkpt lat="45.14401" lon="5.10729">
        <ele>528.20001220703</ele>
        <time>2011-04-25T07:16:22Z</time>
      </trkpt>
      <trkpt lat="45.14401" lon="5.10729">
        <ele>528.20001220703</ele>
        <time>2011-04-25T07:16:25Z</time>
      </trkpt>
      <trkpt lat="45.14401" lon="5.10729">
        <ele>528.20001220703</ele>
        <time>2011-04-25T07:16:28Z</time>
      </trkpt>
      <trkpt lat="45.14401" lon="5.10729">
        <ele>528.09997558594</ele>
        <time>2011-04-25T07:16:31Z</time>
      </trkpt>
      <trkpt lat="45.14401" lon="5.10729">
        <ele>528.20001220703</ele>
        <time>2011-04-25T07:16:34Z</time>
      </trkpt>
      <trkpt lat="45.14401" lon="5.10729">
        <ele>528.20001220703</ele>
        <time>2011-04-25T07:16:37Z</time>
      </trkpt>
      <trkpt lat="45.14401" lon="5.10729">
        <ele>528.20001220703</ele>
        <time>2011-04-25T07:16:40Z</time>
      </trkpt>
      <trkpt lat="45.14401" lon="5.10729">
        <ele>528.20001220703</ele>
        <time>2011-04-25T07:16:43Z</time>
      </trkpt>
      <trkpt lat="45.14401" lon="5.10729">
        <ele>528.20001220703</ele>
        <time>2011-04-25T07:16:46Z</time>
      </trkpt>
      <trkpt lat="45.14401" lon="5.10729">
        <ele>528.20001220703</ele>
        <time>2011-04-25T07:16:49Z</time>
      </trkpt>
      <trkpt lat="45.14401" lon="5.10729">
        <ele>528.20001220703</ele>
        <time>2011-04-25T07:16:53Z</time>
      </trkpt>
      <trkpt lat="45.14401" lon="5.10729">
        <ele>528.20001220703</ele>
        <time>2011-04-25T07:16:56Z</time>
      </trkpt>
      <trkpt lat="45.14401" lon="5.10729">
        <ele>528.20001220703</ele>
        <time>2011-04-25T07:16:59Z</time>
      </trkpt>
      <trkpt lat="45.14401" lon="5.10729">
        <ele>528.20001220703</ele>
        <time>2011-04-25T07:17:02Z</time>
      </trkpt>
      <trkpt lat="45.14401" lon="5.10729">
        <ele>528.20001220703</ele>
        <time>2011-04-25T07:17:05Z</time>
      </trkpt>
      <trkpt lat="45.14401" lon="5.10729">
        <ele>528.20001220703</ele>
        <time>2011-04-25T07:17:08Z</time>
      </trkpt>
      <trkpt lat="45.14401" lon="5.10729">
        <ele>528.20001220703</ele>
        <time>2011-04-25T07:17:11Z</time>
      </trkpt>
      <trkpt lat="45.14401" lon="5.10729">
        <ele>528.20001220703</ele>
        <time>2011-04-25T07:17:14Z</time>
      </trkpt>
      <trkpt lat="45.14401" lon="5.10729">
        <ele>528.20001220703</ele>
        <time>2011-04-25T07:17:17Z</time>
      </trkpt>
      <trkpt lat="45.14401" lon="5.10729">
        <ele>528.20001220703</ele>
        <time>2011-04-25T07:17:20Z</time>
      </trkpt>
      <trkpt lat="45.14401" lon="5.10729">
        <ele>528.20001220703</ele>
        <time>2011-04-25T07:17:23Z</time>
      </trkpt>
      <trkpt lat="45.14401" lon="5.10729">
        <ele>528.20001220703</ele>
        <time>2011-04-25T07:17:27Z</time>
      </trkpt>
      <trkpt lat="45.14401" lon="5.10729">
        <ele>528.20001220703</ele>
        <time>2011-04-25T07:17:30Z</time>
      </trkpt>
      <trkpt lat="45.14401" lon="5.10729">
        <ele>528.29998779297</ele>
        <time>2011-04-25T07:17:33Z</time>
      </trkpt>
      <trkpt lat="45.14401" lon="5.10729">
        <ele>528.29998779297</ele>
        <time>2011-04-25T07:17:36Z</time>
      </trkpt>
      <trkpt lat="45.14401" lon="5.10729">
        <ele>528.20001220703</ele>
        <time>2011-04-25T07:17:39Z</time>
      </trkpt>
      <trkpt lat="45.14401" lon="5.10729">
        <ele>528.20001220703</ele>
        <time>2011-04-25T07:17:42Z</time>
      </trkpt>
      <trkpt lat="45.14401" lon="5.10729">
        <ele>528.20001220703</ele>
        <time>2011-04-25T07:17:45Z</time>
      </trkpt>
      <trkpt lat="45.14401" lon="5.10729">
        <ele>528.20001220703</ele>
        <time>2011-04-25T07:17:48Z</time>
      </trkpt>
      <trkpt lat="45.14401" lon="5.10729">
        <ele>528.20001220703</ele>
        <time>2011-04-25T07:17:51Z</time>
      </trkpt>
      <trkpt lat="45.14398" lon="5.10734">
        <ele>527.5</ele>
        <time>2011-04-25T07:17:54Z</time>
      </trkpt>
      <trkpt lat="45.14382" lon="5.10756">
        <ele>528.09997558594</ele>
        <time>2011-04-25T07:17:57Z</time>
      </trkpt>
      <trkpt lat="45.1437" lon="5.10773">
        <ele>530</ele>
        <time>2011-04-25T07:18:01Z</time>
      </trkpt>
      <trkpt lat="45.14369" lon="5.10794">
        <ele>525.59997558594</ele>
        <time>2011-04-25T07:18:04Z</time>
      </trkpt>
      <trkpt lat="45.14369" lon="5.10807">
        <ele>524.09997558594</ele>
        <time>2011-04-25T07:18:07Z</time>
      </trkpt>
      <trkpt lat="45.14375" lon="5.10817">
        <ele>523.29998779297</ele>
        <time>2011-04-25T07:18:10Z</time>
      </trkpt>
      <trkpt lat="45.1438" lon="5.10825">
        <ele>523.20001220703</ele>
        <time>2011-04-25T07:18:13Z</time>
      </trkpt>
      <trkpt lat="45.1438" lon="5.10839">
        <ele>522.09997558594</ele>
        <time>2011-04-25T07:18:16Z</time>
      </trkpt>
      <trkpt lat="45.14384" lon="5.10856">
        <ele>521.20001220703</ele>
        <time>2011-04-25T07:18:19Z</time>
      </trkpt>
      <trkpt lat="45.14386" lon="5.10875">
        <ele>521.90002441406</ele>
        <time>2011-04-25T07:18:22Z</time>
      </trkpt>
      <trkpt lat="45.14374" lon="5.10899">
        <ele>521.40002441406</ele>
        <time>2011-04-25T07:18:25Z</time>
      </trkpt>
      <trkpt lat="45.14368" lon="5.10915">
        <ele>521.59997558594</ele>
        <time>2011-04-25T07:18:28Z</time>
      </trkpt>
      <trkpt lat="45.14367" lon="5.10928">
        <ele>520.29998779297</ele>
        <time>2011-04-25T07:18:31Z</time>
      </trkpt>
      <trkpt lat="45.14364" lon="5.10936">
        <ele>518.90002441406</ele>
        <time>2011-04-25T07:18:35Z</time>
      </trkpt>
      <trkpt lat="45.14363" lon="5.10944">
        <ele>517.5</ele>
        <time>2011-04-25T07:18:38Z</time>
      </trkpt>
      <trkpt lat="45.14362" lon="5.10947">
        <ele>516.59997558594</ele>
        <time>2011-04-25T07:18:41Z</time>
      </trkpt>
      <trkpt lat="45.14364" lon="5.10948">
        <ele>514.09997558594</ele>
        <time>2011-04-25T07:18:44Z</time>
      </trkpt>
      <trkpt lat="45.14363" lon="5.10955">
        <ele>510.89999389648</ele>
        <time>2011-04-25T07:18:47Z</time>
      </trkpt>
      <trkpt lat="45.14362" lon="5.10958">
        <ele>510.10000610352</ele>
        <time>2011-04-25T07:18:50Z</time>
      </trkpt>
      <trkpt lat="45.14361" lon="5.10962">
        <ele>510.29998779297</ele>
        <time>2011-04-25T07:18:53Z</time>
      </trkpt>
      <trkpt lat="45.14361" lon="5.10964">
        <ele>509</ele>
        <time>2011-04-25T07:18:56Z</time>
      </trkpt>
      <trkpt lat="45.14361" lon="5.10968">
        <ele>507.70001220703</ele>
        <time>2011-04-25T07:18:59Z</time>
      </trkpt>
      <trkpt lat="45.14364" lon="5.10979">
        <ele>507</ele>
        <time>2011-04-25T07:19:02Z</time>
      </trkpt>
      <trkpt lat="45.14364" lon="5.10991">
        <ele>505.29998779297</ele>
        <time>2011-04-25T07:19:05Z</time>
      </trkpt>
      <trkpt lat="45.14368" lon="5.1101">
        <ele>503.29998779297</ele>
        <time>2011-04-25T07:19:09Z</time>
      </trkpt>
      <trkpt lat="45.14369" lon="5.11027">
        <ele>502.70001220703</ele>
        <time>2011-04-25T07:19:12Z</time>
      </trkpt>
      <trkpt lat="45.14371" lon="5.11049">
        <ele>503</ele>
        <time>2011-04-25T07:19:15Z</time>
      </trkpt>
      <trkpt lat="45.14369" lon="5.11068">
        <ele>501.70001220703</ele>
        <time>2011-04-25T07:19:18Z</time>
      </trkpt>
      <trkpt lat="45.14365" lon="5.11094">
        <ele>500.20001220703</ele>
        <time>2011-04-25T07:19:21Z</time>
      </trkpt>
      <trkpt lat="45.14369" lon="5.11119">
        <ele>499.20001220703</ele>
        <time>2011-04-25T07:19:24Z</time>
      </trkpt>
      <trkpt lat="45.14372" lon="5.11146">
        <ele>497.10000610352</ele>
        <time>2011-04-25T07:19:27Z</time>
      </trkpt>
      <trkpt lat="45.14378" lon="5.11168">
        <ele>494.5</ele>
        <time>2011-04-25T07:19:30Z</time>
      </trkpt>
      <trkpt lat="45.14381" lon="5.11191">
        <ele>493.5</ele>
        <time>2011-04-25T07:19:33Z</time>
      </trkpt>
      <trkpt lat="45.14387" lon="5.11214">
        <ele>490.60000610352</ele>
        <time>2011-04-25T07:19:36Z</time>
      </trkpt>
      <trkpt lat="45.14389" lon="5.11238">
        <ele>487.20001220703</ele>
        <time>2011-04-25T07:19:39Z</time>
      </trkpt>
      <trkpt lat="45.14387" lon="5.11278">
        <ele>481.5</ele>
        <time>2011-04-25T07:19:43Z</time>
      </trkpt>
      <trkpt lat="45.14387" lon="5.11308">
        <ele>477.20001220703</ele>
        <time>2011-04-25T07:19:46Z</time>
      </trkpt>
      <trkpt lat="45.14394" lon="5.11329">
        <ele>474.60000610352</ele>
        <time>2011-04-25T07:19:49Z</time>
      </trkpt>
      <trkpt lat="45.14402" lon="5.11349">
        <ele>473.10000610352</ele>
        <time>2011-04-25T07:19:52Z</time>
      </trkpt>
      <trkpt lat="45.14412" lon="5.11374">
        <ele>470.89999389648</ele>
        <time>2011-04-25T07:19:55Z</time>
      </trkpt>
      <trkpt lat="45.1442" lon="5.11391">
        <ele>468.79998779297</ele>
        <time>2011-04-25T07:19:58Z</time>
      </trkpt>
      <trkpt lat="45.14426" lon="5.11409">
        <ele>467.39999389648</ele>
        <time>2011-04-25T07:20:01Z</time>
      </trkpt>
      <trkpt lat="45.1443" lon="5.1143">
        <ele>466</ele>
        <time>2011-04-25T07:20:04Z</time>
      </trkpt>
      <trkpt lat="45.14434" lon="5.11448">
        <ele>465</ele>
        <time>2011-04-25T07:20:07Z</time>
      </trkpt>
      <trkpt lat="45.14435" lon="5.11451">
        <ele>463.60000610352</ele>
        <time>2011-04-25T07:20:10Z</time>
      </trkpt>
      <trkpt lat="45.14434" lon="5.11459">
        <ele>461.79998779297</ele>
        <time>2011-04-25T07:20:13Z</time>
      </trkpt>
      <trkpt lat="45.14434" lon="5.11462">
        <ele>462.5</ele>
        <time>2011-04-25T07:20:17Z</time>
      </trkpt>
      <trkpt lat="45.14435" lon="5.11457">
        <ele>462</ele>
        <time>2011-04-25T07:20:20Z</time>
      </trkpt>
      <trkpt lat="45.14436" lon="5.11454">
        <ele>460.89999389648</ele>
        <time>2011-04-25T07:20:23Z</time>
      </trkpt>
      <trkpt lat="45.14436" lon="5.11452">
        <ele>460.89999389648</ele>
        <time>2011-04-25T07:20:26Z</time>
      </trkpt>
      <trkpt lat="45.14436" lon="5.11453">
        <ele>460.79998779297</ele>
        <time>2011-04-25T07:20:29Z</time>
      </trkpt>
      <trkpt lat="45.14437" lon="5.11453">
        <ele>460.5</ele>
        <time>2011-04-25T07:20:32Z</time>
      </trkpt>
      <trkpt lat="45.14437" lon="5.11453">
        <ele>460.5</ele>
        <time>2011-04-25T07:20:35Z</time>
      </trkpt>
      <trkpt lat="45.14436" lon="5.11453">
        <ele>460.60000610352</ele>
        <time>2011-04-25T07:20:38Z</time>
      </trkpt>
      <trkpt lat="45.14436" lon="5.11453">
        <ele>460.5</ele>
        <time>2011-04-25T07:20:41Z</time>
      </trkpt>
      <trkpt lat="45.14436" lon="5.11453">
        <ele>460.5</ele>
        <time>2011-04-25T07:20:44Z</time>
      </trkpt>
      <trkpt lat="45.14436" lon="5.11453">
        <ele>460.5</ele>
        <time>2011-04-25T07:20:47Z</time>
      </trkpt>
      <trkpt lat="45.14436" lon="5.11453">
        <ele>460.5</ele>
        <time>2011-04-25T07:20:51Z</time>
      </trkpt>
      <trkpt lat="45.14436" lon="5.11454">
        <ele>460.5</ele>
        <time>2011-04-25T07:20:54Z</time>
      </trkpt>
      <trkpt lat="45.14442" lon="5.11464">
        <ele>456.39999389648</ele>
        <time>2011-04-25T07:20:57Z</time>
      </trkpt>
      <trkpt lat="45.14443" lon="5.11482">
        <ele>455.10000610352</ele>
        <time>2011-04-25T07:21:00Z</time>
      </trkpt>
      <trkpt lat="45.14444" lon="5.11514">
        <ele>454</ele>
        <time>2011-04-25T07:21:03Z</time>
      </trkpt>
      <trkpt lat="45.14445" lon="5.11551">
        <ele>452.20001220703</ele>
        <time>2011-04-25T07:21:06Z</time>
      </trkpt>
      <trkpt lat="45.14445" lon="5.11594">
        <ele>451.5</ele>
        <time>2011-04-25T07:21:09Z</time>
      </trkpt>
      <trkpt lat="45.14445" lon="5.11636">
        <ele>449.79998779297</ele>
        <time>2011-04-25T07:21:12Z</time>
      </trkpt>
      <trkpt lat="45.14443" lon="5.11684">
        <ele>444.89999389648</ele>
        <time>2011-04-25T07:21:15Z</time>
      </trkpt>
      <trkpt lat="45.14443" lon="5.11723">
        <ele>439.29998779297</ele>
        <time>2011-04-25T07:21:18Z</time>
      </trkpt>
      <trkpt lat="45.14429" lon="5.11762">
        <ele>436.60000610352</ele>
        <time>2011-04-25T07:21:21Z</time>
      </trkpt>
      <trkpt lat="45.14404" lon="5.11819">
        <ele>430.39999389648</ele>
        <time>2011-04-25T07:21:25Z</time>
      </trkpt>
      <trkpt lat="45.14383" lon="5.1186">
        <ele>426.39999389648</ele>
        <time>2011-04-25T07:21:28Z</time>
      </trkpt>
      <trkpt lat="45.14361" lon="5.11898">
        <ele>421.5</ele>
        <time>2011-04-25T07:21:31Z</time>
      </trkpt>
      <trkpt lat="45.14348" lon="5.11929">
        <ele>417.10000610352</ele>
        <time>2011-04-25T07:21:34Z</time>
      </trkpt>
      <trkpt lat="45.14339" lon="5.11947">
        <ele>415.5</ele>
        <time>2011-04-25T07:21:37Z</time>
      </trkpt>
      <trkpt lat="45.14336" lon="5.11957">
        <ele>413.60000610352</ele>
        <time>2011-04-25T07:21:40Z</time>
      </trkpt>
      <trkpt lat="45.14338" lon="5.11967">
        <ele>412.10000610352</ele>
        <time>2011-04-25T07:21:43Z</time>
      </trkpt>
      <trkpt lat="45.1434" lon="5.11976">
        <ele>411.79998779297</ele>
        <time>2011-04-25T07:21:45Z</time>
      </trkpt>
      <trkpt lat="45.14349" lon="5.11982">
        <ele>409.89999389648</ele>
        <time>2011-04-25T07:21:48Z</time>
      </trkpt>
      <trkpt lat="45.1436" lon="5.11987">
        <ele>409.89999389648</ele>
        <time>2011-04-25T07:21:51Z</time>
      </trkpt>
      <trkpt lat="45.14371" lon="5.11997">
        <ele>407.60000610352</ele>
        <time>2011-04-25T07:21:54Z</time>
      </trkpt>
      <trkpt lat="45.14383" lon="5.12012">
        <ele>405.89999389648</ele>
        <time>2011-04-25T07:21:58Z</time>
      </trkpt>
      <trkpt lat="45.14392" lon="5.12025">
        <ele>404.10000610352</ele>
        <time>2011-04-25T07:22:01Z</time>
      </trkpt>
      <trkpt lat="45.14403" lon="5.12038">
        <ele>403.39999389648</ele>
        <time>2011-04-25T07:22:04Z</time>
      </trkpt>
      <trkpt lat="45.14413" lon="5.12048">
        <ele>402.5</ele>
        <time>2011-04-25T07:22:07Z</time>
      </trkpt>
      <trkpt lat="45.14421" lon="5.12063">
        <ele>401.70001220703</ele>
        <time>2011-04-25T07:22:10Z</time>
      </trkpt>
      <trkpt lat="45.14428" lon="5.12077">
        <ele>401.60000610352</ele>
        <time>2011-04-25T07:22:13Z</time>
      </trkpt>
      <trkpt lat="45.14437" lon="5.12083">
        <ele>400.60000610352</ele>
        <time>2011-04-25T07:22:16Z</time>
      </trkpt>
      <trkpt lat="45.14443" lon="5.12093">
        <ele>400.20001220703</ele>
        <time>2011-04-25T07:22:19Z</time>
      </trkpt>
      <trkpt lat="45.14451" lon="5.12106">
        <ele>400.79998779297</ele>
        <time>2011-04-25T07:22:22Z</time>
      </trkpt>
      <trkpt lat="45.14457" lon="5.12118">
        <ele>400.10000610352</ele>
        <time>2011-04-25T07:22:25Z</time>
      </trkpt>
      <trkpt lat="45.14465" lon="5.12132">
        <ele>399.5</ele>
        <time>2011-04-25T07:22:28Z</time>
      </trkpt>
      <trkpt lat="45.14473" lon="5.12146">
        <ele>398.89999389648</ele>
        <time>2011-04-25T07:22:32Z</time>
      </trkpt>
      <trkpt lat="45.1448" lon="5.12162">
        <ele>397.5</ele>
        <time>2011-04-25T07:22:35Z</time>
      </trkpt>
      <trkpt lat="45.14488" lon="5.12174">
        <ele>397</ele>
        <time>2011-04-25T07:22:38Z</time>
      </trkpt>
      <trkpt lat="45.14498" lon="5.12184">
        <ele>397</ele>
        <time>2011-04-25T07:22:41Z</time>
      </trkpt>
      <trkpt lat="45.14507" lon="5.12191">
        <ele>398.29998779297</ele>
        <time>2011-04-25T07:22:44Z</time>
      </trkpt>
      <trkpt lat="45.14514" lon="5.122">
        <ele>397.70001220703</ele>
        <time>2011-04-25T07:22:47Z</time>
      </trkpt>
      <trkpt lat="45.1452" lon="5.12214">
        <ele>396.60000610352</ele>
        <time>2011-04-25T07:22:50Z</time>
      </trkpt>
      <trkpt lat="45.14532" lon="5.12225">
        <ele>396</ele>
        <time>2011-04-25T07:22:53Z</time>
      </trkpt>
      <trkpt lat="45.14539" lon="5.12236">
        <ele>395.5</ele>
        <time>2011-04-25T07:22:56Z</time>
      </trkpt>
      <trkpt lat="45.14549" lon="5.12242">
        <ele>395.39999389648</ele>
        <time>2011-04-25T07:22:59Z</time>
      </trkpt>
      <trkpt lat="45.14557" lon="5.12253">
        <ele>395.39999389648</ele>
        <time>2011-04-25T07:23:02Z</time>
      </trkpt>
      <trkpt lat="45.14576" lon="5.12239">
        <ele>392.10000610352</ele>
        <time>2011-04-25T07:23:06Z</time>
      </trkpt>
      <trkpt lat="45.14585" lon="5.12246">
        <ele>392.20001220703</ele>
        <time>2011-04-25T07:23:09Z</time>
      </trkpt>
      <trkpt lat="45.14594" lon="5.12253">
        <ele>392</ele>
        <time>2011-04-25T07:23:12Z</time>
      </trkpt>
      <trkpt lat="45.14608" lon="5.12255">
        <ele>392</ele>
        <time>2011-04-25T07:23:15Z</time>
      </trkpt>
      <trkpt lat="45.14614" lon="5.12268">
        <ele>392.10000610352</ele>
        <time>2011-04-25T07:23:18Z</time>
      </trkpt>
      <trkpt lat="45.14623" lon="5.1228">
        <ele>392.70001220703</ele>
        <time>2011-04-25T07:23:21Z</time>
      </trkpt>
      <trkpt lat="45.14634" lon="5.12296">
        <ele>390.60000610352</ele>
        <time>2011-04-25T07:23:24Z</time>
      </trkpt>
      <trkpt lat="45.14641" lon="5.12305">
        <ele>389.5</ele>
        <time>2011-04-25T07:23:27Z</time>
      </trkpt>
      <trkpt lat="45.14649" lon="5.12314">
        <ele>389.39999389648</ele>
        <time>2011-04-25T07:23:30Z</time>
      </trkpt>
      <trkpt lat="45.14659" lon="5.12321">
        <ele>389.10000610352</ele>
        <time>2011-04-25T07:23:33Z</time>
      </trkpt>
      <trkpt lat="45.14666" lon="5.1233">
        <ele>389.20001220703</ele>
        <time>2011-04-25T07:23:36Z</time>
      </trkpt>
      <trkpt lat="45.14678" lon="5.12345">
        <ele>389.20001220703</ele>
        <time>2011-04-25T07:23:40Z</time>
      </trkpt>
      <trkpt lat="45.14685" lon="5.12354">
        <ele>388.39999389648</ele>
        <time>2011-04-25T07:23:43Z</time>
      </trkpt>
      <trkpt lat="45.14694" lon="5.12364">
        <ele>389.39999389648</ele>
        <time>2011-04-25T07:23:46Z</time>
      </trkpt>
      <trkpt lat="45.14704" lon="5.12373">
        <ele>389.60000610352</ele>
        <time>2011-04-25T07:23:49Z</time>
      </trkpt>
      <trkpt lat="45.14711" lon="5.12383">
        <ele>390.10000610352</ele>
        <time>2011-04-25T07:23:52Z</time>
      </trkpt>
      <trkpt lat="45.14718" lon="5.12397">
        <ele>390.60000610352</ele>
        <time>2011-04-25T07:23:55Z</time>
      </trkpt>
      <trkpt lat="45.14726" lon="5.12408">
        <ele>390.20001220703</ele>
        <time>2011-04-25T07:23:58Z</time>
      </trkpt>
      <trkpt lat="45.14732" lon="5.12421">
        <ele>389.79998779297</ele>
        <time>2011-04-25T07:24:01Z</time>
      </trkpt>
      <trkpt lat="45.14739" lon="5.12429">
        <ele>390.39999389648</ele>
        <time>2011-04-25T07:24:04Z</time>
      </trkpt>
      <trkpt lat="45.14746" lon="5.12439">
        <ele>391.10000610352</ele>
        <time>2011-04-25T07:24:07Z</time>
      </trkpt>
      <trkpt lat="45.14753" lon="5.12447">
        <ele>389.5</ele>
        <time>2011-04-25T07:24:10Z</time>
      </trkpt>
      <trkpt lat="45.14762" lon="5.12459">
        <ele>391.29998779297</ele>
        <time>2011-04-25T07:24:14Z</time>
      </trkpt>
      <trkpt lat="45.1477" lon="5.1247">
        <ele>391.10000610352</ele>
        <time>2011-04-25T07:24:17Z</time>
      </trkpt>
      <trkpt lat="45.14777" lon="5.12477">
        <ele>391.79998779297</ele>
        <time>2011-04-25T07:24:20Z</time>
      </trkpt>
      <trkpt lat="45.14783" lon="5.12486">
        <ele>391.60000610352</ele>
        <time>2011-04-25T07:24:23Z</time>
      </trkpt>
      <trkpt lat="45.14792" lon="5.12495">
        <ele>391.60000610352</ele>
        <time>2011-04-25T07:24:26Z</time>
      </trkpt>
      <trkpt lat="45.14799" lon="5.12503">
        <ele>390.60000610352</ele>
        <time>2011-04-25T07:24:29Z</time>
      </trkpt>
      <trkpt lat="45.14804" lon="5.12511">
        <ele>390.89999389648</ele>
        <time>2011-04-25T07:24:32Z</time>
      </trkpt>
      <trkpt lat="45.1481" lon="5.12519">
        <ele>390.29998779297</ele>
        <time>2011-04-25T07:24:35Z</time>
      </trkpt>
      <trkpt lat="45.14816" lon="5.12527">
        <ele>390.5</ele>
        <time>2011-04-25T07:24:38Z</time>
      </trkpt>
      <trkpt lat="45.14822" lon="5.12535">
        <ele>391.39999389648</ele>
        <time>2011-04-25T07:24:41Z</time>
      </trkpt>
      <trkpt lat="45.14829" lon="5.12541">
        <ele>389.5</ele>
        <time>2011-04-25T07:24:44Z</time>
      </trkpt>
      <trkpt lat="45.14834" lon="5.12551">
        <ele>389</ele>
        <time>2011-04-25T07:24:48Z</time>
      </trkpt>
      <trkpt lat="45.14839" lon="5.12557">
        <ele>389.60000610352</ele>
        <time>2011-04-25T07:24:51Z</time>
      </trkpt>
      <trkpt lat="45.14845" lon="5.1257">
        <ele>388.20001220703</ele>
        <time>2011-04-25T07:24:54Z</time>
      </trkpt>
      <trkpt lat="45.1485" lon="5.12581">
        <ele>387.70001220703</ele>
        <time>2011-04-25T07:24:57Z</time>
      </trkpt>
      <trkpt lat="45.14855" lon="5.12594">
        <ele>386.79998779297</ele>
        <time>2011-04-25T07:25:00Z</time>
      </trkpt>
      <trkpt lat="45.14861" lon="5.126">
        <ele>388</ele>
        <time>2011-04-25T07:25:03Z</time>
      </trkpt>
      <trkpt lat="45.14868" lon="5.12605">
        <ele>388</ele>
        <time>2011-04-25T07:25:06Z</time>
      </trkpt>
      <trkpt lat="45.14872" lon="5.12617">
        <ele>388.10000610352</ele>
        <time>2011-04-25T07:25:09Z</time>
      </trkpt>
      <trkpt lat="45.14876" lon="5.12626">
        <ele>389.29998779297</ele>
        <time>2011-04-25T07:25:12Z</time>
      </trkpt>
      <trkpt lat="45.1488" lon="5.12637">
        <ele>391</ele>
        <time>2011-04-25T07:25:15Z</time>
      </trkpt>
      <trkpt lat="45.14885" lon="5.12646">
        <ele>390.79998779297</ele>
        <time>2011-04-25T07:25:18Z</time>
      </trkpt>
      <trkpt lat="45.14891" lon="5.12662">
        <ele>391.20001220703</ele>
        <time>2011-04-25T07:25:22Z</time>
      </trkpt>
      <trkpt lat="45.14896" lon="5.12667">
        <ele>391.39999389648</ele>
        <time>2011-04-25T07:25:25Z</time>
      </trkpt>
      <trkpt lat="45.14902" lon="5.12675">
        <ele>391.39999389648</ele>
        <time>2011-04-25T07:25:28Z</time>
      </trkpt>
      <trkpt lat="45.14905" lon="5.12688">
        <ele>391.79998779297</ele>
        <time>2011-04-25T07:25:31Z</time>
      </trkpt>
      <trkpt lat="45.14912" lon="5.12697">
        <ele>392.60000610352</ele>
        <time>2011-04-25T07:25:34Z</time>
      </trkpt>
      <trkpt lat="45.14917" lon="5.12704">
        <ele>392.89999389648</ele>
        <time>2011-04-25T07:25:37Z</time>
      </trkpt>
      <trkpt lat="45.1492" lon="5.12716">
        <ele>392.79998779297</ele>
        <time>2011-04-25T07:25:40Z</time>
      </trkpt>
      <trkpt lat="45.14923" lon="5.12728">
        <ele>393.39999389648</ele>
        <time>2011-04-25T07:25:43Z</time>
      </trkpt>
      <trkpt lat="45.14927" lon="5.1274">
        <ele>392.5</ele>
        <time>2011-04-25T07:25:46Z</time>
      </trkpt>
      <trkpt lat="45.14932" lon="5.12751">
        <ele>393</ele>
        <time>2011-04-25T07:25:49Z</time>
      </trkpt>
      <trkpt lat="45.14938" lon="5.12759">
        <ele>393.10000610352</ele>
        <time>2011-04-25T07:25:52Z</time>
      </trkpt>
      <trkpt lat="45.14946" lon="5.12773">
        <ele>394.39999389648</ele>
        <time>2011-04-25T07:25:56Z</time>
      </trkpt>
      <trkpt lat="45.14952" lon="5.12783">
        <ele>394.5</ele>
        <time>2011-04-25T07:25:59Z</time>
      </trkpt>
      <trkpt lat="45.14957" lon="5.1279">
        <ele>394.10000610352</ele>
        <time>2011-04-25T07:26:02Z</time>
      </trkpt>
      <trkpt lat="45.14962" lon="5.12799">
        <ele>393.79998779297</ele>
        <time>2011-04-25T07:26:05Z</time>
      </trkpt>
      <trkpt lat="45.14967" lon="5.12808">
        <ele>394.29998779297</ele>
        <time>2011-04-25T07:26:08Z</time>
      </trkpt>
      <trkpt lat="45.14972" lon="5.12817">
        <ele>394.70001220703</ele>
        <time>2011-04-25T07:26:11Z</time>
      </trkpt>
      <trkpt lat="45.14977" lon="5.12828">
        <ele>396.29998779297</ele>
        <time>2011-04-25T07:26:14Z</time>
      </trkpt>
      <trkpt lat="45.1498" lon="5.1284">
        <ele>396</ele>
        <time>2011-04-25T07:26:17Z</time>
      </trkpt>
      <trkpt lat="45.14984" lon="5.12851">
        <ele>396.89999389648</ele>
        <time>2011-04-25T07:26:20Z</time>
      </trkpt>
      <trkpt lat="45.14989" lon="5.12861">
        <ele>396.89999389648</ele>
        <time>2011-04-25T07:26:23Z</time>
      </trkpt>
      <trkpt lat="45.14995" lon="5.12869">
        <ele>396.89999389648</ele>
        <time>2011-04-25T07:26:26Z</time>
      </trkpt>
      <trkpt lat="45.15001" lon="5.12883">
        <ele>398.5</ele>
        <time>2011-04-25T07:26:30Z</time>
      </trkpt>
      <trkpt lat="45.15006" lon="5.12893">
        <ele>398.10000610352</ele>
        <time>2011-04-25T07:26:33Z</time>
      </trkpt>
      <trkpt lat="45.15014" lon="5.12908">
        <ele>399</ele>
        <time>2011-04-25T07:26:36Z</time>
      </trkpt>
      <trkpt lat="45.15016" lon="5.12919">
        <ele>399.79998779297</ele>
        <time>2011-04-25T07:26:39Z</time>
      </trkpt>
      <trkpt lat="45.15021" lon="5.12928">
        <ele>399.60000610352</ele>
        <time>2011-04-25T07:26:42Z</time>
      </trkpt>
      <trkpt lat="45.15027" lon="5.1294">
        <ele>399</ele>
        <time>2011-04-25T07:26:45Z</time>
      </trkpt>
      <trkpt lat="45.15029" lon="5.12953">
        <ele>399.79998779297</ele>
        <time>2011-04-25T07:26:48Z</time>
      </trkpt>
      <trkpt lat="45.15036" lon="5.12964">
        <ele>400.10000610352</ele>
        <time>2011-04-25T07:26:51Z</time>
      </trkpt>
      <trkpt lat="45.15042" lon="5.1298">
        <ele>400.10000610352</ele>
        <time>2011-04-25T07:26:54Z</time>
      </trkpt>
      <trkpt lat="45.15049" lon="5.1299">
        <ele>399.5</ele>
        <time>2011-04-25T07:26:57Z</time>
      </trkpt>
      <trkpt lat="45.15054" lon="5.13001">
        <ele>400.20001220703</ele>
        <time>2011-04-25T07:27:00Z</time>
      </trkpt>
      <trkpt lat="45.15061" lon="5.13011">
        <ele>401</ele>
        <time>2011-04-25T07:27:04Z</time>
      </trkpt>
      <trkpt lat="45.15066" lon="5.13022">
        <ele>400.70001220703</ele>
        <time>2011-04-25T07:27:07Z</time>
      </trkpt>
      <trkpt lat="45.15072" lon="5.13031">
        <ele>401.39999389648</ele>
        <time>2011-04-25T07:27:10Z</time>
      </trkpt>
      <trkpt lat="45.15079" lon="5.13038">
        <ele>401.20001220703</ele>
        <time>2011-04-25T07:27:13Z</time>
      </trkpt>
      <trkpt lat="45.15084" lon="5.13048">
        <ele>400.39999389648</ele>
        <time>2011-04-25T07:27:16Z</time>
      </trkpt>
      <trkpt lat="45.15088" lon="5.13059">
        <ele>399.89999389648</ele>
        <time>2011-04-25T07:27:19Z</time>
      </trkpt>
      <trkpt lat="45.15093" lon="5.13068">
        <ele>401</ele>
        <time>2011-04-25T07:27:22Z</time>
      </trkpt>
      <trkpt lat="45.15099" lon="5.13076">
        <ele>400.79998779297</ele>
        <time>2011-04-25T07:27:25Z</time>
      </trkpt>
      <trkpt lat="45.15105" lon="5.13089">
        <ele>400.29998779297</ele>
        <time>2011-04-25T07:27:28Z</time>
      </trkpt>
      <trkpt lat="45.15111" lon="5.13095">
        <ele>400.79998779297</ele>
        <time>2011-04-25T07:27:31Z</time>
      </trkpt>
      <trkpt lat="45.15117" lon="5.13102">
        <ele>401.10000610352</ele>
        <time>2011-04-25T07:27:34Z</time>
      </trkpt>
      <trkpt lat="45.15128" lon="5.13102">
        <ele>402.20001220703</ele>
        <time>2011-04-25T07:27:38Z</time>
      </trkpt>
      <trkpt lat="45.15133" lon="5.13101">
        <ele>403</ele>
        <time>2011-04-25T07:27:41Z</time>
      </trkpt>
      <trkpt lat="45.15139" lon="5.13101">
        <ele>403.29998779297</ele>
        <time>2011-04-25T07:27:44Z</time>
      </trkpt>
      <trkpt lat="45.15144" lon="5.13103">
        <ele>404.5</ele>
        <time>2011-04-25T07:27:47Z</time>
      </trkpt>
      <trkpt lat="45.15149" lon="5.13105">
        <ele>404.89999389648</ele>
        <time>2011-04-25T07:27:50Z</time>
      </trkpt>
      <trkpt lat="45.15157" lon="5.13107">
        <ele>405.39999389648</ele>
        <time>2011-04-25T07:27:53Z</time>
      </trkpt>
      <trkpt lat="45.15165" lon="5.13105">
        <ele>405.20001220703</ele>
        <time>2011-04-25T07:27:56Z</time>
      </trkpt>
      <trkpt lat="45.15171" lon="5.1311">
        <ele>405.10000610352</ele>
        <time>2011-04-25T07:27:59Z</time>
      </trkpt>
      <trkpt lat="45.15177" lon="5.13113">
        <ele>405.10000610352</ele>
        <time>2011-04-25T07:28:02Z</time>
      </trkpt>
      <trkpt lat="45.15183" lon="5.13115">
        <ele>406.20001220703</ele>
        <time>2011-04-25T07:28:05Z</time>
      </trkpt>
      <trkpt lat="45.15189" lon="5.13118">
        <ele>406.39999389648</ele>
        <time>2011-04-25T07:28:08Z</time>
      </trkpt>
      <trkpt lat="45.15198" lon="5.13119">
        <ele>406.79998779297</ele>
        <time>2011-04-25T07:28:12Z</time>
      </trkpt>
      <trkpt lat="45.15204" lon="5.13116">
        <ele>408.5</ele>
        <time>2011-04-25T07:28:15Z</time>
      </trkpt>
      <trkpt lat="45.15209" lon="5.13112">
        <ele>408.60000610352</ele>
        <time>2011-04-25T07:28:18Z</time>
      </trkpt>
      <trkpt lat="45.15211" lon="5.13106">
        <ele>409.29998779297</ele>
        <time>2011-04-25T07:28:21Z</time>
      </trkpt>
      <trkpt lat="45.15214" lon="5.13102">
        <ele>410</ele>
        <time>2011-04-25T07:28:24Z</time>
      </trkpt>
      <trkpt lat="45.15217" lon="5.131">
        <ele>411.10000610352</ele>
        <time>2011-04-25T07:28:27Z</time>
      </trkpt>
      <trkpt lat="45.15222" lon="5.13099">
        <ele>411.20001220703</ele>
        <time>2011-04-25T07:28:30Z</time>
      </trkpt>
      <trkpt lat="45.15225" lon="5.13099">
        <ele>412.20001220703</ele>
        <time>2011-04-25T07:28:33Z</time>
      </trkpt>
      <trkpt lat="45.15229" lon="5.13099">
        <ele>412.20001220703</ele>
        <time>2011-04-25T07:28:36Z</time>
      </trkpt>
      <trkpt lat="45.1523" lon="5.13103">
        <ele>410</ele>
        <time>2011-04-25T07:28:39Z</time>
      </trkpt>
      <trkpt lat="45.15235" lon="5.13105">
        <ele>410.89999389648</ele>
        <time>2011-04-25T07:28:42Z</time>
      </trkpt>
      <trkpt lat="45.1524" lon="5.13106">
        <ele>412.20001220703</ele>
        <time>2011-04-25T07:28:46Z</time>
      </trkpt>
      <trkpt lat="45.15242" lon="5.13105">
        <ele>411.39999389648</ele>
        <time>2011-04-25T07:28:49Z</time>
      </trkpt>
      <trkpt lat="45.15247" lon="5.13104">
        <ele>411.89999389648</ele>
        <time>2011-04-25T07:28:52Z</time>
      </trkpt>
      <trkpt lat="45.15251" lon="5.13099">
        <ele>411.60000610352</ele>
        <time>2011-04-25T07:28:55Z</time>
      </trkpt>
      <trkpt lat="45.15254" lon="5.13096">
        <ele>411.10000610352</ele>
        <time>2011-04-25T07:28:58Z</time>
      </trkpt>
      <trkpt lat="45.15257" lon="5.13093">
        <ele>412.5</ele>
        <time>2011-04-25T07:29:01Z</time>
      </trkpt>
      <trkpt lat="45.15258" lon="5.13088">
        <ele>412.70001220703</ele>
        <time>2011-04-25T07:29:04Z</time>
      </trkpt>
      <trkpt lat="45.1526" lon="5.13083">
        <ele>413.89999389648</ele>
        <time>2011-04-25T07:29:07Z</time>
      </trkpt>
      <trkpt lat="45.15262" lon="5.1308">
        <ele>413.89999389648</ele>
        <time>2011-04-25T07:29:10Z</time>
      </trkpt>
      <trkpt lat="45.15264" lon="5.13075">
        <ele>415.29998779297</ele>
        <time>2011-04-25T07:29:13Z</time>
      </trkpt>
      <trkpt lat="45.15266" lon="5.13071">
        <ele>415.70001220703</ele>
        <time>2011-04-25T07:29:16Z</time>
      </trkpt>
      <trkpt lat="45.1527" lon="5.13066">
        <ele>415.60000610352</ele>
        <time>2011-04-25T07:29:20Z</time>
      </trkpt>
      <trkpt lat="45.15274" lon="5.13061">
        <ele>416.29998779297</ele>
        <time>2011-04-25T07:29:23Z</time>
      </trkpt>
      <trkpt lat="45.15274" lon="5.13055">
        <ele>418</ele>
        <time>2011-04-25T07:29:26Z</time>
      </trkpt>
      <trkpt lat="45.15274" lon="5.1305">
        <ele>416.60000610352</ele>
        <time>2011-04-25T07:29:29Z</time>
      </trkpt>
      <trkpt lat="45.15275" lon="5.13049">
        <ele>417</ele>
        <time>2011-04-25T07:29:32Z</time>
      </trkpt>
      <trkpt lat="45.15278" lon="5.13046">
        <ele>416.20001220703</ele>
        <time>2011-04-25T07:29:35Z</time>
      </trkpt>
      <trkpt lat="45.15282" lon="5.13043">
        <ele>417.60000610352</ele>
        <time>2011-04-25T07:29:38Z</time>
      </trkpt>
      <trkpt lat="45.15286" lon="5.13039">
        <ele>418.60000610352</ele>
        <time>2011-04-25T07:29:41Z</time>
      </trkpt>
      <trkpt lat="45.15289" lon="5.13037">
        <ele>418.79998779297</ele>
        <time>2011-04-25T07:29:44Z</time>
      </trkpt>
      <trkpt lat="45.15292" lon="5.13034">
        <ele>419.79998779297</ele>
        <time>2011-04-25T07:29:47Z</time>
      </trkpt>
      <trkpt lat="45.15295" lon="5.13034">
        <ele>419.5</ele>
        <time>2011-04-25T07:29:50Z</time>
      </trkpt>
      <trkpt lat="45.153" lon="5.13034">
        <ele>420.39999389648</ele>
        <time>2011-04-25T07:29:54Z</time>
      </trkpt>
      <trkpt lat="45.15304" lon="5.13032">
        <ele>420.20001220703</ele>
        <time>2011-04-25T07:29:57Z</time>
      </trkpt>
      <trkpt lat="45.15309" lon="5.13028">
        <ele>420.39999389648</ele>
        <time>2011-04-25T07:30:00Z</time>
      </trkpt>
      <trkpt lat="45.15311" lon="5.13026">
        <ele>420.10000610352</ele>
        <time>2011-04-25T07:30:03Z</time>
      </trkpt>
      <trkpt lat="45.15317" lon="5.13025">
        <ele>421.10000610352</ele>
        <time>2011-04-25T07:30:06Z</time>
      </trkpt>
      <trkpt lat="45.1532" lon="5.1302">
        <ele>422.39999389648</ele>
        <time>2011-04-25T07:30:09Z</time>
      </trkpt>
      <trkpt lat="45.15325" lon="5.13018">
        <ele>423.10000610352</ele>
        <time>2011-04-25T07:30:12Z</time>
      </trkpt>
      <trkpt lat="45.1533" lon="5.13016">
        <ele>423.10000610352</ele>
        <time>2011-04-25T07:30:15Z</time>
      </trkpt>
      <trkpt lat="45.1533" lon="5.13016">
        <ele>424</ele>
        <time>2011-04-25T07:30:18Z</time>
      </trkpt>
      <trkpt lat="45.15331" lon="5.13015">
        <ele>424.89999389648</ele>
        <time>2011-04-25T07:30:21Z</time>
      </trkpt>
      <trkpt lat="45.15333" lon="5.13015">
        <ele>425.29998779297</ele>
        <time>2011-04-25T07:30:24Z</time>
      </trkpt>
      <trkpt lat="45.15335" lon="5.13011">
        <ele>426</ele>
        <time>2011-04-25T07:30:28Z</time>
      </trkpt>
      <trkpt lat="45.15339" lon="5.13004">
        <ele>425.79998779297</ele>
        <time>2011-04-25T07:30:31Z</time>
      </trkpt>
      <trkpt lat="45.15342" lon="5.13001">
        <ele>426.10000610352</ele>
        <time>2011-04-25T07:30:34Z</time>
      </trkpt>
      <trkpt lat="45.15348" lon="5.12998">
        <ele>426.70001220703</ele>
        <time>2011-04-25T07:30:37Z</time>
      </trkpt>
      <trkpt lat="45.15352" lon="5.12993">
        <ele>426.60000610352</ele>
        <time>2011-04-25T07:30:40Z</time>
      </trkpt>
      <trkpt lat="45.15355" lon="5.12989">
        <ele>427.39999389648</ele>
        <time>2011-04-25T07:30:43Z</time>
      </trkpt>
      <trkpt lat="45.15359" lon="5.12988">
        <ele>428.5</ele>
        <time>2011-04-25T07:30:46Z</time>
      </trkpt>
      <trkpt lat="45.15362" lon="5.12986">
        <ele>429.79998779297</ele>
        <time>2011-04-25T07:30:49Z</time>
      </trkpt>
      <trkpt lat="45.15364" lon="5.12987">
        <ele>429.29998779297</ele>
        <time>2011-04-25T07:30:52Z</time>
      </trkpt>
      <trkpt lat="45.15366" lon="5.12986">
        <ele>429.10000610352</ele>
        <time>2011-04-25T07:30:55Z</time>
      </trkpt>
      <trkpt lat="45.15372" lon="5.12987">
        <ele>430.79998779297</ele>
        <time>2011-04-25T07:30:58Z</time>
      </trkpt>
      <trkpt lat="45.15378" lon="5.12987">
        <ele>431.29998779297</ele>
        <time>2011-04-25T07:31:02Z</time>
      </trkpt>
      <trkpt lat="45.15381" lon="5.12987">
        <ele>431.60000610352</ele>
        <time>2011-04-25T07:31:05Z</time>
      </trkpt>
      <trkpt lat="45.15385" lon="5.12987">
        <ele>432</ele>
        <time>2011-04-25T07:31:08Z</time>
      </trkpt>
      <trkpt lat="45.15388" lon="5.12986">
        <ele>431.89999389648</ele>
        <time>2011-04-25T07:31:11Z</time>
      </trkpt>
      <trkpt lat="45.15393" lon="5.12982">
        <ele>431.89999389648</ele>
        <time>2011-04-25T07:31:14Z</time>
      </trkpt>
      <trkpt lat="45.15396" lon="5.12983">
        <ele>432.20001220703</ele>
        <time>2011-04-25T07:31:17Z</time>
      </trkpt>
      <trkpt lat="45.15399" lon="5.12982">
        <ele>432.60000610352</ele>
        <time>2011-04-25T07:31:20Z</time>
      </trkpt>
      <trkpt lat="45.15403" lon="5.1298">
        <ele>432.79998779297</ele>
        <time>2011-04-25T07:31:23Z</time>
      </trkpt>
      <trkpt lat="45.15406" lon="5.12978">
        <ele>433.29998779297</ele>
        <time>2011-04-25T07:31:26Z</time>
      </trkpt>
      <trkpt lat="45.15405" lon="5.12975">
        <ele>433.20001220703</ele>
        <time>2011-04-25T07:31:29Z</time>
      </trkpt>
      <trkpt lat="45.15407" lon="5.12972">
        <ele>433.79998779297</ele>
        <time>2011-04-25T07:31:32Z</time>
      </trkpt>
      <trkpt lat="45.15408" lon="5.12967">
        <ele>434.20001220703</ele>
        <time>2011-04-25T07:31:36Z</time>
      </trkpt>
      <trkpt lat="45.1541" lon="5.12965">
        <ele>434.60000610352</ele>
        <time>2011-04-25T07:31:39Z</time>
      </trkpt>
      <trkpt lat="45.1541" lon="5.12962">
        <ele>434.70001220703</ele>
        <time>2011-04-25T07:31:42Z</time>
      </trkpt>
      <trkpt lat="45.1541" lon="5.12959">
        <ele>435</ele>
        <time>2011-04-25T07:31:45Z</time>
      </trkpt>
      <trkpt lat="45.15417" lon="5.12957">
        <ele>435.60000610352</ele>
        <time>2011-04-25T07:31:48Z</time>
      </trkpt>
      <trkpt lat="45.15418" lon="5.12949">
        <ele>435.70001220703</ele>
        <time>2011-04-25T07:31:51Z</time>
      </trkpt>
      <trkpt lat="45.15419" lon="5.12947">
        <ele>435.70001220703</ele>
        <time>2011-04-25T07:31:54Z</time>
      </trkpt>
      <trkpt lat="45.15421" lon="5.12942">
        <ele>435.10000610352</ele>
        <time>2011-04-25T07:31:57Z</time>
      </trkpt>
      <trkpt lat="45.15428" lon="5.12938">
        <ele>435.70001220703</ele>
        <time>2011-04-25T07:32:00Z</time>
      </trkpt>
      <trkpt lat="45.15435" lon="5.12943">
        <ele>437.39999389648</ele>
        <time>2011-04-25T07:32:03Z</time>
      </trkpt>
      <trkpt lat="45.15432" lon="5.12943">
        <ele>437.29998779297</ele>
        <time>2011-04-25T07:32:06Z</time>
      </trkpt>
      <trkpt lat="45.15433" lon="5.12954">
        <ele>437.5</ele>
        <time>2011-04-25T07:32:10Z</time>
      </trkpt>
      <trkpt lat="45.15433" lon="5.12958">
        <ele>437.5</ele>
        <time>2011-04-25T07:32:13Z</time>
      </trkpt>
      <trkpt lat="45.15439" lon="5.12955">
        <ele>438.89999389648</ele>
        <time>2011-04-25T07:32:16Z</time>
      </trkpt>
      <trkpt lat="45.1544" lon="5.12962">
        <ele>439.10000610352</ele>
        <time>2011-04-25T07:32:19Z</time>
      </trkpt>
      <trkpt lat="45.15442" lon="5.12959">
        <ele>439</ele>
        <time>2011-04-25T07:32:22Z</time>
      </trkpt>
      <trkpt lat="45.15446" lon="5.1296">
        <ele>439.60000610352</ele>
        <time>2011-04-25T07:32:25Z</time>
      </trkpt>
      <trkpt lat="45.15447" lon="5.12964">
        <ele>439.79998779297</ele>
        <time>2011-04-25T07:32:28Z</time>
      </trkpt>
      <trkpt lat="45.15447" lon="5.12967">
        <ele>440.89999389648</ele>
        <time>2011-04-25T07:32:31Z</time>
      </trkpt>
      <trkpt lat="45.1545" lon="5.1297">
        <ele>440.29998779297</ele>
        <time>2011-04-25T07:32:34Z</time>
      </trkpt>
      <trkpt lat="45.15453" lon="5.1297">
        <ele>440.89999389648</ele>
        <time>2011-04-25T07:32:37Z</time>
      </trkpt>
      <trkpt lat="45.15448" lon="5.12979">
        <ele>441.60000610352</ele>
        <time>2011-04-25T07:32:40Z</time>
      </trkpt>
      <trkpt lat="45.15444" lon="5.12981">
        <ele>441.60000610352</ele>
        <time>2011-04-25T07:32:44Z</time>
      </trkpt>
      <trkpt lat="45.15445" lon="5.1298">
        <ele>441.5</ele>
        <time>2011-04-25T07:32:47Z</time>
      </trkpt>
      <trkpt lat="45.15447" lon="5.12983">
        <ele>441.79998779297</ele>
        <time>2011-04-25T07:32:50Z</time>
      </trkpt>
      <trkpt lat="45.15448" lon="5.12983">
        <ele>441.70001220703</ele>
        <time>2011-04-25T07:32:53Z</time>
      </trkpt>
      <trkpt lat="45.15448" lon="5.12984">
        <ele>441.89999389648</ele>
        <time>2011-04-25T07:32:56Z</time>
      </trkpt>
      <trkpt lat="45.15452" lon="5.12985">
        <ele>442.5</ele>
        <time>2011-04-25T07:32:59Z</time>
      </trkpt>
      <trkpt lat="45.15454" lon="5.12985">
        <ele>442.89999389648</ele>
        <time>2011-04-25T07:33:02Z</time>
      </trkpt>
      <trkpt lat="45.15455" lon="5.12982">
        <ele>443.60000610352</ele>
        <time>2011-04-25T07:33:05Z</time>
      </trkpt>
      <trkpt lat="45.15454" lon="5.12979">
        <ele>444.89999389648</ele>
        <time>2011-04-25T07:33:08Z</time>
      </trkpt>
      <trkpt lat="45.15454" lon="5.12979">
        <ele>445.89999389648</ele>
        <time>2011-04-25T07:33:11Z</time>
      </trkpt>
      <trkpt lat="45.15453" lon="5.12978">
        <ele>445.70001220703</ele>
        <time>2011-04-25T07:33:14Z</time>
      </trkpt>
      <trkpt lat="45.15452" lon="5.12975">
        <ele>445.39999389648</ele>
        <time>2011-04-25T07:33:18Z</time>
      </trkpt>
      <trkpt lat="45.15451" lon="5.12971">
        <ele>445.29998779297</ele>
        <time>2011-04-25T07:33:21Z</time>
      </trkpt>
      <trkpt lat="45.15454" lon="5.12968">
        <ele>445.5</ele>
        <time>2011-04-25T07:33:24Z</time>
      </trkpt>
      <trkpt lat="45.15457" lon="5.12965">
        <ele>445.70001220703</ele>
        <time>2011-04-25T07:33:27Z</time>
      </trkpt>
      <trkpt lat="45.15459" lon="5.12961">
        <ele>447.70001220703</ele>
        <time>2011-04-25T07:33:30Z</time>
      </trkpt>
      <trkpt lat="45.15462" lon="5.12955">
        <ele>450</ele>
        <time>2011-04-25T07:33:33Z</time>
      </trkpt>
      <trkpt lat="45.15466" lon="5.12951">
        <ele>451.20001220703</ele>
        <time>2011-04-25T07:33:36Z</time>
      </trkpt>
      <trkpt lat="45.15468" lon="5.12952">
        <ele>451.39999389648</ele>
        <time>2011-04-25T07:33:39Z</time>
      </trkpt>
      <trkpt lat="45.15472" lon="5.12949">
        <ele>452.20001220703</ele>
        <time>2011-04-25T07:33:42Z</time>
      </trkpt>
      <trkpt lat="45.15474" lon="5.12945">
        <ele>452.10000610352</ele>
        <time>2011-04-25T07:33:45Z</time>
      </trkpt>
      <trkpt lat="45.15478" lon="5.12943">
        <ele>452.79998779297</ele>
        <time>2011-04-25T07:33:48Z</time>
      </trkpt>
      <trkpt lat="45.15483" lon="5.12949">
        <ele>453.89999389648</ele>
        <time>2011-04-25T07:33:52Z</time>
      </trkpt>
      <trkpt lat="45.1549" lon="5.12946">
        <ele>454.60000610352</ele>
        <time>2011-04-25T07:33:55Z</time>
      </trkpt>
      <trkpt lat="45.1549" lon="5.12943">
        <ele>454.79998779297</ele>
        <time>2011-04-25T07:33:58Z</time>
      </trkpt>
      <trkpt lat="45.15499" lon="5.12938">
        <ele>457.29998779297</ele>
        <time>2011-04-25T07:34:01Z</time>
      </trkpt>
      <trkpt lat="45.15505" lon="5.12939">
        <ele>456.89999389648</ele>
        <time>2011-04-25T07:34:04Z</time>
      </trkpt>
      <trkpt lat="45.15509" lon="5.12938">
        <ele>457.79998779297</ele>
        <time>2011-04-25T07:34:07Z</time>
      </trkpt>
      <trkpt lat="45.15513" lon="5.12945">
        <ele>459.5</ele>
        <time>2011-04-25T07:34:10Z</time>
      </trkpt>
      <trkpt lat="45.15517" lon="5.12941">
        <ele>461.10000610352</ele>
        <time>2011-04-25T07:34:13Z</time>
      </trkpt>
      <trkpt lat="45.15519" lon="5.12939">
        <ele>461.60000610352</ele>
        <time>2011-04-25T07:34:16Z</time>
      </trkpt>
      <trkpt lat="45.15516" lon="5.12942">
        <ele>461.5</ele>
        <time>2011-04-25T07:34:19Z</time>
      </trkpt>
      <trkpt lat="45.15517" lon="5.12941">
        <ele>462.79998779297</ele>
        <time>2011-04-25T07:34:22Z</time>
      </trkpt>
      <trkpt lat="45.1552" lon="5.12941">
        <ele>466</ele>
        <time>2011-04-25T07:34:26Z</time>
      </trkpt>
      <trkpt lat="45.15521" lon="5.12938">
        <ele>467.10000610352</ele>
        <time>2011-04-25T07:34:29Z</time>
      </trkpt>
      <trkpt lat="45.15523" lon="5.12936">
        <ele>469.10000610352</ele>
        <time>2011-04-25T07:34:32Z</time>
      </trkpt>
      <trkpt lat="45.15524" lon="5.12934">
        <ele>470.79998779297</ele>
        <time>2011-04-25T07:34:35Z</time>
      </trkpt>
      <trkpt lat="45.15527" lon="5.12934">
        <ele>469.29998779297</ele>
        <time>2011-04-25T07:34:38Z</time>
      </trkpt>
      <trkpt lat="45.1553" lon="5.12931">
        <ele>469.5</ele>
        <time>2011-04-25T07:34:41Z</time>
      </trkpt>
      <trkpt lat="45.15532" lon="5.12927">
        <ele>470.5</ele>
        <time>2011-04-25T07:34:44Z</time>
      </trkpt>
      <trkpt lat="45.15535" lon="5.12931">
        <ele>473.89999389648</ele>
        <time>2011-04-25T07:34:47Z</time>
      </trkpt>
      <trkpt lat="45.15534" lon="5.12931">
        <ele>474</ele>
        <time>2011-04-25T07:34:50Z</time>
      </trkpt>
      <trkpt lat="45.15536" lon="5.1293">
        <ele>475</ele>
        <time>2011-04-25T07:34:53Z</time>
      </trkpt>
      <trkpt lat="45.15537" lon="5.12936">
        <ele>477.29998779297</ele>
        <time>2011-04-25T07:34:56Z</time>
      </trkpt>
      <trkpt lat="45.15537" lon="5.12938">
        <ele>478.10000610352</ele>
        <time>2011-04-25T07:35:00Z</time>
      </trkpt>
      <trkpt lat="45.15538" lon="5.12942">
        <ele>478.89999389648</ele>
        <time>2011-04-25T07:35:03Z</time>
      </trkpt>
      <trkpt lat="45.15537" lon="5.12941">
        <ele>479.5</ele>
        <time>2011-04-25T07:35:06Z</time>
      </trkpt>
      <trkpt lat="45.15537" lon="5.12936">
        <ele>480.29998779297</ele>
        <time>2011-04-25T07:35:09Z</time>
      </trkpt>
      <trkpt lat="45.15536" lon="5.12935">
        <ele>479.70001220703</ele>
        <time>2011-04-25T07:35:12Z</time>
      </trkpt>
      <trkpt lat="45.15534" lon="5.12936">
        <ele>479.10000610352</ele>
        <time>2011-04-25T07:35:15Z</time>
      </trkpt>
      <trkpt lat="45.15536" lon="5.12937">
        <ele>479.89999389648</ele>
        <time>2011-04-25T07:35:18Z</time>
      </trkpt>
      <trkpt lat="45.15536" lon="5.12939">
        <ele>479.89999389648</ele>
        <time>2011-04-25T07:35:21Z</time>
      </trkpt>
      <trkpt lat="45.15538" lon="5.12942">
        <ele>480.39999389648</ele>
        <time>2011-04-25T07:35:24Z</time>
      </trkpt>
      <trkpt lat="45.15538" lon="5.12944">
        <ele>480.79998779297</ele>
        <time>2011-04-25T07:35:27Z</time>
      </trkpt>
      <trkpt lat="45.15537" lon="5.12944">
        <ele>482.20001220703</ele>
        <time>2011-04-25T07:35:30Z</time>
      </trkpt>
      <trkpt lat="45.15538" lon="5.12946">
        <ele>483</ele>
        <time>2011-04-25T07:35:34Z</time>
      </trkpt>
      <trkpt lat="45.15539" lon="5.12945">
        <ele>483</ele>
        <time>2011-04-25T07:35:37Z</time>
      </trkpt>
      <trkpt lat="45.15541" lon="5.12943">
        <ele>482.89999389648</ele>
        <time>2011-04-25T07:35:40Z</time>
      </trkpt>
      <trkpt lat="45.15545" lon="5.12936">
        <ele>483.29998779297</ele>
        <time>2011-04-25T07:35:43Z</time>
      </trkpt>
      <trkpt lat="45.15543" lon="5.12936">
        <ele>482.89999389648</ele>
        <time>2011-04-25T07:35:46Z</time>
      </trkpt>
      <trkpt lat="45.15543" lon="5.12934">
        <ele>482.79998779297</ele>
        <time>2011-04-25T07:35:49Z</time>
      </trkpt>
      <trkpt lat="45.15545" lon="5.12935">
        <ele>483.5</ele>
        <time>2011-04-25T07:35:52Z</time>
      </trkpt>
      <trkpt lat="45.15545" lon="5.12933">
        <ele>483</ele>
        <time>2011-04-25T07:35:55Z</time>
      </trkpt>
      <trkpt lat="45.15547" lon="5.12934">
        <ele>483.79998779297</ele>
        <time>2011-04-25T07:35:58Z</time>
      </trkpt>
      <trkpt lat="45.15548" lon="5.12934">
        <ele>482.60000610352</ele>
        <time>2011-04-25T07:36:01Z</time>
      </trkpt>
      <trkpt lat="45.1555" lon="5.12937">
        <ele>483.79998779297</ele>
        <time>2011-04-25T07:36:04Z</time>
      </trkpt>
      <trkpt lat="45.1555" lon="5.12941">
        <ele>482.10000610352</ele>
        <time>2011-04-25T07:36:08Z</time>
      </trkpt>
      <trkpt lat="45.15551" lon="5.12939">
        <ele>482.39999389648</ele>
        <time>2011-04-25T07:36:11Z</time>
      </trkpt>
      <trkpt lat="45.15551" lon="5.1294">
        <ele>482.10000610352</ele>
        <time>2011-04-25T07:36:14Z</time>
      </trkpt>
      <trkpt lat="45.15551" lon="5.12939">
        <ele>482.29998779297</ele>
        <time>2011-04-25T07:36:17Z</time>
      </trkpt>
      <trkpt lat="45.15551" lon="5.12939">
        <ele>482.39999389648</ele>
        <time>2011-04-25T07:36:20Z</time>
      </trkpt>
      <trkpt lat="45.15551" lon="5.12939">
        <ele>482.29998779297</ele>
        <time>2011-04-25T07:36:23Z</time>
      </trkpt>
      <trkpt lat="45.15551" lon="5.12939">
        <ele>482.29998779297</ele>
        <time>2011-04-25T07:36:26Z</time>
      </trkpt>
      <trkpt lat="45.15551" lon="5.12939">
        <ele>482.39999389648</ele>
        <time>2011-04-25T07:36:29Z</time>
      </trkpt>
      <trkpt lat="45.15551" lon="5.12939">
        <ele>482.39999389648</ele>
        <time>2011-04-25T07:36:32Z</time>
      </trkpt>
      <trkpt lat="45.15551" lon="5.12939">
        <ele>482.39999389648</ele>
        <time>2011-04-25T07:36:35Z</time>
      </trkpt>
      <trkpt lat="45.15551" lon="5.12939">
        <ele>482.39999389648</ele>
        <time>2011-04-25T07:36:38Z</time>
      </trkpt>
      <trkpt lat="45.15557" lon="5.12937">
        <ele>483.20001220703</ele>
        <time>2011-04-25T07:36:42Z</time>
      </trkpt>
      <trkpt lat="45.15562" lon="5.12936">
        <ele>484.70001220703</ele>
        <time>2011-04-25T07:36:45Z</time>
      </trkpt>
      <trkpt lat="45.1557" lon="5.12934">
        <ele>485</ele>
        <time>2011-04-25T07:36:48Z</time>
      </trkpt>
      <trkpt lat="45.15573" lon="5.12935">
        <ele>486.39999389648</ele>
        <time>2011-04-25T07:36:51Z</time>
      </trkpt>
      <trkpt lat="45.15575" lon="5.12933">
        <ele>485.70001220703</ele>
        <time>2011-04-25T07:36:54Z</time>
      </trkpt>
      <trkpt lat="45.15581" lon="5.12928">
        <ele>486.60000610352</ele>
        <time>2011-04-25T07:36:57Z</time>
      </trkpt>
      <trkpt lat="45.15584" lon="5.12925">
        <ele>486.20001220703</ele>
        <time>2011-04-25T07:37:00Z</time>
      </trkpt>
      <trkpt lat="45.15587" lon="5.12923">
        <ele>486.89999389648</ele>
        <time>2011-04-25T07:37:03Z</time>
      </trkpt>
      <trkpt lat="45.15589" lon="5.12921">
        <ele>488.79998779297</ele>
        <time>2011-04-25T07:37:06Z</time>
      </trkpt>
      <trkpt lat="45.15592" lon="5.12919">
        <ele>490.39999389648</ele>
        <time>2011-04-25T07:37:09Z</time>
      </trkpt>
      <trkpt lat="45.15595" lon="5.1292">
        <ele>491.79998779297</ele>
        <time>2011-04-25T07:37:12Z</time>
      </trkpt>
      <trkpt lat="45.15599" lon="5.12918">
        <ele>493.70001220703</ele>
        <time>2011-04-25T07:37:16Z</time>
      </trkpt>
      <trkpt lat="45.15602" lon="5.12916">
        <ele>493.89999389648</ele>
        <time>2011-04-25T07:37:19Z</time>
      </trkpt>
      <trkpt lat="45.15605" lon="5.12917">
        <ele>495.20001220703</ele>
        <time>2011-04-25T07:37:22Z</time>
      </trkpt>
      <trkpt lat="45.15608" lon="5.12914">
        <ele>494.20001220703</ele>
        <time>2011-04-25T07:37:25Z</time>
      </trkpt>
      <trkpt lat="45.15611" lon="5.12912">
        <ele>494.70001220703</ele>
        <time>2011-04-25T07:37:28Z</time>
      </trkpt>
      <trkpt lat="45.15612" lon="5.1291">
        <ele>495.39999389648</ele>
        <time>2011-04-25T07:37:31Z</time>
      </trkpt>
      <trkpt lat="45.15615" lon="5.12908">
        <ele>496</ele>
        <time>2011-04-25T07:37:34Z</time>
      </trkpt>
      <trkpt lat="45.1562" lon="5.1291">
        <ele>497.5</ele>
        <time>2011-04-25T07:37:37Z</time>
      </trkpt>
      <trkpt lat="45.15623" lon="5.12911">
        <ele>498.5</ele>
        <time>2011-04-25T07:37:40Z</time>
      </trkpt>
      <trkpt lat="45.15624" lon="5.12911">
        <ele>498.29998779297</ele>
        <time>2011-04-25T07:37:43Z</time>
      </trkpt>
      <trkpt lat="45.15627" lon="5.12912">
        <ele>499.20001220703</ele>
        <time>2011-04-25T07:37:46Z</time>
      </trkpt>
      <trkpt lat="45.15632" lon="5.12915">
        <ele>499.29998779297</ele>
        <time>2011-04-25T07:37:50Z</time>
      </trkpt>
      <trkpt lat="45.15635" lon="5.12914">
        <ele>500.70001220703</ele>
        <time>2011-04-25T07:37:53Z</time>
      </trkpt>
      <trkpt lat="45.15638" lon="5.12914">
        <ele>501.79998779297</ele>
        <time>2011-04-25T07:37:56Z</time>
      </trkpt>
      <trkpt lat="45.1564" lon="5.12914">
        <ele>502.20001220703</ele>
        <time>2011-04-25T07:37:59Z</time>
      </trkpt>
      <trkpt lat="45.15642" lon="5.12912">
        <ele>502.29998779297</ele>
        <time>2011-04-25T07:38:02Z</time>
      </trkpt>
      <trkpt lat="45.15644" lon="5.12911">
        <ele>502.89999389648</ele>
        <time>2011-04-25T07:38:05Z</time>
      </trkpt>
      <trkpt lat="45.15645" lon="5.12911">
        <ele>503.89999389648</ele>
        <time>2011-04-25T07:38:08Z</time>
      </trkpt>
      <trkpt lat="45.15647" lon="5.12908">
        <ele>504</ele>
        <time>2011-04-25T07:38:11Z</time>
      </trkpt>
      <trkpt lat="45.1565" lon="5.12905">
        <ele>503.5</ele>
        <time>2011-04-25T07:38:14Z</time>
      </trkpt>
      <trkpt lat="45.15652" lon="5.12901">
        <ele>503.5</ele>
        <time>2011-04-25T07:38:17Z</time>
      </trkpt>
      <trkpt lat="45.15656" lon="5.12899">
        <ele>502.79998779297</ele>
        <time>2011-04-25T07:38:20Z</time>
      </trkpt>
      <trkpt lat="45.15658" lon="5.12898">
        <ele>503.10000610352</ele>
        <time>2011-04-25T07:38:24Z</time>
      </trkpt>
      <trkpt lat="45.15659" lon="5.12896">
        <ele>502.60000610352</ele>
        <time>2011-04-25T07:38:27Z</time>
      </trkpt>
      <trkpt lat="45.15662" lon="5.12895">
        <ele>503.20001220703</ele>
        <time>2011-04-25T07:38:30Z</time>
      </trkpt>
      <trkpt lat="45.15663" lon="5.12891">
        <ele>504.10000610352</ele>
        <time>2011-04-25T07:38:33Z</time>
      </trkpt>
      <trkpt lat="45.15666" lon="5.1289">
        <ele>504.20001220703</ele>
        <time>2011-04-25T07:38:36Z</time>
      </trkpt>
      <trkpt lat="45.15667" lon="5.1289">
        <ele>504.39999389648</ele>
        <time>2011-04-25T07:38:39Z</time>
      </trkpt>
      <trkpt lat="45.15671" lon="5.12891">
        <ele>504.29998779297</ele>
        <time>2011-04-25T07:38:42Z</time>
      </trkpt>
      <trkpt lat="45.15674" lon="5.12891">
        <ele>504.60000610352</ele>
        <time>2011-04-25T07:38:45Z</time>
      </trkpt>
      <trkpt lat="45.15679" lon="5.12891">
        <ele>506.79998779297</ele>
        <time>2011-04-25T07:38:48Z</time>
      </trkpt>
      <trkpt lat="45.15681" lon="5.12888">
        <ele>508.60000610352</ele>
        <time>2011-04-25T07:38:51Z</time>
      </trkpt>
      <trkpt lat="45.15681" lon="5.1289">
        <ele>510</ele>
        <time>2011-04-25T07:38:54Z</time>
      </trkpt>
      <trkpt lat="45.15682" lon="5.12892">
        <ele>509.79998779297</ele>
        <time>2011-04-25T07:38:58Z</time>
      </trkpt>
      <trkpt lat="45.15682" lon="5.12894">
        <ele>510.89999389648</ele>
        <time>2011-04-25T07:39:01Z</time>
      </trkpt>
      <trkpt lat="45.1568" lon="5.12895">
        <ele>510.5</ele>
        <time>2011-04-25T07:39:04Z</time>
      </trkpt>
      <trkpt lat="45.1568" lon="5.12898">
        <ele>510.29998779297</ele>
        <time>2011-04-25T07:39:07Z</time>
      </trkpt>
      <trkpt lat="45.15682" lon="5.129">
        <ele>510.60000610352</ele>
        <time>2011-04-25T07:39:10Z</time>
      </trkpt>
      <trkpt lat="45.15689" lon="5.12902">
        <ele>509.70001220703</ele>
        <time>2011-04-25T07:39:13Z</time>
      </trkpt>
      <trkpt lat="45.15695" lon="5.12903">
        <ele>507.79998779297</ele>
        <time>2011-04-25T07:39:16Z</time>
      </trkpt>
      <trkpt lat="45.15698" lon="5.12903">
        <ele>507.5</ele>
        <time>2011-04-25T07:39:19Z</time>
      </trkpt>
      <trkpt lat="45.157" lon="5.12906">
        <ele>508.20001220703</ele>
        <time>2011-04-25T07:39:22Z</time>
      </trkpt>
      <trkpt lat="45.15701" lon="5.12907">
        <ele>508.5</ele>
        <time>2011-04-25T07:39:25Z</time>
      </trkpt>
      <trkpt lat="45.157" lon="5.12907">
        <ele>508.70001220703</ele>
        <time>2011-04-25T07:39:28Z</time>
      </trkpt>
      <trkpt lat="45.157" lon="5.12908">
        <ele>508.60000610352</ele>
        <time>2011-04-25T07:39:32Z</time>
      </trkpt>
      <trkpt lat="45.15701" lon="5.12908">
        <ele>508.79998779297</ele>
        <time>2011-04-25T07:39:35Z</time>
      </trkpt>
      <trkpt lat="45.15702" lon="5.1291">
        <ele>508.70001220703</ele>
        <time>2011-04-25T07:39:38Z</time>
      </trkpt>
      <trkpt lat="45.15709" lon="5.12918">
        <ele>510.70001220703</ele>
        <time>2011-04-25T07:39:41Z</time>
      </trkpt>
      <trkpt lat="45.15717" lon="5.12917">
        <ele>511.79998779297</ele>
        <time>2011-04-25T07:39:44Z</time>
      </trkpt>
      <trkpt lat="45.15721" lon="5.12927">
        <ele>514</ele>
        <time>2011-04-25T07:39:47Z</time>
      </trkpt>
      <trkpt lat="45.1572" lon="5.12936">
        <ele>514.70001220703</ele>
        <time>2011-04-25T07:39:50Z</time>
      </trkpt>
      <trkpt lat="45.15724" lon="5.12941">
        <ele>515.5</ele>
        <time>2011-04-25T07:39:53Z</time>
      </trkpt>
      <trkpt lat="45.15726" lon="5.12943">
        <ele>514.70001220703</ele>
        <time>2011-04-25T07:39:56Z</time>
      </trkpt>
      <trkpt lat="45.1573" lon="5.12951">
        <ele>515.70001220703</ele>
        <time>2011-04-25T07:39:59Z</time>
      </trkpt>
      <trkpt lat="45.15732" lon="5.12958">
        <ele>515.59997558594</ele>
        <time>2011-04-25T07:40:02Z</time>
      </trkpt>
      <trkpt lat="45.15739" lon="5.12962">
        <ele>515.59997558594</ele>
        <time>2011-04-25T07:40:06Z</time>
      </trkpt>
      <trkpt lat="45.1574" lon="5.1297">
        <ele>516.29998779297</ele>
        <time>2011-04-25T07:40:09Z</time>
      </trkpt>
      <trkpt lat="45.15745" lon="5.12979">
        <ele>515.90002441406</ele>
        <time>2011-04-25T07:40:12Z</time>
      </trkpt>
      <trkpt lat="45.15747" lon="5.12989">
        <ele>515.70001220703</ele>
        <time>2011-04-25T07:40:15Z</time>
      </trkpt>
      <trkpt lat="45.15749" lon="5.12999">
        <ele>516.29998779297</ele>
        <time>2011-04-25T07:40:18Z</time>
      </trkpt>
      <trkpt lat="45.15752" lon="5.13006">
        <ele>517</ele>
        <time>2011-04-25T07:40:21Z</time>
      </trkpt>
      <trkpt lat="45.15754" lon="5.13015">
        <ele>517.79998779297</ele>
        <time>2011-04-25T07:40:24Z</time>
      </trkpt>
      <trkpt lat="45.15756" lon="5.13023">
        <ele>519.5</ele>
        <time>2011-04-25T07:40:27Z</time>
      </trkpt>
      <trkpt lat="45.1576" lon="5.13028">
        <ele>519.59997558594</ele>
        <time>2011-04-25T07:40:30Z</time>
      </trkpt>
      <trkpt lat="45.15763" lon="5.13038">
        <ele>519.70001220703</ele>
        <time>2011-04-25T07:40:33Z</time>
      </trkpt>
      <trkpt lat="45.15765" lon="5.13044">
        <ele>520.90002441406</ele>
        <time>2011-04-25T07:40:36Z</time>
      </trkpt>
      <trkpt lat="45.15766" lon="5.13057">
        <ele>521.59997558594</ele>
        <time>2011-04-25T07:40:40Z</time>
      </trkpt>
      <trkpt lat="45.15771" lon="5.13063">
        <ele>523.09997558594</ele>
        <time>2011-04-25T07:40:43Z</time>
      </trkpt>
      <trkpt lat="45.15777" lon="5.13068">
        <ele>522.79998779297</ele>
        <time>2011-04-25T07:40:46Z</time>
      </trkpt>
      <trkpt lat="45.15782" lon="5.13076">
        <ele>523.59997558594</ele>
        <time>2011-04-25T07:40:49Z</time>
      </trkpt>
      <trkpt lat="45.15785" lon="5.13082">
        <ele>523.79998779297</ele>
        <time>2011-04-25T07:40:52Z</time>
      </trkpt>
      <trkpt lat="45.15791" lon="5.13087">
        <ele>524.29998779297</ele>
        <time>2011-04-25T07:40:55Z</time>
      </trkpt>
      <trkpt lat="45.15796" lon="5.13097">
        <ele>524.20001220703</ele>
        <time>2011-04-25T07:40:58Z</time>
      </trkpt>
      <trkpt lat="45.15798" lon="5.13101">
        <ele>523.59997558594</ele>
        <time>2011-04-25T07:41:01Z</time>
      </trkpt>
      <trkpt lat="45.15801" lon="5.13105">
        <ele>522.79998779297</ele>
        <time>2011-04-25T07:41:04Z</time>
      </trkpt>
      <trkpt lat="45.15805" lon="5.13107">
        <ele>524.29998779297</ele>
        <time>2011-04-25T07:41:07Z</time>
      </trkpt>
      <trkpt lat="45.15809" lon="5.1311">
        <ele>523.70001220703</ele>
        <time>2011-04-25T07:41:10Z</time>
      </trkpt>
      <trkpt lat="45.15816" lon="5.13116">
        <ele>525.40002441406</ele>
        <time>2011-04-25T07:41:14Z</time>
      </trkpt>
      <trkpt lat="45.15821" lon="5.13124">
        <ele>525.20001220703</ele>
        <time>2011-04-25T07:41:17Z</time>
      </trkpt>
      <trkpt lat="45.15825" lon="5.13127">
        <ele>526.09997558594</ele>
        <time>2011-04-25T07:41:20Z</time>
      </trkpt>
      <trkpt lat="45.15828" lon="5.13134">
        <ele>526.20001220703</ele>
        <time>2011-04-25T07:41:23Z</time>
      </trkpt>
      <trkpt lat="45.15833" lon="5.13137">
        <ele>527.29998779297</ele>
        <time>2011-04-25T07:41:26Z</time>
      </trkpt>
      <trkpt lat="45.15838" lon="5.13142">
        <ele>528.29998779297</ele>
        <time>2011-04-25T07:41:29Z</time>
      </trkpt>
      <trkpt lat="45.15843" lon="5.1315">
        <ele>527.5</ele>
        <time>2011-04-25T07:41:32Z</time>
      </trkpt>
      <trkpt lat="45.15847" lon="5.13154">
        <ele>527.59997558594</ele>
        <time>2011-04-25T07:41:35Z</time>
      </trkpt>
      <trkpt lat="45.15851" lon="5.13156">
        <ele>527.79998779297</ele>
        <time>2011-04-25T07:41:38Z</time>
      </trkpt>
      <trkpt lat="45.15855" lon="5.13162">
        <ele>528.70001220703</ele>
        <time>2011-04-25T07:41:41Z</time>
      </trkpt>
      <trkpt lat="45.15861" lon="5.13168">
        <ele>528.5</ele>
        <time>2011-04-25T07:41:44Z</time>
      </trkpt>
      <trkpt lat="45.15869" lon="5.13177">
        <ele>527.40002441406</ele>
        <time>2011-04-25T07:41:48Z</time>
      </trkpt>
      <trkpt lat="45.15874" lon="5.13183">
        <ele>526.59997558594</ele>
        <time>2011-04-25T07:41:51Z</time>
      </trkpt>
      <trkpt lat="45.15879" lon="5.13188">
        <ele>527.09997558594</ele>
        <time>2011-04-25T07:41:54Z</time>
      </trkpt>
      <trkpt lat="45.15883" lon="5.13192">
        <ele>528</ele>
        <time>2011-04-25T07:41:57Z</time>
      </trkpt>
      <trkpt lat="45.15885" lon="5.13199">
        <ele>528.59997558594</ele>
        <time>2011-04-25T07:42:00Z</time>
      </trkpt>
      <trkpt lat="45.15884" lon="5.13204">
        <ele>528</ele>
        <time>2011-04-25T07:42:03Z</time>
      </trkpt>
      <trkpt lat="45.15884" lon="5.13205">
        <ele>528.5</ele>
        <time>2011-04-25T07:42:06Z</time>
      </trkpt>
      <trkpt lat="45.15882" lon="5.13207">
        <ele>529.79998779297</ele>
        <time>2011-04-25T07:42:09Z</time>
      </trkpt>
      <trkpt lat="45.1588" lon="5.13208">
        <ele>531.29998779297</ele>
        <time>2011-04-25T07:42:12Z</time>
      </trkpt>
      <trkpt lat="45.15881" lon="5.13211">
        <ele>531.59997558594</ele>
        <time>2011-04-25T07:42:15Z</time>
      </trkpt>
      <trkpt lat="45.15884" lon="5.13212">
        <ele>531.5</ele>
        <time>2011-04-25T07:42:18Z</time>
      </trkpt>
      <trkpt lat="45.15883" lon="5.13212">
        <ele>530.90002441406</ele>
        <time>2011-04-25T07:42:22Z</time>
      </trkpt>
      <trkpt lat="45.15882" lon="5.13217">
        <ele>530.5</ele>
        <time>2011-04-25T07:42:25Z</time>
      </trkpt>
      <trkpt lat="45.1588" lon="5.13217">
        <ele>530.5</ele>
        <time>2011-04-25T07:42:28Z</time>
      </trkpt>
      <trkpt lat="45.15882" lon="5.13219">
        <ele>529.70001220703</ele>
        <time>2011-04-25T07:42:31Z</time>
      </trkpt>
      <trkpt lat="45.15883" lon="5.13219">
        <ele>531.5</ele>
        <time>2011-04-25T07:42:34Z</time>
      </trkpt>
      <trkpt lat="45.15886" lon="5.13219">
        <ele>531.79998779297</ele>
        <time>2011-04-25T07:42:37Z</time>
      </trkpt>
      <trkpt lat="45.15885" lon="5.13218">
        <ele>531.5</ele>
        <time>2011-04-25T07:42:40Z</time>
      </trkpt>
      <trkpt lat="45.15887" lon="5.13216">
        <ele>532.59997558594</ele>
        <time>2011-04-25T07:42:43Z</time>
      </trkpt>
      <trkpt lat="45.15886" lon="5.13215">
        <ele>532.20001220703</ele>
        <time>2011-04-25T07:42:46Z</time>
      </trkpt>
      <trkpt lat="45.15887" lon="5.13212">
        <ele>531.79998779297</ele>
        <time>2011-04-25T07:42:49Z</time>
      </trkpt>
      <trkpt lat="45.15886" lon="5.13213">
        <ele>531.29998779297</ele>
        <time>2011-04-25T07:42:52Z</time>
      </trkpt>
      <trkpt lat="45.15883" lon="5.13213">
        <ele>531.40002441406</ele>
        <time>2011-04-25T07:42:56Z</time>
      </trkpt>
      <trkpt lat="45.15885" lon="5.13209">
        <ele>530.70001220703</ele>
        <time>2011-04-25T07:42:59Z</time>
      </trkpt>
      <trkpt lat="45.15883" lon="5.13211">
        <ele>529.59997558594</ele>
        <time>2011-04-25T07:43:02Z</time>
      </trkpt>
      <trkpt lat="45.15884" lon="5.13208">
        <ele>529.5</ele>
        <time>2011-04-25T07:43:05Z</time>
      </trkpt>
      <trkpt lat="45.15883" lon="5.1321">
        <ele>530.90002441406</ele>
        <time>2011-04-25T07:43:08Z</time>
      </trkpt>
      <trkpt lat="45.15887" lon="5.13205">
        <ele>532.20001220703</ele>
        <time>2011-04-25T07:43:11Z</time>
      </trkpt>
      <trkpt lat="45.15888" lon="5.13205">
        <ele>531.5</ele>
        <time>2011-04-25T07:43:14Z</time>
      </trkpt>
      <trkpt lat="45.15892" lon="5.13202">
        <ele>531.79998779297</ele>
        <time>2011-04-25T07:43:17Z</time>
      </trkpt>
      <trkpt lat="45.15895" lon="5.13207">
        <ele>532.79998779297</ele>
        <time>2011-04-25T07:43:20Z</time>
      </trkpt>
      <trkpt lat="45.15899" lon="5.13206">
        <ele>534.5</ele>
        <time>2011-04-25T07:43:23Z</time>
      </trkpt>
      <trkpt lat="45.15901" lon="5.13215">
        <ele>535.90002441406</ele>
        <time>2011-04-25T07:43:26Z</time>
      </trkpt>
      <trkpt lat="45.15901" lon="5.13213">
        <ele>536.59997558594</ele>
        <time>2011-04-25T07:43:30Z</time>
      </trkpt>
      <trkpt lat="45.15899" lon="5.13218">
        <ele>536.59997558594</ele>
        <time>2011-04-25T07:43:33Z</time>
      </trkpt>
      <trkpt lat="45.15899" lon="5.13218">
        <ele>537.40002441406</ele>
        <time>2011-04-25T07:43:36Z</time>
      </trkpt>
      <trkpt lat="45.159" lon="5.13218">
        <ele>537.5</ele>
        <time>2011-04-25T07:43:39Z</time>
      </trkpt>
      <trkpt lat="45.15899" lon="5.13219">
        <ele>536.90002441406</ele>
        <time>2011-04-25T07:43:42Z</time>
      </trkpt>
      <trkpt lat="45.15897" lon="5.13219">
        <ele>538.79998779297</ele>
        <time>2011-04-25T07:43:45Z</time>
      </trkpt>
      <trkpt lat="45.15894" lon="5.13221">
        <ele>540.5</ele>
        <time>2011-04-25T07:43:48Z</time>
      </trkpt>
      <trkpt lat="45.15893" lon="5.13225">
        <ele>540.90002441406</ele>
        <time>2011-04-25T07:43:51Z</time>
      </trkpt>
      <trkpt lat="45.15893" lon="5.13224">
        <ele>541.20001220703</ele>
        <time>2011-04-25T07:43:54Z</time>
      </trkpt>
      <trkpt lat="45.15893" lon="5.13227">
        <ele>542.70001220703</ele>
        <time>2011-04-25T07:43:57Z</time>
      </trkpt>
      <trkpt lat="45.15893" lon="5.13227">
        <ele>544.20001220703</ele>
        <time>2011-04-25T07:44:00Z</time>
      </trkpt>
      <trkpt lat="45.15894" lon="5.13227">
        <ele>544</ele>
        <time>2011-04-25T07:44:04Z</time>
      </trkpt>
      <trkpt lat="45.15894" lon="5.13225">
        <ele>544.20001220703</ele>
        <time>2011-04-25T07:44:07Z</time>
      </trkpt>
      <trkpt lat="45.15895" lon="5.13225">
        <ele>544.09997558594</ele>
        <time>2011-04-25T07:44:10Z</time>
      </trkpt>
      <trkpt lat="45.15894" lon="5.13225">
        <ele>544</ele>
        <time>2011-04-25T07:44:13Z</time>
      </trkpt>
      <trkpt lat="45.15894" lon="5.13225">
        <ele>544.09997558594</ele>
        <time>2011-04-25T07:44:16Z</time>
      </trkpt>
      <trkpt lat="45.15894" lon="5.13225">
        <ele>544</ele>
        <time>2011-04-25T07:44:19Z</time>
      </trkpt>
      <trkpt lat="45.15894" lon="5.13225">
        <ele>544</ele>
        <time>2011-04-25T07:44:22Z</time>
      </trkpt>
      <trkpt lat="45.15894" lon="5.13225">
        <ele>544</ele>
        <time>2011-04-25T07:44:25Z</time>
      </trkpt>
      <trkpt lat="45.15894" lon="5.13225">
        <ele>544</ele>
        <time>2011-04-25T07:44:28Z</time>
      </trkpt>
      <trkpt lat="45.15894" lon="5.13225">
        <ele>544.09997558594</ele>
        <time>2011-04-25T07:44:31Z</time>
      </trkpt>
      <trkpt lat="45.15894" lon="5.13225">
        <ele>544</ele>
        <time>2011-04-25T07:44:34Z</time>
      </trkpt>
      <trkpt lat="45.15894" lon="5.13225">
        <ele>544</ele>
        <time>2011-04-25T07:44:38Z</time>
      </trkpt>
      <trkpt lat="45.15894" lon="5.13225">
        <ele>544.09997558594</ele>
        <time>2011-04-25T07:44:41Z</time>
      </trkpt>
      <trkpt lat="45.15894" lon="5.13225">
        <ele>544.09997558594</ele>
        <time>2011-04-25T07:44:44Z</time>
      </trkpt>
      <trkpt lat="45.15894" lon="5.13225">
        <ele>544.20001220703</ele>
        <time>2011-04-25T07:44:47Z</time>
      </trkpt>
      <trkpt lat="45.15894" lon="5.13225">
        <ele>544.09997558594</ele>
        <time>2011-04-25T07:44:50Z</time>
      </trkpt>
      <trkpt lat="45.15894" lon="5.13225">
        <ele>544.20001220703</ele>
        <time>2011-04-25T07:44:53Z</time>
      </trkpt>
      <trkpt lat="45.15894" lon="5.13225">
        <ele>544.20001220703</ele>
        <time>2011-04-25T07:44:56Z</time>
      </trkpt>
      <trkpt lat="45.15894" lon="5.13225">
        <ele>544.20001220703</ele>
        <time>2011-04-25T07:44:59Z</time>
      </trkpt>
      <trkpt lat="45.15894" lon="5.13225">
        <ele>544.20001220703</ele>
        <time>2011-04-25T07:45:02Z</time>
      </trkpt>
      <trkpt lat="45.15894" lon="5.13225">
        <ele>544.29998779297</ele>
        <time>2011-04-25T07:45:05Z</time>
      </trkpt>
      <trkpt lat="45.15894" lon="5.13225">
        <ele>544.29998779297</ele>
        <time>2011-04-25T07:45:08Z</time>
      </trkpt>
      <trkpt lat="45.15894" lon="5.13225">
        <ele>544.40002441406</ele>
        <time>2011-04-25T07:45:12Z</time>
      </trkpt>
      <trkpt lat="45.15894" lon="5.13225">
        <ele>544.40002441406</ele>
        <time>2011-04-25T07:45:15Z</time>
      </trkpt>
      <trkpt lat="45.15894" lon="5.13225">
        <ele>544.40002441406</ele>
        <time>2011-04-25T07:45:18Z</time>
      </trkpt>
      <trkpt lat="45.15894" lon="5.13225">
        <ele>544.40002441406</ele>
        <time>2011-04-25T07:45:21Z</time>
      </trkpt>
      <trkpt lat="45.15894" lon="5.13225">
        <ele>544.40002441406</ele>
        <time>2011-04-25T07:45:24Z</time>
      </trkpt>
      <trkpt lat="45.15894" lon="5.13225">
        <ele>544.40002441406</ele>
        <time>2011-04-25T07:45:27Z</time>
      </trkpt>
      <trkpt lat="45.15894" lon="5.13225">
        <ele>544.40002441406</ele>
        <time>2011-04-25T07:45:30Z</time>
      </trkpt>
      <trkpt lat="45.15894" lon="5.13225">
        <ele>544.5</ele>
        <time>2011-04-25T07:45:33Z</time>
      </trkpt>
      <trkpt lat="45.15894" lon="5.13225">
        <ele>544.5</ele>
        <time>2011-04-25T07:45:36Z</time>
      </trkpt>
      <trkpt lat="45.15894" lon="5.13225">
        <ele>544.5</ele>
        <time>2011-04-25T07:45:39Z</time>
      </trkpt>
      <trkpt lat="45.15894" lon="5.13225">
        <ele>544.5</ele>
        <time>2011-04-25T07:45:42Z</time>
      </trkpt>
      <trkpt lat="45.15894" lon="5.13225">
        <ele>544.5</ele>
        <time>2011-04-25T07:45:46Z</time>
      </trkpt>
      <trkpt lat="45.15894" lon="5.13225">
        <ele>544.5</ele>
        <time>2011-04-25T07:45:49Z</time>
      </trkpt>
      <trkpt lat="45.15894" lon="5.13225">
        <ele>544.5</ele>
        <time>2011-04-25T07:45:52Z</time>
      </trkpt>
      <trkpt lat="45.15894" lon="5.13225">
        <ele>544.5</ele>
        <time>2011-04-25T07:45:55Z</time>
      </trkpt>
      <trkpt lat="45.15894" lon="5.13225">
        <ele>544.5</ele>
        <time>2011-04-25T07:45:58Z</time>
      </trkpt>
      <trkpt lat="45.15894" lon="5.13225">
        <ele>544.5</ele>
        <time>2011-04-25T07:46:01Z</time>
      </trkpt>
      <trkpt lat="45.15894" lon="5.13225">
        <ele>544.5</ele>
        <time>2011-04-25T07:46:04Z</time>
      </trkpt>
      <trkpt lat="45.15894" lon="5.13225">
        <ele>544.5</ele>
        <time>2011-04-25T07:46:07Z</time>
      </trkpt>
      <trkpt lat="45.15894" lon="5.13225">
        <ele>544.5</ele>
        <time>2011-04-25T07:46:10Z</time>
      </trkpt>
      <trkpt lat="45.15894" lon="5.13225">
        <ele>544.5</ele>
        <time>2011-04-25T07:46:13Z</time>
      </trkpt>
      <trkpt lat="45.15894" lon="5.13225">
        <ele>544.5</ele>
        <time>2011-04-25T07:46:16Z</time>
      </trkpt>
      <trkpt lat="45.15894" lon="5.13225">
        <ele>544.5</ele>
        <time>2011-04-25T07:46:20Z</time>
      </trkpt>
      <trkpt lat="45.15894" lon="5.13225">
        <ele>544.5</ele>
        <time>2011-04-25T07:46:23Z</time>
      </trkpt>
      <trkpt lat="45.15894" lon="5.13225">
        <ele>544.5</ele>
        <time>2011-04-25T07:46:26Z</time>
      </trkpt>
      <trkpt lat="45.15894" lon="5.13225">
        <ele>544.5</ele>
        <time>2011-04-25T07:46:29Z</time>
      </trkpt>
      <trkpt lat="45.15894" lon="5.13225">
        <ele>544.59997558594</ele>
        <time>2011-04-25T07:46:32Z</time>
      </trkpt>
      <trkpt lat="45.15894" lon="5.13225">
        <ele>544.59997558594</ele>
        <time>2011-04-25T07:46:35Z</time>
      </trkpt>
      <trkpt lat="45.15894" lon="5.13225">
        <ele>544.59997558594</ele>
        <time>2011-04-25T07:46:38Z</time>
      </trkpt>
      <trkpt lat="45.15894" lon="5.13225">
        <ele>544.59997558594</ele>
        <time>2011-04-25T07:46:41Z</time>
      </trkpt>
      <trkpt lat="45.15894" lon="5.13225">
        <ele>544.59997558594</ele>
        <time>2011-04-25T07:46:44Z</time>
      </trkpt>
      <trkpt lat="45.15894" lon="5.13225">
        <ele>544.5</ele>
        <time>2011-04-25T07:46:47Z</time>
      </trkpt>
      <trkpt lat="45.15894" lon="5.13225">
        <ele>544.59997558594</ele>
        <time>2011-04-25T07:46:50Z</time>
      </trkpt>
      <trkpt lat="45.15894" lon="5.13225">
        <ele>544.59997558594</ele>
        <time>2011-04-25T07:46:54Z</time>
      </trkpt>
      <trkpt lat="45.15894" lon="5.13225">
        <ele>544.59997558594</ele>
        <time>2011-04-25T07:46:57Z</time>
      </trkpt>
      <trkpt lat="45.15894" lon="5.13225">
        <ele>544.59997558594</ele>
        <time>2011-04-25T07:47:00Z</time>
      </trkpt>
      <trkpt lat="45.15894" lon="5.13225">
        <ele>544.59997558594</ele>
        <time>2011-04-25T07:47:03Z</time>
      </trkpt>
      <trkpt lat="45.15894" lon="5.13225">
        <ele>544.59997558594</ele>
        <time>2011-04-25T07:47:06Z</time>
      </trkpt>
      <trkpt lat="45.15894" lon="5.13225">
        <ele>544.59997558594</ele>
        <time>2011-04-25T07:47:09Z</time>
      </trkpt>
      <trkpt lat="45.15894" lon="5.13225">
        <ele>544.59997558594</ele>
        <time>2011-04-25T07:47:12Z</time>
      </trkpt>
      <trkpt lat="45.15894" lon="5.13225">
        <ele>544.59997558594</ele>
        <time>2011-04-25T07:47:15Z</time>
      </trkpt>
      <trkpt lat="45.15894" lon="5.13225">
        <ele>544.59997558594</ele>
        <time>2011-04-25T07:47:18Z</time>
      </trkpt>
      <trkpt lat="45.15894" lon="5.13225">
        <ele>544.59997558594</ele>
        <time>2011-04-25T07:47:21Z</time>
      </trkpt>
      <trkpt lat="45.15894" lon="5.13225">
        <ele>544.59997558594</ele>
        <time>2011-04-25T07:47:24Z</time>
      </trkpt>
      <trkpt lat="45.15894" lon="5.13225">
        <ele>544.59997558594</ele>
        <time>2011-04-25T07:47:28Z</time>
      </trkpt>
      <trkpt lat="45.15894" lon="5.13225">
        <ele>544.59997558594</ele>
        <time>2011-04-25T07:47:31Z</time>
      </trkpt>
      <trkpt lat="45.15894" lon="5.13225">
        <ele>544.59997558594</ele>
        <time>2011-04-25T07:47:34Z</time>
      </trkpt>
      <trkpt lat="45.15894" lon="5.13225">
        <ele>544.59997558594</ele>
        <time>2011-04-25T07:47:37Z</time>
      </trkpt>
      <trkpt lat="45.15894" lon="5.13225">
        <ele>544.59997558594</ele>
        <time>2011-04-25T07:47:40Z</time>
      </trkpt>
      <trkpt lat="45.15894" lon="5.13225">
        <ele>544.59997558594</ele>
        <time>2011-04-25T07:47:43Z</time>
      </trkpt>
      <trkpt lat="45.15894" lon="5.13225">
        <ele>544.59997558594</ele>
        <time>2011-04-25T07:47:46Z</time>
      </trkpt>
      <trkpt lat="45.15894" lon="5.13225">
        <ele>544.59997558594</ele>
        <time>2011-04-25T07:47:49Z</time>
      </trkpt>
      <trkpt lat="45.15894" lon="5.13225">
        <ele>544.59997558594</ele>
        <time>2011-04-25T07:47:52Z</time>
      </trkpt>
      <trkpt lat="45.15894" lon="5.13225">
        <ele>544.70001220703</ele>
        <time>2011-04-25T07:47:55Z</time>
      </trkpt>
      <trkpt lat="45.15894" lon="5.13225">
        <ele>544.59997558594</ele>
        <time>2011-04-25T07:47:58Z</time>
      </trkpt>
      <trkpt lat="45.15894" lon="5.13225">
        <ele>544.59997558594</ele>
        <time>2011-04-25T07:48:02Z</time>
      </trkpt>
      <trkpt lat="45.15894" lon="5.13225">
        <ele>544.59997558594</ele>
        <time>2011-04-25T07:48:05Z</time>
      </trkpt>
      <trkpt lat="45.15894" lon="5.13225">
        <ele>544.59997558594</ele>
        <time>2011-04-25T07:48:08Z</time>
      </trkpt>
      <trkpt lat="45.15894" lon="5.13225">
        <ele>544.59997558594</ele>
        <time>2011-04-25T07:48:11Z</time>
      </trkpt>
      <trkpt lat="45.15894" lon="5.13225">
        <ele>544.59997558594</ele>
        <time>2011-04-25T07:48:14Z</time>
      </trkpt>
      <trkpt lat="45.15894" lon="5.13225">
        <ele>544.59997558594</ele>
        <time>2011-04-25T07:48:17Z</time>
      </trkpt>
      <trkpt lat="45.15894" lon="5.13225">
        <ele>544.59997558594</ele>
        <time>2011-04-25T07:48:20Z</time>
      </trkpt>
      <trkpt lat="45.15894" lon="5.13225">
        <ele>544.59997558594</ele>
        <time>2011-04-25T07:48:23Z</time>
      </trkpt>
      <trkpt lat="45.15894" lon="5.13225">
        <ele>544.59997558594</ele>
        <time>2011-04-25T07:48:26Z</time>
      </trkpt>
      <trkpt lat="45.15894" lon="5.13225">
        <ele>544.59997558594</ele>
        <time>2011-04-25T07:48:29Z</time>
      </trkpt>
      <trkpt lat="45.15894" lon="5.13225">
        <ele>544.59997558594</ele>
        <time>2011-04-25T07:48:32Z</time>
      </trkpt>
      <trkpt lat="45.15894" lon="5.13225">
        <ele>544.59997558594</ele>
        <time>2011-04-25T07:48:36Z</time>
      </trkpt>
      <trkpt lat="45.15894" lon="5.13225">
        <ele>544.59997558594</ele>
        <time>2011-04-25T07:48:39Z</time>
      </trkpt>
      <trkpt lat="45.15894" lon="5.13225">
        <ele>544.59997558594</ele>
        <time>2011-04-25T07:48:42Z</time>
      </trkpt>
      <trkpt lat="45.15894" lon="5.13225">
        <ele>544.59997558594</ele>
        <time>2011-04-25T07:48:45Z</time>
      </trkpt>
      <trkpt lat="45.15894" lon="5.13225">
        <ele>544.59997558594</ele>
        <time>2011-04-25T07:48:48Z</time>
      </trkpt>
      <trkpt lat="45.15894" lon="5.13225">
        <ele>544.59997558594</ele>
        <time>2011-04-25T07:48:51Z</time>
      </trkpt>
      <trkpt lat="45.15894" lon="5.13225">
        <ele>544.59997558594</ele>
        <time>2011-04-25T07:48:54Z</time>
      </trkpt>
      <trkpt lat="45.15894" lon="5.13225">
        <ele>544.59997558594</ele>
        <time>2011-04-25T07:48:57Z</time>
      </trkpt>
      <trkpt lat="45.15894" lon="5.13225">
        <ele>544.59997558594</ele>
        <time>2011-04-25T07:49:00Z</time>
      </trkpt>
      <trkpt lat="45.15894" lon="5.13225">
        <ele>544.59997558594</ele>
        <time>2011-04-25T07:49:03Z</time>
      </trkpt>
      <trkpt lat="45.15894" lon="5.13225">
        <ele>544.59997558594</ele>
        <time>2011-04-25T07:49:06Z</time>
      </trkpt>
      <trkpt lat="45.15894" lon="5.13225">
        <ele>544.59997558594</ele>
        <time>2011-04-25T07:49:10Z</time>
      </trkpt>
      <trkpt lat="45.15894" lon="5.13225">
        <ele>544.59997558594</ele>
        <time>2011-04-25T07:49:13Z</time>
      </trkpt>
      <trkpt lat="45.15894" lon="5.13225">
        <ele>544.5</ele>
        <time>2011-04-25T07:49:16Z</time>
      </trkpt>
      <trkpt lat="45.15894" lon="5.13225">
        <ele>544.5</ele>
        <time>2011-04-25T07:49:19Z</time>
      </trkpt>
      <trkpt lat="45.15894" lon="5.13225">
        <ele>544.5</ele>
        <time>2011-04-25T07:49:22Z</time>
      </trkpt>
      <trkpt lat="45.15894" lon="5.13224">
        <ele>544.5</ele>
        <time>2011-04-25T07:49:25Z</time>
      </trkpt>
      <trkpt lat="45.15915" lon="5.13201">
        <ele>540.09997558594</ele>
        <time>2011-04-25T07:49:28Z</time>
      </trkpt>
      <trkpt lat="45.15941" lon="5.13173">
        <ele>537.5</ele>
        <time>2011-04-25T07:49:31Z</time>
      </trkpt>
      <trkpt lat="45.15949" lon="5.13146">
        <ele>535.5</ele>
        <time>2011-04-25T07:49:34Z</time>
      </trkpt>
      <trkpt lat="45.15957" lon="5.13117">
        <ele>532.40002441406</ele>
        <time>2011-04-25T07:49:37Z</time>
      </trkpt>
      <trkpt lat="45.15971" lon="5.13081">
        <ele>529.90002441406</ele>
        <time>2011-04-25T07:49:40Z</time>
      </trkpt>
      <trkpt lat="45.15978" lon="5.13048">
        <ele>532.40002441406</ele>
        <time>2011-04-25T07:49:44Z</time>
      </trkpt>
      <trkpt lat="45.15984" lon="5.13023">
        <ele>532.79998779297</ele>
        <time>2011-04-25T07:49:47Z</time>
      </trkpt>
      <trkpt lat="45.15996" lon="5.12999">
        <ele>532.20001220703</ele>
        <time>2011-04-25T07:49:50Z</time>
      </trkpt>
      <trkpt lat="45.16007" lon="5.12976">
        <ele>532.79998779297</ele>
        <time>2011-04-25T07:49:53Z</time>
      </trkpt>
      <trkpt lat="45.16021" lon="5.12952">
        <ele>531.90002441406</ele>
        <time>2011-04-25T07:49:56Z</time>
      </trkpt>
      <trkpt lat="45.16028" lon="5.12894">
        <ele>533.20001220703</ele>
        <time>2011-04-25T07:49:59Z</time>
      </trkpt>
      <trkpt lat="45.1604" lon="5.12856">
        <ele>529.09997558594</ele>
        <time>2011-04-25T07:50:02Z</time>
      </trkpt>
      <trkpt lat="45.16051" lon="5.12823">
        <ele>526.09997558594</ele>
        <time>2011-04-25T07:50:05Z</time>
      </trkpt>
      <trkpt lat="45.16059" lon="5.12795">
        <ele>524.5</ele>
        <time>2011-04-25T07:50:08Z</time>
      </trkpt>
      <trkpt lat="45.16067" lon="5.12779">
        <ele>518.20001220703</ele>
        <time>2011-04-25T07:50:11Z</time>
      </trkpt>
      <trkpt lat="45.16076" lon="5.12774">
        <ele>512</ele>
        <time>2011-04-25T07:50:14Z</time>
      </trkpt>
      <trkpt lat="45.16087" lon="5.1277">
        <ele>508</ele>
        <time>2011-04-25T07:50:18Z</time>
      </trkpt>
      <trkpt lat="45.161" lon="5.1277">
        <ele>504.20001220703</ele>
        <time>2011-04-25T07:50:21Z</time>
      </trkpt>
      <trkpt lat="45.16113" lon="5.12769">
        <ele>502.60000610352</ele>
        <time>2011-04-25T07:50:24Z</time>
      </trkpt>
      <trkpt lat="45.1613" lon="5.12764">
        <ele>496.5</ele>
        <time>2011-04-25T07:50:27Z</time>
      </trkpt>
      <trkpt lat="45.16146" lon="5.12754">
        <ele>493.20001220703</ele>
        <time>2011-04-25T07:50:30Z</time>
      </trkpt>
      <trkpt lat="45.16158" lon="5.12744">
        <ele>490.89999389648</ele>
        <time>2011-04-25T07:50:33Z</time>
      </trkpt>
      <trkpt lat="45.16163" lon="5.12729">
        <ele>488.60000610352</ele>
        <time>2011-04-25T07:50:36Z</time>
      </trkpt>
      <trkpt lat="45.16164" lon="5.12707">
        <ele>488.29998779297</ele>
        <time>2011-04-25T07:50:39Z</time>
      </trkpt>
      <trkpt lat="45.16162" lon="5.12687">
        <ele>486.89999389648</ele>
        <time>2011-04-25T07:50:42Z</time>
      </trkpt>
      <trkpt lat="45.16164" lon="5.1267">
        <ele>485.20001220703</ele>
        <time>2011-04-25T07:50:45Z</time>
      </trkpt>
      <trkpt lat="45.16163" lon="5.12663">
        <ele>484.89999389648</ele>
        <time>2011-04-25T07:50:48Z</time>
      </trkpt>
      <trkpt lat="45.1616" lon="5.12656">
        <ele>482.79998779297</ele>
        <time>2011-04-25T07:50:52Z</time>
      </trkpt>
      <trkpt lat="45.16159" lon="5.12648">
        <ele>481</ele>
        <time>2011-04-25T07:50:55Z</time>
      </trkpt>
      <trkpt lat="45.16158" lon="5.12642">
        <ele>479.70001220703</ele>
        <time>2011-04-25T07:50:58Z</time>
      </trkpt>
      <trkpt lat="45.1616" lon="5.12635">
        <ele>478.5</ele>
        <time>2011-04-25T07:51:01Z</time>
      </trkpt>
      <trkpt lat="45.16161" lon="5.12627">
        <ele>476.79998779297</ele>
        <time>2011-04-25T07:51:04Z</time>
      </trkpt>
      <trkpt lat="45.1616" lon="5.12614">
        <ele>475.60000610352</ele>
        <time>2011-04-25T07:51:07Z</time>
      </trkpt>
      <trkpt lat="45.16159" lon="5.12601">
        <ele>474.60000610352</ele>
        <time>2011-04-25T07:51:10Z</time>
      </trkpt>
      <trkpt lat="45.16159" lon="5.12594">
        <ele>473.29998779297</ele>
        <time>2011-04-25T07:51:13Z</time>
      </trkpt>
      <trkpt lat="45.16159" lon="5.1259">
        <ele>473.10000610352</ele>
        <time>2011-04-25T07:51:16Z</time>
      </trkpt>
      <trkpt lat="45.16159" lon="5.12585">
        <ele>473</ele>
        <time>2011-04-25T07:51:19Z</time>
      </trkpt>
      <trkpt lat="45.16153" lon="5.12587">
        <ele>471.89999389648</ele>
        <time>2011-04-25T07:51:22Z</time>
      </trkpt>
      <trkpt lat="45.16152" lon="5.12581">
        <ele>471.39999389648</ele>
        <time>2011-04-25T07:51:26Z</time>
      </trkpt>
      <trkpt lat="45.16158" lon="5.12585">
        <ele>470.79998779297</ele>
        <time>2011-04-25T07:51:29Z</time>
      </trkpt>
      <trkpt lat="45.1616" lon="5.12578">
        <ele>471.20001220703</ele>
        <time>2011-04-25T07:51:32Z</time>
      </trkpt>
      <trkpt lat="45.16161" lon="5.12574">
        <ele>471.5</ele>
        <time>2011-04-25T07:51:35Z</time>
      </trkpt>
      <trkpt lat="45.16162" lon="5.12568">
        <ele>471.20001220703</ele>
        <time>2011-04-25T07:51:38Z</time>
      </trkpt>
      <trkpt lat="45.16164" lon="5.12561">
        <ele>470.20001220703</ele>
        <time>2011-04-25T07:51:41Z</time>
      </trkpt>
      <trkpt lat="45.16165" lon="5.12556">
        <ele>470.20001220703</ele>
        <time>2011-04-25T07:51:44Z</time>
      </trkpt>
      <trkpt lat="45.16167" lon="5.1255">
        <ele>469.20001220703</ele>
        <time>2011-04-25T07:51:47Z</time>
      </trkpt>
      <trkpt lat="45.16171" lon="5.12542">
        <ele>468.39999389648</ele>
        <time>2011-04-25T07:51:50Z</time>
      </trkpt>
      <trkpt lat="45.16173" lon="5.12534">
        <ele>467.89999389648</ele>
        <time>2011-04-25T07:51:53Z</time>
      </trkpt>
      <trkpt lat="45.16172" lon="5.12528">
        <ele>467.79998779297</ele>
        <time>2011-04-25T07:51:56Z</time>
      </trkpt>
      <trkpt lat="45.16174" lon="5.12516">
        <ele>467.10000610352</ele>
        <time>2011-04-25T07:52:00Z</time>
      </trkpt>
      <trkpt lat="45.16169" lon="5.125">
        <ele>465.79998779297</ele>
        <time>2011-04-25T07:52:03Z</time>
      </trkpt>
      <trkpt lat="45.16169" lon="5.12489">
        <ele>465.39999389648</ele>
        <time>2011-04-25T07:52:06Z</time>
      </trkpt>
      <trkpt lat="45.16168" lon="5.12483">
        <ele>464</ele>
        <time>2011-04-25T07:52:09Z</time>
      </trkpt>
      <trkpt lat="45.1617" lon="5.1248">
        <ele>463.79998779297</ele>
        <time>2011-04-25T07:52:12Z</time>
      </trkpt>
      <trkpt lat="45.16175" lon="5.12475">
        <ele>463.5</ele>
        <time>2011-04-25T07:52:15Z</time>
      </trkpt>
      <trkpt lat="45.16182" lon="5.12461">
        <ele>462.70001220703</ele>
        <time>2011-04-25T07:52:18Z</time>
      </trkpt>
      <trkpt lat="45.1618" lon="5.12447">
        <ele>461.29998779297</ele>
        <time>2011-04-25T07:52:21Z</time>
      </trkpt>
      <trkpt lat="45.16184" lon="5.12439">
        <ele>461.10000610352</ele>
        <time>2011-04-25T07:52:24Z</time>
      </trkpt>
      <trkpt lat="45.16185" lon="5.12436">
        <ele>456.70001220703</ele>
        <time>2011-04-25T07:52:27Z</time>
      </trkpt>
      <trkpt lat="45.16187" lon="5.12439">
        <ele>453.10000610352</ele>
        <time>2011-04-25T07:52:30Z</time>
      </trkpt>
      <trkpt lat="45.16194" lon="5.12443">
        <ele>452.5</ele>
        <time>2011-04-25T07:52:34Z</time>
      </trkpt>
      <trkpt lat="45.16196" lon="5.12447">
        <ele>450.5</ele>
        <time>2011-04-25T07:52:37Z</time>
      </trkpt>
      <trkpt lat="45.162" lon="5.12454">
        <ele>449.60000610352</ele>
        <time>2011-04-25T07:52:40Z</time>
      </trkpt>
      <trkpt lat="45.16204" lon="5.12458">
        <ele>449.39999389648</ele>
        <time>2011-04-25T07:52:43Z</time>
      </trkpt>
      <trkpt lat="45.16209" lon="5.12461">
        <ele>449.39999389648</ele>
        <time>2011-04-25T07:52:46Z</time>
      </trkpt>
      <trkpt lat="45.16211" lon="5.12464">
        <ele>449.79998779297</ele>
        <time>2011-04-25T07:52:49Z</time>
      </trkpt>
      <trkpt lat="45.16214" lon="5.12467">
        <ele>449.29998779297</ele>
        <time>2011-04-25T07:52:52Z</time>
      </trkpt>
      <trkpt lat="45.16222" lon="5.1247">
        <ele>448.60000610352</ele>
        <time>2011-04-25T07:52:55Z</time>
      </trkpt>
      <trkpt lat="45.16226" lon="5.12473">
        <ele>447.5</ele>
        <time>2011-04-25T07:52:58Z</time>
      </trkpt>
      <trkpt lat="45.16235" lon="5.12476">
        <ele>446.29998779297</ele>
        <time>2011-04-25T07:53:01Z</time>
      </trkpt>
      <trkpt lat="45.16239" lon="5.12481">
        <ele>446.70001220703</ele>
        <time>2011-04-25T07:53:04Z</time>
      </trkpt>
      <trkpt lat="45.16243" lon="5.12484">
        <ele>444.10000610352</ele>
        <time>2011-04-25T07:53:08Z</time>
      </trkpt>
      <trkpt lat="45.16248" lon="5.12485">
        <ele>443.39999389648</ele>
        <time>2011-04-25T07:53:11Z</time>
      </trkpt>
      <trkpt lat="45.16252" lon="5.12487">
        <ele>443.60000610352</ele>
        <time>2011-04-25T07:53:14Z</time>
      </trkpt>
      <trkpt lat="45.16256" lon="5.1249">
        <ele>441.5</ele>
        <time>2011-04-25T07:53:17Z</time>
      </trkpt>
      <trkpt lat="45.16261" lon="5.12497">
        <ele>444.70001220703</ele>
        <time>2011-04-25T07:53:20Z</time>
      </trkpt>
      <trkpt lat="45.16267" lon="5.12497">
        <ele>446.70001220703</ele>
        <time>2011-04-25T07:53:23Z</time>
      </trkpt>
      <trkpt lat="45.16275" lon="5.12479">
        <ele>444.70001220703</ele>
        <time>2011-04-25T07:53:26Z</time>
      </trkpt>
      <trkpt lat="45.16278" lon="5.12479">
        <ele>445.5</ele>
        <time>2011-04-25T07:53:29Z</time>
      </trkpt>
      <trkpt lat="45.16286" lon="5.12483">
        <ele>443.70001220703</ele>
        <time>2011-04-25T07:53:32Z</time>
      </trkpt>
      <trkpt lat="45.1629" lon="5.12484">
        <ele>443.79998779297</ele>
        <time>2011-04-25T07:53:35Z</time>
      </trkpt>
      <trkpt lat="45.16292" lon="5.12483">
        <ele>442.39999389648</ele>
        <time>2011-04-25T07:53:38Z</time>
      </trkpt>
      <trkpt lat="45.16295" lon="5.1249">
        <ele>439.89999389648</ele>
        <time>2011-04-25T07:53:42Z</time>
      </trkpt>
      <trkpt lat="45.16297" lon="5.1249">
        <ele>438.5</ele>
        <time>2011-04-25T07:53:45Z</time>
      </trkpt>
      <trkpt lat="45.16302" lon="5.1249">
        <ele>439.79998779297</ele>
        <time>2011-04-25T07:53:48Z</time>
      </trkpt>
      <trkpt lat="45.16305" lon="5.12488">
        <ele>439.20001220703</ele>
        <time>2011-04-25T07:53:51Z</time>
      </trkpt>
      <trkpt lat="45.16309" lon="5.12492">
        <ele>440</ele>
        <time>2011-04-25T07:53:54Z</time>
      </trkpt>
      <trkpt lat="45.16312" lon="5.12498">
        <ele>439.10000610352</ele>
        <time>2011-04-25T07:53:57Z</time>
      </trkpt>
      <trkpt lat="45.16314" lon="5.12506">
        <ele>439.60000610352</ele>
        <time>2011-04-25T07:54:00Z</time>
      </trkpt>
      <trkpt lat="45.16314" lon="5.12512">
        <ele>439.39999389648</ele>
        <time>2011-04-25T07:54:03Z</time>
      </trkpt>
      <trkpt lat="45.16318" lon="5.12513">
        <ele>439.60000610352</ele>
        <time>2011-04-25T07:54:06Z</time>
      </trkpt>
      <trkpt lat="45.16322" lon="5.12522">
        <ele>441.29998779297</ele>
        <time>2011-04-25T07:54:09Z</time>
      </trkpt>
      <trkpt lat="45.16325" lon="5.12528">
        <ele>441.29998779297</ele>
        <time>2011-04-25T07:54:12Z</time>
      </trkpt>
      <trkpt lat="45.1647" lon="5.12766">
        <ele>447.20001220703</ele>
        <time>2011-04-25T07:56:01Z</time>
      </trkpt>
      <trkpt lat="45.16474" lon="5.12767">
        <ele>449.39999389648</ele>
        <time>2011-04-25T07:56:04Z</time>
      </trkpt>
      <trkpt lat="45.1648" lon="5.12771">
        <ele>449.29998779297</ele>
        <time>2011-04-25T07:56:07Z</time>
      </trkpt>
      <trkpt lat="45.16484" lon="5.12773">
        <ele>449.10000610352</ele>
        <time>2011-04-25T07:56:10Z</time>
      </trkpt>
      <trkpt lat="45.16485" lon="5.12773">
        <ele>451.20001220703</ele>
        <time>2011-04-25T07:56:13Z</time>
      </trkpt>
      <trkpt lat="45.16489" lon="5.12778">
        <ele>453</ele>
        <time>2011-04-25T07:56:16Z</time>
      </trkpt>
      <trkpt lat="45.16494" lon="5.12782">
        <ele>456</ele>
        <time>2011-04-25T07:56:19Z</time>
      </trkpt>
      <trkpt lat="45.16497" lon="5.12787">
        <ele>456.89999389648</ele>
        <time>2011-04-25T07:56:22Z</time>
      </trkpt>
      <trkpt lat="45.16501" lon="5.12787">
        <ele>456.89999389648</ele>
        <time>2011-04-25T07:56:25Z</time>
      </trkpt>
      <trkpt lat="45.16503" lon="5.12793">
        <ele>457.29998779297</ele>
        <time>2011-04-25T07:56:28Z</time>
      </trkpt>
      <trkpt lat="45.16509" lon="5.12797">
        <ele>457</ele>
        <time>2011-04-25T07:56:31Z</time>
      </trkpt>
      <trkpt lat="45.16517" lon="5.12798">
        <ele>455.60000610352</ele>
        <time>2011-04-25T07:56:35Z</time>
      </trkpt>
      <trkpt lat="45.16521" lon="5.128">
        <ele>456.20001220703</ele>
        <time>2011-04-25T07:56:38Z</time>
      </trkpt>
      <trkpt lat="45.16526" lon="5.12799">
        <ele>455.60000610352</ele>
        <time>2011-04-25T07:56:41Z</time>
      </trkpt>
      <trkpt lat="45.16531" lon="5.12799">
        <ele>456.10000610352</ele>
        <time>2011-04-25T07:56:44Z</time>
      </trkpt>
      <trkpt lat="45.16534" lon="5.12798">
        <ele>457.70001220703</ele>
        <time>2011-04-25T07:56:47Z</time>
      </trkpt>
      <trkpt lat="45.16539" lon="5.12801">
        <ele>457.79998779297</ele>
        <time>2011-04-25T07:56:50Z</time>
      </trkpt>
      <trkpt lat="45.16542" lon="5.12801">
        <ele>458</ele>
        <time>2011-04-25T07:56:53Z</time>
      </trkpt>
      <trkpt lat="45.16546" lon="5.128">
        <ele>457.79998779297</ele>
        <time>2011-04-25T07:56:56Z</time>
      </trkpt>
      <trkpt lat="45.1655" lon="5.12801">
        <ele>458.60000610352</ele>
        <time>2011-04-25T07:56:59Z</time>
      </trkpt>
      <trkpt lat="45.16556" lon="5.12801">
        <ele>459.39999389648</ele>
        <time>2011-04-25T07:57:02Z</time>
      </trkpt>
      <trkpt lat="45.1656" lon="5.12799">
        <ele>460.79998779297</ele>
        <time>2011-04-25T07:57:05Z</time>
      </trkpt>
      <trkpt lat="45.16566" lon="5.12804">
        <ele>460.79998779297</ele>
        <time>2011-04-25T07:57:09Z</time>
      </trkpt>
      <trkpt lat="45.1657" lon="5.12809">
        <ele>461.20001220703</ele>
        <time>2011-04-25T07:57:12Z</time>
      </trkpt>
      <trkpt lat="45.16572" lon="5.12813">
        <ele>462.10000610352</ele>
        <time>2011-04-25T07:57:15Z</time>
      </trkpt>
      <trkpt lat="45.16574" lon="5.12819">
        <ele>463.20001220703</ele>
        <time>2011-04-25T07:57:18Z</time>
      </trkpt>
      <trkpt lat="45.16575" lon="5.12826">
        <ele>464</ele>
        <time>2011-04-25T07:57:21Z</time>
      </trkpt>
      <trkpt lat="45.16576" lon="5.12835">
        <ele>465.5</ele>
        <time>2011-04-25T07:57:24Z</time>
      </trkpt>
      <trkpt lat="45.16579" lon="5.12842">
        <ele>467.10000610352</ele>
        <time>2011-04-25T07:57:27Z</time>
      </trkpt>
      <trkpt lat="45.16583" lon="5.12849">
        <ele>467.60000610352</ele>
        <time>2011-04-25T07:57:30Z</time>
      </trkpt>
      <trkpt lat="45.16587" lon="5.12853">
        <ele>467.60000610352</ele>
        <time>2011-04-25T07:57:33Z</time>
      </trkpt>
      <trkpt lat="45.16591" lon="5.12855">
        <ele>468.20001220703</ele>
        <time>2011-04-25T07:57:36Z</time>
      </trkpt>
      <trkpt lat="45.16595" lon="5.12858">
        <ele>468.89999389648</ele>
        <time>2011-04-25T07:57:39Z</time>
      </trkpt>
      <trkpt lat="45.166" lon="5.12859">
        <ele>468.89999389648</ele>
        <time>2011-04-25T07:57:43Z</time>
      </trkpt>
      <trkpt lat="45.16604" lon="5.12856">
        <ele>469.29998779297</ele>
        <time>2011-04-25T07:57:46Z</time>
      </trkpt>
      <trkpt lat="45.16609" lon="5.12858">
        <ele>469.70001220703</ele>
        <time>2011-04-25T07:57:49Z</time>
      </trkpt>
      <trkpt lat="45.16613" lon="5.12862">
        <ele>470.29998779297</ele>
        <time>2011-04-25T07:57:52Z</time>
      </trkpt>
      <trkpt lat="45.16617" lon="5.12869">
        <ele>471.60000610352</ele>
        <time>2011-04-25T07:57:55Z</time>
      </trkpt>
      <trkpt lat="45.16622" lon="5.12872">
        <ele>472.20001220703</ele>
        <time>2011-04-25T07:57:58Z</time>
      </trkpt>
      <trkpt lat="45.16625" lon="5.12877">
        <ele>472.29998779297</ele>
        <time>2011-04-25T07:58:01Z</time>
      </trkpt>
      <trkpt lat="45.16629" lon="5.1288">
        <ele>472.5</ele>
        <time>2011-04-25T07:58:04Z</time>
      </trkpt>
      <trkpt lat="45.16633" lon="5.12883">
        <ele>472.5</ele>
        <time>2011-04-25T07:58:07Z</time>
      </trkpt>
      <trkpt lat="45.16635" lon="5.1289">
        <ele>472.70001220703</ele>
        <time>2011-04-25T07:58:10Z</time>
      </trkpt>
      <trkpt lat="45.16641" lon="5.12891">
        <ele>472.39999389648</ele>
        <time>2011-04-25T07:58:13Z</time>
      </trkpt>
      <trkpt lat="45.16648" lon="5.12897">
        <ele>473.29998779297</ele>
        <time>2011-04-25T07:58:17Z</time>
      </trkpt>
      <trkpt lat="45.16652" lon="5.12895">
        <ele>473.20001220703</ele>
        <time>2011-04-25T07:58:20Z</time>
      </trkpt>
      <trkpt lat="45.16656" lon="5.12898">
        <ele>473.39999389648</ele>
        <time>2011-04-25T07:58:23Z</time>
      </trkpt>
      <trkpt lat="45.16658" lon="5.12902">
        <ele>473.70001220703</ele>
        <time>2011-04-25T07:58:26Z</time>
      </trkpt>
      <trkpt lat="45.16663" lon="5.12907">
        <ele>474.10000610352</ele>
        <time>2011-04-25T07:58:29Z</time>
      </trkpt>
      <trkpt lat="45.16666" lon="5.12913">
        <ele>474.5</ele>
        <time>2011-04-25T07:58:32Z</time>
      </trkpt>
      <trkpt lat="45.1667" lon="5.12916">
        <ele>474.89999389648</ele>
        <time>2011-04-25T07:58:35Z</time>
      </trkpt>
      <trkpt lat="45.16671" lon="5.12923">
        <ele>476.5</ele>
        <time>2011-04-25T07:58:38Z</time>
      </trkpt>
      <trkpt lat="45.16674" lon="5.12925">
        <ele>478</ele>
        <time>2011-04-25T07:58:41Z</time>
      </trkpt>
      <trkpt lat="45.16679" lon="5.12927">
        <ele>478.79998779297</ele>
        <time>2011-04-25T07:58:44Z</time>
      </trkpt>
      <trkpt lat="45.16681" lon="5.12927">
        <ele>479.20001220703</ele>
        <time>2011-04-25T07:58:47Z</time>
      </trkpt>
      <trkpt lat="45.16685" lon="5.12932">
        <ele>479.70001220703</ele>
        <time>2011-04-25T07:58:51Z</time>
      </trkpt>
      <trkpt lat="45.16687" lon="5.12934">
        <ele>480.20001220703</ele>
        <time>2011-04-25T07:58:54Z</time>
      </trkpt>
      <trkpt lat="45.16688" lon="5.12939">
        <ele>479.89999389648</ele>
        <time>2011-04-25T07:58:57Z</time>
      </trkpt>
      <trkpt lat="45.16693" lon="5.12945">
        <ele>479.79998779297</ele>
        <time>2011-04-25T07:59:00Z</time>
      </trkpt>
      <trkpt lat="45.16697" lon="5.12949">
        <ele>480.20001220703</ele>
        <time>2011-04-25T07:59:03Z</time>
      </trkpt>
      <trkpt lat="45.167" lon="5.12949">
        <ele>480.89999389648</ele>
        <time>2011-04-25T07:59:06Z</time>
      </trkpt>
      <trkpt lat="45.16703" lon="5.1295">
        <ele>480.60000610352</ele>
        <time>2011-04-25T07:59:09Z</time>
      </trkpt>
      <trkpt lat="45.16708" lon="5.12954">
        <ele>480</ele>
        <time>2011-04-25T07:59:12Z</time>
      </trkpt>
      <trkpt lat="45.16712" lon="5.12959">
        <ele>479.20001220703</ele>
        <time>2011-04-25T07:59:15Z</time>
      </trkpt>
      <trkpt lat="45.16715" lon="5.1296">
        <ele>480.79998779297</ele>
        <time>2011-04-25T07:59:18Z</time>
      </trkpt>
      <trkpt lat="45.16718" lon="5.12963">
        <ele>481</ele>
        <time>2011-04-25T07:59:21Z</time>
      </trkpt>
      <trkpt lat="45.16721" lon="5.1297">
        <ele>482</ele>
        <time>2011-04-25T07:59:25Z</time>
      </trkpt>
      <trkpt lat="45.16724" lon="5.12973">
        <ele>482.10000610352</ele>
        <time>2011-04-25T07:59:28Z</time>
      </trkpt>
      <trkpt lat="45.16729" lon="5.12978">
        <ele>482.29998779297</ele>
        <time>2011-04-25T07:59:31Z</time>
      </trkpt>
      <trkpt lat="45.16733" lon="5.12983">
        <ele>483.20001220703</ele>
        <time>2011-04-25T07:59:34Z</time>
      </trkpt>
      <trkpt lat="45.16736" lon="5.12985">
        <ele>482.39999389648</ele>
        <time>2011-04-25T07:59:37Z</time>
      </trkpt>
      <trkpt lat="45.16738" lon="5.1299">
        <ele>482.89999389648</ele>
        <time>2011-04-25T07:59:40Z</time>
      </trkpt>
      <trkpt lat="45.16739" lon="5.12996">
        <ele>483.60000610352</ele>
        <time>2011-04-25T07:59:43Z</time>
      </trkpt>
      <trkpt lat="45.1674" lon="5.12999">
        <ele>483.39999389648</ele>
        <time>2011-04-25T07:59:46Z</time>
      </trkpt>
      <trkpt lat="45.16743" lon="5.13001">
        <ele>484</ele>
        <time>2011-04-25T07:59:49Z</time>
      </trkpt>
      <trkpt lat="45.16743" lon="5.13004">
        <ele>483.20001220703</ele>
        <time>2011-04-25T07:59:52Z</time>
      </trkpt>
      <trkpt lat="45.16746" lon="5.13009">
        <ele>483.39999389648</ele>
        <time>2011-04-25T07:59:55Z</time>
      </trkpt>
      <trkpt lat="45.16744" lon="5.13016">
        <ele>483.10000610352</ele>
        <time>2011-04-25T07:59:59Z</time>
      </trkpt>
      <trkpt lat="45.16745" lon="5.13018">
        <ele>482.70001220703</ele>
        <time>2011-04-25T08:00:02Z</time>
      </trkpt>
      <trkpt lat="45.16745" lon="5.13025">
        <ele>483.70001220703</ele>
        <time>2011-04-25T08:00:05Z</time>
      </trkpt>
      <trkpt lat="45.16743" lon="5.13024">
        <ele>484.20001220703</ele>
        <time>2011-04-25T08:00:08Z</time>
      </trkpt>
      <trkpt lat="45.16745" lon="5.13026">
        <ele>484.79998779297</ele>
        <time>2011-04-25T08:00:11Z</time>
      </trkpt>
      <trkpt lat="45.16745" lon="5.13026">
        <ele>484.89999389648</ele>
        <time>2011-04-25T08:00:14Z</time>
      </trkpt>
      <trkpt lat="45.16746" lon="5.13026">
        <ele>484.89999389648</ele>
        <time>2011-04-25T08:00:17Z</time>
      </trkpt>
      <trkpt lat="45.16746" lon="5.13026">
        <ele>485</ele>
        <time>2011-04-25T08:00:20Z</time>
      </trkpt>
      <trkpt lat="45.16746" lon="5.13025">
        <ele>484.89999389648</ele>
        <time>2011-04-25T08:00:23Z</time>
      </trkpt>
      <trkpt lat="45.16747" lon="5.13024">
        <ele>484.79998779297</ele>
        <time>2011-04-25T08:00:26Z</time>
      </trkpt>
      <trkpt lat="45.16747" lon="5.13024">
        <ele>484.70001220703</ele>
        <time>2011-04-25T08:00:29Z</time>
      </trkpt>
      <trkpt lat="45.1675" lon="5.13032">
        <ele>485.20001220703</ele>
        <time>2011-04-25T08:00:33Z</time>
      </trkpt>
      <trkpt lat="45.16758" lon="5.13042">
        <ele>483.89999389648</ele>
        <time>2011-04-25T08:00:36Z</time>
      </trkpt>
      <trkpt lat="45.16763" lon="5.13047">
        <ele>483</ele>
        <time>2011-04-25T08:00:39Z</time>
      </trkpt>
      <trkpt lat="45.16771" lon="5.13056">
        <ele>483.5</ele>
        <time>2011-04-25T08:00:42Z</time>
      </trkpt>
      <trkpt lat="45.16775" lon="5.13062">
        <ele>484.29998779297</ele>
        <time>2011-04-25T08:00:45Z</time>
      </trkpt>
      <trkpt lat="45.1678" lon="5.13064">
        <ele>486</ele>
        <time>2011-04-25T08:00:48Z</time>
      </trkpt>
      <trkpt lat="45.16784" lon="5.1307">
        <ele>486.10000610352</ele>
        <time>2011-04-25T08:00:51Z</time>
      </trkpt>
      <trkpt lat="45.16787" lon="5.13071">
        <ele>487.39999389648</ele>
        <time>2011-04-25T08:00:54Z</time>
      </trkpt>
      <trkpt lat="45.16792" lon="5.13076">
        <ele>489</ele>
        <time>2011-04-25T08:00:57Z</time>
      </trkpt>
      <trkpt lat="45.16797" lon="5.13082">
        <ele>492</ele>
        <time>2011-04-25T08:01:00Z</time>
      </trkpt>
      <trkpt lat="45.16802" lon="5.13093">
        <ele>492.79998779297</ele>
        <time>2011-04-25T08:01:03Z</time>
      </trkpt>
      <trkpt lat="45.16804" lon="5.13113">
        <ele>493.70001220703</ele>
        <time>2011-04-25T08:01:07Z</time>
      </trkpt>
      <trkpt lat="45.16809" lon="5.13127">
        <ele>495.10000610352</ele>
        <time>2011-04-25T08:01:10Z</time>
      </trkpt>
      <trkpt lat="45.16816" lon="5.13129">
        <ele>494.10000610352</ele>
        <time>2011-04-25T08:01:13Z</time>
      </trkpt>
      <trkpt lat="45.16822" lon="5.13131">
        <ele>496</ele>
        <time>2011-04-25T08:01:16Z</time>
      </trkpt>
      <trkpt lat="45.16825" lon="5.1314">
        <ele>498</ele>
        <time>2011-04-25T08:01:19Z</time>
      </trkpt>
      <trkpt lat="45.16832" lon="5.13142">
        <ele>499.20001220703</ele>
        <time>2011-04-25T08:01:22Z</time>
      </trkpt>
      <trkpt lat="45.16838" lon="5.1315">
        <ele>499.10000610352</ele>
        <time>2011-04-25T08:01:25Z</time>
      </trkpt>
      <trkpt lat="45.16842" lon="5.13158">
        <ele>499.60000610352</ele>
        <time>2011-04-25T08:01:28Z</time>
      </trkpt>
      <trkpt lat="45.16846" lon="5.13161">
        <ele>499.89999389648</ele>
        <time>2011-04-25T08:01:31Z</time>
      </trkpt>
      <trkpt lat="45.1685" lon="5.13165">
        <ele>500.10000610352</ele>
        <time>2011-04-25T08:01:34Z</time>
      </trkpt>
      <trkpt lat="45.16856" lon="5.13173">
        <ele>500.79998779297</ele>
        <time>2011-04-25T08:01:37Z</time>
      </trkpt>
      <trkpt lat="45.16862" lon="5.13176">
        <ele>500.5</ele>
        <time>2011-04-25T08:01:41Z</time>
      </trkpt>
      <trkpt lat="45.16868" lon="5.13179">
        <ele>500.79998779297</ele>
        <time>2011-04-25T08:01:44Z</time>
      </trkpt>
      <trkpt lat="45.16872" lon="5.13185">
        <ele>501.89999389648</ele>
        <time>2011-04-25T08:01:47Z</time>
      </trkpt>
      <trkpt lat="45.16876" lon="5.13192">
        <ele>501.5</ele>
        <time>2011-04-25T08:01:50Z</time>
      </trkpt>
      <trkpt lat="45.16881" lon="5.13194">
        <ele>500.70001220703</ele>
        <time>2011-04-25T08:01:53Z</time>
      </trkpt>
      <trkpt lat="45.16885" lon="5.13194">
        <ele>500.60000610352</ele>
        <time>2011-04-25T08:01:56Z</time>
      </trkpt>
      <trkpt lat="45.16888" lon="5.13199">
        <ele>500.60000610352</ele>
        <time>2011-04-25T08:01:59Z</time>
      </trkpt>
      <trkpt lat="45.16894" lon="5.13206">
        <ele>501.20001220703</ele>
        <time>2011-04-25T08:02:02Z</time>
      </trkpt>
      <trkpt lat="45.16897" lon="5.13216">
        <ele>501.10000610352</ele>
        <time>2011-04-25T08:02:05Z</time>
      </trkpt>
      <trkpt lat="45.16901" lon="5.13221">
        <ele>501.39999389648</ele>
        <time>2011-04-25T08:02:08Z</time>
      </trkpt>
      <trkpt lat="45.16904" lon="5.13228">
        <ele>501.10000610352</ele>
        <time>2011-04-25T08:02:11Z</time>
      </trkpt>
      <trkpt lat="45.16909" lon="5.13233">
        <ele>501.10000610352</ele>
        <time>2011-04-25T08:02:15Z</time>
      </trkpt>
      <trkpt lat="45.16911" lon="5.13233">
        <ele>501.70001220703</ele>
        <time>2011-04-25T08:02:18Z</time>
      </trkpt>
      <trkpt lat="45.16916" lon="5.13235">
        <ele>501.29998779297</ele>
        <time>2011-04-25T08:02:21Z</time>
      </trkpt>
      <trkpt lat="45.16922" lon="5.13237">
        <ele>502</ele>
        <time>2011-04-25T08:02:24Z</time>
      </trkpt>
      <trkpt lat="45.16927" lon="5.13242">
        <ele>503</ele>
        <time>2011-04-25T08:02:27Z</time>
      </trkpt>
      <trkpt lat="45.1693" lon="5.13249">
        <ele>503.39999389648</ele>
        <time>2011-04-25T08:02:30Z</time>
      </trkpt>
      <trkpt lat="45.16934" lon="5.13252">
        <ele>503.29998779297</ele>
        <time>2011-04-25T08:02:33Z</time>
      </trkpt>
      <trkpt lat="45.16936" lon="5.13259">
        <ele>504.29998779297</ele>
        <time>2011-04-25T08:02:36Z</time>
      </trkpt>
      <trkpt lat="45.16938" lon="5.1326">
        <ele>504.70001220703</ele>
        <time>2011-04-25T08:02:39Z</time>
      </trkpt>
      <trkpt lat="45.16941" lon="5.13266">
        <ele>504.79998779297</ele>
        <time>2011-04-25T08:02:42Z</time>
      </trkpt>
      <trkpt lat="45.16945" lon="5.13268">
        <ele>504.79998779297</ele>
        <time>2011-04-25T08:02:45Z</time>
      </trkpt>
      <trkpt lat="45.16949" lon="5.13273">
        <ele>504.60000610352</ele>
        <time>2011-04-25T08:02:49Z</time>
      </trkpt>
      <trkpt lat="45.16952" lon="5.13272">
        <ele>504.89999389648</ele>
        <time>2011-04-25T08:02:52Z</time>
      </trkpt>
      <trkpt lat="45.16953" lon="5.13272">
        <ele>505.5</ele>
        <time>2011-04-25T08:02:55Z</time>
      </trkpt>
      <trkpt lat="45.16958" lon="5.13271">
        <ele>505.20001220703</ele>
        <time>2011-04-25T08:02:58Z</time>
      </trkpt>
      <trkpt lat="45.1696" lon="5.13273">
        <ele>505.39999389648</ele>
        <time>2011-04-25T08:03:01Z</time>
      </trkpt>
      <trkpt lat="45.16965" lon="5.13275">
        <ele>505.89999389648</ele>
        <time>2011-04-25T08:03:04Z</time>
      </trkpt>
      <trkpt lat="45.16969" lon="5.13283">
        <ele>507</ele>
        <time>2011-04-25T08:03:07Z</time>
      </trkpt>
      <trkpt lat="45.16973" lon="5.13288">
        <ele>508.60000610352</ele>
        <time>2011-04-25T08:03:10Z</time>
      </trkpt>
      <trkpt lat="45.16977" lon="5.13292">
        <ele>511.20001220703</ele>
        <time>2011-04-25T08:03:13Z</time>
      </trkpt>
      <trkpt lat="45.1698" lon="5.13292">
        <ele>512.59997558594</ele>
        <time>2011-04-25T08:03:16Z</time>
      </trkpt>
      <trkpt lat="45.16982" lon="5.13295">
        <ele>512.5</ele>
        <time>2011-04-25T08:03:19Z</time>
      </trkpt>
      <trkpt lat="45.16988" lon="5.13296">
        <ele>514.20001220703</ele>
        <time>2011-04-25T08:03:23Z</time>
      </trkpt>
      <trkpt lat="45.1699" lon="5.13297">
        <ele>514.70001220703</ele>
        <time>2011-04-25T08:03:26Z</time>
      </trkpt>
      <trkpt lat="45.16993" lon="5.13298">
        <ele>516</ele>
        <time>2011-04-25T08:03:29Z</time>
      </trkpt>
      <trkpt lat="45.16996" lon="5.13299">
        <ele>515.70001220703</ele>
        <time>2011-04-25T08:03:32Z</time>
      </trkpt>
      <trkpt lat="45.16999" lon="5.13301">
        <ele>515.79998779297</ele>
        <time>2011-04-25T08:03:35Z</time>
      </trkpt>
      <trkpt lat="45.17001" lon="5.13306">
        <ele>515.90002441406</ele>
        <time>2011-04-25T08:03:38Z</time>
      </trkpt>
      <trkpt lat="45.17005" lon="5.1331">
        <ele>515.29998779297</ele>
        <time>2011-04-25T08:03:41Z</time>
      </trkpt>
      <trkpt lat="45.17009" lon="5.1331">
        <ele>515.20001220703</ele>
        <time>2011-04-25T08:03:44Z</time>
      </trkpt>
      <trkpt lat="45.17013" lon="5.13315">
        <ele>516.20001220703</ele>
        <time>2011-04-25T08:03:47Z</time>
      </trkpt>
      <trkpt lat="45.17017" lon="5.13318">
        <ele>515.90002441406</ele>
        <time>2011-04-25T08:03:50Z</time>
      </trkpt>
      <trkpt lat="45.1702" lon="5.13323">
        <ele>517.40002441406</ele>
        <time>2011-04-25T08:03:53Z</time>
      </trkpt>
      <trkpt lat="45.17026" lon="5.13323">
        <ele>517.79998779297</ele>
        <time>2011-04-25T08:03:57Z</time>
      </trkpt>
      <trkpt lat="45.17029" lon="5.13331">
        <ele>518.90002441406</ele>
        <time>2011-04-25T08:04:00Z</time>
      </trkpt>
      <trkpt lat="45.17032" lon="5.13334">
        <ele>519.5</ele>
        <time>2011-04-25T08:04:03Z</time>
      </trkpt>
      <trkpt lat="45.17036" lon="5.13338">
        <ele>520</ele>
        <time>2011-04-25T08:04:06Z</time>
      </trkpt>
      <trkpt lat="45.1704" lon="5.13341">
        <ele>519.79998779297</ele>
        <time>2011-04-25T08:04:09Z</time>
      </trkpt>
      <trkpt lat="45.17044" lon="5.13346">
        <ele>520.70001220703</ele>
        <time>2011-04-25T08:04:12Z</time>
      </trkpt>
      <trkpt lat="45.17046" lon="5.13353">
        <ele>520.40002441406</ele>
        <time>2011-04-25T08:04:15Z</time>
      </trkpt>
      <trkpt lat="45.17049" lon="5.13353">
        <ele>520.20001220703</ele>
        <time>2011-04-25T08:04:18Z</time>
      </trkpt>
      <trkpt lat="45.17049" lon="5.13352">
        <ele>521</ele>
        <time>2011-04-25T08:04:21Z</time>
      </trkpt>
      <trkpt lat="45.17052" lon="5.13355">
        <ele>520.79998779297</ele>
        <time>2011-04-25T08:04:24Z</time>
      </trkpt>
      <trkpt lat="45.17051" lon="5.13359">
        <ele>519.70001220703</ele>
        <time>2011-04-25T08:04:27Z</time>
      </trkpt>
      <trkpt lat="45.17051" lon="5.13359">
        <ele>520</ele>
        <time>2011-04-25T08:04:31Z</time>
      </trkpt>
      <trkpt lat="45.17053" lon="5.13361">
        <ele>519.90002441406</ele>
        <time>2011-04-25T08:04:34Z</time>
      </trkpt>
      <trkpt lat="45.17053" lon="5.13362">
        <ele>520.09997558594</ele>
        <time>2011-04-25T08:04:37Z</time>
      </trkpt>
      <trkpt lat="45.17053" lon="5.13362">
        <ele>520.20001220703</ele>
        <time>2011-04-25T08:04:40Z</time>
      </trkpt>
      <trkpt lat="45.17053" lon="5.13362">
        <ele>520.20001220703</ele>
        <time>2011-04-25T08:04:43Z</time>
      </trkpt>
      <trkpt lat="45.17053" lon="5.13362">
        <ele>520.20001220703</ele>
        <time>2011-04-25T08:04:46Z</time>
      </trkpt>
      <trkpt lat="45.17053" lon="5.13362">
        <ele>520.20001220703</ele>
        <time>2011-04-25T08:04:49Z</time>
      </trkpt>
      <trkpt lat="45.17053" lon="5.13362">
        <ele>520.20001220703</ele>
        <time>2011-04-25T08:04:52Z</time>
      </trkpt>
      <trkpt lat="45.17053" lon="5.13362">
        <ele>520.20001220703</ele>
        <time>2011-04-25T08:04:55Z</time>
      </trkpt>
      <trkpt lat="45.17053" lon="5.13362">
        <ele>520.09997558594</ele>
        <time>2011-04-25T08:04:58Z</time>
      </trkpt>
      <trkpt lat="45.17053" lon="5.13362">
        <ele>520.20001220703</ele>
        <time>2011-04-25T08:05:01Z</time>
      </trkpt>
      <trkpt lat="45.17053" lon="5.13362">
        <ele>520.09997558594</ele>
        <time>2011-04-25T08:05:05Z</time>
      </trkpt>
      <trkpt lat="45.17053" lon="5.13362">
        <ele>520.20001220703</ele>
        <time>2011-04-25T08:05:08Z</time>
      </trkpt>
      <trkpt lat="45.17053" lon="5.13362">
        <ele>520.20001220703</ele>
        <time>2011-04-25T08:05:11Z</time>
      </trkpt>
      <trkpt lat="45.17053" lon="5.13362">
        <ele>520.20001220703</ele>
        <time>2011-04-25T08:05:14Z</time>
      </trkpt>
      <trkpt lat="45.17053" lon="5.13362">
        <ele>520.20001220703</ele>
        <time>2011-04-25T08:05:17Z</time>
      </trkpt>
      <trkpt lat="45.17053" lon="5.13362">
        <ele>520.20001220703</ele>
        <time>2011-04-25T08:05:20Z</time>
      </trkpt>
      <trkpt lat="45.17053" lon="5.13362">
        <ele>520.09997558594</ele>
        <time>2011-04-25T08:05:23Z</time>
      </trkpt>
      <trkpt lat="45.17053" lon="5.13362">
        <ele>520.09997558594</ele>
        <time>2011-04-25T08:05:26Z</time>
      </trkpt>
      <trkpt lat="45.17053" lon="5.13362">
        <ele>520.09997558594</ele>
        <time>2011-04-25T08:05:29Z</time>
      </trkpt>
      <trkpt lat="45.17053" lon="5.13362">
        <ele>520.09997558594</ele>
        <time>2011-04-25T08:05:32Z</time>
      </trkpt>
      <trkpt lat="45.17053" lon="5.13362">
        <ele>520.09997558594</ele>
        <time>2011-04-25T08:05:35Z</time>
      </trkpt>
      <trkpt lat="45.17053" lon="5.13362">
        <ele>520.09997558594</ele>
        <time>2011-04-25T08:05:39Z</time>
      </trkpt>
      <trkpt lat="45.17053" lon="5.13362">
        <ele>520.09997558594</ele>
        <time>2011-04-25T08:05:42Z</time>
      </trkpt>
      <trkpt lat="45.17053" lon="5.13362">
        <ele>520.09997558594</ele>
        <time>2011-04-25T08:05:45Z</time>
      </trkpt>
      <trkpt lat="45.17053" lon="5.13363">
        <ele>520.20001220703</ele>
        <time>2011-04-25T08:05:48Z</time>
      </trkpt>
      <trkpt lat="45.17053" lon="5.13363">
        <ele>520.09997558594</ele>
        <time>2011-04-25T08:05:51Z</time>
      </trkpt>
      <trkpt lat="45.17053" lon="5.13362">
        <ele>520.09997558594</ele>
        <time>2011-04-25T08:05:54Z</time>
      </trkpt>
      <trkpt lat="45.17053" lon="5.13363">
        <ele>520.09997558594</ele>
        <time>2011-04-25T08:05:57Z</time>
      </trkpt>
      <trkpt lat="45.17053" lon="5.13363">
        <ele>520.09997558594</ele>
        <time>2011-04-25T08:06:00Z</time>
      </trkpt>
      <trkpt lat="45.17053" lon="5.13363">
        <ele>520.09997558594</ele>
        <time>2011-04-25T08:06:03Z</time>
      </trkpt>
      <trkpt lat="45.17053" lon="5.13363">
        <ele>520.09997558594</ele>
        <time>2011-04-25T08:06:06Z</time>
      </trkpt>
      <trkpt lat="45.17053" lon="5.13363">
        <ele>520.20001220703</ele>
        <time>2011-04-25T08:06:09Z</time>
      </trkpt>
      <trkpt lat="45.17053" lon="5.13363">
        <ele>520.20001220703</ele>
        <time>2011-04-25T08:06:13Z</time>
      </trkpt>
      <trkpt lat="45.17053" lon="5.13363">
        <ele>520.20001220703</ele>
        <time>2011-04-25T08:06:16Z</time>
      </trkpt>
      <trkpt lat="45.17053" lon="5.13363">
        <ele>520.20001220703</ele>
        <time>2011-04-25T08:06:19Z</time>
      </trkpt>
      <trkpt lat="45.17053" lon="5.13363">
        <ele>520.20001220703</ele>
        <time>2011-04-25T08:06:22Z</time>
      </trkpt>
      <trkpt lat="45.17053" lon="5.13363">
        <ele>520.20001220703</ele>
        <time>2011-04-25T08:06:25Z</time>
      </trkpt>
      <trkpt lat="45.17053" lon="5.13363">
        <ele>520.20001220703</ele>
        <time>2011-04-25T08:06:28Z</time>
      </trkpt>
      <trkpt lat="45.17053" lon="5.13363">
        <ele>520.20001220703</ele>
        <time>2011-04-25T08:06:31Z</time>
      </trkpt>
      <trkpt lat="45.17053" lon="5.13363">
        <ele>520.29998779297</ele>
        <time>2011-04-25T08:06:34Z</time>
      </trkpt>
      <trkpt lat="45.17053" lon="5.13363">
        <ele>520.29998779297</ele>
        <time>2011-04-25T08:06:37Z</time>
      </trkpt>
      <trkpt lat="45.17053" lon="5.13363">
        <ele>520.29998779297</ele>
        <time>2011-04-25T08:06:40Z</time>
      </trkpt>
      <trkpt lat="45.17053" lon="5.13363">
        <ele>520.29998779297</ele>
        <time>2011-04-25T08:06:43Z</time>
      </trkpt>
      <trkpt lat="45.17053" lon="5.13363">
        <ele>520.29998779297</ele>
        <time>2011-04-25T08:06:47Z</time>
      </trkpt>
      <trkpt lat="45.17053" lon="5.13363">
        <ele>520.40002441406</ele>
        <time>2011-04-25T08:06:50Z</time>
      </trkpt>
      <trkpt lat="45.17053" lon="5.13363">
        <ele>520.40002441406</ele>
        <time>2011-04-25T08:06:53Z</time>
      </trkpt>
      <trkpt lat="45.17053" lon="5.13363">
        <ele>520.40002441406</ele>
        <time>2011-04-25T08:06:56Z</time>
      </trkpt>
      <trkpt lat="45.17053" lon="5.13363">
        <ele>520.40002441406</ele>
        <time>2011-04-25T08:06:59Z</time>
      </trkpt>
      <trkpt lat="45.17053" lon="5.13363">
        <ele>520.40002441406</ele>
        <time>2011-04-25T08:07:02Z</time>
      </trkpt>
      <trkpt lat="45.17053" lon="5.13363">
        <ele>520.40002441406</ele>
        <time>2011-04-25T08:07:05Z</time>
      </trkpt>
      <trkpt lat="45.17053" lon="5.13363">
        <ele>520.40002441406</ele>
        <time>2011-04-25T08:07:08Z</time>
      </trkpt>
      <trkpt lat="45.17053" lon="5.13363">
        <ele>520.40002441406</ele>
        <time>2011-04-25T08:07:11Z</time>
      </trkpt>
      <trkpt lat="45.17053" lon="5.13363">
        <ele>520.40002441406</ele>
        <time>2011-04-25T08:07:14Z</time>
      </trkpt>
      <trkpt lat="45.17053" lon="5.13363">
        <ele>520.40002441406</ele>
        <time>2011-04-25T08:07:17Z</time>
      </trkpt>
      <trkpt lat="45.17071" lon="5.13373">
        <ele>517.59997558594</ele>
        <time>2011-04-25T08:07:21Z</time>
      </trkpt>
      <trkpt lat="45.17092" lon="5.13382">
        <ele>515.40002441406</ele>
        <time>2011-04-25T08:07:24Z</time>
      </trkpt>
      <trkpt lat="45.17105" lon="5.13405">
        <ele>515.79998779297</ele>
        <time>2011-04-25T08:07:27Z</time>
      </trkpt>
      <trkpt lat="45.17113" lon="5.13412">
        <ele>515.5</ele>
        <time>2011-04-25T08:07:30Z</time>
      </trkpt>
      <trkpt lat="45.17119" lon="5.13419">
        <ele>516.79998779297</ele>
        <time>2011-04-25T08:07:33Z</time>
      </trkpt>
      <trkpt lat="45.1712" lon="5.13419">
        <ele>517.5</ele>
        <time>2011-04-25T08:07:36Z</time>
      </trkpt>
      <trkpt lat="45.17121" lon="5.13422">
        <ele>517.29998779297</ele>
        <time>2011-04-25T08:07:39Z</time>
      </trkpt>
      <trkpt lat="45.17125" lon="5.13426">
        <ele>517.09997558594</ele>
        <time>2011-04-25T08:07:42Z</time>
      </trkpt>
      <trkpt lat="45.1713" lon="5.13431">
        <ele>517.29998779297</ele>
        <time>2011-04-25T08:07:45Z</time>
      </trkpt>
      <trkpt lat="45.17133" lon="5.13438">
        <ele>517.70001220703</ele>
        <time>2011-04-25T08:07:48Z</time>
      </trkpt>
      <trkpt lat="45.17131" lon="5.13444">
        <ele>518.79998779297</ele>
        <time>2011-04-25T08:07:51Z</time>
      </trkpt>
      <trkpt lat="45.17129" lon="5.13452">
        <ele>521</ele>
        <time>2011-04-25T08:07:55Z</time>
      </trkpt>
      <trkpt lat="45.17129" lon="5.13453">
        <ele>520.59997558594</ele>
        <time>2011-04-25T08:07:58Z</time>
      </trkpt>
      <trkpt lat="45.17129" lon="5.13453">
        <ele>521.20001220703</ele>
        <time>2011-04-25T08:08:01Z</time>
      </trkpt>
      <trkpt lat="45.17128" lon="5.13455">
        <ele>522.20001220703</ele>
        <time>2011-04-25T08:08:04Z</time>
      </trkpt>
      <trkpt lat="45.17128" lon="5.13455">
        <ele>522.5</ele>
        <time>2011-04-25T08:08:07Z</time>
      </trkpt>
      <trkpt lat="45.17128" lon="5.13455">
        <ele>522.5</ele>
        <time>2011-04-25T08:08:10Z</time>
      </trkpt>
      <trkpt lat="45.17128" lon="5.13455">
        <ele>522.5</ele>
        <time>2011-04-25T08:08:13Z</time>
      </trkpt>
      <trkpt lat="45.17128" lon="5.13455">
        <ele>522.5</ele>
        <time>2011-04-25T08:08:16Z</time>
      </trkpt>
      <trkpt lat="45.17128" lon="5.13455">
        <ele>522.40002441406</ele>
        <time>2011-04-25T08:08:19Z</time>
      </trkpt>
      <trkpt lat="45.17127" lon="5.13455">
        <ele>522.40002441406</ele>
        <time>2011-04-25T08:08:22Z</time>
      </trkpt>
      <trkpt lat="45.17127" lon="5.13455">
        <ele>522.40002441406</ele>
        <time>2011-04-25T08:08:25Z</time>
      </trkpt>
      <trkpt lat="45.17127" lon="5.13455">
        <ele>522.20001220703</ele>
        <time>2011-04-25T08:08:29Z</time>
      </trkpt>
      <trkpt lat="45.17127" lon="5.13455">
        <ele>522.20001220703</ele>
        <time>2011-04-25T08:08:32Z</time>
      </trkpt>
      <trkpt lat="45.17127" lon="5.13455">
        <ele>522.29998779297</ele>
        <time>2011-04-25T08:08:35Z</time>
      </trkpt>
      <trkpt lat="45.17127" lon="5.13455">
        <ele>522.29998779297</ele>
        <time>2011-04-25T08:08:38Z</time>
      </trkpt>
      <trkpt lat="45.17127" lon="5.13455">
        <ele>522.29998779297</ele>
        <time>2011-04-25T08:08:41Z</time>
      </trkpt>
      <trkpt lat="45.17127" lon="5.13455">
        <ele>522.20001220703</ele>
        <time>2011-04-25T08:08:44Z</time>
      </trkpt>
      <trkpt lat="45.17127" lon="5.13455">
        <ele>522.20001220703</ele>
        <time>2011-04-25T08:08:47Z</time>
      </trkpt>
      <trkpt lat="45.17127" lon="5.13455">
        <ele>522.20001220703</ele>
        <time>2011-04-25T08:08:50Z</time>
      </trkpt>
      <trkpt lat="45.17127" lon="5.13455">
        <ele>522.20001220703</ele>
        <time>2011-04-25T08:08:53Z</time>
      </trkpt>
      <trkpt lat="45.17126" lon="5.13455">
        <ele>522.20001220703</ele>
        <time>2011-04-25T08:08:56Z</time>
      </trkpt>
      <trkpt lat="45.17126" lon="5.13455">
        <ele>522.20001220703</ele>
        <time>2011-04-25T08:08:59Z</time>
      </trkpt>
      <trkpt lat="45.17126" lon="5.13455">
        <ele>522.20001220703</ele>
        <time>2011-04-25T08:09:03Z</time>
      </trkpt>
      <trkpt lat="45.17126" lon="5.13455">
        <ele>522.20001220703</ele>
        <time>2011-04-25T08:09:06Z</time>
      </trkpt>
      <trkpt lat="45.17126" lon="5.13455">
        <ele>522.20001220703</ele>
        <time>2011-04-25T08:09:09Z</time>
      </trkpt>
      <trkpt lat="45.17126" lon="5.13455">
        <ele>522.20001220703</ele>
        <time>2011-04-25T08:09:12Z</time>
      </trkpt>
      <trkpt lat="45.17126" lon="5.13455">
        <ele>522.09997558594</ele>
        <time>2011-04-25T08:09:15Z</time>
      </trkpt>
      <trkpt lat="45.17126" lon="5.13455">
        <ele>522.09997558594</ele>
        <time>2011-04-25T08:09:18Z</time>
      </trkpt>
      <trkpt lat="45.17126" lon="5.13455">
        <ele>522.20001220703</ele>
        <time>2011-04-25T08:09:21Z</time>
      </trkpt>
      <trkpt lat="45.17126" lon="5.13455">
        <ele>522.20001220703</ele>
        <time>2011-04-25T08:09:24Z</time>
      </trkpt>
      <trkpt lat="45.17126" lon="5.13455">
        <ele>522.20001220703</ele>
        <time>2011-04-25T08:09:27Z</time>
      </trkpt>
      <trkpt lat="45.17126" lon="5.13455">
        <ele>522.20001220703</ele>
        <time>2011-04-25T08:09:30Z</time>
      </trkpt>
      <trkpt lat="45.17126" lon="5.13455">
        <ele>522.20001220703</ele>
        <time>2011-04-25T08:09:33Z</time>
      </trkpt>
      <trkpt lat="45.17126" lon="5.13455">
        <ele>522.20001220703</ele>
        <time>2011-04-25T08:09:37Z</time>
      </trkpt>
      <trkpt lat="45.17126" lon="5.13455">
        <ele>522.20001220703</ele>
        <time>2011-04-25T08:09:40Z</time>
      </trkpt>
      <trkpt lat="45.17126" lon="5.13455">
        <ele>522.20001220703</ele>
        <time>2011-04-25T08:09:43Z</time>
      </trkpt>
      <trkpt lat="45.17127" lon="5.13455">
        <ele>522.29998779297</ele>
        <time>2011-04-25T08:09:46Z</time>
      </trkpt>
      <trkpt lat="45.17127" lon="5.13455">
        <ele>522.20001220703</ele>
        <time>2011-04-25T08:09:49Z</time>
      </trkpt>
      <trkpt lat="45.17127" lon="5.13455">
        <ele>522.20001220703</ele>
        <time>2011-04-25T08:09:52Z</time>
      </trkpt>
      <trkpt lat="45.17127" lon="5.13455">
        <ele>522.29998779297</ele>
        <time>2011-04-25T08:09:55Z</time>
      </trkpt>
      <trkpt lat="45.17128" lon="5.13455">
        <ele>522.29998779297</ele>
        <time>2011-04-25T08:09:58Z</time>
      </trkpt>
      <trkpt lat="45.17128" lon="5.13455">
        <ele>522.29998779297</ele>
        <time>2011-04-25T08:10:01Z</time>
      </trkpt>
      <trkpt lat="45.1713" lon="5.13457">
        <ele>521.90002441406</ele>
        <time>2011-04-25T08:10:04Z</time>
      </trkpt>
      <trkpt lat="45.17138" lon="5.13463">
        <ele>526.70001220703</ele>
        <time>2011-04-25T08:10:07Z</time>
      </trkpt>
      <trkpt lat="45.1715" lon="5.13476">
        <ele>526.20001220703</ele>
        <time>2011-04-25T08:10:11Z</time>
      </trkpt>
      <trkpt lat="45.17154" lon="5.13479">
        <ele>526.70001220703</ele>
        <time>2011-04-25T08:10:14Z</time>
      </trkpt>
      <trkpt lat="45.17159" lon="5.13485">
        <ele>529.09997558594</ele>
        <time>2011-04-25T08:10:17Z</time>
      </trkpt>
      <trkpt lat="45.17163" lon="5.13486">
        <ele>529.5</ele>
        <time>2011-04-25T08:10:20Z</time>
      </trkpt>
      <trkpt lat="45.17164" lon="5.1349">
        <ele>529.09997558594</ele>
        <time>2011-04-25T08:10:23Z</time>
      </trkpt>
      <trkpt lat="45.17167" lon="5.13494">
        <ele>531</ele>
        <time>2011-04-25T08:10:26Z</time>
      </trkpt>
      <trkpt lat="45.17171" lon="5.13502">
        <ele>532.20001220703</ele>
        <time>2011-04-25T08:10:29Z</time>
      </trkpt>
      <trkpt lat="45.17176" lon="5.13505">
        <ele>533</ele>
        <time>2011-04-25T08:10:32Z</time>
      </trkpt>
      <trkpt lat="45.17179" lon="5.13505">
        <ele>535.59997558594</ele>
        <time>2011-04-25T08:10:35Z</time>
      </trkpt>
      <trkpt lat="45.17185" lon="5.13511">
        <ele>536.79998779297</ele>
        <time>2011-04-25T08:10:38Z</time>
      </trkpt>
      <trkpt lat="45.1719" lon="5.13516">
        <ele>537.5</ele>
        <time>2011-04-25T08:10:41Z</time>
      </trkpt>
      <trkpt lat="45.17194" lon="5.13524">
        <ele>538.59997558594</ele>
        <time>2011-04-25T08:10:45Z</time>
      </trkpt>
      <trkpt lat="45.17198" lon="5.13527">
        <ele>539.29998779297</ele>
        <time>2011-04-25T08:10:48Z</time>
      </trkpt>
      <trkpt lat="45.17199" lon="5.13532">
        <ele>540.5</ele>
        <time>2011-04-25T08:10:51Z</time>
      </trkpt>
      <trkpt lat="45.172" lon="5.13534">
        <ele>543.40002441406</ele>
        <time>2011-04-25T08:10:54Z</time>
      </trkpt>
      <trkpt lat="45.17202" lon="5.13535">
        <ele>541.59997558594</ele>
        <time>2011-04-25T08:10:57Z</time>
      </trkpt>
      <trkpt lat="45.17203" lon="5.13537">
        <ele>542.09997558594</ele>
        <time>2011-04-25T08:11:00Z</time>
      </trkpt>
      <trkpt lat="45.17203" lon="5.13537">
        <ele>542</ele>
        <time>2011-04-25T08:11:03Z</time>
      </trkpt>
      <trkpt lat="45.17204" lon="5.13538">
        <ele>542.20001220703</ele>
        <time>2011-04-25T08:11:06Z</time>
      </trkpt>
      <trkpt lat="45.17204" lon="5.13538">
        <ele>542</ele>
        <time>2011-04-25T08:11:09Z</time>
      </trkpt>
      <trkpt lat="45.17204" lon="5.13538">
        <ele>542</ele>
        <time>2011-04-25T08:11:12Z</time>
      </trkpt>
      <trkpt lat="45.17204" lon="5.13538">
        <ele>542.09997558594</ele>
        <time>2011-04-25T08:11:15Z</time>
      </trkpt>
      <trkpt lat="45.17204" lon="5.13538">
        <ele>542</ele>
        <time>2011-04-25T08:11:19Z</time>
      </trkpt>
      <trkpt lat="45.17206" lon="5.13542">
        <ele>542.09997558594</ele>
        <time>2011-04-25T08:11:22Z</time>
      </trkpt>
      <trkpt lat="45.17219" lon="5.13547">
        <ele>541.29998779297</ele>
        <time>2011-04-25T08:11:25Z</time>
      </trkpt>
      <trkpt lat="45.17232" lon="5.13549">
        <ele>538.59997558594</ele>
        <time>2011-04-25T08:11:28Z</time>
      </trkpt>
      <trkpt lat="45.17241" lon="5.13555">
        <ele>536.90002441406</ele>
        <time>2011-04-25T08:11:31Z</time>
      </trkpt>
      <trkpt lat="45.17248" lon="5.13558">
        <ele>535.40002441406</ele>
        <time>2011-04-25T08:11:34Z</time>
      </trkpt>
      <trkpt lat="45.17253" lon="5.13565">
        <ele>535</ele>
        <time>2011-04-25T08:11:37Z</time>
      </trkpt>
      <trkpt lat="45.17259" lon="5.13572">
        <ele>536</ele>
        <time>2011-04-25T08:11:40Z</time>
      </trkpt>
      <trkpt lat="45.17267" lon="5.13581">
        <ele>536</ele>
        <time>2011-04-25T08:11:43Z</time>
      </trkpt>
      <trkpt lat="45.17273" lon="5.13587">
        <ele>536</ele>
        <time>2011-04-25T08:11:46Z</time>
      </trkpt>
      <trkpt lat="45.17282" lon="5.13592">
        <ele>536.5</ele>
        <time>2011-04-25T08:11:49Z</time>
      </trkpt>
      <trkpt lat="45.17295" lon="5.13604">
        <ele>538.09997558594</ele>
        <time>2011-04-25T08:11:53Z</time>
      </trkpt>
      <trkpt lat="45.17305" lon="5.13609">
        <ele>538.79998779297</ele>
        <time>2011-04-25T08:11:56Z</time>
      </trkpt>
      <trkpt lat="45.17312" lon="5.13618">
        <ele>538.90002441406</ele>
        <time>2011-04-25T08:11:59Z</time>
      </trkpt>
      <trkpt lat="45.1732" lon="5.13634">
        <ele>538.70001220703</ele>
        <time>2011-04-25T08:12:02Z</time>
      </trkpt>
      <trkpt lat="45.17328" lon="5.13656">
        <ele>539.40002441406</ele>
        <time>2011-04-25T08:12:05Z</time>
      </trkpt>
      <trkpt lat="45.17339" lon="5.13677">
        <ele>539.70001220703</ele>
        <time>2011-04-25T08:12:08Z</time>
      </trkpt>
      <trkpt lat="45.17348" lon="5.13693">
        <ele>539</ele>
        <time>2011-04-25T08:12:11Z</time>
      </trkpt>
      <trkpt lat="45.17358" lon="5.13711">
        <ele>538.09997558594</ele>
        <time>2011-04-25T08:12:14Z</time>
      </trkpt>
      <trkpt lat="45.1737" lon="5.13726">
        <ele>537.59997558594</ele>
        <time>2011-04-25T08:12:17Z</time>
      </trkpt>
      <trkpt lat="45.1738" lon="5.13741">
        <ele>537.79998779297</ele>
        <time>2011-04-25T08:12:20Z</time>
      </trkpt>
      <trkpt lat="45.17392" lon="5.13748">
        <ele>538.09997558594</ele>
        <time>2011-04-25T08:12:23Z</time>
      </trkpt>
      <trkpt lat="45.17408" lon="5.13763">
        <ele>538.29998779297</ele>
        <time>2011-04-25T08:12:27Z</time>
      </trkpt>
      <trkpt lat="45.17423" lon="5.13777">
        <ele>539.59997558594</ele>
        <time>2011-04-25T08:12:30Z</time>
      </trkpt>
      <trkpt lat="45.17438" lon="5.13786">
        <ele>539.59997558594</ele>
        <time>2011-04-25T08:12:33Z</time>
      </trkpt>
      <trkpt lat="45.17456" lon="5.13795">
        <ele>539.5</ele>
        <time>2011-04-25T08:12:36Z</time>
      </trkpt>
      <trkpt lat="45.17478" lon="5.13805">
        <ele>538.5</ele>
        <time>2011-04-25T08:12:39Z</time>
      </trkpt>
      <trkpt lat="45.17498" lon="5.13815">
        <ele>540</ele>
        <time>2011-04-25T08:12:42Z</time>
      </trkpt>
      <trkpt lat="45.17515" lon="5.13823">
        <ele>540.09997558594</ele>
        <time>2011-04-25T08:12:45Z</time>
      </trkpt>
      <trkpt lat="45.17531" lon="5.13842">
        <ele>538.90002441406</ele>
        <time>2011-04-25T08:12:48Z</time>
      </trkpt>
      <trkpt lat="45.17547" lon="5.13854">
        <ele>539.59997558594</ele>
        <time>2011-04-25T08:12:51Z</time>
      </trkpt>
      <trkpt lat="45.18026" lon="5.14071">
        <ele>521.59997558594</ele>
        <time>2011-04-25T08:17:40Z</time>
      </trkpt>
      <trkpt lat="45.18033" lon="5.1408">
        <ele>521.79998779297</ele>
        <time>2011-04-25T08:17:43Z</time>
      </trkpt>
      <trkpt lat="45.18039" lon="5.14085">
        <ele>519.5</ele>
        <time>2011-04-25T08:17:46Z</time>
      </trkpt>
      <trkpt lat="45.18044" lon="5.14092">
        <ele>519.29998779297</ele>
        <time>2011-04-25T08:17:49Z</time>
      </trkpt>
      <trkpt lat="45.18049" lon="5.14088">
        <ele>518.5</ele>
        <time>2011-04-25T08:17:52Z</time>
      </trkpt>
      <trkpt lat="45.18054" lon="5.14089">
        <ele>518.59997558594</ele>
        <time>2011-04-25T08:17:55Z</time>
      </trkpt>
      <trkpt lat="45.18057" lon="5.14092">
        <ele>519.5</ele>
        <time>2011-04-25T08:17:58Z</time>
      </trkpt>
      <trkpt lat="45.18062" lon="5.14102">
        <ele>519.70001220703</ele>
        <time>2011-04-25T08:18:01Z</time>
      </trkpt>
      <trkpt lat="45.18065" lon="5.14109">
        <ele>519.20001220703</ele>
        <time>2011-04-25T08:18:04Z</time>
      </trkpt>
      <trkpt lat="45.18072" lon="5.14111">
        <ele>518.79998779297</ele>
        <time>2011-04-25T08:18:07Z</time>
      </trkpt>
      <trkpt lat="45.18078" lon="5.14126">
        <ele>518.29998779297</ele>
        <time>2011-04-25T08:18:11Z</time>
      </trkpt>
      <trkpt lat="45.18082" lon="5.14128">
        <ele>518.20001220703</ele>
        <time>2011-04-25T08:18:14Z</time>
      </trkpt>
      <trkpt lat="45.18087" lon="5.14134">
        <ele>518.59997558594</ele>
        <time>2011-04-25T08:18:17Z</time>
      </trkpt>
      <trkpt lat="45.18091" lon="5.14134">
        <ele>518.79998779297</ele>
        <time>2011-04-25T08:18:20Z</time>
      </trkpt>
      <trkpt lat="45.18097" lon="5.1413">
        <ele>518.70001220703</ele>
        <time>2011-04-25T08:18:23Z</time>
      </trkpt>
      <trkpt lat="45.18103" lon="5.1413">
        <ele>520.20001220703</ele>
        <time>2011-04-25T08:18:26Z</time>
      </trkpt>
      <trkpt lat="45.18107" lon="5.14137">
        <ele>522.5</ele>
        <time>2011-04-25T08:18:29Z</time>
      </trkpt>
      <trkpt lat="45.18113" lon="5.14143">
        <ele>523</ele>
        <time>2011-04-25T08:18:32Z</time>
      </trkpt>
      <trkpt lat="45.18118" lon="5.14152">
        <ele>523.09997558594</ele>
        <time>2011-04-25T08:18:35Z</time>
      </trkpt>
      <trkpt lat="45.18121" lon="5.14153">
        <ele>524.79998779297</ele>
        <time>2011-04-25T08:18:38Z</time>
      </trkpt>
      <trkpt lat="45.18124" lon="5.14158">
        <ele>525.09997558594</ele>
        <time>2011-04-25T08:18:41Z</time>
      </trkpt>
      <trkpt lat="45.1813" lon="5.14168">
        <ele>525.09997558594</ele>
        <time>2011-04-25T08:18:45Z</time>
      </trkpt>
      <trkpt lat="45.18134" lon="5.14173">
        <ele>525.09997558594</ele>
        <time>2011-04-25T08:18:48Z</time>
      </trkpt>
      <trkpt lat="45.18137" lon="5.14174">
        <ele>524.90002441406</ele>
        <time>2011-04-25T08:18:51Z</time>
      </trkpt>
      <trkpt lat="45.18137" lon="5.1417">
        <ele>525</ele>
        <time>2011-04-25T08:18:54Z</time>
      </trkpt>
      <trkpt lat="45.18137" lon="5.14171">
        <ele>525.20001220703</ele>
        <time>2011-04-25T08:18:57Z</time>
      </trkpt>
      <trkpt lat="45.18137" lon="5.1417">
        <ele>525.40002441406</ele>
        <time>2011-04-25T08:19:00Z</time>
      </trkpt>
      <trkpt lat="45.18138" lon="5.14171">
        <ele>525.29998779297</ele>
        <time>2011-04-25T08:19:03Z</time>
      </trkpt>
      <trkpt lat="45.18138" lon="5.14171">
        <ele>525.40002441406</ele>
        <time>2011-04-25T08:19:06Z</time>
      </trkpt>
      <trkpt lat="45.18137" lon="5.14171">
        <ele>525.70001220703</ele>
        <time>2011-04-25T08:19:09Z</time>
      </trkpt>
      <trkpt lat="45.18137" lon="5.14171">
        <ele>525.79998779297</ele>
        <time>2011-04-25T08:19:12Z</time>
      </trkpt>
      <trkpt lat="45.18137" lon="5.14172">
        <ele>525.90002441406</ele>
        <time>2011-04-25T08:19:15Z</time>
      </trkpt>
      <trkpt lat="45.18137" lon="5.14172">
        <ele>525.90002441406</ele>
        <time>2011-04-25T08:19:19Z</time>
      </trkpt>
      <trkpt lat="45.18138" lon="5.14172">
        <ele>525.79998779297</ele>
        <time>2011-04-25T08:19:22Z</time>
      </trkpt>
      <trkpt lat="45.18138" lon="5.14172">
        <ele>525.59997558594</ele>
        <time>2011-04-25T08:19:25Z</time>
      </trkpt>
      <trkpt lat="45.18138" lon="5.14173">
        <ele>525.59997558594</ele>
        <time>2011-04-25T08:19:28Z</time>
      </trkpt>
      <trkpt lat="45.18138" lon="5.14173">
        <ele>525.59997558594</ele>
        <time>2011-04-25T08:19:31Z</time>
      </trkpt>
      <trkpt lat="45.18142" lon="5.14175">
        <ele>526.59997558594</ele>
        <time>2011-04-25T08:19:34Z</time>
      </trkpt>
      <trkpt lat="45.18149" lon="5.14187">
        <ele>528.29998779297</ele>
        <time>2011-04-25T08:19:37Z</time>
      </trkpt>
      <trkpt lat="45.1816" lon="5.14201">
        <ele>529.59997558594</ele>
        <time>2011-04-25T08:19:40Z</time>
      </trkpt>
      <trkpt lat="45.18168" lon="5.1421">
        <ele>529.90002441406</ele>
        <time>2011-04-25T08:19:43Z</time>
      </trkpt>
      <trkpt lat="45.18175" lon="5.14218">
        <ele>530.09997558594</ele>
        <time>2011-04-25T08:19:46Z</time>
      </trkpt>
      <trkpt lat="45.18186" lon="5.14225">
        <ele>531.40002441406</ele>
        <time>2011-04-25T08:19:49Z</time>
      </trkpt>
      <trkpt lat="45.18195" lon="5.14233">
        <ele>532.79998779297</ele>
        <time>2011-04-25T08:19:53Z</time>
      </trkpt>
      <trkpt lat="45.18202" lon="5.14235">
        <ele>533.20001220703</ele>
        <time>2011-04-25T08:19:56Z</time>
      </trkpt>
      <trkpt lat="45.18804" lon="5.15374">
        <ele>564.79998779297</ele>
        <time>2011-04-25T08:34:08Z</time>
      </trkpt>
      <trkpt lat="45.18805" lon="5.15374">
        <ele>570.90002441406</ele>
        <time>2011-04-25T08:34:11Z</time>
      </trkpt>
      <trkpt lat="45.18805" lon="5.15375">
        <ele>570.90002441406</ele>
        <time>2011-04-25T08:34:14Z</time>
      </trkpt>
      <trkpt lat="45.18805" lon="5.15375">
        <ele>570.90002441406</ele>
        <time>2011-04-25T08:34:17Z</time>
      </trkpt>
      <trkpt lat="45.18805" lon="5.15375">
        <ele>571</ele>
        <time>2011-04-25T08:34:20Z</time>
      </trkpt>
      <trkpt lat="45.18805" lon="5.15374">
        <ele>571.09997558594</ele>
        <time>2011-04-25T08:34:23Z</time>
      </trkpt>
      <trkpt lat="45.18805" lon="5.15375">
        <ele>570.79998779297</ele>
        <time>2011-04-25T08:34:27Z</time>
      </trkpt>
      <trkpt lat="45.18805" lon="5.15375">
        <ele>570.09997558594</ele>
        <time>2011-04-25T08:34:30Z</time>
      </trkpt>
      <trkpt lat="45.18805" lon="5.15375">
        <ele>570.20001220703</ele>
        <time>2011-04-25T08:34:33Z</time>
      </trkpt>
      <trkpt lat="45.18805" lon="5.15375">
        <ele>570.59997558594</ele>
        <time>2011-04-25T08:34:36Z</time>
      </trkpt>
      <trkpt lat="45.18805" lon="5.15375">
        <ele>571.09997558594</ele>
        <time>2011-04-25T08:34:39Z</time>
      </trkpt>
      <trkpt lat="45.18805" lon="5.15375">
        <ele>571.40002441406</ele>
        <time>2011-04-25T08:34:42Z</time>
      </trkpt>
      <trkpt lat="45.18805" lon="5.15375">
        <ele>571.29998779297</ele>
        <time>2011-04-25T08:34:45Z</time>
      </trkpt>
      <trkpt lat="45.18805" lon="5.15375">
        <ele>571.40002441406</ele>
        <time>2011-04-25T08:34:48Z</time>
      </trkpt>
      <trkpt lat="45.18805" lon="5.15375">
        <ele>571.59997558594</ele>
        <time>2011-04-25T08:34:51Z</time>
      </trkpt>
      <trkpt lat="45.18805" lon="5.15375">
        <ele>571.70001220703</ele>
        <time>2011-04-25T08:34:54Z</time>
      </trkpt>
      <trkpt lat="45.18805" lon="5.15375">
        <ele>571.70001220703</ele>
        <time>2011-04-25T08:34:57Z</time>
      </trkpt>
      <trkpt lat="45.18805" lon="5.15375">
        <ele>571.90002441406</ele>
        <time>2011-04-25T08:35:01Z</time>
      </trkpt>
      <trkpt lat="45.18804" lon="5.15374">
        <ele>572.09997558594</ele>
        <time>2011-04-25T08:35:04Z</time>
      </trkpt>
      <trkpt lat="45.18804" lon="5.15374">
        <ele>572</ele>
        <time>2011-04-25T08:35:07Z</time>
      </trkpt>
      <trkpt lat="45.18804" lon="5.15374">
        <ele>572.29998779297</ele>
        <time>2011-04-25T08:35:10Z</time>
      </trkpt>
      <trkpt lat="45.18803" lon="5.15374">
        <ele>572.29998779297</ele>
        <time>2011-04-25T08:35:13Z</time>
      </trkpt>
      <trkpt lat="45.18803" lon="5.15374">
        <ele>572.59997558594</ele>
        <time>2011-04-25T08:35:16Z</time>
      </trkpt>
      <trkpt lat="45.18803" lon="5.15374">
        <ele>572.79998779297</ele>
        <time>2011-04-25T08:35:19Z</time>
      </trkpt>
      <trkpt lat="45.18803" lon="5.15374">
        <ele>572.90002441406</ele>
        <time>2011-04-25T08:35:22Z</time>
      </trkpt>
      <trkpt lat="45.18803" lon="5.15374">
        <ele>573</ele>
        <time>2011-04-25T08:35:25Z</time>
      </trkpt>
      <trkpt lat="45.18803" lon="5.15374">
        <ele>572.90002441406</ele>
        <time>2011-04-25T08:35:28Z</time>
      </trkpt>
      <trkpt lat="45.18803" lon="5.15374">
        <ele>573.40002441406</ele>
        <time>2011-04-25T08:35:31Z</time>
      </trkpt>
      <trkpt lat="45.18802" lon="5.15373">
        <ele>574</ele>
        <time>2011-04-25T08:35:35Z</time>
      </trkpt>
      <trkpt lat="45.18802" lon="5.15373">
        <ele>574.09997558594</ele>
        <time>2011-04-25T08:35:38Z</time>
      </trkpt>
      <trkpt lat="45.18802" lon="5.15373">
        <ele>574.09997558594</ele>
        <time>2011-04-25T08:35:41Z</time>
      </trkpt>
      <trkpt lat="45.18802" lon="5.15373">
        <ele>574.29998779297</ele>
        <time>2011-04-25T08:35:44Z</time>
      </trkpt>
      <trkpt lat="45.18802" lon="5.15373">
        <ele>574.40002441406</ele>
        <time>2011-04-25T08:35:47Z</time>
      </trkpt>
      <trkpt lat="45.18802" lon="5.15373">
        <ele>574.59997558594</ele>
        <time>2011-04-25T08:35:50Z</time>
      </trkpt>
      <trkpt lat="45.18802" lon="5.15373">
        <ele>574.59997558594</ele>
        <time>2011-04-25T08:35:53Z</time>
      </trkpt>
      <trkpt lat="45.18801" lon="5.15373">
        <ele>574.70001220703</ele>
        <time>2011-04-25T08:35:56Z</time>
      </trkpt>
      <trkpt lat="45.18801" lon="5.15373">
        <ele>574.70001220703</ele>
        <time>2011-04-25T08:35:59Z</time>
      </trkpt>
      <trkpt lat="45.18801" lon="5.15373">
        <ele>574.79998779297</ele>
        <time>2011-04-25T08:36:02Z</time>
      </trkpt>
      <trkpt lat="45.18801" lon="5.15373">
        <ele>574.70001220703</ele>
        <time>2011-04-25T08:36:05Z</time>
      </trkpt>
      <trkpt lat="45.18801" lon="5.15373">
        <ele>574.90002441406</ele>
        <time>2011-04-25T08:36:09Z</time>
      </trkpt>
      <trkpt lat="45.18801" lon="5.15373">
        <ele>575</ele>
        <time>2011-04-25T08:36:12Z</time>
      </trkpt>
      <trkpt lat="45.18801" lon="5.15373">
        <ele>575</ele>
        <time>2011-04-25T08:36:15Z</time>
      </trkpt>
      <trkpt lat="45.18801" lon="5.15372">
        <ele>575.40002441406</ele>
        <time>2011-04-25T08:36:18Z</time>
      </trkpt>
      <trkpt lat="45.18801" lon="5.15372">
        <ele>575.40002441406</ele>
        <time>2011-04-25T08:36:21Z</time>
      </trkpt>
      <trkpt lat="45.18801" lon="5.15372">
        <ele>575.29998779297</ele>
        <time>2011-04-25T08:36:24Z</time>
      </trkpt>
      <trkpt lat="45.18801" lon="5.15372">
        <ele>575.40002441406</ele>
        <time>2011-04-25T08:36:27Z</time>
      </trkpt>
      <trkpt lat="45.18801" lon="5.15372">
        <ele>575.70001220703</ele>
        <time>2011-04-25T08:36:30Z</time>
      </trkpt>
      <trkpt lat="45.18801" lon="5.15372">
        <ele>575.79998779297</ele>
        <time>2011-04-25T08:36:33Z</time>
      </trkpt>
      <trkpt lat="45.18801" lon="5.15372">
        <ele>575.79998779297</ele>
        <time>2011-04-25T08:36:36Z</time>
      </trkpt>
      <trkpt lat="45.18801" lon="5.15372">
        <ele>576</ele>
        <time>2011-04-25T08:36:39Z</time>
      </trkpt>
      <trkpt lat="45.18801" lon="5.15372">
        <ele>576.09997558594</ele>
        <time>2011-04-25T08:36:43Z</time>
      </trkpt>
      <trkpt lat="45.18801" lon="5.15372">
        <ele>576.29998779297</ele>
        <time>2011-04-25T08:36:46Z</time>
      </trkpt>
      <trkpt lat="45.18801" lon="5.15372">
        <ele>576.40002441406</ele>
        <time>2011-04-25T08:36:49Z</time>
      </trkpt>
      <trkpt lat="45.18801" lon="5.15372">
        <ele>576.5</ele>
        <time>2011-04-25T08:36:52Z</time>
      </trkpt>
      <trkpt lat="45.188" lon="5.15371">
        <ele>577.29998779297</ele>
        <time>2011-04-25T08:36:55Z</time>
      </trkpt>
      <trkpt lat="45.18799" lon="5.15371">
        <ele>578</ele>
        <time>2011-04-25T08:36:58Z</time>
      </trkpt>
      <trkpt lat="45.18798" lon="5.1537">
        <ele>578.79998779297</ele>
        <time>2011-04-25T08:37:01Z</time>
      </trkpt>
      <trkpt lat="45.18798" lon="5.1537">
        <ele>579.59997558594</ele>
        <time>2011-04-25T08:37:04Z</time>
      </trkpt>
      <trkpt lat="45.18797" lon="5.1537">
        <ele>580</ele>
        <time>2011-04-25T08:37:07Z</time>
      </trkpt>
      <trkpt lat="45.18796" lon="5.15369">
        <ele>580.40002441406</ele>
        <time>2011-04-25T08:37:10Z</time>
      </trkpt>
      <trkpt lat="45.18796" lon="5.15369">
        <ele>580.70001220703</ele>
        <time>2011-04-25T08:37:13Z</time>
      </trkpt>
      <trkpt lat="45.18795" lon="5.15369">
        <ele>580.70001220703</ele>
        <time>2011-04-25T08:37:17Z</time>
      </trkpt>
      <trkpt lat="45.18795" lon="5.15369">
        <ele>580.79998779297</ele>
        <time>2011-04-25T08:37:20Z</time>
      </trkpt>
      <trkpt lat="45.18795" lon="5.15369">
        <ele>581</ele>
        <time>2011-04-25T08:37:23Z</time>
      </trkpt>
      <trkpt lat="45.18794" lon="5.15368">
        <ele>582.40002441406</ele>
        <time>2011-04-25T08:37:26Z</time>
      </trkpt>
      <trkpt lat="45.18794" lon="5.15368">
        <ele>583.5</ele>
        <time>2011-04-25T08:37:29Z</time>
      </trkpt>
      <trkpt lat="45.18794" lon="5.15368">
        <ele>583.90002441406</ele>
        <time>2011-04-25T08:37:32Z</time>
      </trkpt>
      <trkpt lat="45.18793" lon="5.15367">
        <ele>584.70001220703</ele>
        <time>2011-04-25T08:37:35Z</time>
      </trkpt>
      <trkpt lat="45.18793" lon="5.15367">
        <ele>585.40002441406</ele>
        <time>2011-04-25T08:37:38Z</time>
      </trkpt>
      <trkpt lat="45.18792" lon="5.15367">
        <ele>586</ele>
        <time>2011-04-25T08:37:41Z</time>
      </trkpt>
      <trkpt lat="45.18792" lon="5.15367">
        <ele>586.40002441406</ele>
        <time>2011-04-25T08:37:44Z</time>
      </trkpt>
      <trkpt lat="45.18792" lon="5.15366">
        <ele>587</ele>
        <time>2011-04-25T08:37:47Z</time>
      </trkpt>
      <trkpt lat="45.18792" lon="5.15366">
        <ele>586.70001220703</ele>
        <time>2011-04-25T08:37:51Z</time>
      </trkpt>
      <trkpt lat="45.18792" lon="5.15367">
        <ele>586.20001220703</ele>
        <time>2011-04-25T08:37:54Z</time>
      </trkpt>
      <trkpt lat="45.18792" lon="5.15367">
        <ele>585.79998779297</ele>
        <time>2011-04-25T08:37:57Z</time>
      </trkpt>
      <trkpt lat="45.18792" lon="5.15367">
        <ele>585.20001220703</ele>
        <time>2011-04-25T08:38:00Z</time>
      </trkpt>
      <trkpt lat="45.18792" lon="5.15367">
        <ele>585.29998779297</ele>
        <time>2011-04-25T08:38:03Z</time>
      </trkpt>
      <trkpt lat="45.18792" lon="5.15367">
        <ele>585.40002441406</ele>
        <time>2011-04-25T08:38:06Z</time>
      </trkpt>
      <trkpt lat="45.18792" lon="5.15367">
        <ele>585.5</ele>
        <time>2011-04-25T08:38:09Z</time>
      </trkpt>
      <trkpt lat="45.18792" lon="5.15367">
        <ele>585.59997558594</ele>
        <time>2011-04-25T08:38:12Z</time>
      </trkpt>
      <trkpt lat="45.18792" lon="5.15367">
        <ele>585.59997558594</ele>
        <time>2011-04-25T08:38:15Z</time>
      </trkpt>
      <trkpt lat="45.18792" lon="5.15367">
        <ele>585.79998779297</ele>
        <time>2011-04-25T08:38:18Z</time>
      </trkpt>
      <trkpt lat="45.18792" lon="5.15366">
        <ele>586.29998779297</ele>
        <time>2011-04-25T08:38:21Z</time>
      </trkpt>
      <trkpt lat="45.18792" lon="5.15366">
        <ele>586.59997558594</ele>
        <time>2011-04-25T08:38:25Z</time>
      </trkpt>
      <trkpt lat="45.18792" lon="5.15366">
        <ele>586.59997558594</ele>
        <time>2011-04-25T08:38:28Z</time>
      </trkpt>
      <trkpt lat="45.18792" lon="5.15366">
        <ele>586.59997558594</ele>
        <time>2011-04-25T08:38:31Z</time>
      </trkpt>
      <trkpt lat="45.18792" lon="5.15366">
        <ele>586.29998779297</ele>
        <time>2011-04-25T08:38:34Z</time>
      </trkpt>
      <trkpt lat="45.18792" lon="5.15366">
        <ele>585.90002441406</ele>
        <time>2011-04-25T08:38:37Z</time>
      </trkpt>
      <trkpt lat="45.18792" lon="5.15366">
        <ele>585.59997558594</ele>
        <time>2011-04-25T08:38:40Z</time>
      </trkpt>
      <trkpt lat="45.18791" lon="5.15366">
        <ele>585.29998779297</ele>
        <time>2011-04-25T08:38:43Z</time>
      </trkpt>
      <trkpt lat="45.18791" lon="5.15366">
        <ele>584.90002441406</ele>
        <time>2011-04-25T08:38:46Z</time>
      </trkpt>
      <trkpt lat="45.18791" lon="5.15366">
        <ele>584.70001220703</ele>
        <time>2011-04-25T08:38:49Z</time>
      </trkpt>
      <trkpt lat="45.18791" lon="5.15366">
        <ele>584.59997558594</ele>
        <time>2011-04-25T08:38:52Z</time>
      </trkpt>
      <trkpt lat="45.18791" lon="5.15366">
        <ele>584.59997558594</ele>
        <time>2011-04-25T08:38:55Z</time>
      </trkpt>
      <trkpt lat="45.18791" lon="5.15366">
        <ele>584.70001220703</ele>
        <time>2011-04-25T08:38:59Z</time>
      </trkpt>
      <trkpt lat="45.18791" lon="5.15366">
        <ele>584.59997558594</ele>
        <time>2011-04-25T08:39:02Z</time>
      </trkpt>
      <trkpt lat="45.1879" lon="5.15366">
        <ele>584.90002441406</ele>
        <time>2011-04-25T08:39:05Z</time>
      </trkpt>
      <trkpt lat="45.1879" lon="5.15366">
        <ele>584.90002441406</ele>
        <time>2011-04-25T08:39:08Z</time>
      </trkpt>
      <trkpt lat="45.1879" lon="5.15365">
        <ele>585</ele>
        <time>2011-04-25T08:39:11Z</time>
      </trkpt>
      <trkpt lat="45.1879" lon="5.15365">
        <ele>584.79998779297</ele>
        <time>2011-04-25T08:39:14Z</time>
      </trkpt>
      <trkpt lat="45.1879" lon="5.15365">
        <ele>584.5</ele>
        <time>2011-04-25T08:39:17Z</time>
      </trkpt>
      <trkpt lat="45.1879" lon="5.15365">
        <ele>584.09997558594</ele>
        <time>2011-04-25T08:39:20Z</time>
      </trkpt>
      <trkpt lat="45.18789" lon="5.15365">
        <ele>584.09997558594</ele>
        <time>2011-04-25T08:39:23Z</time>
      </trkpt>
      <trkpt lat="45.18789" lon="5.15365">
        <ele>583.79998779297</ele>
        <time>2011-04-25T08:39:26Z</time>
      </trkpt>
      <trkpt lat="45.18789" lon="5.15365">
        <ele>583.59997558594</ele>
        <time>2011-04-25T08:39:29Z</time>
      </trkpt>
      <trkpt lat="45.18788" lon="5.15365">
        <ele>583.29998779297</ele>
        <time>2011-04-25T08:39:33Z</time>
      </trkpt>
      <trkpt lat="45.18788" lon="5.15365">
        <ele>583.29998779297</ele>
        <time>2011-04-25T08:39:36Z</time>
      </trkpt>
      <trkpt lat="45.18788" lon="5.15365">
        <ele>583.20001220703</ele>
        <time>2011-04-25T08:39:39Z</time>
      </trkpt>
      <trkpt lat="45.18789" lon="5.15365">
        <ele>583.20001220703</ele>
        <time>2011-04-25T08:39:42Z</time>
      </trkpt>
      <trkpt lat="45.18789" lon="5.15365">
        <ele>583.40002441406</ele>
        <time>2011-04-25T08:39:45Z</time>
      </trkpt>
      <trkpt lat="45.18789" lon="5.15365">
        <ele>583.40002441406</ele>
        <time>2011-04-25T08:39:48Z</time>
      </trkpt>
      <trkpt lat="45.18789" lon="5.15365">
        <ele>583.29998779297</ele>
        <time>2011-04-25T08:39:51Z</time>
      </trkpt>
      <trkpt lat="45.18789" lon="5.15365">
        <ele>583.20001220703</ele>
        <time>2011-04-25T08:39:54Z</time>
      </trkpt>
      <trkpt lat="45.18789" lon="5.15365">
        <ele>583.20001220703</ele>
        <time>2011-04-25T08:39:57Z</time>
      </trkpt>
      <trkpt lat="45.18789" lon="5.15366">
        <ele>582.90002441406</ele>
        <time>2011-04-25T08:40:00Z</time>
      </trkpt>
      <trkpt lat="45.18789" lon="5.15366">
        <ele>582.79998779297</ele>
        <time>2011-04-25T08:40:03Z</time>
      </trkpt>
      <trkpt lat="45.18791" lon="5.15368">
        <ele>577.79998779297</ele>
        <time>2011-04-25T08:40:50Z</time>
      </trkpt>
      <trkpt lat="45.18791" lon="5.15368">
        <ele>577.70001220703</ele>
        <time>2011-04-25T08:40:53Z</time>
      </trkpt>
      <trkpt lat="45.18791" lon="5.15369">
        <ele>577.79998779297</ele>
        <time>2011-04-25T08:40:56Z</time>
      </trkpt>
      <trkpt lat="45.18791" lon="5.15369">
        <ele>577.79998779297</ele>
        <time>2011-04-25T08:40:59Z</time>
      </trkpt>
      <trkpt lat="45.18791" lon="5.15369">
        <ele>577.79998779297</ele>
        <time>2011-04-25T08:41:02Z</time>
      </trkpt>
      <trkpt lat="45.18928" lon="5.15689">
        <ele>590.09997558594</ele>
        <time>2011-04-25T08:41:36Z</time>
      </trkpt>
      <trkpt lat="45.18945" lon="5.15702">
        <ele>589.90002441406</ele>
        <time>2011-04-25T08:41:42Z</time>
      </trkpt>
      <trkpt lat="45.18952" lon="5.15712">
        <ele>589.79998779297</ele>
        <time>2011-04-25T08:41:45Z</time>
      </trkpt>
      <trkpt lat="45.19021" lon="5.15773">
        <ele>592.59997558594</ele>
        <time>2011-04-25T08:42:07Z</time>
      </trkpt>
      <trkpt lat="45.19032" lon="5.15771">
        <ele>592.90002441406</ele>
        <time>2011-04-25T08:42:10Z</time>
      </trkpt>
      <trkpt lat="45.19042" lon="5.15772">
        <ele>591.90002441406</ele>
        <time>2011-04-25T08:42:13Z</time>
      </trkpt>
      <trkpt lat="45.19055" lon="5.15772">
        <ele>589</ele>
        <time>2011-04-25T08:42:16Z</time>
      </trkpt>
      <trkpt lat="45.19069" lon="5.15771">
        <ele>588.20001220703</ele>
        <time>2011-04-25T08:42:19Z</time>
      </trkpt>
      <trkpt lat="45.19081" lon="5.15773">
        <ele>587.59997558594</ele>
        <time>2011-04-25T08:42:23Z</time>
      </trkpt>
      <trkpt lat="45.1909" lon="5.15775">
        <ele>588.20001220703</ele>
        <time>2011-04-25T08:42:26Z</time>
      </trkpt>
      <trkpt lat="45.19098" lon="5.15782">
        <ele>588.20001220703</ele>
        <time>2011-04-25T08:42:29Z</time>
      </trkpt>
      <trkpt lat="45.19109" lon="5.15785">
        <ele>589.20001220703</ele>
        <time>2011-04-25T08:42:32Z</time>
      </trkpt>
      <trkpt lat="45.19119" lon="5.15792">
        <ele>588.29998779297</ele>
        <time>2011-04-25T08:42:35Z</time>
      </trkpt>
      <trkpt lat="45.19129" lon="5.15798">
        <ele>589.5</ele>
        <time>2011-04-25T08:42:38Z</time>
      </trkpt>
      <trkpt lat="45.19141" lon="5.15803">
        <ele>590.70001220703</ele>
        <time>2011-04-25T08:42:41Z</time>
      </trkpt>
      <trkpt lat="45.19154" lon="5.15809">
        <ele>590.70001220703</ele>
        <time>2011-04-25T08:42:44Z</time>
      </trkpt>
      <trkpt lat="45.19167" lon="5.15814">
        <ele>590.90002441406</ele>
        <time>2011-04-25T08:42:47Z</time>
      </trkpt>
      <trkpt lat="45.19178" lon="5.15822">
        <ele>591.5</ele>
        <time>2011-04-25T08:42:50Z</time>
      </trkpt>
      <trkpt lat="45.19184" lon="5.15827">
        <ele>590</ele>
        <time>2011-04-25T08:42:53Z</time>
      </trkpt>
      <trkpt lat="45.19198" lon="5.15837">
        <ele>590.5</ele>
        <time>2011-04-25T08:42:57Z</time>
      </trkpt>
      <trkpt lat="45.19206" lon="5.15844">
        <ele>590.09997558594</ele>
        <time>2011-04-25T08:43:00Z</time>
      </trkpt>
      <trkpt lat="45.19216" lon="5.15852">
        <ele>590.09997558594</ele>
        <time>2011-04-25T08:43:03Z</time>
      </trkpt>
      <trkpt lat="45.1922" lon="5.15861">
        <ele>588</ele>
        <time>2011-04-25T08:43:06Z</time>
      </trkpt>
      <trkpt lat="45.19225" lon="5.15869">
        <ele>585.59997558594</ele>
        <time>2011-04-25T08:43:09Z</time>
      </trkpt>
      <trkpt lat="45.19231" lon="5.15881">
        <ele>585.5</ele>
        <time>2011-04-25T08:43:12Z</time>
      </trkpt>
      <trkpt lat="45.19233" lon="5.15896">
        <ele>585.29998779297</ele>
        <time>2011-04-25T08:43:15Z</time>
      </trkpt>
      <trkpt lat="45.19232" lon="5.15904">
        <ele>585.5</ele>
        <time>2011-04-25T08:43:18Z</time>
      </trkpt>
      <trkpt lat="45.19233" lon="5.15917">
        <ele>586.09997558594</ele>
        <time>2011-04-25T08:43:21Z</time>
      </trkpt>
      <trkpt lat="45.19233" lon="5.15934">
        <ele>585.79998779297</ele>
        <time>2011-04-25T08:43:24Z</time>
      </trkpt>
      <trkpt lat="45.19232" lon="5.15947">
        <ele>585.5</ele>
        <time>2011-04-25T08:43:27Z</time>
      </trkpt>
      <trkpt lat="45.19228" lon="5.15966">
        <ele>584.59997558594</ele>
        <time>2011-04-25T08:43:31Z</time>
      </trkpt>
      <trkpt lat="45.19229" lon="5.15975">
        <ele>584.59997558594</ele>
        <time>2011-04-25T08:43:34Z</time>
      </trkpt>
      <trkpt lat="45.19219" lon="5.1601">
        <ele>584.5</ele>
        <time>2011-04-25T08:43:40Z</time>
      </trkpt>
      <trkpt lat="45.19202" lon="5.16031">
        <ele>584.40002441406</ele>
        <time>2011-04-25T08:43:43Z</time>
      </trkpt>
      <trkpt lat="45.19192" lon="5.16045">
        <ele>582.59997558594</ele>
        <time>2011-04-25T08:43:46Z</time>
      </trkpt>
      <trkpt lat="45.19185" lon="5.1606">
        <ele>582.5</ele>
        <time>2011-04-25T08:43:49Z</time>
      </trkpt>
      <trkpt lat="45.19189" lon="5.16069">
        <ele>582</ele>
        <time>2011-04-25T08:43:52Z</time>
      </trkpt>
      <trkpt lat="45.19196" lon="5.16079">
        <ele>581.29998779297</ele>
        <time>2011-04-25T08:43:55Z</time>
      </trkpt>
      <trkpt lat="45.19203" lon="5.1609">
        <ele>579.70001220703</ele>
        <time>2011-04-25T08:43:58Z</time>
      </trkpt>
      <trkpt lat="45.19209" lon="5.16108">
        <ele>579.59997558594</ele>
        <time>2011-04-25T08:44:01Z</time>
      </trkpt>
      <trkpt lat="45.19216" lon="5.16126">
        <ele>579.90002441406</ele>
        <time>2011-04-25T08:44:05Z</time>
      </trkpt>
      <trkpt lat="45.19225" lon="5.16139">
        <ele>579.29998779297</ele>
        <time>2011-04-25T08:44:08Z</time>
      </trkpt>
      <trkpt lat="45.19232" lon="5.16155">
        <ele>579.59997558594</ele>
        <time>2011-04-25T08:44:11Z</time>
      </trkpt>
      <trkpt lat="45.19238" lon="5.16167">
        <ele>580.20001220703</ele>
        <time>2011-04-25T08:44:14Z</time>
      </trkpt>
      <trkpt lat="45.1924" lon="5.16191">
        <ele>579</ele>
        <time>2011-04-25T08:44:17Z</time>
      </trkpt>
      <trkpt lat="45.19243" lon="5.16205">
        <ele>578.29998779297</ele>
        <time>2011-04-25T08:44:20Z</time>
      </trkpt>
      <trkpt lat="45.19249" lon="5.16225">
        <ele>577.90002441406</ele>
        <time>2011-04-25T08:44:23Z</time>
      </trkpt>
      <trkpt lat="45.19256" lon="5.16236">
        <ele>577.59997558594</ele>
        <time>2011-04-25T08:44:26Z</time>
      </trkpt>
      <trkpt lat="45.19263" lon="5.16248">
        <ele>578.29998779297</ele>
        <time>2011-04-25T08:44:29Z</time>
      </trkpt>
      <trkpt lat="45.19269" lon="5.16255">
        <ele>578.29998779297</ele>
        <time>2011-04-25T08:44:32Z</time>
      </trkpt>
      <trkpt lat="45.19276" lon="5.16267">
        <ele>577.70001220703</ele>
        <time>2011-04-25T08:44:35Z</time>
      </trkpt>
      <trkpt lat="45.19276" lon="5.16283">
        <ele>575.90002441406</ele>
        <time>2011-04-25T08:44:39Z</time>
      </trkpt>
      <trkpt lat="45.19278" lon="5.16295">
        <ele>575.5</ele>
        <time>2011-04-25T08:44:42Z</time>
      </trkpt>
      <trkpt lat="45.19278" lon="5.16309">
        <ele>575</ele>
        <time>2011-04-25T08:44:45Z</time>
      </trkpt>
      <trkpt lat="45.19275" lon="5.16334">
        <ele>574.5</ele>
        <time>2011-04-25T08:44:48Z</time>
      </trkpt>
      <trkpt lat="45.19274" lon="5.16349">
        <ele>573.5</ele>
        <time>2011-04-25T08:44:51Z</time>
      </trkpt>
      <trkpt lat="45.19274" lon="5.16367">
        <ele>572.40002441406</ele>
        <time>2011-04-25T08:44:54Z</time>
      </trkpt>
      <trkpt lat="45.19276" lon="5.16383">
        <ele>572</ele>
        <time>2011-04-25T08:44:57Z</time>
      </trkpt>
      <trkpt lat="45.19275" lon="5.16404">
        <ele>571.29998779297</ele>
        <time>2011-04-25T08:45:00Z</time>
      </trkpt>
      <trkpt lat="45.19279" lon="5.16425">
        <ele>570.59997558594</ele>
        <time>2011-04-25T08:45:03Z</time>
      </trkpt>
      <trkpt lat="45.19308" lon="5.16714">
        <ele>575.5</ele>
        <time>2011-04-25T08:45:59Z</time>
      </trkpt>
      <trkpt lat="45.19317" lon="5.16723">
        <ele>575.40002441406</ele>
        <time>2011-04-25T08:46:02Z</time>
      </trkpt>
      <trkpt lat="45.19325" lon="5.16737">
        <ele>575.09997558594</ele>
        <time>2011-04-25T08:46:05Z</time>
      </trkpt>
      <trkpt lat="45.19333" lon="5.16762">
        <ele>575.90002441406</ele>
        <time>2011-04-25T08:46:08Z</time>
      </trkpt>
      <trkpt lat="45.19348" lon="5.16772">
        <ele>576.5</ele>
        <time>2011-04-25T08:46:11Z</time>
      </trkpt>
      <trkpt lat="45.19359" lon="5.16786">
        <ele>576.5</ele>
        <time>2011-04-25T08:46:14Z</time>
      </trkpt>
      <trkpt lat="45.1937" lon="5.168">
        <ele>577.09997558594</ele>
        <time>2011-04-25T08:46:17Z</time>
      </trkpt>
      <trkpt lat="45.19388" lon="5.16817">
        <ele>577.20001220703</ele>
        <time>2011-04-25T08:46:21Z</time>
      </trkpt>
      <trkpt lat="45.19385" lon="5.16823">
        <ele>576.59997558594</ele>
        <time>2011-04-25T08:46:24Z</time>
      </trkpt>
      <trkpt lat="45.19389" lon="5.16827">
        <ele>576.79998779297</ele>
        <time>2011-04-25T08:46:27Z</time>
      </trkpt>
      <trkpt lat="45.19402" lon="5.16827">
        <ele>576.29998779297</ele>
        <time>2011-04-25T08:46:30Z</time>
      </trkpt>
      <trkpt lat="45.19412" lon="5.16841">
        <ele>576.79998779297</ele>
        <time>2011-04-25T08:46:33Z</time>
      </trkpt>
      <trkpt lat="45.19416" lon="5.16855">
        <ele>576.5</ele>
        <time>2011-04-25T08:46:36Z</time>
      </trkpt>
      <trkpt lat="45.19535" lon="5.18956">
        <ele>560.79998779297</ele>
        <time>2011-04-25T08:52:28Z</time>
      </trkpt>
      <trkpt lat="45.19533" lon="5.18955">
        <ele>561.5</ele>
        <time>2011-04-25T08:52:31Z</time>
      </trkpt>
      <trkpt lat="45.19533" lon="5.18955">
        <ele>561.40002441406</ele>
        <time>2011-04-25T08:52:34Z</time>
      </trkpt>
      <trkpt lat="45.19533" lon="5.18955">
        <ele>561.5</ele>
        <time>2011-04-25T08:52:37Z</time>
      </trkpt>
      <trkpt lat="45.19533" lon="5.18955">
        <ele>561.5</ele>
        <time>2011-04-25T08:52:40Z</time>
      </trkpt>
      <trkpt lat="45.19539" lon="5.18956">
        <ele>561</ele>
        <time>2011-04-25T08:53:23Z</time>
      </trkpt>
      <trkpt lat="45.19659" lon="5.18893">
        <ele>551.40002441406</ele>
        <time>2011-04-25T08:53:26Z</time>
      </trkpt>
      <trkpt lat="45.19675" lon="5.18891">
        <ele>543.09997558594</ele>
        <time>2011-04-25T08:53:30Z</time>
      </trkpt>
      <trkpt lat="45.1968" lon="5.1889">
        <ele>543.70001220703</ele>
        <time>2011-04-25T08:53:33Z</time>
      </trkpt>
      <trkpt lat="45.19678" lon="5.18873">
        <ele>542.29998779297</ele>
        <time>2011-04-25T08:53:36Z</time>
      </trkpt>
      <trkpt lat="45.1968" lon="5.18865">
        <ele>542.09997558594</ele>
        <time>2011-04-25T08:53:39Z</time>
      </trkpt>
      <trkpt lat="45.19684" lon="5.18854">
        <ele>541.09997558594</ele>
        <time>2011-04-25T08:53:42Z</time>
      </trkpt>
      <trkpt lat="45.19687" lon="5.18847">
        <ele>541.59997558594</ele>
        <time>2011-04-25T08:53:45Z</time>
      </trkpt>
      <trkpt lat="45.19688" lon="5.18831">
        <ele>541</ele>
        <time>2011-04-25T08:53:48Z</time>
      </trkpt>
      <trkpt lat="45.19688" lon="5.18815">
        <ele>538.79998779297</ele>
        <time>2011-04-25T08:53:51Z</time>
      </trkpt>
      <trkpt lat="45.19696" lon="5.18809">
        <ele>538.79998779297</ele>
        <time>2011-04-25T08:53:54Z</time>
      </trkpt>
      <trkpt lat="45.19696" lon="5.18805">
        <ele>536.79998779297</ele>
        <time>2011-04-25T08:53:57Z</time>
      </trkpt>
      <trkpt lat="45.19698" lon="5.18775">
        <ele>535.20001220703</ele>
        <time>2011-04-25T08:54:00Z</time>
      </trkpt>
      <trkpt lat="45.19705" lon="5.18727">
        <ele>533.20001220703</ele>
        <time>2011-04-25T08:54:10Z</time>
      </trkpt>
      <trkpt lat="45.1971" lon="5.18717">
        <ele>533.40002441406</ele>
        <time>2011-04-25T08:54:13Z</time>
      </trkpt>
      <trkpt lat="45.19714" lon="5.18705">
        <ele>531.09997558594</ele>
        <time>2011-04-25T08:54:16Z</time>
      </trkpt>
      <trkpt lat="45.19715" lon="5.18698">
        <ele>530</ele>
        <time>2011-04-25T08:54:19Z</time>
      </trkpt>
      <trkpt lat="45.19717" lon="5.18686">
        <ele>529</ele>
        <time>2011-04-25T08:54:22Z</time>
      </trkpt>
      <trkpt lat="45.19719" lon="5.18669">
        <ele>528.70001220703</ele>
        <time>2011-04-25T08:54:25Z</time>
      </trkpt>
      <trkpt lat="45.1972" lon="5.18651">
        <ele>528.5</ele>
        <time>2011-04-25T08:54:28Z</time>
      </trkpt>
      <trkpt lat="45.19723" lon="5.18637">
        <ele>529.29998779297</ele>
        <time>2011-04-25T08:54:31Z</time>
      </trkpt>
      <trkpt lat="45.19726" lon="5.18621">
        <ele>529.29998779297</ele>
        <time>2011-04-25T08:54:34Z</time>
      </trkpt>
      <trkpt lat="45.1973" lon="5.18596">
        <ele>528.40002441406</ele>
        <time>2011-04-25T08:54:38Z</time>
      </trkpt>
      <trkpt lat="45.19734" lon="5.18587">
        <ele>528.70001220703</ele>
        <time>2011-04-25T08:54:41Z</time>
      </trkpt>
      <trkpt lat="45.19734" lon="5.18578">
        <ele>528.20001220703</ele>
        <time>2011-04-25T08:54:44Z</time>
      </trkpt>
      <trkpt lat="45.19738" lon="5.18568">
        <ele>528.20001220703</ele>
        <time>2011-04-25T08:54:47Z</time>
      </trkpt>
      <trkpt lat="45.19743" lon="5.18559">
        <ele>528.20001220703</ele>
        <time>2011-04-25T08:54:50Z</time>
      </trkpt>
      <trkpt lat="45.19749" lon="5.18542">
        <ele>527.70001220703</ele>
        <time>2011-04-25T08:54:53Z</time>
      </trkpt>
      <trkpt lat="45.19749" lon="5.18518">
        <ele>526.70001220703</ele>
        <time>2011-04-25T08:54:56Z</time>
      </trkpt>
      <trkpt lat="45.1975" lon="5.18505">
        <ele>525.59997558594</ele>
        <time>2011-04-25T08:54:59Z</time>
      </trkpt>
      <trkpt lat="45.19759" lon="5.18489">
        <ele>526.5</ele>
        <time>2011-04-25T08:55:02Z</time>
      </trkpt>
      <trkpt lat="45.19763" lon="5.18469">
        <ele>525.70001220703</ele>
        <time>2011-04-25T08:55:05Z</time>
      </trkpt>
      <trkpt lat="45.19766" lon="5.18456">
        <ele>524.29998779297</ele>
        <time>2011-04-25T08:55:08Z</time>
      </trkpt>
      <trkpt lat="45.19769" lon="5.18426">
        <ele>524.79998779297</ele>
        <time>2011-04-25T08:55:12Z</time>
      </trkpt>
      <trkpt lat="45.19773" lon="5.18409">
        <ele>523.70001220703</ele>
        <time>2011-04-25T08:55:15Z</time>
      </trkpt>
      <trkpt lat="45.19777" lon="5.18395">
        <ele>523.79998779297</ele>
        <time>2011-04-25T08:55:18Z</time>
      </trkpt>
      <trkpt lat="45.19775" lon="5.18397">
        <ele>522.40002441406</ele>
        <time>2011-04-25T08:55:21Z</time>
      </trkpt>
      <trkpt lat="45.19774" lon="5.18379">
        <ele>522.40002441406</ele>
        <time>2011-04-25T08:55:24Z</time>
      </trkpt>
      <trkpt lat="45.19775" lon="5.1836">
        <ele>521.29998779297</ele>
        <time>2011-04-25T08:55:27Z</time>
      </trkpt>
      <trkpt lat="45.19778" lon="5.18344">
        <ele>520.70001220703</ele>
        <time>2011-04-25T08:55:30Z</time>
      </trkpt>
      <trkpt lat="45.19776" lon="5.18326">
        <ele>520.5</ele>
        <time>2011-04-25T08:55:33Z</time>
      </trkpt>
      <trkpt lat="45.19774" lon="5.18304">
        <ele>520.20001220703</ele>
        <time>2011-04-25T08:55:36Z</time>
      </trkpt>
      <trkpt lat="45.19775" lon="5.18281">
        <ele>519.90002441406</ele>
        <time>2011-04-25T08:55:39Z</time>
      </trkpt>
      <trkpt lat="45.19775" lon="5.18264">
        <ele>519.90002441406</ele>
        <time>2011-04-25T08:55:42Z</time>
      </trkpt>
      <trkpt lat="45.19774" lon="5.18233">
        <ele>519.29998779297</ele>
        <time>2011-04-25T08:55:46Z</time>
      </trkpt>
      <trkpt lat="45.19773" lon="5.18213">
        <ele>519.40002441406</ele>
        <time>2011-04-25T08:55:49Z</time>
      </trkpt>
      <trkpt lat="45.19772" lon="5.18193">
        <ele>519.29998779297</ele>
        <time>2011-04-25T08:55:52Z</time>
      </trkpt>
      <trkpt lat="45.19774" lon="5.18177">
        <ele>519.20001220703</ele>
        <time>2011-04-25T08:55:55Z</time>
      </trkpt>
      <trkpt lat="45.19781" lon="5.18157">
        <ele>519.09997558594</ele>
        <time>2011-04-25T08:55:58Z</time>
      </trkpt>
      <trkpt lat="45.19921" lon="5.17767">
        <ele>514.29998779297</ele>
        <time>2011-04-25T08:57:06Z</time>
      </trkpt>
      <trkpt lat="45.19925" lon="5.17762">
        <ele>513.09997558594</ele>
        <time>2011-04-25T08:57:09Z</time>
      </trkpt>
      <trkpt lat="45.1993" lon="5.17758">
        <ele>513.40002441406</ele>
        <time>2011-04-25T08:57:12Z</time>
      </trkpt>
      <trkpt lat="45.1993" lon="5.17754">
        <ele>513.20001220703</ele>
        <time>2011-04-25T08:57:15Z</time>
      </trkpt>
      <trkpt lat="45.1993" lon="5.17749">
        <ele>512.20001220703</ele>
        <time>2011-04-25T08:57:18Z</time>
      </trkpt>
      <trkpt lat="45.19934" lon="5.17737">
        <ele>513.40002441406</ele>
        <time>2011-04-25T08:57:21Z</time>
      </trkpt>
      <trkpt lat="45.19935" lon="5.1773">
        <ele>513</ele>
        <time>2011-04-25T08:57:24Z</time>
      </trkpt>
      <trkpt lat="45.1994" lon="5.17718">
        <ele>513.5</ele>
        <time>2011-04-25T08:57:28Z</time>
      </trkpt>
      <trkpt lat="45.19944" lon="5.17707">
        <ele>513.5</ele>
        <time>2011-04-25T08:57:31Z</time>
      </trkpt>
      <trkpt lat="45.19949" lon="5.177">
        <ele>513.09997558594</ele>
        <time>2011-04-25T08:57:34Z</time>
      </trkpt>
      <trkpt lat="45.19954" lon="5.17693">
        <ele>513.5</ele>
        <time>2011-04-25T08:57:37Z</time>
      </trkpt>
      <trkpt lat="45.19957" lon="5.17686">
        <ele>513.5</ele>
        <time>2011-04-25T08:57:40Z</time>
      </trkpt>
      <trkpt lat="45.1996" lon="5.17685">
        <ele>512.29998779297</ele>
        <time>2011-04-25T08:57:43Z</time>
      </trkpt>
      <trkpt lat="45.19959" lon="5.17693">
        <ele>514.09997558594</ele>
        <time>2011-04-25T08:57:46Z</time>
      </trkpt>
      <trkpt lat="45.19957" lon="5.17694">
        <ele>514.90002441406</ele>
        <time>2011-04-25T08:57:49Z</time>
      </trkpt>
      <trkpt lat="45.19958" lon="5.17689">
        <ele>515.70001220703</ele>
        <time>2011-04-25T08:57:51Z</time>
      </trkpt>
      <trkpt lat="45.19958" lon="5.17687">
        <ele>515.90002441406</ele>
        <time>2011-04-25T08:57:54Z</time>
      </trkpt>
      <trkpt lat="45.19958" lon="5.17687">
        <ele>515.79998779297</ele>
        <time>2011-04-25T08:57:57Z</time>
      </trkpt>
      <trkpt lat="45.19958" lon="5.17687">
        <ele>515.79998779297</ele>
        <time>2011-04-25T08:58:01Z</time>
      </trkpt>
      <trkpt lat="45.19958" lon="5.17687">
        <ele>515.90002441406</ele>
        <time>2011-04-25T08:58:04Z</time>
      </trkpt>
      <trkpt lat="45.1996" lon="5.17687">
        <ele>514.59997558594</ele>
        <time>2011-04-25T08:58:07Z</time>
      </trkpt>
      <trkpt lat="45.19961" lon="5.17685">
        <ele>513.70001220703</ele>
        <time>2011-04-25T08:58:10Z</time>
      </trkpt>
      <trkpt lat="45.19961" lon="5.17685">
        <ele>512.90002441406</ele>
        <time>2011-04-25T08:58:13Z</time>
      </trkpt>
      <trkpt lat="45.19961" lon="5.17686">
        <ele>512.40002441406</ele>
        <time>2011-04-25T08:58:16Z</time>
      </trkpt>
      <trkpt lat="45.19961" lon="5.17686">
        <ele>512.20001220703</ele>
        <time>2011-04-25T08:58:19Z</time>
      </trkpt>
      <trkpt lat="45.19961" lon="5.17686">
        <ele>512.20001220703</ele>
        <time>2011-04-25T08:58:22Z</time>
      </trkpt>
      <trkpt lat="45.19961" lon="5.17686">
        <ele>512.09997558594</ele>
        <time>2011-04-25T08:58:25Z</time>
      </trkpt>
      <trkpt lat="45.19961" lon="5.17685">
        <ele>512.20001220703</ele>
        <time>2011-04-25T08:58:28Z</time>
      </trkpt>
      <trkpt lat="45.19961" lon="5.17685">
        <ele>512.20001220703</ele>
        <time>2011-04-25T08:58:31Z</time>
      </trkpt>
      <trkpt lat="45.19961" lon="5.17685">
        <ele>512.09997558594</ele>
        <time>2011-04-25T08:58:35Z</time>
      </trkpt>
      <trkpt lat="45.19961" lon="5.17685">
        <ele>512</ele>
        <time>2011-04-25T08:58:38Z</time>
      </trkpt>
      <trkpt lat="45.19965" lon="5.17661">
        <ele>512.5</ele>
        <time>2011-04-25T08:58:41Z</time>
      </trkpt>
      <trkpt lat="45.19978" lon="5.17637">
        <ele>513</ele>
        <time>2011-04-25T08:58:44Z</time>
      </trkpt>
      <trkpt lat="45.1999" lon="5.17615">
        <ele>513.79998779297</ele>
        <time>2011-04-25T08:58:47Z</time>
      </trkpt>
      <trkpt lat="45.20002" lon="5.17595">
        <ele>513.40002441406</ele>
        <time>2011-04-25T08:58:50Z</time>
      </trkpt>
      <trkpt lat="45.20011" lon="5.17572">
        <ele>512.5</ele>
        <time>2011-04-25T08:58:53Z</time>
      </trkpt>
      <trkpt lat="45.2002" lon="5.1755">
        <ele>512.20001220703</ele>
        <time>2011-04-25T08:58:56Z</time>
      </trkpt>
      <trkpt lat="45.20023" lon="5.17523">
        <ele>512.20001220703</ele>
        <time>2011-04-25T08:58:59Z</time>
      </trkpt>
      <trkpt lat="45.20028" lon="5.17504">
        <ele>511.89999389648</ele>
        <time>2011-04-25T08:59:02Z</time>
      </trkpt>
      <trkpt lat="45.20031" lon="5.17484">
        <ele>512</ele>
        <time>2011-04-25T08:59:05Z</time>
      </trkpt>
      <trkpt lat="45.20029" lon="5.17461">
        <ele>511.70001220703</ele>
        <time>2011-04-25T08:59:09Z</time>
      </trkpt>
      <trkpt lat="45.20027" lon="5.17449">
        <ele>511.60000610352</ele>
        <time>2011-04-25T08:59:12Z</time>
      </trkpt>
      <trkpt lat="45.20025" lon="5.17436">
        <ele>511.60000610352</ele>
        <time>2011-04-25T08:59:15Z</time>
      </trkpt>
      <trkpt lat="45.20033" lon="5.17424">
        <ele>512.29998779297</ele>
        <time>2011-04-25T08:59:18Z</time>
      </trkpt>
      <trkpt lat="45.20037" lon="5.17416">
        <ele>512.40002441406</ele>
        <time>2011-04-25T08:59:21Z</time>
      </trkpt>
      <trkpt lat="45.20036" lon="5.17405">
        <ele>512.40002441406</ele>
        <time>2011-04-25T08:59:24Z</time>
      </trkpt>
      <trkpt lat="45.20037" lon="5.17391">
        <ele>512.5</ele>
        <time>2011-04-25T08:59:27Z</time>
      </trkpt>
      <trkpt lat="45.2002" lon="5.17113">
        <ele>511.10000610352</ele>
        <time>2011-04-25T09:00:10Z</time>
      </trkpt>
      <trkpt lat="45.20018" lon="5.17084">
        <ele>510.20001220703</ele>
        <time>2011-04-25T09:00:17Z</time>
      </trkpt>
      <trkpt lat="45.2001" lon="5.17073">
        <ele>510.39999389648</ele>
        <time>2011-04-25T09:00:20Z</time>
      </trkpt>
      <trkpt lat="45.20011" lon="5.17069">
        <ele>510.39999389648</ele>
        <time>2011-04-25T09:00:23Z</time>
      </trkpt>
      <trkpt lat="45.2002" lon="5.17062">
        <ele>507.79998779297</ele>
        <time>2011-04-25T09:00:26Z</time>
      </trkpt>
      <trkpt lat="45.20023" lon="5.17054">
        <ele>507.5</ele>
        <time>2011-04-25T09:00:29Z</time>
      </trkpt>
      <trkpt lat="45.2003" lon="5.17034">
        <ele>506.20001220703</ele>
        <time>2011-04-25T09:00:32Z</time>
      </trkpt>
      <trkpt lat="45.2003" lon="5.17019">
        <ele>505.79998779297</ele>
        <time>2011-04-25T09:00:35Z</time>
      </trkpt>
      <trkpt lat="45.2003" lon="5.17008">
        <ele>506.60000610352</ele>
        <time>2011-04-25T09:00:38Z</time>
      </trkpt>
      <trkpt lat="45.20035" lon="5.16998">
        <ele>504.70001220703</ele>
        <time>2011-04-25T09:00:41Z</time>
      </trkpt>
      <trkpt lat="45.20035" lon="5.16984">
        <ele>504.70001220703</ele>
        <time>2011-04-25T09:00:44Z</time>
      </trkpt>
      <trkpt lat="45.20037" lon="5.16977">
        <ele>504.79998779297</ele>
        <time>2011-04-25T09:00:47Z</time>
      </trkpt>
      <trkpt lat="45.20047" lon="5.16964">
        <ele>504</ele>
        <time>2011-04-25T09:00:51Z</time>
      </trkpt>
      <trkpt lat="45.20045" lon="5.16957">
        <ele>503.20001220703</ele>
        <time>2011-04-25T09:00:54Z</time>
      </trkpt>
      <trkpt lat="45.20045" lon="5.16946">
        <ele>503.5</ele>
        <time>2011-04-25T09:00:57Z</time>
      </trkpt>
      <trkpt lat="45.20043" lon="5.1694">
        <ele>503.29998779297</ele>
        <time>2011-04-25T09:01:00Z</time>
      </trkpt>
      <trkpt lat="45.20049" lon="5.16922">
        <ele>500.29998779297</ele>
        <time>2011-04-25T09:01:03Z</time>
      </trkpt>
      <trkpt lat="45.20046" lon="5.16898">
        <ele>499.60000610352</ele>
        <time>2011-04-25T09:01:06Z</time>
      </trkpt>
      <trkpt lat="45.20046" lon="5.16883">
        <ele>498.29998779297</ele>
        <time>2011-04-25T09:01:09Z</time>
      </trkpt>
      <trkpt lat="45.20047" lon="5.16864">
        <ele>498</ele>
        <time>2011-04-25T09:01:12Z</time>
      </trkpt>
      <trkpt lat="45.20047" lon="5.16853">
        <ele>497.70001220703</ele>
        <time>2011-04-25T09:01:15Z</time>
      </trkpt>
      <trkpt lat="45.20051" lon="5.1684">
        <ele>497.70001220703</ele>
        <time>2011-04-25T09:01:18Z</time>
      </trkpt>
      <trkpt lat="45.20051" lon="5.16828">
        <ele>497.70001220703</ele>
        <time>2011-04-25T09:01:21Z</time>
      </trkpt>
      <trkpt lat="45.20054" lon="5.16813">
        <ele>497.5</ele>
        <time>2011-04-25T09:01:25Z</time>
      </trkpt>
      <trkpt lat="45.20058" lon="5.168">
        <ele>497.29998779297</ele>
        <time>2011-04-25T09:01:28Z</time>
      </trkpt>
      <trkpt lat="45.20061" lon="5.16789">
        <ele>497.39999389648</ele>
        <time>2011-04-25T09:01:31Z</time>
      </trkpt>
      <trkpt lat="45.20063" lon="5.16775">
        <ele>496.79998779297</ele>
        <time>2011-04-25T09:01:34Z</time>
      </trkpt>
      <trkpt lat="45.2007" lon="5.1662">
        <ele>496.20001220703</ele>
        <time>2011-04-25T09:01:55Z</time>
      </trkpt>
      <trkpt lat="45.2006" lon="5.16576">
        <ele>496.29998779297</ele>
        <time>2011-04-25T09:01:59Z</time>
      </trkpt>
      <trkpt lat="45.20053" lon="5.1655">
        <ele>494.39999389648</ele>
        <time>2011-04-25T09:02:02Z</time>
      </trkpt>
      <trkpt lat="45.20054" lon="5.1654">
        <ele>495.10000610352</ele>
        <time>2011-04-25T09:02:05Z</time>
      </trkpt>
      <trkpt lat="45.20055" lon="5.16532">
        <ele>492.39999389648</ele>
        <time>2011-04-25T09:02:08Z</time>
      </trkpt>
      <trkpt lat="45.20056" lon="5.16523">
        <ele>492.5</ele>
        <time>2011-04-25T09:02:11Z</time>
      </trkpt>
      <trkpt lat="45.20056" lon="5.16517">
        <ele>492.60000610352</ele>
        <time>2011-04-25T09:02:14Z</time>
      </trkpt>
      <trkpt lat="45.20057" lon="5.16512">
        <ele>492.39999389648</ele>
        <time>2011-04-25T09:02:17Z</time>
      </trkpt>
      <trkpt lat="45.20056" lon="5.16499">
        <ele>491.5</ele>
        <time>2011-04-25T09:02:20Z</time>
      </trkpt>
      <trkpt lat="45.20054" lon="5.16484">
        <ele>488.79998779297</ele>
        <time>2011-04-25T09:02:23Z</time>
      </trkpt>
      <trkpt lat="45.20055" lon="5.16477">
        <ele>489.70001220703</ele>
        <time>2011-04-25T09:02:26Z</time>
      </trkpt>
      <trkpt lat="45.20054" lon="5.16461">
        <ele>489.79998779297</ele>
        <time>2011-04-25T09:02:29Z</time>
      </trkpt>
      <trkpt lat="45.20053" lon="5.16446">
        <ele>490.29998779297</ele>
        <time>2011-04-25T09:02:33Z</time>
      </trkpt>
      <trkpt lat="45.20056" lon="5.16439">
        <ele>488.10000610352</ele>
        <time>2011-04-25T09:02:36Z</time>
      </trkpt>
      <trkpt lat="45.20059" lon="5.16433">
        <ele>485.29998779297</ele>
        <time>2011-04-25T09:02:39Z</time>
      </trkpt>
      <trkpt lat="45.20061" lon="5.16426">
        <ele>484</ele>
        <time>2011-04-25T09:02:42Z</time>
      </trkpt>
      <trkpt lat="45.20063" lon="5.1642">
        <ele>483.29998779297</ele>
        <time>2011-04-25T09:02:45Z</time>
      </trkpt>
      <trkpt lat="45.2007" lon="5.16418">
        <ele>482.79998779297</ele>
        <time>2011-04-25T09:02:48Z</time>
      </trkpt>
      <trkpt lat="45.20074" lon="5.1642">
        <ele>482.5</ele>
        <time>2011-04-25T09:02:51Z</time>
      </trkpt>
      <trkpt lat="45.20073" lon="5.16416">
        <ele>483.10000610352</ele>
        <time>2011-04-25T09:02:54Z</time>
      </trkpt>
      <trkpt lat="45.20076" lon="5.16419">
        <ele>483.5</ele>
        <time>2011-04-25T09:02:57Z</time>
      </trkpt>
      <trkpt lat="45.20071" lon="5.16425">
        <ele>483.60000610352</ele>
        <time>2011-04-25T09:03:00Z</time>
      </trkpt>
      <trkpt lat="45.20073" lon="5.16434">
        <ele>482.89999389648</ele>
        <time>2011-04-25T09:03:03Z</time>
      </trkpt>
      <trkpt lat="45.20076" lon="5.16444">
        <ele>483</ele>
        <time>2011-04-25T09:03:07Z</time>
      </trkpt>
      <trkpt lat="45.20075" lon="5.16455">
        <ele>483.5</ele>
        <time>2011-04-25T09:03:10Z</time>
      </trkpt>
      <trkpt lat="45.20076" lon="5.16462">
        <ele>484.5</ele>
        <time>2011-04-25T09:03:13Z</time>
      </trkpt>
      <trkpt lat="45.20082" lon="5.1647">
        <ele>484.5</ele>
        <time>2011-04-25T09:03:16Z</time>
      </trkpt>
      <trkpt lat="45.20088" lon="5.16473">
        <ele>483.5</ele>
        <time>2011-04-25T09:03:19Z</time>
      </trkpt>
      <trkpt lat="45.20093" lon="5.16477">
        <ele>482.60000610352</ele>
        <time>2011-04-25T09:03:22Z</time>
      </trkpt>
      <trkpt lat="45.20101" lon="5.16481">
        <ele>482.39999389648</ele>
        <time>2011-04-25T09:03:25Z</time>
      </trkpt>
      <trkpt lat="45.20105" lon="5.16486">
        <ele>483.5</ele>
        <time>2011-04-25T09:03:28Z</time>
      </trkpt>
      <trkpt lat="45.20109" lon="5.16487">
        <ele>483.79998779297</ele>
        <time>2011-04-25T09:03:31Z</time>
      </trkpt>
      <trkpt lat="45.20113" lon="5.16491">
        <ele>483.29998779297</ele>
        <time>2011-04-25T09:03:34Z</time>
      </trkpt>
      <trkpt lat="45.20121" lon="5.16492">
        <ele>483.20001220703</ele>
        <time>2011-04-25T09:03:37Z</time>
      </trkpt>
      <trkpt lat="45.20127" lon="5.16491">
        <ele>483.29998779297</ele>
        <time>2011-04-25T09:03:41Z</time>
      </trkpt>
      <trkpt lat="45.20137" lon="5.16498">
        <ele>483</ele>
        <time>2011-04-25T09:03:44Z</time>
      </trkpt>
      <trkpt lat="45.20138" lon="5.16502">
        <ele>482.70001220703</ele>
        <time>2011-04-25T09:03:47Z</time>
      </trkpt>
      <trkpt lat="45.20138" lon="5.16502">
        <ele>481.79998779297</ele>
        <time>2011-04-25T09:03:50Z</time>
      </trkpt>
      <trkpt lat="45.2014" lon="5.16504">
        <ele>481.10000610352</ele>
        <time>2011-04-25T09:03:53Z</time>
      </trkpt>
      <trkpt lat="45.20149" lon="5.16505">
        <ele>481.39999389648</ele>
        <time>2011-04-25T09:03:56Z</time>
      </trkpt>
      <trkpt lat="45.20153" lon="5.16505">
        <ele>482</ele>
        <time>2011-04-25T09:03:59Z</time>
      </trkpt>
      <trkpt lat="45.20155" lon="5.16506">
        <ele>482.60000610352</ele>
        <time>2011-04-25T09:04:02Z</time>
      </trkpt>
      <trkpt lat="45.20162" lon="5.1651">
        <ele>483.89999389648</ele>
        <time>2011-04-25T09:04:05Z</time>
      </trkpt>
      <trkpt lat="45.20166" lon="5.16516">
        <ele>486.10000610352</ele>
        <time>2011-04-25T09:04:08Z</time>
      </trkpt>
      <trkpt lat="45.20169" lon="5.16517">
        <ele>485.60000610352</ele>
        <time>2011-04-25T09:04:11Z</time>
      </trkpt>
      <trkpt lat="45.2017" lon="5.16516">
        <ele>486.29998779297</ele>
        <time>2011-04-25T09:04:15Z</time>
      </trkpt>
      <trkpt lat="45.20173" lon="5.1652">
        <ele>487</ele>
        <time>2011-04-25T09:04:18Z</time>
      </trkpt>
      <trkpt lat="45.20177" lon="5.16524">
        <ele>488.20001220703</ele>
        <time>2011-04-25T09:04:21Z</time>
      </trkpt>
      <trkpt lat="45.20179" lon="5.16527">
        <ele>488.29998779297</ele>
        <time>2011-04-25T09:04:24Z</time>
      </trkpt>
      <trkpt lat="45.20182" lon="5.16526">
        <ele>488.29998779297</ele>
        <time>2011-04-25T09:04:27Z</time>
      </trkpt>
      <trkpt lat="45.20186" lon="5.16527">
        <ele>488.20001220703</ele>
        <time>2011-04-25T09:04:30Z</time>
      </trkpt>
      <trkpt lat="45.20187" lon="5.16532">
        <ele>488.20001220703</ele>
        <time>2011-04-25T09:04:33Z</time>
      </trkpt>
      <trkpt lat="45.20191" lon="5.16535">
        <ele>488.10000610352</ele>
        <time>2011-04-25T09:04:36Z</time>
      </trkpt>
      <trkpt lat="45.20196" lon="5.16537">
        <ele>489.29998779297</ele>
        <time>2011-04-25T09:04:39Z</time>
      </trkpt>
      <trkpt lat="45.20201" lon="5.16539">
        <ele>489.29998779297</ele>
        <time>2011-04-25T09:04:42Z</time>
      </trkpt>
      <trkpt lat="45.20204" lon="5.16538">
        <ele>489.39999389648</ele>
        <time>2011-04-25T09:04:45Z</time>
      </trkpt>
      <trkpt lat="45.20213" lon="5.16546">
        <ele>489.39999389648</ele>
        <time>2011-04-25T09:04:49Z</time>
      </trkpt>
      <trkpt lat="45.20224" lon="5.16548">
        <ele>489.79998779297</ele>
        <time>2011-04-25T09:04:52Z</time>
      </trkpt>
      <trkpt lat="45.20228" lon="5.16564">
        <ele>489.89999389648</ele>
        <time>2011-04-25T09:04:58Z</time>
      </trkpt>
      <trkpt lat="45.2023" lon="5.16574">
        <ele>490.89999389648</ele>
        <time>2011-04-25T09:05:01Z</time>
      </trkpt>
      <trkpt lat="45.20229" lon="5.16573">
        <ele>491.39999389648</ele>
        <time>2011-04-25T09:05:04Z</time>
      </trkpt>
      <trkpt lat="45.20237" lon="5.16573">
        <ele>492.60000610352</ele>
        <time>2011-04-25T09:05:07Z</time>
      </trkpt>
      <trkpt lat="45.20241" lon="5.16573">
        <ele>492.29998779297</ele>
        <time>2011-04-25T09:05:10Z</time>
      </trkpt>
      <trkpt lat="45.20244" lon="5.16574">
        <ele>492.79998779297</ele>
        <time>2011-04-25T09:05:13Z</time>
      </trkpt>
      <trkpt lat="45.20246" lon="5.16573">
        <ele>492.60000610352</ele>
        <time>2011-04-25T09:05:16Z</time>
      </trkpt>
      <trkpt lat="45.20248" lon="5.16574">
        <ele>494.10000610352</ele>
        <time>2011-04-25T09:05:19Z</time>
      </trkpt>
      <trkpt lat="45.20254" lon="5.16578">
        <ele>495.39999389648</ele>
        <time>2011-04-25T09:05:23Z</time>
      </trkpt>
      <trkpt lat="45.20262" lon="5.1658">
        <ele>495.5</ele>
        <time>2011-04-25T09:05:26Z</time>
      </trkpt>
      <trkpt lat="45.20263" lon="5.16579">
        <ele>497.20001220703</ele>
        <time>2011-04-25T09:05:29Z</time>
      </trkpt>
      <trkpt lat="45.20265" lon="5.16582">
        <ele>498.20001220703</ele>
        <time>2011-04-25T09:05:32Z</time>
      </trkpt>
      <trkpt lat="45.20269" lon="5.16586">
        <ele>499.20001220703</ele>
        <time>2011-04-25T09:05:35Z</time>
      </trkpt>
      <trkpt lat="45.20274" lon="5.16586">
        <ele>499.10000610352</ele>
        <time>2011-04-25T09:05:38Z</time>
      </trkpt>
      <trkpt lat="45.20276" lon="5.16587">
        <ele>500.29998779297</ele>
        <time>2011-04-25T09:05:41Z</time>
      </trkpt>
      <trkpt lat="45.20272" lon="5.16586">
        <ele>500.20001220703</ele>
        <time>2011-04-25T09:05:44Z</time>
      </trkpt>
      <trkpt lat="45.20276" lon="5.16589">
        <ele>500.39999389648</ele>
        <time>2011-04-25T09:05:47Z</time>
      </trkpt>
      <trkpt lat="45.20279" lon="5.1659">
        <ele>499.70001220703</ele>
        <time>2011-04-25T09:05:50Z</time>
      </trkpt>
      <trkpt lat="45.2028" lon="5.16593">
        <ele>499.60000610352</ele>
        <time>2011-04-25T09:05:53Z</time>
      </trkpt>
      <trkpt lat="45.20287" lon="5.166">
        <ele>500.10000610352</ele>
        <time>2011-04-25T09:05:57Z</time>
      </trkpt>
      <trkpt lat="45.20292" lon="5.16603">
        <ele>499.10000610352</ele>
        <time>2011-04-25T09:06:00Z</time>
      </trkpt>
      <trkpt lat="45.20294" lon="5.16606">
        <ele>499.29998779297</ele>
        <time>2011-04-25T09:06:03Z</time>
      </trkpt>
      <trkpt lat="45.20298" lon="5.16605">
        <ele>499.29998779297</ele>
        <time>2011-04-25T09:06:06Z</time>
      </trkpt>
      <trkpt lat="45.20307" lon="5.16611">
        <ele>499.70001220703</ele>
        <time>2011-04-25T09:06:09Z</time>
      </trkpt>
      <trkpt lat="45.20314" lon="5.16613">
        <ele>499.70001220703</ele>
        <time>2011-04-25T09:06:12Z</time>
      </trkpt>
      <trkpt lat="45.20319" lon="5.16614">
        <ele>500.39999389648</ele>
        <time>2011-04-25T09:06:15Z</time>
      </trkpt>
      <trkpt lat="45.20323" lon="5.16616">
        <ele>500.20001220703</ele>
        <time>2011-04-25T09:06:18Z</time>
      </trkpt>
      <trkpt lat="45.20328" lon="5.16624">
        <ele>500.10000610352</ele>
        <time>2011-04-25T09:06:21Z</time>
      </trkpt>
      <trkpt lat="45.20327" lon="5.16627">
        <ele>500.70001220703</ele>
        <time>2011-04-25T09:06:24Z</time>
      </trkpt>
      <trkpt lat="45.20335" lon="5.16632">
        <ele>501.79998779297</ele>
        <time>2011-04-25T09:06:27Z</time>
      </trkpt>
      <trkpt lat="45.20343" lon="5.1664">
        <ele>502.89999389648</ele>
        <time>2011-04-25T09:06:31Z</time>
      </trkpt>
      <trkpt lat="45.20344" lon="5.16639">
        <ele>504.5</ele>
        <time>2011-04-25T09:06:34Z</time>
      </trkpt>
      <trkpt lat="45.20348" lon="5.16643">
        <ele>506.10000610352</ele>
        <time>2011-04-25T09:06:37Z</time>
      </trkpt>
      <trkpt lat="45.20352" lon="5.16645">
        <ele>505.29998779297</ele>
        <time>2011-04-25T09:06:40Z</time>
      </trkpt>
      <trkpt lat="45.20358" lon="5.16643">
        <ele>506.5</ele>
        <time>2011-04-25T09:06:43Z</time>
      </trkpt>
      <trkpt lat="45.20361" lon="5.16643">
        <ele>507.5</ele>
        <time>2011-04-25T09:06:46Z</time>
      </trkpt>
      <trkpt lat="45.20367" lon="5.16647">
        <ele>507.20001220703</ele>
        <time>2011-04-25T09:06:49Z</time>
      </trkpt>
      <trkpt lat="45.20371" lon="5.1665">
        <ele>507.20001220703</ele>
        <time>2011-04-25T09:06:52Z</time>
      </trkpt>
      <trkpt lat="45.20376" lon="5.16652">
        <ele>507.5</ele>
        <time>2011-04-25T09:06:55Z</time>
      </trkpt>
      <trkpt lat="45.20385" lon="5.16656">
        <ele>507.29998779297</ele>
        <time>2011-04-25T09:06:58Z</time>
      </trkpt>
      <trkpt lat="45.20388" lon="5.16658">
        <ele>507.89999389648</ele>
        <time>2011-04-25T09:07:01Z</time>
      </trkpt>
      <trkpt lat="45.20392" lon="5.16662">
        <ele>508.10000610352</ele>
        <time>2011-04-25T09:07:05Z</time>
      </trkpt>
      <trkpt lat="45.20396" lon="5.16665">
        <ele>507.70001220703</ele>
        <time>2011-04-25T09:07:08Z</time>
      </trkpt>
      <trkpt lat="45.20401" lon="5.16667">
        <ele>507.39999389648</ele>
        <time>2011-04-25T09:07:11Z</time>
      </trkpt>
      <trkpt lat="45.20406" lon="5.16669">
        <ele>507.89999389648</ele>
        <time>2011-04-25T09:07:14Z</time>
      </trkpt>
      <trkpt lat="45.2041" lon="5.16672">
        <ele>508.5</ele>
        <time>2011-04-25T09:07:17Z</time>
      </trkpt>
      <trkpt lat="45.20416" lon="5.16677">
        <ele>508.79998779297</ele>
        <time>2011-04-25T09:07:20Z</time>
      </trkpt>
      <trkpt lat="45.20423" lon="5.16683">
        <ele>509.5</ele>
        <time>2011-04-25T09:07:23Z</time>
      </trkpt>
      <trkpt lat="45.20427" lon="5.16685">
        <ele>509.39999389648</ele>
        <time>2011-04-25T09:07:26Z</time>
      </trkpt>
      <trkpt lat="45.20433" lon="5.16689">
        <ele>509.29998779297</ele>
        <time>2011-04-25T09:07:29Z</time>
      </trkpt>
      <trkpt lat="45.20434" lon="5.16689">
        <ele>509.79998779297</ele>
        <time>2011-04-25T09:07:32Z</time>
      </trkpt>
      <trkpt lat="45.20437" lon="5.16689">
        <ele>510.89999389648</ele>
        <time>2011-04-25T09:07:35Z</time>
      </trkpt>
      <trkpt lat="45.20444" lon="5.16693">
        <ele>511</ele>
        <time>2011-04-25T09:07:39Z</time>
      </trkpt>
      <trkpt lat="45.20446" lon="5.16693">
        <ele>511.29998779297</ele>
        <time>2011-04-25T09:07:42Z</time>
      </trkpt>
      <trkpt lat="45.2045" lon="5.16693">
        <ele>511.39999389648</ele>
        <time>2011-04-25T09:07:45Z</time>
      </trkpt>
      <trkpt lat="45.2046" lon="5.16696">
        <ele>511.60000610352</ele>
        <time>2011-04-25T09:07:48Z</time>
      </trkpt>
      <trkpt lat="45.20466" lon="5.16697">
        <ele>511.89999389648</ele>
        <time>2011-04-25T09:07:51Z</time>
      </trkpt>
      <trkpt lat="45.20473" lon="5.16697">
        <ele>512.5</ele>
        <time>2011-04-25T09:07:54Z</time>
      </trkpt>
      <trkpt lat="45.20473" lon="5.16697">
        <ele>512.79998779297</ele>
        <time>2011-04-25T09:07:57Z</time>
      </trkpt>
      <trkpt lat="45.20481" lon="5.16698">
        <ele>512.79998779297</ele>
        <time>2011-04-25T09:08:00Z</time>
      </trkpt>
      <trkpt lat="45.20484" lon="5.16698">
        <ele>512.79998779297</ele>
        <time>2011-04-25T09:08:03Z</time>
      </trkpt>
      <trkpt lat="45.20489" lon="5.16697">
        <ele>512.90002441406</ele>
        <time>2011-04-25T09:08:06Z</time>
      </trkpt>
      <trkpt lat="45.20784" lon="5.16779">
        <ele>528.79998779297</ele>
        <time>2011-04-25T09:10:48Z</time>
      </trkpt>
      <trkpt lat="45.20841" lon="5.16799">
        <ele>535.20001220703</ele>
        <time>2011-04-25T09:11:25Z</time>
      </trkpt>
      <trkpt lat="45.20839" lon="5.16791">
        <ele>541.09997558594</ele>
        <time>2011-04-25T09:11:28Z</time>
      </trkpt>
      <trkpt lat="45.20844" lon="5.16795">
        <ele>540.70001220703</ele>
        <time>2011-04-25T09:11:31Z</time>
      </trkpt>
      <trkpt lat="45.20837" lon="5.16801">
        <ele>545.29998779297</ele>
        <time>2011-04-25T09:11:34Z</time>
      </trkpt>
      <trkpt lat="45.20836" lon="5.16799">
        <ele>548.09997558594</ele>
        <time>2011-04-25T09:11:37Z</time>
      </trkpt>
      <trkpt lat="45.2083" lon="5.16792">
        <ele>550.09997558594</ele>
        <time>2011-04-25T09:11:40Z</time>
      </trkpt>
      <trkpt lat="45.20833" lon="5.16796">
        <ele>549.79998779297</ele>
        <time>2011-04-25T09:11:43Z</time>
      </trkpt>
      <trkpt lat="45.20829" lon="5.16793">
        <ele>551.59997558594</ele>
        <time>2011-04-25T09:11:46Z</time>
      </trkpt>
      <trkpt lat="45.20829" lon="5.16792">
        <ele>552.29998779297</ele>
        <time>2011-04-25T09:11:50Z</time>
      </trkpt>
      <trkpt lat="45.20828" lon="5.16791">
        <ele>551.90002441406</ele>
        <time>2011-04-25T09:11:53Z</time>
      </trkpt>
      <trkpt lat="45.20828" lon="5.16792">
        <ele>552.59997558594</ele>
        <time>2011-04-25T09:11:56Z</time>
      </trkpt>
      <trkpt lat="45.20828" lon="5.16793">
        <ele>552.59997558594</ele>
        <time>2011-04-25T09:11:59Z</time>
      </trkpt>
      <trkpt lat="45.20828" lon="5.16793">
        <ele>552.59997558594</ele>
        <time>2011-04-25T09:12:02Z</time>
      </trkpt>
      <trkpt lat="45.20828" lon="5.16793">
        <ele>552.5</ele>
        <time>2011-04-25T09:12:05Z</time>
      </trkpt>
      <trkpt lat="45.20828" lon="5.16793">
        <ele>552.5</ele>
        <time>2011-04-25T09:12:08Z</time>
      </trkpt>
      <trkpt lat="45.20828" lon="5.16793">
        <ele>552.59997558594</ele>
        <time>2011-04-25T09:12:11Z</time>
      </trkpt>
      <trkpt lat="45.20828" lon="5.16793">
        <ele>552.5</ele>
        <time>2011-04-25T09:12:14Z</time>
      </trkpt>
      <trkpt lat="45.20828" lon="5.16793">
        <ele>552.5</ele>
        <time>2011-04-25T09:12:17Z</time>
      </trkpt>
      <trkpt lat="45.20828" lon="5.16793">
        <ele>552.5</ele>
        <time>2011-04-25T09:12:20Z</time>
      </trkpt>
      <trkpt lat="45.20828" lon="5.16793">
        <ele>552.5</ele>
        <time>2011-04-25T09:12:24Z</time>
      </trkpt>
      <trkpt lat="45.20828" lon="5.16793">
        <ele>552.59997558594</ele>
        <time>2011-04-25T09:12:27Z</time>
      </trkpt>
      <trkpt lat="45.20828" lon="5.16793">
        <ele>552.59997558594</ele>
        <time>2011-04-25T09:12:30Z</time>
      </trkpt>
      <trkpt lat="45.20828" lon="5.16793">
        <ele>552.59997558594</ele>
        <time>2011-04-25T09:12:33Z</time>
      </trkpt>
      <trkpt lat="45.20828" lon="5.16793">
        <ele>552.59997558594</ele>
        <time>2011-04-25T09:12:36Z</time>
      </trkpt>
      <trkpt lat="45.20828" lon="5.16793">
        <ele>552.59997558594</ele>
        <time>2011-04-25T09:12:39Z</time>
      </trkpt>
      <trkpt lat="45.20828" lon="5.16793">
        <ele>552.70001220703</ele>
        <time>2011-04-25T09:12:42Z</time>
      </trkpt>
      <trkpt lat="45.20828" lon="5.16793">
        <ele>552.59997558594</ele>
        <time>2011-04-25T09:12:45Z</time>
      </trkpt>
      <trkpt lat="45.20828" lon="5.16793">
        <ele>552.70001220703</ele>
        <time>2011-04-25T09:12:48Z</time>
      </trkpt>
      <trkpt lat="45.20828" lon="5.16793">
        <ele>552.59997558594</ele>
        <time>2011-04-25T09:12:51Z</time>
      </trkpt>
      <trkpt lat="45.20828" lon="5.16793">
        <ele>552.59997558594</ele>
        <time>2011-04-25T09:12:54Z</time>
      </trkpt>
      <trkpt lat="45.20828" lon="5.16793">
        <ele>552.59997558594</ele>
        <time>2011-04-25T09:12:58Z</time>
      </trkpt>
      <trkpt lat="45.20828" lon="5.16793">
        <ele>552.59997558594</ele>
        <time>2011-04-25T09:13:01Z</time>
      </trkpt>
      <trkpt lat="45.20828" lon="5.16793">
        <ele>552.59997558594</ele>
        <time>2011-04-25T09:13:04Z</time>
      </trkpt>
      <trkpt lat="45.20828" lon="5.16793">
        <ele>552.70001220703</ele>
        <time>2011-04-25T09:13:07Z</time>
      </trkpt>
      <trkpt lat="45.20828" lon="5.16793">
        <ele>552.70001220703</ele>
        <time>2011-04-25T09:13:10Z</time>
      </trkpt>
      <trkpt lat="45.20828" lon="5.16793">
        <ele>552.70001220703</ele>
        <time>2011-04-25T09:13:13Z</time>
      </trkpt>
      <trkpt lat="45.20828" lon="5.16793">
        <ele>552.70001220703</ele>
        <time>2011-04-25T09:13:16Z</time>
      </trkpt>
      <trkpt lat="45.20828" lon="5.16793">
        <ele>552.70001220703</ele>
        <time>2011-04-25T09:13:19Z</time>
      </trkpt>
      <trkpt lat="45.20828" lon="5.16793">
        <ele>552.70001220703</ele>
        <time>2011-04-25T09:13:22Z</time>
      </trkpt>
      <trkpt lat="45.20828" lon="5.16793">
        <ele>552.70001220703</ele>
        <time>2011-04-25T09:13:25Z</time>
      </trkpt>
      <trkpt lat="45.20828" lon="5.16793">
        <ele>552.70001220703</ele>
        <time>2011-04-25T09:13:28Z</time>
      </trkpt>
      <trkpt lat="45.20828" lon="5.16793">
        <ele>552.70001220703</ele>
        <time>2011-04-25T09:13:32Z</time>
      </trkpt>
      <trkpt lat="45.20828" lon="5.16793">
        <ele>552.70001220703</ele>
        <time>2011-04-25T09:13:35Z</time>
      </trkpt>
      <trkpt lat="45.20828" lon="5.16793">
        <ele>552.70001220703</ele>
        <time>2011-04-25T09:13:38Z</time>
      </trkpt>
      <trkpt lat="45.20828" lon="5.16793">
        <ele>552.59997558594</ele>
        <time>2011-04-25T09:13:41Z</time>
      </trkpt>
      <trkpt lat="45.20828" lon="5.16793">
        <ele>552.70001220703</ele>
        <time>2011-04-25T09:13:44Z</time>
      </trkpt>
      <trkpt lat="45.20828" lon="5.16793">
        <ele>552.70001220703</ele>
        <time>2011-04-25T09:13:47Z</time>
      </trkpt>
      <trkpt lat="45.20828" lon="5.16793">
        <ele>552.70001220703</ele>
        <time>2011-04-25T09:13:50Z</time>
      </trkpt>
      <trkpt lat="45.20828" lon="5.16793">
        <ele>552.70001220703</ele>
        <time>2011-04-25T09:13:53Z</time>
      </trkpt>
      <trkpt lat="45.20828" lon="5.16793">
        <ele>552.70001220703</ele>
        <time>2011-04-25T09:13:56Z</time>
      </trkpt>
      <trkpt lat="45.20828" lon="5.16793">
        <ele>552.70001220703</ele>
        <time>2011-04-25T09:13:59Z</time>
      </trkpt>
      <trkpt lat="45.20828" lon="5.16793">
        <ele>552.70001220703</ele>
        <time>2011-04-25T09:14:02Z</time>
      </trkpt>
      <trkpt lat="45.20828" lon="5.16793">
        <ele>552.70001220703</ele>
        <time>2011-04-25T09:14:06Z</time>
      </trkpt>
      <trkpt lat="45.20828" lon="5.16793">
        <ele>552.70001220703</ele>
        <time>2011-04-25T09:14:09Z</time>
      </trkpt>
      <trkpt lat="45.20828" lon="5.16793">
        <ele>552.70001220703</ele>
        <time>2011-04-25T09:14:12Z</time>
      </trkpt>
      <trkpt lat="45.20828" lon="5.16793">
        <ele>552.70001220703</ele>
        <time>2011-04-25T09:14:15Z</time>
      </trkpt>
      <trkpt lat="45.20828" lon="5.16793">
        <ele>552.70001220703</ele>
        <time>2011-04-25T09:14:18Z</time>
      </trkpt>
      <trkpt lat="45.20828" lon="5.16793">
        <ele>552.70001220703</ele>
        <time>2011-04-25T09:14:21Z</time>
      </trkpt>
      <trkpt lat="45.20828" lon="5.16793">
        <ele>552.70001220703</ele>
        <time>2011-04-25T09:14:24Z</time>
      </trkpt>
      <trkpt lat="45.20828" lon="5.16793">
        <ele>552.70001220703</ele>
        <time>2011-04-25T09:14:27Z</time>
      </trkpt>
      <trkpt lat="45.20828" lon="5.16793">
        <ele>552.70001220703</ele>
        <time>2011-04-25T09:14:30Z</time>
      </trkpt>
      <trkpt lat="45.20828" lon="5.16793">
        <ele>552.70001220703</ele>
        <time>2011-04-25T09:14:33Z</time>
      </trkpt>
      <trkpt lat="45.20828" lon="5.16793">
        <ele>552.70001220703</ele>
        <time>2011-04-25T09:14:36Z</time>
      </trkpt>
      <trkpt lat="45.20828" lon="5.16793">
        <ele>552.70001220703</ele>
        <time>2011-04-25T09:14:40Z</time>
      </trkpt>
      <trkpt lat="45.20828" lon="5.16793">
        <ele>552.70001220703</ele>
        <time>2011-04-25T09:14:43Z</time>
      </trkpt>
      <trkpt lat="45.20828" lon="5.16793">
        <ele>552.70001220703</ele>
        <time>2011-04-25T09:14:46Z</time>
      </trkpt>
      <trkpt lat="45.20828" lon="5.16793">
        <ele>552.70001220703</ele>
        <time>2011-04-25T09:14:49Z</time>
      </trkpt>
      <trkpt lat="45.20828" lon="5.16793">
        <ele>552.70001220703</ele>
        <time>2011-04-25T09:14:52Z</time>
      </trkpt>
      <trkpt lat="45.20828" lon="5.16793">
        <ele>552.70001220703</ele>
        <time>2011-04-25T09:14:55Z</time>
      </trkpt>
      <trkpt lat="45.20828" lon="5.16793">
        <ele>552.70001220703</ele>
        <time>2011-04-25T09:14:58Z</time>
      </trkpt>
      <trkpt lat="45.20828" lon="5.16793">
        <ele>552.70001220703</ele>
        <time>2011-04-25T09:15:01Z</time>
      </trkpt>
      <trkpt lat="45.20828" lon="5.16793">
        <ele>552.70001220703</ele>
        <time>2011-04-25T09:15:04Z</time>
      </trkpt>
      <trkpt lat="45.20828" lon="5.16793">
        <ele>552.70001220703</ele>
        <time>2011-04-25T09:15:07Z</time>
      </trkpt>
      <trkpt lat="45.20828" lon="5.16793">
        <ele>552.70001220703</ele>
        <time>2011-04-25T09:15:10Z</time>
      </trkpt>
      <trkpt lat="45.20828" lon="5.16793">
        <ele>552.70001220703</ele>
        <time>2011-04-25T09:15:14Z</time>
      </trkpt>
      <trkpt lat="45.20828" lon="5.16793">
        <ele>552.70001220703</ele>
        <time>2011-04-25T09:15:17Z</time>
      </trkpt>
      <trkpt lat="45.20828" lon="5.16793">
        <ele>552.70001220703</ele>
        <time>2011-04-25T09:15:20Z</time>
      </trkpt>
      <trkpt lat="45.20828" lon="5.16793">
        <ele>552.70001220703</ele>
        <time>2011-04-25T09:15:23Z</time>
      </trkpt>
      <trkpt lat="45.20828" lon="5.16793">
        <ele>552.70001220703</ele>
        <time>2011-04-25T09:15:26Z</time>
      </trkpt>
      <trkpt lat="45.20828" lon="5.16793">
        <ele>552.70001220703</ele>
        <time>2011-04-25T09:15:29Z</time>
      </trkpt>
      <trkpt lat="45.20725" lon="5.15896">
        <ele>557.40002441406</ele>
        <time>2011-04-25T09:20:16Z</time>
      </trkpt>
      <trkpt lat="45.20731" lon="5.15885">
        <ele>555.5</ele>
        <time>2011-04-25T09:20:19Z</time>
      </trkpt>
      <trkpt lat="45.20735" lon="5.15877">
        <ele>557.29998779297</ele>
        <time>2011-04-25T09:20:22Z</time>
      </trkpt>
      <trkpt lat="45.20743" lon="5.15868">
        <ele>560.90002441406</ele>
        <time>2011-04-25T09:20:25Z</time>
      </trkpt>
      <trkpt lat="45.20753" lon="5.15869">
        <ele>561.5</ele>
        <time>2011-04-25T09:20:28Z</time>
      </trkpt>
      <trkpt lat="45.20761" lon="5.15864">
        <ele>561.09997558594</ele>
        <time>2011-04-25T09:20:31Z</time>
      </trkpt>
      <trkpt lat="45.20769" lon="5.15859">
        <ele>561</ele>
        <time>2011-04-25T09:20:34Z</time>
      </trkpt>
      <trkpt lat="45.20775" lon="5.15857">
        <ele>560.70001220703</ele>
        <time>2011-04-25T09:20:37Z</time>
      </trkpt>
      <trkpt lat="45.20782" lon="5.1585">
        <ele>560.59997558594</ele>
        <time>2011-04-25T09:20:40Z</time>
      </trkpt>
      <trkpt lat="45.20779" lon="5.15842">
        <ele>561.09997558594</ele>
        <time>2011-04-25T09:20:43Z</time>
      </trkpt>
      <trkpt lat="45.20789" lon="5.15832">
        <ele>560.90002441406</ele>
        <time>2011-04-25T09:20:47Z</time>
      </trkpt>
      <trkpt lat="45.20798" lon="5.15825">
        <ele>565</ele>
        <time>2011-04-25T09:20:50Z</time>
      </trkpt>
      <trkpt lat="45.20805" lon="5.1582">
        <ele>565.20001220703</ele>
        <time>2011-04-25T09:20:53Z</time>
      </trkpt>
      <trkpt lat="45.20813" lon="5.15815">
        <ele>566</ele>
        <time>2011-04-25T09:20:56Z</time>
      </trkpt>
      <trkpt lat="45.2082" lon="5.15806">
        <ele>567.29998779297</ele>
        <time>2011-04-25T09:20:59Z</time>
      </trkpt>
      <trkpt lat="45.2083" lon="5.15796">
        <ele>566.90002441406</ele>
        <time>2011-04-25T09:21:02Z</time>
      </trkpt>
      <trkpt lat="45.20929" lon="5.1493">
        <ele>555.09997558594</ele>
        <time>2011-04-25T09:23:50Z</time>
      </trkpt>
      <trkpt lat="45.20931" lon="5.14934">
        <ele>555.59997558594</ele>
        <time>2011-04-25T09:23:53Z</time>
      </trkpt>
      <trkpt lat="45.20929" lon="5.14928">
        <ele>557.09997558594</ele>
        <time>2011-04-25T09:23:56Z</time>
      </trkpt>
      <trkpt lat="45.20928" lon="5.14923">
        <ele>556.40002441406</ele>
        <time>2011-04-25T09:23:59Z</time>
      </trkpt>
      <trkpt lat="45.20929" lon="5.14917">
        <ele>556.20001220703</ele>
        <time>2011-04-25T09:24:02Z</time>
      </trkpt>
      <trkpt lat="45.20933" lon="5.14908">
        <ele>555.40002441406</ele>
        <time>2011-04-25T09:24:06Z</time>
      </trkpt>
      <trkpt lat="45.21015" lon="5.14505">
        <ele>556.20001220703</ele>
        <time>2011-04-25T09:25:16Z</time>
      </trkpt>
      <trkpt lat="45.21014" lon="5.14495">
        <ele>552.20001220703</ele>
        <time>2011-04-25T09:25:19Z</time>
      </trkpt>
      <trkpt lat="45.21004" lon="5.14478">
        <ele>553</ele>
        <time>2011-04-25T09:25:23Z</time>
      </trkpt>
      <trkpt lat="45.21" lon="5.14459">
        <ele>553.79998779297</ele>
        <time>2011-04-25T09:25:26Z</time>
      </trkpt>
      <trkpt lat="45.20993" lon="5.14445">
        <ele>554.09997558594</ele>
        <time>2011-04-25T09:25:29Z</time>
      </trkpt>
      <trkpt lat="45.20987" lon="5.14435">
        <ele>554.09997558594</ele>
        <time>2011-04-25T09:25:32Z</time>
      </trkpt>
      <trkpt lat="45.2098" lon="5.14424">
        <ele>554.20001220703</ele>
        <time>2011-04-25T09:25:35Z</time>
      </trkpt>
      <trkpt lat="45.20974" lon="5.14409">
        <ele>554.09997558594</ele>
        <time>2011-04-25T09:25:38Z</time>
      </trkpt>
      <trkpt lat="45.20967" lon="5.14398">
        <ele>555</ele>
        <time>2011-04-25T09:25:41Z</time>
      </trkpt>
      <trkpt lat="45.21077" lon="5.14173">
        <ele>548.20001220703</ele>
        <time>2011-04-25T09:27:01Z</time>
      </trkpt>
      <trkpt lat="45.21083" lon="5.1417">
        <ele>548.40002441406</ele>
        <time>2011-04-25T09:27:04Z</time>
      </trkpt>
      <trkpt lat="45.21087" lon="5.14165">
        <ele>548.40002441406</ele>
        <time>2011-04-25T09:27:07Z</time>
      </trkpt>
      <trkpt lat="45.20846" lon="5.1384">
        <ele>541</ele>
        <time>2011-04-25T09:28:36Z</time>
      </trkpt>
      <trkpt lat="45.20853" lon="5.13844">
        <ele>527.20001220703</ele>
        <time>2011-04-25T09:28:39Z</time>
      </trkpt>
      <trkpt lat="45.20854" lon="5.13844">
        <ele>519.90002441406</ele>
        <time>2011-04-25T09:28:41Z</time>
      </trkpt>
      <trkpt lat="45.20855" lon="5.13846">
        <ele>519.29998779297</ele>
        <time>2011-04-25T09:28:44Z</time>
      </trkpt>
      <trkpt lat="45.20855" lon="5.13845">
        <ele>520.09997558594</ele>
        <time>2011-04-25T09:28:47Z</time>
      </trkpt>
      <trkpt lat="45.20855" lon="5.13845">
        <ele>519.90002441406</ele>
        <time>2011-04-25T09:28:50Z</time>
      </trkpt>
      <trkpt lat="45.20855" lon="5.13845">
        <ele>519.79998779297</ele>
        <time>2011-04-25T09:28:53Z</time>
      </trkpt>
      <trkpt lat="45.20855" lon="5.13845">
        <ele>519.90002441406</ele>
        <time>2011-04-25T09:28:57Z</time>
      </trkpt>
      <trkpt lat="45.20855" lon="5.13845">
        <ele>519.79998779297</ele>
        <time>2011-04-25T09:29:00Z</time>
      </trkpt>
      <trkpt lat="45.20855" lon="5.13845">
        <ele>519.90002441406</ele>
        <time>2011-04-25T09:29:03Z</time>
      </trkpt>
      <trkpt lat="45.20855" lon="5.13845">
        <ele>519.79998779297</ele>
        <time>2011-04-25T09:29:06Z</time>
      </trkpt>
      <trkpt lat="45.20855" lon="5.13845">
        <ele>519.79998779297</ele>
        <time>2011-04-25T09:29:09Z</time>
      </trkpt>
      <trkpt lat="45.20855" lon="5.13845">
        <ele>519.79998779297</ele>
        <time>2011-04-25T09:29:12Z</time>
      </trkpt>
      <trkpt lat="45.20855" lon="5.13845">
        <ele>519.79998779297</ele>
        <time>2011-04-25T09:29:15Z</time>
      </trkpt>
      <trkpt lat="45.20855" lon="5.13845">
        <ele>519.79998779297</ele>
        <time>2011-04-25T09:29:18Z</time>
      </trkpt>
      <trkpt lat="45.20855" lon="5.13845">
        <ele>519.79998779297</ele>
        <time>2011-04-25T09:29:21Z</time>
      </trkpt>
      <trkpt lat="45.2108" lon="5.13109">
        <ele>504.5</ele>
        <time>2011-04-25T09:31:59Z</time>
      </trkpt>
      <trkpt lat="45.21056" lon="5.13155">
        <ele>499.70001220703</ele>
        <time>2011-04-25T09:32:14Z</time>
      </trkpt>
      <trkpt lat="45.21062" lon="5.13166">
        <ele>493.10000610352</ele>
        <time>2011-04-25T09:32:17Z</time>
      </trkpt>
      <trkpt lat="45.21075" lon="5.1317">
        <ele>478.60000610352</ele>
        <time>2011-04-25T09:32:20Z</time>
      </trkpt>
      <trkpt lat="45.21078" lon="5.13172">
        <ele>471.5</ele>
        <time>2011-04-25T09:32:24Z</time>
      </trkpt>
      <trkpt lat="45.21078" lon="5.13172">
        <ele>470.79998779297</ele>
        <time>2011-04-25T09:32:27Z</time>
      </trkpt>
      <trkpt lat="45.21072" lon="5.13171">
        <ele>468.89999389648</ele>
        <time>2011-04-25T09:32:30Z</time>
      </trkpt>
      <trkpt lat="45.21072" lon="5.13169">
        <ele>465.39999389648</ele>
        <time>2011-04-25T09:32:33Z</time>
      </trkpt>
      <trkpt lat="45.21073" lon="5.13169">
        <ele>462.79998779297</ele>
        <time>2011-04-25T09:32:36Z</time>
      </trkpt>
      <trkpt lat="45.21073" lon="5.13169">
        <ele>460.89999389648</ele>
        <time>2011-04-25T09:32:39Z</time>
      </trkpt>
      <trkpt lat="45.21073" lon="5.13169">
        <ele>459.60000610352</ele>
        <time>2011-04-25T09:32:42Z</time>
      </trkpt>
      <trkpt lat="45.21073" lon="5.13169">
        <ele>459.39999389648</ele>
        <time>2011-04-25T09:32:45Z</time>
      </trkpt>
      <trkpt lat="45.21073" lon="5.13169">
        <ele>459.39999389648</ele>
        <time>2011-04-25T09:32:48Z</time>
      </trkpt>
      <trkpt lat="45.21073" lon="5.13169">
        <ele>459.39999389648</ele>
        <time>2011-04-25T09:32:51Z</time>
      </trkpt>
      <trkpt lat="45.21073" lon="5.13169">
        <ele>459.39999389648</ele>
        <time>2011-04-25T09:32:54Z</time>
      </trkpt>
      <trkpt lat="45.21073" lon="5.13169">
        <ele>459.29998779297</ele>
        <time>2011-04-25T09:32:58Z</time>
      </trkpt>
      <trkpt lat="45.21071" lon="5.1317">
        <ele>459.5</ele>
        <time>2011-04-25T09:33:01Z</time>
      </trkpt>
      <trkpt lat="45.21069" lon="5.13172">
        <ele>457</ele>
        <time>2011-04-25T09:33:04Z</time>
      </trkpt>
      <trkpt lat="45.21068" lon="5.13176">
        <ele>453.39999389648</ele>
        <time>2011-04-25T09:33:07Z</time>
      </trkpt>
      <trkpt lat="45.21068" lon="5.13176">
        <ele>451.79998779297</ele>
        <time>2011-04-25T09:33:10Z</time>
      </trkpt>
      <trkpt lat="45.21068" lon="5.13177">
        <ele>451.39999389648</ele>
        <time>2011-04-25T09:33:13Z</time>
      </trkpt>
      <trkpt lat="45.21068" lon="5.13177">
        <ele>450.89999389648</ele>
        <time>2011-04-25T09:33:16Z</time>
      </trkpt>
      <trkpt lat="45.21068" lon="5.13177">
        <ele>450.79998779297</ele>
        <time>2011-04-25T09:33:19Z</time>
      </trkpt>
      <trkpt lat="45.21068" lon="5.13177">
        <ele>450.79998779297</ele>
        <time>2011-04-25T09:33:22Z</time>
      </trkpt>
      <trkpt lat="45.21068" lon="5.13177">
        <ele>450.70001220703</ele>
        <time>2011-04-25T09:33:25Z</time>
      </trkpt>
      <trkpt lat="45.21068" lon="5.13177">
        <ele>450.70001220703</ele>
        <time>2011-04-25T09:33:28Z</time>
      </trkpt>
      <trkpt lat="45.21068" lon="5.13177">
        <ele>450.70001220703</ele>
        <time>2011-04-25T09:33:32Z</time>
      </trkpt>
      <trkpt lat="45.21068" lon="5.13177">
        <ele>450.70001220703</ele>
        <time>2011-04-25T09:33:35Z</time>
      </trkpt>
      <trkpt lat="45.21068" lon="5.13177">
        <ele>450.70001220703</ele>
        <time>2011-04-25T09:33:38Z</time>
      </trkpt>
      <trkpt lat="45.21068" lon="5.13177">
        <ele>450.70001220703</ele>
        <time>2011-04-25T09:33:41Z</time>
      </trkpt>
      <trkpt lat="45.21068" lon="5.13177">
        <ele>450.70001220703</ele>
        <time>2011-04-25T09:33:44Z</time>
      </trkpt>
      <trkpt lat="45.21068" lon="5.13177">
        <ele>450.70001220703</ele>
        <time>2011-04-25T09:33:47Z</time>
      </trkpt>
      <trkpt lat="45.21068" lon="5.13177">
        <ele>450.70001220703</ele>
        <time>2011-04-25T09:33:50Z</time>
      </trkpt>
      <trkpt lat="45.21068" lon="5.13177">
        <ele>450.70001220703</ele>
        <time>2011-04-25T09:33:53Z</time>
      </trkpt>
      <trkpt lat="45.21068" lon="5.13177">
        <ele>450.70001220703</ele>
        <time>2011-04-25T09:33:56Z</time>
      </trkpt>
      <trkpt lat="45.21068" lon="5.13177">
        <ele>450.70001220703</ele>
        <time>2011-04-25T09:33:59Z</time>
      </trkpt>
      <trkpt lat="45.21068" lon="5.13177">
        <ele>450.60000610352</ele>
        <time>2011-04-25T09:34:02Z</time>
      </trkpt>
      <trkpt lat="45.21068" lon="5.13177">
        <ele>450.60000610352</ele>
        <time>2011-04-25T09:34:06Z</time>
      </trkpt>
      <trkpt lat="45.21068" lon="5.13177">
        <ele>450.60000610352</ele>
        <time>2011-04-25T09:34:09Z</time>
      </trkpt>
      <trkpt lat="45.21068" lon="5.13177">
        <ele>450.5</ele>
        <time>2011-04-25T09:34:12Z</time>
      </trkpt>
      <trkpt lat="45.21068" lon="5.13177">
        <ele>450.5</ele>
        <time>2011-04-25T09:34:15Z</time>
      </trkpt>
      <trkpt lat="45.21068" lon="5.13177">
        <ele>450.5</ele>
        <time>2011-04-25T09:34:18Z</time>
      </trkpt>
      <trkpt lat="45.21068" lon="5.13177">
        <ele>450.39999389648</ele>
        <time>2011-04-25T09:34:21Z</time>
      </trkpt>
      <trkpt lat="45.21068" lon="5.13177">
        <ele>450.39999389648</ele>
        <time>2011-04-25T09:34:24Z</time>
      </trkpt>
      <trkpt lat="45.21068" lon="5.13177">
        <ele>450.39999389648</ele>
        <time>2011-04-25T09:34:27Z</time>
      </trkpt>
      <trkpt lat="45.21068" lon="5.13177">
        <ele>450.39999389648</ele>
        <time>2011-04-25T09:34:30Z</time>
      </trkpt>
      <trkpt lat="45.21068" lon="5.13177">
        <ele>450.39999389648</ele>
        <time>2011-04-25T09:34:33Z</time>
      </trkpt>
      <trkpt lat="45.21068" lon="5.13177">
        <ele>450.39999389648</ele>
        <time>2011-04-25T09:34:36Z</time>
      </trkpt>
      <trkpt lat="45.21068" lon="5.13177">
        <ele>450.29998779297</ele>
        <time>2011-04-25T09:34:40Z</time>
      </trkpt>
      <trkpt lat="45.21068" lon="5.13177">
        <ele>450.29998779297</ele>
        <time>2011-04-25T09:34:43Z</time>
      </trkpt>
      <trkpt lat="45.21068" lon="5.13177">
        <ele>450.29998779297</ele>
        <time>2011-04-25T09:34:46Z</time>
      </trkpt>
      <trkpt lat="45.21068" lon="5.13177">
        <ele>450.29998779297</ele>
        <time>2011-04-25T09:34:49Z</time>
      </trkpt>
      <trkpt lat="45.21068" lon="5.13177">
        <ele>450.29998779297</ele>
        <time>2011-04-25T09:34:52Z</time>
      </trkpt>
      <trkpt lat="45.21068" lon="5.13177">
        <ele>450.5</ele>
        <time>2011-04-25T09:37:01Z</time>
      </trkpt>
      <trkpt lat="45.21068" lon="5.13177">
        <ele>450.60000610352</ele>
        <time>2011-04-25T09:37:04Z</time>
      </trkpt>
      <trkpt lat="45.21014" lon="5.12891">
        <ele>445.70001220703</ele>
        <time>2011-04-25T09:37:45Z</time>
      </trkpt>
      <trkpt lat="45.21003" lon="5.12877">
        <ele>445.10000610352</ele>
        <time>2011-04-25T09:37:48Z</time>
      </trkpt>
      <trkpt lat="45.20994" lon="5.12867">
        <ele>442.70001220703</ele>
        <time>2011-04-25T09:37:51Z</time>
      </trkpt>
      <trkpt lat="45.20986" lon="5.12859">
        <ele>441.20001220703</ele>
        <time>2011-04-25T09:37:54Z</time>
      </trkpt>
      <trkpt lat="45.20978" lon="5.12854">
        <ele>440.29998779297</ele>
        <time>2011-04-25T09:37:57Z</time>
      </trkpt>
      <trkpt lat="45.20967" lon="5.1284">
        <ele>437.39999389648</ele>
        <time>2011-04-25T09:38:00Z</time>
      </trkpt>
      <trkpt lat="45.20955" lon="5.12825">
        <ele>436.20001220703</ele>
        <time>2011-04-25T09:38:03Z</time>
      </trkpt>
      <trkpt lat="45.20942" lon="5.12806">
        <ele>435.20001220703</ele>
        <time>2011-04-25T09:38:06Z</time>
      </trkpt>
      <trkpt lat="45.20931" lon="5.12789">
        <ele>435.29998779297</ele>
        <time>2011-04-25T09:38:09Z</time>
      </trkpt>
      <trkpt lat="45.20921" lon="5.12782">
        <ele>434.29998779297</ele>
        <time>2011-04-25T09:38:12Z</time>
      </trkpt>
      <trkpt lat="45.2091" lon="5.1277">
        <ele>433.70001220703</ele>
        <time>2011-04-25T09:38:15Z</time>
      </trkpt>
      <trkpt lat="45.20895" lon="5.12755">
        <ele>432.79998779297</ele>
        <time>2011-04-25T09:38:19Z</time>
      </trkpt>
      <trkpt lat="45.20883" lon="5.12745">
        <ele>431.70001220703</ele>
        <time>2011-04-25T09:38:22Z</time>
      </trkpt>
      <trkpt lat="45.20873" lon="5.12724">
        <ele>433.20001220703</ele>
        <time>2011-04-25T09:38:25Z</time>
      </trkpt>
      <trkpt lat="45.20858" lon="5.12711">
        <ele>433.60000610352</ele>
        <time>2011-04-25T09:38:28Z</time>
      </trkpt>
      <trkpt lat="45.20846" lon="5.12704">
        <ele>433.70001220703</ele>
        <time>2011-04-25T09:38:31Z</time>
      </trkpt>
      <trkpt lat="45.20837" lon="5.12704">
        <ele>434.10000610352</ele>
        <time>2011-04-25T09:38:34Z</time>
      </trkpt>
      <trkpt lat="45.20824" lon="5.12701">
        <ele>433.79998779297</ele>
        <time>2011-04-25T09:38:37Z</time>
      </trkpt>
      <trkpt lat="45.20814" lon="5.12698">
        <ele>433.29998779297</ele>
        <time>2011-04-25T09:38:40Z</time>
      </trkpt>
      <trkpt lat="45.20781" lon="5.12683">
        <ele>436.20001220703</ele>
        <time>2011-04-25T09:38:49Z</time>
      </trkpt>
      <trkpt lat="45.20767" lon="5.12675">
        <ele>435.89999389648</ele>
        <time>2011-04-25T09:38:53Z</time>
      </trkpt>
      <trkpt lat="45.20753" lon="5.1267">
        <ele>435.79998779297</ele>
        <time>2011-04-25T09:38:56Z</time>
      </trkpt>
      <trkpt lat="45.20741" lon="5.12666">
        <ele>434.70001220703</ele>
        <time>2011-04-25T09:38:59Z</time>
      </trkpt>
      <trkpt lat="45.20725" lon="5.12644">
        <ele>432.39999389648</ele>
        <time>2011-04-25T09:39:02Z</time>
      </trkpt>
      <trkpt lat="45.20714" lon="5.12634">
        <ele>433.20001220703</ele>
        <time>2011-04-25T09:39:05Z</time>
      </trkpt>
      <trkpt lat="45.20704" lon="5.12626">
        <ele>433.29998779297</ele>
        <time>2011-04-25T09:39:08Z</time>
      </trkpt>
      <trkpt lat="45.20702" lon="5.12612">
        <ele>433.39999389648</ele>
        <time>2011-04-25T09:39:11Z</time>
      </trkpt>
      <trkpt lat="45.20697" lon="5.12599">
        <ele>433.5</ele>
        <time>2011-04-25T09:39:14Z</time>
      </trkpt>
      <trkpt lat="45.20683" lon="5.12532">
        <ele>440.20001220703</ele>
        <time>2011-04-25T09:39:39Z</time>
      </trkpt>
      <trkpt lat="45.20685" lon="5.12526">
        <ele>440.89999389648</ele>
        <time>2011-04-25T09:39:42Z</time>
      </trkpt>
      <trkpt lat="45.20687" lon="5.1252">
        <ele>440.39999389648</ele>
        <time>2011-04-25T09:39:45Z</time>
      </trkpt>
      <trkpt lat="45.2069" lon="5.1251">
        <ele>441.10000610352</ele>
        <time>2011-04-25T09:39:48Z</time>
      </trkpt>
      <trkpt lat="45.20688" lon="5.12504">
        <ele>442.29998779297</ele>
        <time>2011-04-25T09:39:51Z</time>
      </trkpt>
      <trkpt lat="45.20687" lon="5.12493">
        <ele>443.29998779297</ele>
        <time>2011-04-25T09:39:54Z</time>
      </trkpt>
      <trkpt lat="45.20684" lon="5.12481">
        <ele>443.79998779297</ele>
        <time>2011-04-25T09:39:57Z</time>
      </trkpt>
      <trkpt lat="45.20682" lon="5.12469">
        <ele>445.70001220703</ele>
        <time>2011-04-25T09:40:01Z</time>
      </trkpt>
      <trkpt lat="45.20682" lon="5.12464">
        <ele>444.79998779297</ele>
        <time>2011-04-25T09:40:04Z</time>
      </trkpt>
      <trkpt lat="45.20685" lon="5.1247">
        <ele>448.89999389648</ele>
        <time>2011-04-25T09:40:07Z</time>
      </trkpt>
      <trkpt lat="45.20683" lon="5.12419">
        <ele>449.89999389648</ele>
        <time>2011-04-25T09:40:31Z</time>
      </trkpt>
      <trkpt lat="45.20683" lon="5.12413">
        <ele>449.70001220703</ele>
        <time>2011-04-25T09:40:35Z</time>
      </trkpt>
      <trkpt lat="45.20678" lon="5.12378">
        <ele>448.79998779297</ele>
        <time>2011-04-25T09:40:50Z</time>
      </trkpt>
      <trkpt lat="45.20677" lon="5.12371">
        <ele>449.60000610352</ele>
        <time>2011-04-25T09:40:53Z</time>
      </trkpt>
      <trkpt lat="45.20673" lon="5.12357">
        <ele>449.29998779297</ele>
        <time>2011-04-25T09:40:56Z</time>
      </trkpt>
      <trkpt lat="45.20672" lon="5.12309">
        <ele>452.79998779297</ele>
        <time>2011-04-25T09:41:27Z</time>
      </trkpt>
      <trkpt lat="45.2067" lon="5.12293">
        <ele>453.39999389648</ele>
        <time>2011-04-25T09:41:30Z</time>
      </trkpt>
      <trkpt lat="45.2067" lon="5.12292">
        <ele>454</ele>
        <time>2011-04-25T09:41:33Z</time>
      </trkpt>
      <trkpt lat="45.20666" lon="5.12273">
        <ele>454.5</ele>
        <time>2011-04-25T09:41:36Z</time>
      </trkpt>
      <trkpt lat="45.20664" lon="5.12258">
        <ele>454.29998779297</ele>
        <time>2011-04-25T09:41:39Z</time>
      </trkpt>
      <trkpt lat="45.20663" lon="5.12243">
        <ele>454.20001220703</ele>
        <time>2011-04-25T09:41:43Z</time>
      </trkpt>
      <trkpt lat="45.20659" lon="5.12229">
        <ele>455.20001220703</ele>
        <time>2011-04-25T09:41:46Z</time>
      </trkpt>
      <trkpt lat="45.20659" lon="5.1222">
        <ele>455.39999389648</ele>
        <time>2011-04-25T09:41:49Z</time>
      </trkpt>
      <trkpt lat="45.20655" lon="5.12211">
        <ele>457</ele>
        <time>2011-04-25T09:41:52Z</time>
      </trkpt>
      <trkpt lat="45.2065" lon="5.12186">
        <ele>458.10000610352</ele>
        <time>2011-04-25T09:41:55Z</time>
      </trkpt>
      <trkpt lat="45.20664" lon="5.12147">
        <ele>457.70001220703</ele>
        <time>2011-04-25T09:42:13Z</time>
      </trkpt>
      <trkpt lat="45.20664" lon="5.12126">
        <ele>457.89999389648</ele>
        <time>2011-04-25T09:42:17Z</time>
      </trkpt>
      <trkpt lat="45.20657" lon="5.12098">
        <ele>458.39999389648</ele>
        <time>2011-04-25T09:42:20Z</time>
      </trkpt>
      <trkpt lat="45.2065" lon="5.12069">
        <ele>457.29998779297</ele>
        <time>2011-04-25T09:42:23Z</time>
      </trkpt>
      <trkpt lat="45.20637" lon="5.12059">
        <ele>457.10000610352</ele>
        <time>2011-04-25T09:42:26Z</time>
      </trkpt>
      <trkpt lat="45.20611" lon="5.12047">
        <ele>457.10000610352</ele>
        <time>2011-04-25T09:42:29Z</time>
      </trkpt>
      <trkpt lat="45.20506" lon="5.11992">
        <ele>459.70001220703</ele>
        <time>2011-04-25T09:42:41Z</time>
      </trkpt>
      <trkpt lat="45.20488" lon="5.11984">
        <ele>459.20001220703</ele>
        <time>2011-04-25T09:42:44Z</time>
      </trkpt>
      <trkpt lat="45.20472" lon="5.1198">
        <ele>459.5</ele>
        <time>2011-04-25T09:42:47Z</time>
      </trkpt>
      <trkpt lat="45.20444" lon="5.11982">
        <ele>460.89999389648</ele>
        <time>2011-04-25T09:42:51Z</time>
      </trkpt>
      <trkpt lat="45.2042" lon="5.11988">
        <ele>461.60000610352</ele>
        <time>2011-04-25T09:42:54Z</time>
      </trkpt>
      <trkpt lat="45.20365" lon="5.1199">
        <ele>460.10000610352</ele>
        <time>2011-04-25T09:43:00Z</time>
      </trkpt>
      <trkpt lat="45.20334" lon="5.11988">
        <ele>460.10000610352</ele>
        <time>2011-04-25T09:43:03Z</time>
      </trkpt>
      <trkpt lat="45.20309" lon="5.11984">
        <ele>460.5</ele>
        <time>2011-04-25T09:43:06Z</time>
      </trkpt>
      <trkpt lat="45.20303" lon="5.11961">
        <ele>459.39999389648</ele>
        <time>2011-04-25T09:43:09Z</time>
      </trkpt>
      <trkpt lat="45.20291" lon="5.11942">
        <ele>459</ele>
        <time>2011-04-25T09:43:12Z</time>
      </trkpt>
      <trkpt lat="45.20115" lon="5.11709">
        <ele>456.20001220703</ele>
        <time>2011-04-25T09:43:52Z</time>
      </trkpt>
      <trkpt lat="45.20093" lon="5.11691">
        <ele>456.5</ele>
        <time>2011-04-25T09:43:55Z</time>
      </trkpt>
      <trkpt lat="45.19795" lon="5.11464">
        <ele>452.60000610352</ele>
        <time>2011-04-25T09:44:42Z</time>
      </trkpt>
      <trkpt lat="45.1977" lon="5.11455">
        <ele>453.20001220703</ele>
        <time>2011-04-25T09:44:45Z</time>
      </trkpt>
      <trkpt lat="45.19749" lon="5.11451">
        <ele>453.39999389648</ele>
        <time>2011-04-25T09:44:48Z</time>
      </trkpt>
      <trkpt lat="45.19732" lon="5.1145">
        <ele>452.5</ele>
        <time>2011-04-25T09:44:51Z</time>
      </trkpt>
      <trkpt lat="45.19721" lon="5.11447">
        <ele>452.70001220703</ele>
        <time>2011-04-25T09:44:54Z</time>
      </trkpt>
      <trkpt lat="45.19714" lon="5.11436">
        <ele>451.70001220703</ele>
        <time>2011-04-25T09:44:57Z</time>
      </trkpt>
      <trkpt lat="45.19707" lon="5.11428">
        <ele>451</ele>
        <time>2011-04-25T09:45:00Z</time>
      </trkpt>
      <trkpt lat="45.19705" lon="5.11419">
        <ele>450.60000610352</ele>
        <time>2011-04-25T09:45:03Z</time>
      </trkpt>
      <trkpt lat="45.19702" lon="5.11409">
        <ele>449.89999389648</ele>
        <time>2011-04-25T09:45:07Z</time>
      </trkpt>
      <trkpt lat="45.19712" lon="5.11404">
        <ele>447.79998779297</ele>
        <time>2011-04-25T09:45:10Z</time>
      </trkpt>
      <trkpt lat="45.19715" lon="5.11399">
        <ele>447.89999389648</ele>
        <time>2011-04-25T09:45:13Z</time>
      </trkpt>
      <trkpt lat="45.19741" lon="5.11368">
        <ele>446.39999389648</ele>
        <time>2011-04-25T09:45:25Z</time>
      </trkpt>
      <trkpt lat="45.19735" lon="5.11362">
        <ele>446.29998779297</ele>
        <time>2011-04-25T09:45:28Z</time>
      </trkpt>
      <trkpt lat="45.19742" lon="5.11358">
        <ele>445.79998779297</ele>
        <time>2011-04-25T09:45:31Z</time>
      </trkpt>
      <trkpt lat="45.19746" lon="5.11349">
        <ele>445.5</ele>
        <time>2011-04-25T09:45:34Z</time>
      </trkpt>
      <trkpt lat="45.19749" lon="5.11347">
        <ele>446.5</ele>
        <time>2011-04-25T09:45:37Z</time>
      </trkpt>
      <trkpt lat="45.19753" lon="5.11347">
        <ele>446.70001220703</ele>
        <time>2011-04-25T09:45:41Z</time>
      </trkpt>
      <trkpt lat="45.19766" lon="5.11346">
        <ele>445.60000610352</ele>
        <time>2011-04-25T09:45:44Z</time>
      </trkpt>
      <trkpt lat="45.19764" lon="5.11345">
        <ele>442.60000610352</ele>
        <time>2011-04-25T09:45:47Z</time>
      </trkpt>
      <trkpt lat="45.19762" lon="5.11345">
        <ele>442.29998779297</ele>
        <time>2011-04-25T09:45:50Z</time>
      </trkpt>
      <trkpt lat="45.19762" lon="5.11345">
        <ele>443.29998779297</ele>
        <time>2011-04-25T09:45:53Z</time>
      </trkpt>
      <trkpt lat="45.19762" lon="5.11346">
        <ele>441.39999389648</ele>
        <time>2011-04-25T09:45:56Z</time>
      </trkpt>
    </trkseg>
  </trk>
</gpx>